<?xml version="1.0" encoding="UTF-8" standalone="no" ?><gpx xmlns="http://www.topografix.com/GPX/1/1" xmlns:gpxx="http://www.garmin.com/xmlschemas/GpxExtensions/v3" xmlns:wptx1="http://www.garmin.com/xmlschemas/WaypointExtension/v1" xmlns:gpxtpx="http://www.garmin.com/xmlschemas/TrackPointExtension/v1" creator="GuideVTT.com" version="1.1" xmlns:xsi="http://www.w3.org/2001/XMLSchema-instance" xsi:schemaLocation="http://www.topografix.com/GPX/1/1 http://www.topografix.com/GPX/1/1/gpx.xsd http://www.garmin.com/xmlschemas/GpxExtensions/v3 http://www8.garmin.com/xmlschemas/GpxExtensionsv3.xsd http://www.garmin.com/xmlschemas/WaypointExtension/v1 http://www8.garmin.com/xmlschemas/WaypointExtensionv1.xsd http://www.garmin.com/xmlschemas/TrackPointExtension/v1 http://www.garmin.com/xmlschemas/TrackPointExtensionv1.xsd">
<metadata><link href="http://www.garmin.com"><text>Garmin International</text></link><time>2013-06-22T15:13:50Z</time></metadata>
<trk><name>23_janvier_2009_pm3.gpx</name><extensions><gpxx:TrackExtension><gpxx:DisplayColor>Cyan</gpxx:DisplayColor></gpxx:TrackExtension></extensions><trkseg>
<trkpt lat="48.11461100" lon="-72.24325740"><ele></ele><time>2014-6-24T22:46:12Z</time></trkpt>
<trkpt lat="48.11461140" lon="-72.24326340"><ele></ele><time>2014-6-24T22:46:15Z</time></trkpt>
<trkpt lat="48.11461170" lon="-72.24326660"><ele></ele><time>2014-6-24T22:46:18Z</time></trkpt>
<trkpt lat="48.11461170" lon="-72.24326660"><ele></ele><time>2014-6-24T22:46:21Z</time></trkpt>
<trkpt lat="48.11461210" lon="-72.24327130"><ele></ele><time>2014-6-24T22:46:24Z</time></trkpt>
<trkpt lat="48.11461230" lon="-72.24327350"><ele></ele><time>2014-6-24T22:46:27Z</time></trkpt>
<trkpt lat="48.11461230" lon="-72.24327350"><ele></ele><time>2014-6-24T22:46:30Z</time></trkpt>
<trkpt lat="48.11461250" lon="-72.24327580"><ele></ele><time>2014-6-24T22:46:33Z</time></trkpt>
<trkpt lat="48.11461260" lon="-72.24327560"><ele></ele><time>2014-6-24T22:46:36Z</time></trkpt>
<trkpt lat="48.11461220" lon="-72.24327410"><ele></ele><time>2014-6-24T22:46:39Z</time></trkpt>
<trkpt lat="48.11461190" lon="-72.24327360"><ele></ele><time>2014-6-24T22:46:42Z</time></trkpt>
<trkpt lat="48.11461190" lon="-72.24327360"><ele></ele><time>2014-6-24T22:46:45Z</time></trkpt>
<trkpt lat="48.11461140" lon="-72.24327100"><ele></ele><time>2014-6-24T22:46:48Z</time></trkpt>
<trkpt lat="48.11461110" lon="-72.24326920"><ele></ele><time>2014-6-24T22:46:51Z</time></trkpt>
<trkpt lat="48.11461110" lon="-72.24326920"><ele></ele><time>2014-6-24T22:46:54Z</time></trkpt>
<trkpt lat="48.11461110" lon="-72.24326920"><ele></ele><time>2014-6-24T22:46:57Z</time></trkpt>
<trkpt lat="48.11460890" lon="-72.24326180"><ele></ele><time>2014-6-24T22:47:0Z</time></trkpt>
<trkpt lat="48.11460780" lon="-72.24325850"><ele></ele><time>2014-6-24T22:47:3Z</time></trkpt>
<trkpt lat="48.11460410" lon="-72.24325510"><ele></ele><time>2014-6-24T22:47:6Z</time></trkpt>
<trkpt lat="48.11460010" lon="-72.24325340"><ele></ele><time>2014-6-24T22:47:9Z</time></trkpt>
<trkpt lat="48.11459720" lon="-72.24325120"><ele></ele><time>2014-6-24T22:47:12Z</time></trkpt>
<trkpt lat="48.11458980" lon="-72.24324600"><ele></ele><time>2014-6-24T22:47:15Z</time></trkpt>
<trkpt lat="48.11458980" lon="-72.24324600"><ele></ele><time>2014-6-24T22:47:18Z</time></trkpt>
<trkpt lat="48.11458980" lon="-72.24324600"><ele></ele><time>2014-6-24T22:47:21Z</time></trkpt>
<trkpt lat="48.11457580" lon="-72.24325130"><ele></ele><time>2014-6-24T22:47:24Z</time></trkpt>
<trkpt lat="48.11457040" lon="-72.24325310"><ele></ele><time>2014-6-24T22:47:27Z</time></trkpt>
<trkpt lat="48.11456370" lon="-72.24325560"><ele></ele><time>2014-6-24T22:47:30Z</time></trkpt>
<trkpt lat="48.11455600" lon="-72.24325730"><ele></ele><time>2014-6-24T22:47:33Z</time></trkpt>
<trkpt lat="48.11454570" lon="-72.24325960"><ele></ele><time>2014-6-24T22:47:36Z</time></trkpt>
<trkpt lat="48.11453860" lon="-72.24325850"><ele></ele><time>2014-6-24T22:47:39Z</time></trkpt>
<trkpt lat="48.11453860" lon="-72.24325850"><ele></ele><time>2014-6-24T22:47:42Z</time></trkpt>
<trkpt lat="48.11452180" lon="-72.24325080"><ele></ele><time>2014-6-24T22:47:45Z</time></trkpt>
<trkpt lat="48.11451360" lon="-72.24324460"><ele></ele><time>2014-6-24T22:47:48Z</time></trkpt>
<trkpt lat="48.11451030" lon="-72.24324140"><ele></ele><time>2014-6-24T22:47:51Z</time></trkpt>
<trkpt lat="48.11451030" lon="-72.24324140"><ele></ele><time>2014-6-24T22:47:54Z</time></trkpt>
<trkpt lat="48.11450400" lon="-72.24323230"><ele></ele><time>2014-6-24T22:47:57Z</time></trkpt>
<trkpt lat="48.11450130" lon="-72.24322720"><ele></ele><time>2014-6-24T22:48:0Z</time></trkpt>
<trkpt lat="48.11450130" lon="-72.24322720"><ele></ele><time>2014-6-24T22:48:3Z</time></trkpt>
<trkpt lat="48.11449630" lon="-72.24321970"><ele></ele><time>2014-6-24T22:48:6Z</time></trkpt>
<trkpt lat="48.11449410" lon="-72.24321680"><ele></ele><time>2014-6-24T22:48:9Z</time></trkpt>
<trkpt lat="48.11449070" lon="-72.24320740"><ele></ele><time>2014-6-24T22:48:12Z</time></trkpt>
<trkpt lat="48.11449000" lon="-72.24320470"><ele></ele><time>2014-6-24T22:48:15Z</time></trkpt>
<trkpt lat="48.11448960" lon="-72.24320220"><ele></ele><time>2014-6-24T22:48:18Z</time></trkpt>
<trkpt lat="48.11448910" lon="-72.24319960"><ele></ele><time>2014-6-24T22:48:21Z</time></trkpt>
<trkpt lat="48.11448840" lon="-72.24319660"><ele></ele><time>2014-6-24T22:48:24Z</time></trkpt>
<trkpt lat="48.11448790" lon="-72.24319610"><ele></ele><time>2014-6-24T22:48:27Z</time></trkpt>
<trkpt lat="48.11448790" lon="-72.24319610"><ele></ele><time>2014-6-24T22:48:30Z</time></trkpt>
<trkpt lat="48.11448730" lon="-72.24319450"><ele></ele><time>2014-6-24T22:48:33Z</time></trkpt>
<trkpt lat="48.11448710" lon="-72.24319340"><ele></ele><time>2014-6-24T22:48:36Z</time></trkpt>
<trkpt lat="48.11448710" lon="-72.24319340"><ele></ele><time>2014-6-24T22:48:39Z</time></trkpt>
<trkpt lat="48.11448790" lon="-72.24319260"><ele></ele><time>2014-6-24T22:48:42Z</time></trkpt>
<trkpt lat="48.11448900" lon="-72.24319320"><ele></ele><time>2014-6-24T22:48:45Z</time></trkpt>
<trkpt lat="48.11448900" lon="-72.24319320"><ele></ele><time>2014-6-24T22:48:48Z</time></trkpt>
<trkpt lat="48.11449200" lon="-72.24319310"><ele></ele><time>2014-6-24T22:48:51Z</time></trkpt>
<trkpt lat="48.11449280" lon="-72.24319310"><ele></ele><time>2014-6-24T22:48:54Z</time></trkpt>
<trkpt lat="48.11449400" lon="-72.24319210"><ele></ele><time>2014-6-24T22:48:57Z</time></trkpt>
<trkpt lat="48.11449510" lon="-72.24319120"><ele></ele><time>2014-6-24T22:49:0Z</time></trkpt>
<trkpt lat="48.11449510" lon="-72.24319120"><ele></ele><time>2014-6-24T22:49:3Z</time></trkpt>
<trkpt lat="48.11449510" lon="-72.24319120"><ele></ele><time>2014-6-24T22:49:6Z</time></trkpt>
<trkpt lat="48.11449510" lon="-72.24319120"><ele></ele><time>2014-6-24T22:49:9Z</time></trkpt>
<trkpt lat="48.11449510" lon="-72.24319120"><ele></ele><time>2014-6-24T22:49:12Z</time></trkpt>
<trkpt lat="48.11449790" lon="-72.24319210"><ele></ele><time>2014-6-24T22:49:15Z</time></trkpt>
<trkpt lat="48.11449810" lon="-72.24319390"><ele></ele><time>2014-6-24T22:49:18Z</time></trkpt>
<trkpt lat="48.11449810" lon="-72.24319390"><ele></ele><time>2014-6-24T22:49:21Z</time></trkpt>
<trkpt lat="48.11449880" lon="-72.24319550"><ele></ele><time>2014-6-24T22:49:24Z</time></trkpt>
<trkpt lat="48.11449900" lon="-72.24319440"><ele></ele><time>2014-6-24T22:49:27Z</time></trkpt>
<trkpt lat="48.11449900" lon="-72.24319440"><ele></ele><time>2014-6-24T22:49:30Z</time></trkpt>
<trkpt lat="48.11449940" lon="-72.24319000"><ele></ele><time>2014-6-24T22:49:33Z</time></trkpt>
<trkpt lat="48.11449930" lon="-72.24318780"><ele></ele><time>2014-6-24T22:49:36Z</time></trkpt>
<trkpt lat="48.11449670" lon="-72.24318260"><ele></ele><time>2014-6-24T22:49:39Z</time></trkpt>
<trkpt lat="48.11449670" lon="-72.24318260"><ele></ele><time>2014-6-24T22:49:42Z</time></trkpt>
<trkpt lat="48.11449660" lon="-72.24317760"><ele></ele><time>2014-6-24T22:49:45Z</time></trkpt>
<trkpt lat="48.11449660" lon="-72.24317470"><ele></ele><time>2014-6-24T22:49:48Z</time></trkpt>
<trkpt lat="48.11449720" lon="-72.24317240"><ele></ele><time>2014-6-24T22:49:51Z</time></trkpt>
<trkpt lat="48.11449810" lon="-72.24317100"><ele></ele><time>2014-6-24T22:49:54Z</time></trkpt>
<trkpt lat="48.11449900" lon="-72.24316980"><ele></ele><time>2014-6-24T22:49:57Z</time></trkpt>
<trkpt lat="48.11450000" lon="-72.24316820"><ele></ele><time>2014-6-24T22:50:0Z</time></trkpt>
<trkpt lat="48.11450420" lon="-72.24316110"><ele></ele><time>2014-6-24T22:50:3Z</time></trkpt>
<trkpt lat="48.11450560" lon="-72.24315820"><ele></ele><time>2014-6-24T22:50:6Z</time></trkpt>
<trkpt lat="48.11450700" lon="-72.24315530"><ele></ele><time>2014-6-24T22:50:9Z</time></trkpt>
<trkpt lat="48.11450850" lon="-72.24315270"><ele></ele><time>2014-6-24T22:50:12Z</time></trkpt>
<trkpt lat="48.11450980" lon="-72.24315000"><ele></ele><time>2014-6-24T22:50:15Z</time></trkpt>
<trkpt lat="48.11451240" lon="-72.24314480"><ele></ele><time>2014-6-24T22:50:18Z</time></trkpt>
<trkpt lat="48.11451390" lon="-72.24314240"><ele></ele><time>2014-6-24T22:50:21Z</time></trkpt>
<trkpt lat="48.11451540" lon="-72.24314000"><ele></ele><time>2014-6-24T22:50:24Z</time></trkpt>
<trkpt lat="48.11451680" lon="-72.24313760"><ele></ele><time>2014-6-24T22:50:27Z</time></trkpt>
<trkpt lat="48.11452250" lon="-72.24313100"><ele></ele><time>2014-6-24T22:50:30Z</time></trkpt>
<trkpt lat="48.11452450" lon="-72.24312950"><ele></ele><time>2014-6-24T22:50:33Z</time></trkpt>
<trkpt lat="48.11452640" lon="-72.24312850"><ele></ele><time>2014-6-24T22:50:36Z</time></trkpt>
<trkpt lat="48.11452810" lon="-72.24312750"><ele></ele><time>2014-6-24T22:50:39Z</time></trkpt>
<trkpt lat="48.11453110" lon="-72.24312580"><ele></ele><time>2014-6-24T22:50:42Z</time></trkpt>
<trkpt lat="48.11453350" lon="-72.24312390"><ele></ele><time>2014-6-24T22:50:45Z</time></trkpt>
<trkpt lat="48.11453450" lon="-72.24312270"><ele></ele><time>2014-6-24T22:50:48Z</time></trkpt>
<trkpt lat="48.11453450" lon="-72.24312270"><ele></ele><time>2014-6-24T22:50:51Z</time></trkpt>
<trkpt lat="48.11453670" lon="-72.24311810"><ele></ele><time>2014-6-24T22:50:54Z</time></trkpt>
<trkpt lat="48.11453800" lon="-72.24311570"><ele></ele><time>2014-6-24T22:50:57Z</time></trkpt>
<trkpt lat="48.11453850" lon="-72.24311460"><ele></ele><time>2014-6-24T22:51:0Z</time></trkpt>
<trkpt lat="48.11453850" lon="-72.24311460"><ele></ele><time>2014-6-24T22:51:3Z</time></trkpt>
<trkpt lat="48.11453850" lon="-72.24311510"><ele></ele><time>2014-6-24T22:51:6Z</time></trkpt>
<trkpt lat="48.11453870" lon="-72.24311980"><ele></ele><time>2014-6-24T22:51:9Z</time></trkpt>
<trkpt lat="48.11453910" lon="-72.24312260"><ele></ele><time>2014-6-24T22:51:12Z</time></trkpt>
<trkpt lat="48.11453930" lon="-72.24312480"><ele></ele><time>2014-6-24T22:51:15Z</time></trkpt>
<trkpt lat="48.11453970" lon="-72.24312690"><ele></ele><time>2014-6-24T22:51:18Z</time></trkpt>
<trkpt lat="48.11454070" lon="-72.24313090"><ele></ele><time>2014-6-24T22:51:21Z</time></trkpt>
<trkpt lat="48.11454080" lon="-72.24313100"><ele></ele><time>2014-6-24T22:51:24Z</time></trkpt>
<trkpt lat="48.11454080" lon="-72.24313100"><ele></ele><time>2014-6-24T22:51:27Z</time></trkpt>
<trkpt lat="48.11454080" lon="-72.24313100"><ele></ele><time>2014-6-24T22:51:30Z</time></trkpt>
<trkpt lat="48.11454080" lon="-72.24313100"><ele></ele><time>2014-6-24T22:51:33Z</time></trkpt>
<trkpt lat="48.11454010" lon="-72.24313340"><ele></ele><time>2014-6-24T22:51:36Z</time></trkpt>
<trkpt lat="48.11454000" lon="-72.24313550"><ele></ele><time>2014-6-24T22:51:39Z</time></trkpt>
<trkpt lat="48.11453990" lon="-72.24313710"><ele></ele><time>2014-6-24T22:51:42Z</time></trkpt>
<trkpt lat="48.11453970" lon="-72.24313920"><ele></ele><time>2014-6-24T22:51:45Z</time></trkpt>
<trkpt lat="48.11453940" lon="-72.24314090"><ele></ele><time>2014-6-24T22:51:48Z</time></trkpt>
<trkpt lat="48.11453940" lon="-72.24314090"><ele></ele><time>2014-6-24T22:51:51Z</time></trkpt>
<trkpt lat="48.11453750" lon="-72.24314790"><ele></ele><time>2014-6-24T22:51:54Z</time></trkpt>
<trkpt lat="48.11453700" lon="-72.24314980"><ele></ele><time>2014-6-24T22:51:57Z</time></trkpt>
<trkpt lat="48.11453620" lon="-72.24315160"><ele></ele><time>2014-6-24T22:52:0Z</time></trkpt>
<trkpt lat="48.11453550" lon="-72.24315350"><ele></ele><time>2014-6-24T22:52:3Z</time></trkpt>
<trkpt lat="48.11453390" lon="-72.24315720"><ele></ele><time>2014-6-24T22:52:6Z</time></trkpt>
<trkpt lat="48.11453300" lon="-72.24315890"><ele></ele><time>2014-6-24T22:52:9Z</time></trkpt>
<trkpt lat="48.11453220" lon="-72.24316030"><ele></ele><time>2014-6-24T22:52:12Z</time></trkpt>
<trkpt lat="48.11453140" lon="-72.24316110"><ele></ele><time>2014-6-24T22:52:15Z</time></trkpt>
<trkpt lat="48.11453060" lon="-72.24316190"><ele></ele><time>2014-6-24T22:52:18Z</time></trkpt>
<trkpt lat="48.11452980" lon="-72.24316300"><ele></ele><time>2014-6-24T22:52:21Z</time></trkpt>
<trkpt lat="48.11452750" lon="-72.24316890"><ele></ele><time>2014-6-24T22:52:24Z</time></trkpt>
<trkpt lat="48.11452690" lon="-72.24317210"><ele></ele><time>2014-6-24T22:52:27Z</time></trkpt>
<trkpt lat="48.11452550" lon="-72.24317490"><ele></ele><time>2014-6-24T22:52:30Z</time></trkpt>
<trkpt lat="48.11451950" lon="-72.24317720"><ele></ele><time>2014-6-24T22:52:33Z</time></trkpt>
<trkpt lat="48.11450430" lon="-72.24317940"><ele></ele><time>2014-6-24T22:52:36Z</time></trkpt>
<trkpt lat="48.11449980" lon="-72.24317950"><ele></ele><time>2014-6-24T22:52:39Z</time></trkpt>
<trkpt lat="48.11449610" lon="-72.24317920"><ele></ele><time>2014-6-24T22:52:42Z</time></trkpt>
<trkpt lat="48.11449240" lon="-72.24317900"><ele></ele><time>2014-6-24T22:52:45Z</time></trkpt>
<trkpt lat="48.11448250" lon="-72.24317680"><ele></ele><time>2014-6-24T22:52:48Z</time></trkpt>
<trkpt lat="48.11448250" lon="-72.24317680"><ele></ele><time>2014-6-24T22:52:51Z</time></trkpt>
<trkpt lat="48.11447760" lon="-72.24317450"><ele></ele><time>2014-6-24T22:52:54Z</time></trkpt>
<trkpt lat="48.11447570" lon="-72.24317290"><ele></ele><time>2014-6-24T22:52:57Z</time></trkpt>
<trkpt lat="48.11447570" lon="-72.24317290"><ele></ele><time>2014-6-24T22:53:0Z</time></trkpt>
<trkpt lat="48.11446950" lon="-72.24316790"><ele></ele><time>2014-6-24T22:53:3Z</time></trkpt>
<trkpt lat="48.11446830" lon="-72.24316690"><ele></ele><time>2014-6-24T22:53:6Z</time></trkpt>
<trkpt lat="48.11446720" lon="-72.24316590"><ele></ele><time>2014-6-24T22:53:9Z</time></trkpt>
<trkpt lat="48.11446630" lon="-72.24316470"><ele></ele><time>2014-6-24T22:53:12Z</time></trkpt>
<trkpt lat="48.11446550" lon="-72.24316350"><ele></ele><time>2014-6-24T22:53:15Z</time></trkpt>
<trkpt lat="48.11446490" lon="-72.24316280"><ele></ele><time>2014-6-24T22:53:18Z</time></trkpt>
<trkpt lat="48.11446440" lon="-72.24316200"><ele></ele><time>2014-6-24T22:53:21Z</time></trkpt>
<trkpt lat="48.11446380" lon="-72.24316020"><ele></ele><time>2014-6-24T22:53:24Z</time></trkpt>
<trkpt lat="48.11446310" lon="-72.24315940"><ele></ele><time>2014-6-24T22:53:27Z</time></trkpt>
<trkpt lat="48.11446310" lon="-72.24315940"><ele></ele><time>2014-6-24T22:53:30Z</time></trkpt>
<trkpt lat="48.11446310" lon="-72.24315940"><ele></ele><time>2014-6-24T22:53:33Z</time></trkpt>
<trkpt lat="48.11446310" lon="-72.24315940"><ele></ele><time>2014-6-24T22:53:36Z</time></trkpt>
<trkpt lat="48.11445960" lon="-72.24315640"><ele></ele><time>2014-6-24T22:53:39Z</time></trkpt>
<trkpt lat="48.11445790" lon="-72.24315570"><ele></ele><time>2014-6-24T22:53:42Z</time></trkpt>
<trkpt lat="48.11445630" lon="-72.24315510"><ele></ele><time>2014-6-24T22:53:45Z</time></trkpt>
<trkpt lat="48.11445470" lon="-72.24315410"><ele></ele><time>2014-6-24T22:53:48Z</time></trkpt>
<trkpt lat="48.11445220" lon="-72.24315200"><ele></ele><time>2014-6-24T22:53:51Z</time></trkpt>
<trkpt lat="48.11445180" lon="-72.24315120"><ele></ele><time>2014-6-24T22:53:54Z</time></trkpt>
<trkpt lat="48.11445130" lon="-72.24315040"><ele></ele><time>2014-6-24T22:53:57Z</time></trkpt>
<trkpt lat="48.11445090" lon="-72.24314970"><ele></ele><time>2014-6-24T22:54:0Z</time></trkpt>
<trkpt lat="48.11445080" lon="-72.24314950"><ele></ele><time>2014-6-24T22:54:3Z</time></trkpt>
<trkpt lat="48.11445090" lon="-72.24314890"><ele></ele><time>2014-6-24T22:54:6Z</time></trkpt>
<trkpt lat="48.11445100" lon="-72.24314860"><ele></ele><time>2014-6-24T22:54:9Z</time></trkpt>
<trkpt lat="48.11445130" lon="-72.24314840"><ele></ele><time>2014-6-24T22:54:12Z</time></trkpt>
<trkpt lat="48.11445150" lon="-72.24314830"><ele></ele><time>2014-6-24T22:54:15Z</time></trkpt>
<trkpt lat="48.11445170" lon="-72.24314810"><ele></ele><time>2014-6-24T22:54:18Z</time></trkpt>
<trkpt lat="48.11445180" lon="-72.24314790"><ele></ele><time>2014-6-24T22:54:21Z</time></trkpt>
<trkpt lat="48.11445180" lon="-72.24314790"><ele></ele><time>2014-6-24T22:54:24Z</time></trkpt>
<trkpt lat="48.11445180" lon="-72.24314790"><ele></ele><time>2014-6-24T22:54:27Z</time></trkpt>
<trkpt lat="48.11445180" lon="-72.24314740"><ele></ele><time>2014-6-24T22:54:30Z</time></trkpt>
<trkpt lat="48.11445170" lon="-72.24314710"><ele></ele><time>2014-6-24T22:54:33Z</time></trkpt>
<trkpt lat="48.11445170" lon="-72.24314670"><ele></ele><time>2014-6-24T22:54:36Z</time></trkpt>
<trkpt lat="48.11445170" lon="-72.24314610"><ele></ele><time>2014-6-24T22:54:39Z</time></trkpt>
<trkpt lat="48.11445190" lon="-72.24314550"><ele></ele><time>2014-6-24T22:54:42Z</time></trkpt>
<trkpt lat="48.11445200" lon="-72.24314470"><ele></ele><time>2014-6-24T22:54:45Z</time></trkpt>
<trkpt lat="48.11445220" lon="-72.24314400"><ele></ele><time>2014-6-24T22:54:48Z</time></trkpt>
<trkpt lat="48.11445270" lon="-72.24314330"><ele></ele><time>2014-6-24T22:54:51Z</time></trkpt>
<trkpt lat="48.11445320" lon="-72.24314270"><ele></ele><time>2014-6-24T22:54:54Z</time></trkpt>
<trkpt lat="48.11445440" lon="-72.24314160"><ele></ele><time>2014-6-24T22:54:57Z</time></trkpt>
<trkpt lat="48.11445510" lon="-72.24314120"><ele></ele><time>2014-6-24T22:55:0Z</time></trkpt>
<trkpt lat="48.11445580" lon="-72.24314110"><ele></ele><time>2014-6-24T22:55:3Z</time></trkpt>
<trkpt lat="48.11445640" lon="-72.24314110"><ele></ele><time>2014-6-24T22:55:6Z</time></trkpt>
<trkpt lat="48.11445700" lon="-72.24314130"><ele></ele><time>2014-6-24T22:55:9Z</time></trkpt>
<trkpt lat="48.11445790" lon="-72.24314160"><ele></ele><time>2014-6-24T22:55:12Z</time></trkpt>
<trkpt lat="48.11445900" lon="-72.24314220"><ele></ele><time>2014-6-24T22:55:15Z</time></trkpt>
<trkpt lat="48.11446010" lon="-72.24314280"><ele></ele><time>2014-6-24T22:55:18Z</time></trkpt>
<trkpt lat="48.11446120" lon="-72.24314350"><ele></ele><time>2014-6-24T22:55:21Z</time></trkpt>
<trkpt lat="48.11446410" lon="-72.24314640"><ele></ele><time>2014-6-24T22:55:24Z</time></trkpt>
<trkpt lat="48.11446470" lon="-72.24314740"><ele></ele><time>2014-6-24T22:55:27Z</time></trkpt>
<trkpt lat="48.11446510" lon="-72.24314830"><ele></ele><time>2014-6-24T22:55:30Z</time></trkpt>
<trkpt lat="48.11446530" lon="-72.24314870"><ele></ele><time>2014-6-24T22:55:33Z</time></trkpt>
<trkpt lat="48.11446660" lon="-72.24314980"><ele></ele><time>2014-6-24T22:55:36Z</time></trkpt>
<trkpt lat="48.11446760" lon="-72.24315040"><ele></ele><time>2014-6-24T22:55:39Z</time></trkpt>
<trkpt lat="48.11446850" lon="-72.24315090"><ele></ele><time>2014-6-24T22:55:42Z</time></trkpt>
<trkpt lat="48.11446940" lon="-72.24315120"><ele></ele><time>2014-6-24T22:55:45Z</time></trkpt>
<trkpt lat="48.11447000" lon="-72.24315140"><ele></ele><time>2014-6-24T22:55:48Z</time></trkpt>
<trkpt lat="48.11447140" lon="-72.24315150"><ele></ele><time>2014-6-24T22:55:51Z</time></trkpt>
<trkpt lat="48.11447270" lon="-72.24315120"><ele></ele><time>2014-6-24T22:55:54Z</time></trkpt>
<trkpt lat="48.11447330" lon="-72.24315100"><ele></ele><time>2014-6-24T22:55:57Z</time></trkpt>
<trkpt lat="48.11447390" lon="-72.24315070"><ele></ele><time>2014-6-24T22:56:0Z</time></trkpt>
<trkpt lat="48.11447460" lon="-72.24315040"><ele></ele><time>2014-6-24T22:56:3Z</time></trkpt>
<trkpt lat="48.11447540" lon="-72.24315010"><ele></ele><time>2014-6-24T22:56:6Z</time></trkpt>
<trkpt lat="48.11447630" lon="-72.24314970"><ele></ele><time>2014-6-24T22:56:9Z</time></trkpt>
<trkpt lat="48.11447720" lon="-72.24314950"><ele></ele><time>2014-6-24T22:56:12Z</time></trkpt>
<trkpt lat="48.11447830" lon="-72.24314970"><ele></ele><time>2014-6-24T22:56:15Z</time></trkpt>
<trkpt lat="48.11447980" lon="-72.24315310"><ele></ele><time>2014-6-24T22:56:18Z</time></trkpt>
<trkpt lat="48.11448100" lon="-72.24315510"><ele></ele><time>2014-6-24T22:56:21Z</time></trkpt>
<trkpt lat="48.11448180" lon="-72.24315600"><ele></ele><time>2014-6-24T22:56:24Z</time></trkpt>
<trkpt lat="48.11448230" lon="-72.24316030"><ele></ele><time>2014-6-24T22:56:27Z</time></trkpt>
<trkpt lat="48.11448230" lon="-72.24316160"><ele></ele><time>2014-6-24T22:56:30Z</time></trkpt>
<trkpt lat="48.11448160" lon="-72.24316410"><ele></ele><time>2014-6-24T22:56:33Z</time></trkpt>
<trkpt lat="48.11448140" lon="-72.24316530"><ele></ele><time>2014-6-24T22:56:36Z</time></trkpt>
<trkpt lat="48.11448140" lon="-72.24316660"><ele></ele><time>2014-6-24T22:56:39Z</time></trkpt>
<trkpt lat="48.11448130" lon="-72.24316760"><ele></ele><time>2014-6-24T22:56:42Z</time></trkpt>
<trkpt lat="48.11448120" lon="-72.24316890"><ele></ele><time>2014-6-24T22:56:45Z</time></trkpt>
<trkpt lat="48.11448100" lon="-72.24317000"><ele></ele><time>2014-6-24T22:56:48Z</time></trkpt>
<trkpt lat="48.11448050" lon="-72.24317220"><ele></ele><time>2014-6-24T22:56:51Z</time></trkpt>
<trkpt lat="48.11448040" lon="-72.24317300"><ele></ele><time>2014-6-24T22:56:54Z</time></trkpt>
<trkpt lat="48.11448010" lon="-72.24317390"><ele></ele><time>2014-6-24T22:56:57Z</time></trkpt>
<trkpt lat="48.11448000" lon="-72.24317400"><ele></ele><time>2014-6-24T22:57:0Z</time></trkpt>
<trkpt lat="48.11448000" lon="-72.24317350"><ele></ele><time>2014-6-24T22:57:3Z</time></trkpt>
<trkpt lat="48.11448000" lon="-72.24317290"><ele></ele><time>2014-6-24T22:57:6Z</time></trkpt>
<trkpt lat="48.11447980" lon="-72.24317220"><ele></ele><time>2014-6-24T22:57:9Z</time></trkpt>
<trkpt lat="48.11447950" lon="-72.24317150"><ele></ele><time>2014-6-24T22:57:12Z</time></trkpt>
<trkpt lat="48.11447920" lon="-72.24317100"><ele></ele><time>2014-6-24T22:57:15Z</time></trkpt>
<trkpt lat="48.11447880" lon="-72.24317030"><ele></ele><time>2014-6-24T22:57:18Z</time></trkpt>
<trkpt lat="48.11447800" lon="-72.24316850"><ele></ele><time>2014-6-24T22:57:21Z</time></trkpt>
<trkpt lat="48.11447750" lon="-72.24316730"><ele></ele><time>2014-6-24T22:57:24Z</time></trkpt>
<trkpt lat="48.11447650" lon="-72.24316520"><ele></ele><time>2014-6-24T22:57:27Z</time></trkpt>
<trkpt lat="48.11447610" lon="-72.24316440"><ele></ele><time>2014-6-24T22:57:30Z</time></trkpt>
<trkpt lat="48.11447320" lon="-72.24316320"><ele></ele><time>2014-6-24T22:57:33Z</time></trkpt>
<trkpt lat="48.11447210" lon="-72.24316220"><ele></ele><time>2014-6-24T22:57:36Z</time></trkpt>
<trkpt lat="48.11447040" lon="-72.24316130"><ele></ele><time>2014-6-24T22:57:39Z</time></trkpt>
<trkpt lat="48.11445850" lon="-72.24315480"><ele></ele><time>2014-6-24T22:57:42Z</time></trkpt>
<trkpt lat="48.11444060" lon="-72.24314780"><ele></ele><time>2014-6-24T22:57:45Z</time></trkpt>
<trkpt lat="48.11443430" lon="-72.24314670"><ele></ele><time>2014-6-24T22:57:48Z</time></trkpt>
<trkpt lat="48.11442930" lon="-72.24314710"><ele></ele><time>2014-6-24T22:57:51Z</time></trkpt>
<trkpt lat="48.11442470" lon="-72.24315040"><ele></ele><time>2014-6-24T22:57:54Z</time></trkpt>
<trkpt lat="48.11442060" lon="-72.24315500"><ele></ele><time>2014-6-24T22:57:57Z</time></trkpt>
<trkpt lat="48.11441710" lon="-72.24316070"><ele></ele><time>2014-6-24T22:58:0Z</time></trkpt>
<trkpt lat="48.11441360" lon="-72.24316700"><ele></ele><time>2014-6-24T22:58:3Z</time></trkpt>
<trkpt lat="48.11440870" lon="-72.24318180"><ele></ele><time>2014-6-24T22:58:6Z</time></trkpt>
<trkpt lat="48.11440660" lon="-72.24318980"><ele></ele><time>2014-6-24T22:58:9Z</time></trkpt>
<trkpt lat="48.11440490" lon="-72.24319990"><ele></ele><time>2014-6-24T22:58:12Z</time></trkpt>
<trkpt lat="48.11440220" lon="-72.24322000"><ele></ele><time>2014-6-24T22:58:15Z</time></trkpt>
<trkpt lat="48.11440020" lon="-72.24323070"><ele></ele><time>2014-6-24T22:58:18Z</time></trkpt>
<trkpt lat="48.11439900" lon="-72.24324570"><ele></ele><time>2014-6-24T22:58:21Z</time></trkpt>
<trkpt lat="48.11439830" lon="-72.24325990"><ele></ele><time>2014-6-24T22:58:24Z</time></trkpt>
<trkpt lat="48.11439880" lon="-72.24327310"><ele></ele><time>2014-6-24T22:58:27Z</time></trkpt>
<trkpt lat="48.11439990" lon="-72.24328600"><ele></ele><time>2014-6-24T22:58:30Z</time></trkpt>
<trkpt lat="48.11440250" lon="-72.24329900"><ele></ele><time>2014-6-24T22:58:33Z</time></trkpt>
<trkpt lat="48.11440630" lon="-72.24331120"><ele></ele><time>2014-6-24T22:58:36Z</time></trkpt>
<trkpt lat="48.11441010" lon="-72.24332280"><ele></ele><time>2014-6-24T22:58:39Z</time></trkpt>
<trkpt lat="48.11442270" lon="-72.24335690"><ele></ele><time>2014-6-24T22:58:42Z</time></trkpt>
<trkpt lat="48.11442610" lon="-72.24336740"><ele></ele><time>2014-6-24T22:58:45Z</time></trkpt>
<trkpt lat="48.11442920" lon="-72.24337730"><ele></ele><time>2014-6-24T22:58:48Z</time></trkpt>
<trkpt lat="48.11443630" lon="-72.24339590"><ele></ele><time>2014-6-24T22:58:51Z</time></trkpt>
<trkpt lat="48.11444080" lon="-72.24340510"><ele></ele><time>2014-6-24T22:58:54Z</time></trkpt>
<trkpt lat="48.11444560" lon="-72.24341360"><ele></ele><time>2014-6-24T22:58:57Z</time></trkpt>
<trkpt lat="48.11445080" lon="-72.24342240"><ele></ele><time>2014-6-24T22:59:0Z</time></trkpt>
<trkpt lat="48.11445650" lon="-72.24343190"><ele></ele><time>2014-6-24T22:59:3Z</time></trkpt>
<trkpt lat="48.11446230" lon="-72.24344120"><ele></ele><time>2014-6-24T22:59:6Z</time></trkpt>
<trkpt lat="48.11446750" lon="-72.24345010"><ele></ele><time>2014-6-24T22:59:9Z</time></trkpt>
<trkpt lat="48.11447760" lon="-72.24348590"><ele></ele><time>2014-6-24T22:59:12Z</time></trkpt>
<trkpt lat="48.11448020" lon="-72.24353970"><ele></ele><time>2014-6-24T22:59:15Z</time></trkpt>
<trkpt lat="48.11448010" lon="-72.24355600"><ele></ele><time>2014-6-24T22:59:18Z</time></trkpt>
<trkpt lat="48.11448010" lon="-72.24357860"><ele></ele><time>2014-6-24T22:59:21Z</time></trkpt>
<trkpt lat="48.11448000" lon="-72.24359580"><ele></ele><time>2014-6-24T22:59:24Z</time></trkpt>
<trkpt lat="48.11447950" lon="-72.24361350"><ele></ele><time>2014-6-24T22:59:27Z</time></trkpt>
<trkpt lat="48.11447860" lon="-72.24363130"><ele></ele><time>2014-6-24T22:59:30Z</time></trkpt>
<trkpt lat="48.11447740" lon="-72.24364890"><ele></ele><time>2014-6-24T22:59:33Z</time></trkpt>
<trkpt lat="48.11447150" lon="-72.24369970"><ele></ele><time>2014-6-24T22:59:36Z</time></trkpt>
<trkpt lat="48.11446880" lon="-72.24371500"><ele></ele><time>2014-6-24T22:59:39Z</time></trkpt>
<trkpt lat="48.11446250" lon="-72.24375800"><ele></ele><time>2014-6-24T22:59:42Z</time></trkpt>
<trkpt lat="48.11446070" lon="-72.24377170"><ele></ele><time>2014-6-24T22:59:45Z</time></trkpt>
<trkpt lat="48.11445910" lon="-72.24378520"><ele></ele><time>2014-6-24T22:59:48Z</time></trkpt>
<trkpt lat="48.11445880" lon="-72.24379860"><ele></ele><time>2014-6-24T22:59:51Z</time></trkpt>
<trkpt lat="48.11445950" lon="-72.24381270"><ele></ele><time>2014-6-24T22:59:54Z</time></trkpt>
<trkpt lat="48.11446050" lon="-72.24382650"><ele></ele><time>2014-6-24T22:59:57Z</time></trkpt>
<trkpt lat="48.11446170" lon="-72.24384020"><ele></ele><time>2014-6-24T23:0:0Z</time></trkpt>
<trkpt lat="48.11446470" lon="-72.24386640"><ele></ele><time>2014-6-24T23:0:3Z</time></trkpt>
<trkpt lat="48.11446630" lon="-72.24387890"><ele></ele><time>2014-6-24T23:0:6Z</time></trkpt>
<trkpt lat="48.11446830" lon="-72.24389160"><ele></ele><time>2014-6-24T23:0:9Z</time></trkpt>
<trkpt lat="48.11447450" lon="-72.24392980"><ele></ele><time>2014-6-24T23:0:12Z</time></trkpt>
<trkpt lat="48.11447570" lon="-72.24394180"><ele></ele><time>2014-6-24T23:0:15Z</time></trkpt>
<trkpt lat="48.11447690" lon="-72.24395440"><ele></ele><time>2014-6-24T23:0:18Z</time></trkpt>
<trkpt lat="48.11447810" lon="-72.24396750"><ele></ele><time>2014-6-24T23:0:21Z</time></trkpt>
<trkpt lat="48.11447860" lon="-72.24397960"><ele></ele><time>2014-6-24T23:0:24Z</time></trkpt>
<trkpt lat="48.11447910" lon="-72.24399280"><ele></ele><time>2014-6-24T23:0:27Z</time></trkpt>
<trkpt lat="48.11447900" lon="-72.24400670"><ele></ele><time>2014-6-24T23:0:30Z</time></trkpt>
<trkpt lat="48.11448340" lon="-72.24405770"><ele></ele><time>2014-6-24T23:0:33Z</time></trkpt>
<trkpt lat="48.11448540" lon="-72.24407880"><ele></ele><time>2014-6-24T23:0:36Z</time></trkpt>
<trkpt lat="48.11449560" lon="-72.24411890"><ele></ele><time>2014-6-24T23:0:39Z</time></trkpt>
<trkpt lat="48.11449860" lon="-72.24412840"><ele></ele><time>2014-6-24T23:0:42Z</time></trkpt>
<trkpt lat="48.11450080" lon="-72.24413640"><ele></ele><time>2014-6-24T23:0:45Z</time></trkpt>
<trkpt lat="48.11450300" lon="-72.24414300"><ele></ele><time>2014-6-24T23:0:48Z</time></trkpt>
<trkpt lat="48.11450530" lon="-72.24415070"><ele></ele><time>2014-6-24T23:0:51Z</time></trkpt>
<trkpt lat="48.11450810" lon="-72.24415950"><ele></ele><time>2014-6-24T23:0:54Z</time></trkpt>
<trkpt lat="48.11451150" lon="-72.24416950"><ele></ele><time>2014-6-24T23:0:57Z</time></trkpt>
<trkpt lat="48.11451460" lon="-72.24417970"><ele></ele><time>2014-6-24T23:1:0Z</time></trkpt>
<trkpt lat="48.11452840" lon="-72.24422610"><ele></ele><time>2014-6-24T23:1:3Z</time></trkpt>
<trkpt lat="48.11453200" lon="-72.24423830"><ele></ele><time>2014-6-24T23:1:6Z</time></trkpt>
<trkpt lat="48.11453990" lon="-72.24426190"><ele></ele><time>2014-6-24T23:1:9Z</time></trkpt>
<trkpt lat="48.11454380" lon="-72.24427460"><ele></ele><time>2014-6-24T23:1:12Z</time></trkpt>
<trkpt lat="48.11454810" lon="-72.24428660"><ele></ele><time>2014-6-24T23:1:15Z</time></trkpt>
<trkpt lat="48.11455200" lon="-72.24429850"><ele></ele><time>2014-6-24T23:1:18Z</time></trkpt>
<trkpt lat="48.11455620" lon="-72.24431050"><ele></ele><time>2014-6-24T23:1:21Z</time></trkpt>
<trkpt lat="48.11456030" lon="-72.24432270"><ele></ele><time>2014-6-24T23:1:24Z</time></trkpt>
<trkpt lat="48.11456410" lon="-72.24433500"><ele></ele><time>2014-6-24T23:1:27Z</time></trkpt>
<trkpt lat="48.11456820" lon="-72.24434710"><ele></ele><time>2014-6-24T23:1:30Z</time></trkpt>
<trkpt lat="48.11457250" lon="-72.24436020"><ele></ele><time>2014-6-24T23:1:33Z</time></trkpt>
<trkpt lat="48.11457590" lon="-72.24437340"><ele></ele><time>2014-6-24T23:1:36Z</time></trkpt>
<trkpt lat="48.11458240" lon="-72.24439900"><ele></ele><time>2014-6-24T23:1:39Z</time></trkpt>
<trkpt lat="48.11458510" lon="-72.24441170"><ele></ele><time>2014-6-24T23:1:42Z</time></trkpt>
<trkpt lat="48.11459460" lon="-72.24444880"><ele></ele><time>2014-6-24T23:1:45Z</time></trkpt>
<trkpt lat="48.11459780" lon="-72.24446010"><ele></ele><time>2014-6-24T23:1:48Z</time></trkpt>
<trkpt lat="48.11460090" lon="-72.24447130"><ele></ele><time>2014-6-24T23:1:51Z</time></trkpt>
<trkpt lat="48.11460400" lon="-72.24448190"><ele></ele><time>2014-6-24T23:1:54Z</time></trkpt>
<trkpt lat="48.11460690" lon="-72.24449310"><ele></ele><time>2014-6-24T23:1:57Z</time></trkpt>
<trkpt lat="48.11460970" lon="-72.24450470"><ele></ele><time>2014-6-24T23:2:0Z</time></trkpt>
<trkpt lat="48.11461260" lon="-72.24451660"><ele></ele><time>2014-6-24T23:2:3Z</time></trkpt>
<trkpt lat="48.11462180" lon="-72.24455750"><ele></ele><time>2014-6-24T23:2:6Z</time></trkpt>
<trkpt lat="48.11462450" lon="-72.24457310"><ele></ele><time>2014-6-24T23:2:9Z</time></trkpt>
<trkpt lat="48.11462650" lon="-72.24459010"><ele></ele><time>2014-6-24T23:2:12Z</time></trkpt>
<trkpt lat="48.11462850" lon="-72.24460810"><ele></ele><time>2014-6-24T23:2:15Z</time></trkpt>
<trkpt lat="48.11463200" lon="-72.24464580"><ele></ele><time>2014-6-24T23:2:18Z</time></trkpt>
<trkpt lat="48.11463350" lon="-72.24466490"><ele></ele><time>2014-6-24T23:2:21Z</time></trkpt>
<trkpt lat="48.11463510" lon="-72.24468350"><ele></ele><time>2014-6-24T23:2:24Z</time></trkpt>
<trkpt lat="48.11463640" lon="-72.24470280"><ele></ele><time>2014-6-24T23:2:27Z</time></trkpt>
<trkpt lat="48.11463720" lon="-72.24472220"><ele></ele><time>2014-6-24T23:2:30Z</time></trkpt>
<trkpt lat="48.11463790" lon="-72.24474210"><ele></ele><time>2014-6-24T23:2:33Z</time></trkpt>
<trkpt lat="48.11463850" lon="-72.24476170"><ele></ele><time>2014-6-24T23:2:36Z</time></trkpt>
<trkpt lat="48.11463930" lon="-72.24478160"><ele></ele><time>2014-6-24T23:2:39Z</time></trkpt>
<trkpt lat="48.11464090" lon="-72.24482090"><ele></ele><time>2014-6-24T23:2:42Z</time></trkpt>
<trkpt lat="48.11464190" lon="-72.24484020"><ele></ele><time>2014-6-24T23:2:45Z</time></trkpt>
<trkpt lat="48.11464250" lon="-72.24485960"><ele></ele><time>2014-6-24T23:2:48Z</time></trkpt>
<trkpt lat="48.11464340" lon="-72.24487890"><ele></ele><time>2014-6-24T23:2:51Z</time></trkpt>
<trkpt lat="48.11464600" lon="-72.24491780"><ele></ele><time>2014-6-24T23:2:54Z</time></trkpt>
<trkpt lat="48.11464720" lon="-72.24493700"><ele></ele><time>2014-6-24T23:2:57Z</time></trkpt>
<trkpt lat="48.11464830" lon="-72.24495570"><ele></ele><time>2014-6-24T23:3:0Z</time></trkpt>
<trkpt lat="48.11464890" lon="-72.24497460"><ele></ele><time>2014-6-24T23:3:3Z</time></trkpt>
<trkpt lat="48.11464930" lon="-72.24499360"><ele></ele><time>2014-6-24T23:3:6Z</time></trkpt>
<trkpt lat="48.11464960" lon="-72.24501340"><ele></ele><time>2014-6-24T23:3:9Z</time></trkpt>
<trkpt lat="48.11464970" lon="-72.24503360"><ele></ele><time>2014-6-24T23:3:12Z</time></trkpt>
<trkpt lat="48.11464990" lon="-72.24509370"><ele></ele><time>2014-6-24T23:3:15Z</time></trkpt>
<trkpt lat="48.11465000" lon="-72.24511370"><ele></ele><time>2014-6-24T23:3:18Z</time></trkpt>
<trkpt lat="48.11464940" lon="-72.24517460"><ele></ele><time>2014-6-24T23:3:21Z</time></trkpt>
<trkpt lat="48.11464880" lon="-72.24519490"><ele></ele><time>2014-6-24T23:3:24Z</time></trkpt>
<trkpt lat="48.11464800" lon="-72.24521520"><ele></ele><time>2014-6-24T23:3:27Z</time></trkpt>
<trkpt lat="48.11464720" lon="-72.24523560"><ele></ele><time>2014-6-24T23:3:30Z</time></trkpt>
<trkpt lat="48.11464640" lon="-72.24525590"><ele></ele><time>2014-6-24T23:3:33Z</time></trkpt>
<trkpt lat="48.11464590" lon="-72.24527650"><ele></ele><time>2014-6-24T23:3:36Z</time></trkpt>
<trkpt lat="48.11464530" lon="-72.24529640"><ele></ele><time>2014-6-24T23:3:39Z</time></trkpt>
<trkpt lat="48.11464020" lon="-72.24535570"><ele></ele><time>2014-6-24T23:3:42Z</time></trkpt>
<trkpt lat="48.11463800" lon="-72.24537510"><ele></ele><time>2014-6-24T23:3:45Z</time></trkpt>
<trkpt lat="48.11463280" lon="-72.24541240"><ele></ele><time>2014-6-24T23:3:48Z</time></trkpt>
<trkpt lat="48.11463000" lon="-72.24543140"><ele></ele><time>2014-6-24T23:3:51Z</time></trkpt>
<trkpt lat="48.11462680" lon="-72.24545030"><ele></ele><time>2014-6-24T23:3:54Z</time></trkpt>
<trkpt lat="48.11462320" lon="-72.24546950"><ele></ele><time>2014-6-24T23:3:57Z</time></trkpt>
<trkpt lat="48.11461900" lon="-72.24548860"><ele></ele><time>2014-6-24T23:4:0Z</time></trkpt>
<trkpt lat="48.11461520" lon="-72.24550740"><ele></ele><time>2014-6-24T23:4:3Z</time></trkpt>
<trkpt lat="48.11461130" lon="-72.24552620"><ele></ele><time>2014-6-24T23:4:6Z</time></trkpt>
<trkpt lat="48.11460770" lon="-72.24554540"><ele></ele><time>2014-6-24T23:4:9Z</time></trkpt>
<trkpt lat="48.11460420" lon="-72.24556460"><ele></ele><time>2014-6-24T23:4:12Z</time></trkpt>
<trkpt lat="48.11459370" lon="-72.24562480"><ele></ele><time>2014-6-24T23:4:15Z</time></trkpt>
<trkpt lat="48.11458190" lon="-72.24568300"><ele></ele><time>2014-6-24T23:4:18Z</time></trkpt>
<trkpt lat="48.11457770" lon="-72.24570200"><ele></ele><time>2014-6-24T23:4:21Z</time></trkpt>
<trkpt lat="48.11457340" lon="-72.24572040"><ele></ele><time>2014-6-24T23:4:24Z</time></trkpt>
<trkpt lat="48.11456860" lon="-72.24573840"><ele></ele><time>2014-6-24T23:4:27Z</time></trkpt>
<trkpt lat="48.11456330" lon="-72.24575650"><ele></ele><time>2014-6-24T23:4:30Z</time></trkpt>
<trkpt lat="48.11455770" lon="-72.24577500"><ele></ele><time>2014-6-24T23:4:33Z</time></trkpt>
<trkpt lat="48.11455190" lon="-72.24579360"><ele></ele><time>2014-6-24T23:4:36Z</time></trkpt>
<trkpt lat="48.11453530" lon="-72.24584960"><ele></ele><time>2014-6-24T23:4:39Z</time></trkpt>
<trkpt lat="48.11452960" lon="-72.24586830"><ele></ele><time>2014-6-24T23:4:42Z</time></trkpt>
<trkpt lat="48.11451240" lon="-72.24592570"><ele></ele><time>2014-6-24T23:4:45Z</time></trkpt>
<trkpt lat="48.11450660" lon="-72.24594370"><ele></ele><time>2014-6-24T23:4:48Z</time></trkpt>
<trkpt lat="48.11450120" lon="-72.24596140"><ele></ele><time>2014-6-24T23:4:51Z</time></trkpt>
<trkpt lat="48.11449620" lon="-72.24597860"><ele></ele><time>2014-6-24T23:4:54Z</time></trkpt>
<trkpt lat="48.11449040" lon="-72.24599540"><ele></ele><time>2014-6-24T23:4:57Z</time></trkpt>
<trkpt lat="48.11448440" lon="-72.24601200"><ele></ele><time>2014-6-24T23:5:0Z</time></trkpt>
<trkpt lat="48.11447800" lon="-72.24602890"><ele></ele><time>2014-6-24T23:5:3Z</time></trkpt>
<trkpt lat="48.11446350" lon="-72.24606290"><ele></ele><time>2014-6-24T23:5:6Z</time></trkpt>
<trkpt lat="48.11445560" lon="-72.24607890"><ele></ele><time>2014-6-24T23:5:9Z</time></trkpt>
<trkpt lat="48.11444740" lon="-72.24609370"><ele></ele><time>2014-6-24T23:5:12Z</time></trkpt>
<trkpt lat="48.11443910" lon="-72.24610810"><ele></ele><time>2014-6-24T23:5:15Z</time></trkpt>
<trkpt lat="48.11443100" lon="-72.24612110"><ele></ele><time>2014-6-24T23:5:18Z</time></trkpt>
<trkpt lat="48.11441510" lon="-72.24614610"><ele></ele><time>2014-6-24T23:5:21Z</time></trkpt>
<trkpt lat="48.11440750" lon="-72.24615820"><ele></ele><time>2014-6-24T23:5:24Z</time></trkpt>
<trkpt lat="48.11440010" lon="-72.24617010"><ele></ele><time>2014-6-24T23:5:27Z</time></trkpt>
<trkpt lat="48.11439210" lon="-72.24618270"><ele></ele><time>2014-6-24T23:5:30Z</time></trkpt>
<trkpt lat="48.11438400" lon="-72.24619510"><ele></ele><time>2014-6-24T23:5:33Z</time></trkpt>
<trkpt lat="48.11437610" lon="-72.24620740"><ele></ele><time>2014-6-24T23:5:36Z</time></trkpt>
<trkpt lat="48.11436790" lon="-72.24621990"><ele></ele><time>2014-6-24T23:5:39Z</time></trkpt>
<trkpt lat="48.11435940" lon="-72.24623180"><ele></ele><time>2014-6-24T23:5:42Z</time></trkpt>
<trkpt lat="48.11433340" lon="-72.24626830"><ele></ele><time>2014-6-24T23:5:45Z</time></trkpt>
<trkpt lat="48.11430610" lon="-72.24630470"><ele></ele><time>2014-6-24T23:5:48Z</time></trkpt>
<trkpt lat="48.11429650" lon="-72.24631680"><ele></ele><time>2014-6-24T23:5:51Z</time></trkpt>
<trkpt lat="48.11428680" lon="-72.24632890"><ele></ele><time>2014-6-24T23:5:54Z</time></trkpt>
<trkpt lat="48.11427690" lon="-72.24634160"><ele></ele><time>2014-6-24T23:5:57Z</time></trkpt>
<trkpt lat="48.11426740" lon="-72.24635420"><ele></ele><time>2014-6-24T23:6:0Z</time></trkpt>
<trkpt lat="48.11425820" lon="-72.24636620"><ele></ele><time>2014-6-24T23:6:3Z</time></trkpt>
<trkpt lat="48.11424890" lon="-72.24637870"><ele></ele><time>2014-6-24T23:6:6Z</time></trkpt>
<trkpt lat="48.11421920" lon="-72.24641510"><ele></ele><time>2014-6-24T23:6:9Z</time></trkpt>
<trkpt lat="48.11420880" lon="-72.24642640"><ele></ele><time>2014-6-24T23:6:12Z</time></trkpt>
<trkpt lat="48.11417820" lon="-72.24645890"><ele></ele><time>2014-6-24T23:6:15Z</time></trkpt>
<trkpt lat="48.11416810" lon="-72.24646950"><ele></ele><time>2014-6-24T23:6:18Z</time></trkpt>
<trkpt lat="48.11415770" lon="-72.24648020"><ele></ele><time>2014-6-24T23:6:21Z</time></trkpt>
<trkpt lat="48.11414760" lon="-72.24649100"><ele></ele><time>2014-6-24T23:6:24Z</time></trkpt>
<trkpt lat="48.11413760" lon="-72.24650180"><ele></ele><time>2014-6-24T23:6:27Z</time></trkpt>
<trkpt lat="48.11412810" lon="-72.24651230"><ele></ele><time>2014-6-24T23:6:30Z</time></trkpt>
<trkpt lat="48.11411840" lon="-72.24652380"><ele></ele><time>2014-6-24T23:6:33Z</time></trkpt>
<trkpt lat="48.11408810" lon="-72.24655890"><ele></ele><time>2014-6-24T23:6:36Z</time></trkpt>
<trkpt lat="48.11405860" lon="-72.24659060"><ele></ele><time>2014-6-24T23:6:39Z</time></trkpt>
<trkpt lat="48.11404840" lon="-72.24660160"><ele></ele><time>2014-6-24T23:6:42Z</time></trkpt>
<trkpt lat="48.11403770" lon="-72.24661280"><ele></ele><time>2014-6-24T23:6:45Z</time></trkpt>
<trkpt lat="48.11402730" lon="-72.24662380"><ele></ele><time>2014-6-24T23:6:48Z</time></trkpt>
<trkpt lat="48.11401690" lon="-72.24663490"><ele></ele><time>2014-6-24T23:6:51Z</time></trkpt>
<trkpt lat="48.11400730" lon="-72.24664540"><ele></ele><time>2014-6-24T23:6:54Z</time></trkpt>
<trkpt lat="48.11399780" lon="-72.24665550"><ele></ele><time>2014-6-24T23:6:57Z</time></trkpt>
<trkpt lat="48.11396850" lon="-72.24669160"><ele></ele><time>2014-6-24T23:7:0Z</time></trkpt>
<trkpt lat="48.11393930" lon="-72.24673320"><ele></ele><time>2014-6-24T23:7:3Z</time></trkpt>
<trkpt lat="48.11393030" lon="-72.24674730"><ele></ele><time>2014-6-24T23:7:6Z</time></trkpt>
<trkpt lat="48.11392100" lon="-72.24676080"><ele></ele><time>2014-6-24T23:7:9Z</time></trkpt>
<trkpt lat="48.11391120" lon="-72.24677450"><ele></ele><time>2014-6-24T23:7:12Z</time></trkpt>
<trkpt lat="48.11390110" lon="-72.24678860"><ele></ele><time>2014-6-24T23:7:15Z</time></trkpt>
<trkpt lat="48.11389190" lon="-72.24680180"><ele></ele><time>2014-6-24T23:7:18Z</time></trkpt>
<trkpt lat="48.11388220" lon="-72.24681520"><ele></ele><time>2014-6-24T23:7:21Z</time></trkpt>
<trkpt lat="48.11387270" lon="-72.24682740"><ele></ele><time>2014-6-24T23:7:24Z</time></trkpt>
<trkpt lat="48.11385390" lon="-72.24685210"><ele></ele><time>2014-6-24T23:7:27Z</time></trkpt>
<trkpt lat="48.11383590" lon="-72.24687650"><ele></ele><time>2014-6-24T23:7:30Z</time></trkpt>
<trkpt lat="48.11380670" lon="-72.24691250"><ele></ele><time>2014-6-24T23:7:33Z</time></trkpt>
<trkpt lat="48.11379330" lon="-72.24692830"><ele></ele><time>2014-6-24T23:7:36Z</time></trkpt>
<trkpt lat="48.11378420" lon="-72.24694090"><ele></ele><time>2014-6-24T23:7:39Z</time></trkpt>
<trkpt lat="48.11377470" lon="-72.24695370"><ele></ele><time>2014-6-24T23:7:42Z</time></trkpt>
<trkpt lat="48.11376550" lon="-72.24696650"><ele></ele><time>2014-6-24T23:7:45Z</time></trkpt>
<trkpt lat="48.11375650" lon="-72.24697890"><ele></ele><time>2014-6-24T23:7:48Z</time></trkpt>
<trkpt lat="48.11374770" lon="-72.24699070"><ele></ele><time>2014-6-24T23:7:51Z</time></trkpt>
<trkpt lat="48.11373880" lon="-72.24700200"><ele></ele><time>2014-6-24T23:7:54Z</time></trkpt>
<trkpt lat="48.11372980" lon="-72.24701200"><ele></ele><time>2014-6-24T23:7:57Z</time></trkpt>
<trkpt lat="48.11371170" lon="-72.24703240"><ele></ele><time>2014-6-24T23:8:0Z</time></trkpt>
<trkpt lat="48.11370290" lon="-72.24704180"><ele></ele><time>2014-6-24T23:8:3Z</time></trkpt>
<trkpt lat="48.11367640" lon="-72.24706960"><ele></ele><time>2014-6-24T23:8:6Z</time></trkpt>
<trkpt lat="48.11366710" lon="-72.24707850"><ele></ele><time>2014-6-24T23:8:9Z</time></trkpt>
<trkpt lat="48.11365740" lon="-72.24708700"><ele></ele><time>2014-6-24T23:8:12Z</time></trkpt>
<trkpt lat="48.11364740" lon="-72.24709550"><ele></ele><time>2014-6-24T23:8:15Z</time></trkpt>
<trkpt lat="48.11363710" lon="-72.24710360"><ele></ele><time>2014-6-24T23:8:18Z</time></trkpt>
<trkpt lat="48.11362610" lon="-72.24711160"><ele></ele><time>2014-6-24T23:8:21Z</time></trkpt>
<trkpt lat="48.11361560" lon="-72.24711860"><ele></ele><time>2014-6-24T23:8:24Z</time></trkpt>
<trkpt lat="48.11358600" lon="-72.24714040"><ele></ele><time>2014-6-24T23:8:27Z</time></trkpt>
<trkpt lat="48.11355600" lon="-72.24716370"><ele></ele><time>2014-6-24T23:8:30Z</time></trkpt>
<trkpt lat="48.11354650" lon="-72.24717200"><ele></ele><time>2014-6-24T23:8:33Z</time></trkpt>
<trkpt lat="48.11353730" lon="-72.24718060"><ele></ele><time>2014-6-24T23:8:36Z</time></trkpt>
<trkpt lat="48.11352820" lon="-72.24718920"><ele></ele><time>2014-6-24T23:8:39Z</time></trkpt>
<trkpt lat="48.11351900" lon="-72.24719850"><ele></ele><time>2014-6-24T23:8:42Z</time></trkpt>
<trkpt lat="48.11350960" lon="-72.24720700"><ele></ele><time>2014-6-24T23:8:45Z</time></trkpt>
<trkpt lat="48.11349980" lon="-72.24721530"><ele></ele><time>2014-6-24T23:8:48Z</time></trkpt>
<trkpt lat="48.11348970" lon="-72.24722350"><ele></ele><time>2014-6-24T23:8:51Z</time></trkpt>
<trkpt lat="48.11345730" lon="-72.24724920"><ele></ele><time>2014-6-24T23:8:54Z</time></trkpt>
<trkpt lat="48.11342330" lon="-72.24727620"><ele></ele><time>2014-6-24T23:8:57Z</time></trkpt>
<trkpt lat="48.11341220" lon="-72.24728600"><ele></ele><time>2014-6-24T23:9:0Z</time></trkpt>
<trkpt lat="48.11340120" lon="-72.24729550"><ele></ele><time>2014-6-24T23:9:3Z</time></trkpt>
<trkpt lat="48.11339020" lon="-72.24730480"><ele></ele><time>2014-6-24T23:9:6Z</time></trkpt>
<trkpt lat="48.11337950" lon="-72.24731380"><ele></ele><time>2014-6-24T23:9:9Z</time></trkpt>
<trkpt lat="48.11336890" lon="-72.24732350"><ele></ele><time>2014-6-24T23:9:12Z</time></trkpt>
<trkpt lat="48.11333800" lon="-72.24735410"><ele></ele><time>2014-6-24T23:9:15Z</time></trkpt>
<trkpt lat="48.11330740" lon="-72.24738530"><ele></ele><time>2014-6-24T23:9:18Z</time></trkpt>
<trkpt lat="48.11327720" lon="-72.24741390"><ele></ele><time>2014-6-24T23:9:21Z</time></trkpt>
<trkpt lat="48.11326740" lon="-72.24742320"><ele></ele><time>2014-6-24T23:9:24Z</time></trkpt>
<trkpt lat="48.11324700" lon="-72.24744120"><ele></ele><time>2014-6-24T23:9:27Z</time></trkpt>
<trkpt lat="48.11323690" lon="-72.24744990"><ele></ele><time>2014-6-24T23:9:30Z</time></trkpt>
<trkpt lat="48.11322700" lon="-72.24745890"><ele></ele><time>2014-6-24T23:9:33Z</time></trkpt>
<trkpt lat="48.11321680" lon="-72.24746800"><ele></ele><time>2014-6-24T23:9:36Z</time></trkpt>
<trkpt lat="48.11320660" lon="-72.24747680"><ele></ele><time>2014-6-24T23:9:39Z</time></trkpt>
<trkpt lat="48.11319600" lon="-72.24748500"><ele></ele><time>2014-6-24T23:9:42Z</time></trkpt>
<trkpt lat="48.11318540" lon="-72.24749310"><ele></ele><time>2014-6-24T23:9:45Z</time></trkpt>
<trkpt lat="48.11315350" lon="-72.24751910"><ele></ele><time>2014-6-24T23:9:48Z</time></trkpt>
<trkpt lat="48.11312330" lon="-72.24754510"><ele></ele><time>2014-6-24T23:9:51Z</time></trkpt>
<trkpt lat="48.11311360" lon="-72.24755360"><ele></ele><time>2014-6-24T23:9:54Z</time></trkpt>
<trkpt lat="48.11310360" lon="-72.24756200"><ele></ele><time>2014-6-24T23:9:57Z</time></trkpt>
<trkpt lat="48.11309350" lon="-72.24757100"><ele></ele><time>2014-6-24T23:10:0Z</time></trkpt>
<trkpt lat="48.11308320" lon="-72.24758050"><ele></ele><time>2014-6-24T23:10:3Z</time></trkpt>
<trkpt lat="48.11307260" lon="-72.24759040"><ele></ele><time>2014-6-24T23:10:6Z</time></trkpt>
<trkpt lat="48.11304190" lon="-72.24761880"><ele></ele><time>2014-6-24T23:10:9Z</time></trkpt>
<trkpt lat="48.11301150" lon="-72.24764650"><ele></ele><time>2014-6-24T23:10:12Z</time></trkpt>
<trkpt lat="48.11300150" lon="-72.24765630"><ele></ele><time>2014-6-24T23:10:15Z</time></trkpt>
<trkpt lat="48.11299160" lon="-72.24766630"><ele></ele><time>2014-6-24T23:10:18Z</time></trkpt>
<trkpt lat="48.11296240" lon="-72.24769340"><ele></ele><time>2014-6-24T23:10:21Z</time></trkpt>
<trkpt lat="48.11293470" lon="-72.24771630"><ele></ele><time>2014-6-24T23:10:24Z</time></trkpt>
<trkpt lat="48.11292540" lon="-72.24772420"><ele></ele><time>2014-6-24T23:10:27Z</time></trkpt>
<trkpt lat="48.11291630" lon="-72.24773250"><ele></ele><time>2014-6-24T23:10:30Z</time></trkpt>
<trkpt lat="48.11290710" lon="-72.24774120"><ele></ele><time>2014-6-24T23:10:33Z</time></trkpt>
<trkpt lat="48.11289790" lon="-72.24774970"><ele></ele><time>2014-6-24T23:10:36Z</time></trkpt>
<trkpt lat="48.11288990" lon="-72.24775660"><ele></ele><time>2014-6-24T23:10:39Z</time></trkpt>
<trkpt lat="48.11288320" lon="-72.24776210"><ele></ele><time>2014-6-24T23:10:42Z</time></trkpt>
<trkpt lat="48.11287900" lon="-72.24776550"><ele></ele><time>2014-6-24T23:10:45Z</time></trkpt>
<trkpt lat="48.11287720" lon="-72.24776520"><ele></ele><time>2014-6-24T23:10:48Z</time></trkpt>
<trkpt lat="48.11287180" lon="-72.24777030"><ele></ele><time>2014-6-24T23:10:51Z</time></trkpt>
<trkpt lat="48.11286990" lon="-72.24777310"><ele></ele><time>2014-6-24T23:10:54Z</time></trkpt>
<trkpt lat="48.11286810" lon="-72.24777490"><ele></ele><time>2014-6-24T23:10:57Z</time></trkpt>
<trkpt lat="48.11286650" lon="-72.24777640"><ele></ele><time>2014-6-24T23:11:0Z</time></trkpt>
<trkpt lat="48.11286470" lon="-72.24777800"><ele></ele><time>2014-6-24T23:11:3Z</time></trkpt>
<trkpt lat="48.11286250" lon="-72.24777980"><ele></ele><time>2014-6-24T23:11:6Z</time></trkpt>
<trkpt lat="48.11285990" lon="-72.24778230"><ele></ele><time>2014-6-24T23:11:9Z</time></trkpt>
<trkpt lat="48.11285880" lon="-72.24778460"><ele></ele><time>2014-6-24T23:11:12Z</time></trkpt>
<trkpt lat="48.11285810" lon="-72.24778560"><ele></ele><time>2014-6-24T23:11:15Z</time></trkpt>
<trkpt lat="48.11285740" lon="-72.24778630"><ele></ele><time>2014-6-24T23:11:18Z</time></trkpt>
<trkpt lat="48.11285660" lon="-72.24778720"><ele></ele><time>2014-6-24T23:11:21Z</time></trkpt>
<trkpt lat="48.11285560" lon="-72.24778810"><ele></ele><time>2014-6-24T23:11:24Z</time></trkpt>
<trkpt lat="48.11285470" lon="-72.24778890"><ele></ele><time>2014-6-24T23:11:27Z</time></trkpt>
<trkpt lat="48.11285370" lon="-72.24778960"><ele></ele><time>2014-6-24T23:11:30Z</time></trkpt>
<trkpt lat="48.11285240" lon="-72.24779060"><ele></ele><time>2014-6-24T23:11:33Z</time></trkpt>
<trkpt lat="48.11285220" lon="-72.24779110"><ele></ele><time>2014-6-24T23:11:36Z</time></trkpt>
<trkpt lat="48.11285190" lon="-72.24779160"><ele></ele><time>2014-6-24T23:11:39Z</time></trkpt>
<trkpt lat="48.11285150" lon="-72.24779200"><ele></ele><time>2014-6-24T23:11:42Z</time></trkpt>
<trkpt lat="48.11285120" lon="-72.24779260"><ele></ele><time>2014-6-24T23:11:45Z</time></trkpt>
<trkpt lat="48.11285070" lon="-72.24779320"><ele></ele><time>2014-6-24T23:11:48Z</time></trkpt>
<trkpt lat="48.11285030" lon="-72.24779350"><ele></ele><time>2014-6-24T23:11:51Z</time></trkpt>
<trkpt lat="48.11285010" lon="-72.24779390"><ele></ele><time>2014-6-24T23:11:54Z</time></trkpt>
<trkpt lat="48.11285030" lon="-72.24779410"><ele></ele><time>2014-6-24T23:11:57Z</time></trkpt>
<trkpt lat="48.11285030" lon="-72.24779420"><ele></ele><time>2014-6-24T23:12:0Z</time></trkpt>
<trkpt lat="48.11284990" lon="-72.24779420"><ele></ele><time>2014-6-24T23:12:3Z</time></trkpt>
<trkpt lat="48.11284860" lon="-72.24779480"><ele></ele><time>2014-6-24T23:12:6Z</time></trkpt>
<trkpt lat="48.11284750" lon="-72.24779500"><ele></ele><time>2014-6-24T23:12:9Z</time></trkpt>
<trkpt lat="48.11284620" lon="-72.24779530"><ele></ele><time>2014-6-24T23:12:12Z</time></trkpt>
<trkpt lat="48.11284530" lon="-72.24779540"><ele></ele><time>2014-6-24T23:12:15Z</time></trkpt>
<trkpt lat="48.11284420" lon="-72.24779570"><ele></ele><time>2014-6-24T23:12:18Z</time></trkpt>
<trkpt lat="48.11284160" lon="-72.24779610"><ele></ele><time>2014-6-24T23:12:21Z</time></trkpt>
<trkpt lat="48.11284080" lon="-72.24779590"><ele></ele><time>2014-6-24T23:12:24Z</time></trkpt>
<trkpt lat="48.11284010" lon="-72.24779570"><ele></ele><time>2014-6-24T23:12:27Z</time></trkpt>
<trkpt lat="48.11283970" lon="-72.24779540"><ele></ele><time>2014-6-24T23:12:30Z</time></trkpt>
<trkpt lat="48.11283960" lon="-72.24779520"><ele></ele><time>2014-6-24T23:12:33Z</time></trkpt>
<trkpt lat="48.11283920" lon="-72.24779500"><ele></ele><time>2014-6-24T23:12:36Z</time></trkpt>
<trkpt lat="48.11283880" lon="-72.24779470"><ele></ele><time>2014-6-24T23:12:39Z</time></trkpt>
<trkpt lat="48.11283840" lon="-72.24779410"><ele></ele><time>2014-6-24T23:12:42Z</time></trkpt>
<trkpt lat="48.11283820" lon="-72.24779350"><ele></ele><time>2014-6-24T23:12:45Z</time></trkpt>
<trkpt lat="48.11283830" lon="-72.24779270"><ele></ele><time>2014-6-24T23:12:48Z</time></trkpt>
<trkpt lat="48.11283880" lon="-72.24779210"><ele></ele><time>2014-6-24T23:12:51Z</time></trkpt>
<trkpt lat="48.11283950" lon="-72.24779160"><ele></ele><time>2014-6-24T23:12:54Z</time></trkpt>
<trkpt lat="48.11283990" lon="-72.24779150"><ele></ele><time>2014-6-24T23:12:57Z</time></trkpt>
<trkpt lat="48.11284170" lon="-72.24779130"><ele></ele><time>2014-6-24T23:13:0Z</time></trkpt>
<trkpt lat="48.11284310" lon="-72.24779130"><ele></ele><time>2014-6-24T23:13:3Z</time></trkpt>
<trkpt lat="48.11284550" lon="-72.24779150"><ele></ele><time>2014-6-24T23:13:6Z</time></trkpt>
<trkpt lat="48.11284620" lon="-72.24779160"><ele></ele><time>2014-6-24T23:13:9Z</time></trkpt>
<trkpt lat="48.11284680" lon="-72.24779180"><ele></ele><time>2014-6-24T23:13:12Z</time></trkpt>
<trkpt lat="48.11284730" lon="-72.24779220"><ele></ele><time>2014-6-24T23:13:15Z</time></trkpt>
<trkpt lat="48.11284750" lon="-72.24779250"><ele></ele><time>2014-6-24T23:13:18Z</time></trkpt>
<trkpt lat="48.11284810" lon="-72.24779250"><ele></ele><time>2014-6-24T23:13:21Z</time></trkpt>
<trkpt lat="48.11284870" lon="-72.24779280"><ele></ele><time>2014-6-24T23:13:24Z</time></trkpt>
<trkpt lat="48.11284960" lon="-72.24779310"><ele></ele><time>2014-6-24T23:13:27Z</time></trkpt>
<trkpt lat="48.11285050" lon="-72.24779330"><ele></ele><time>2014-6-24T23:13:30Z</time></trkpt>
<trkpt lat="48.11285390" lon="-72.24779480"><ele></ele><time>2014-6-24T23:13:33Z</time></trkpt>
<trkpt lat="48.11285520" lon="-72.24779570"><ele></ele><time>2014-6-24T23:13:36Z</time></trkpt>
<trkpt lat="48.11285660" lon="-72.24779660"><ele></ele><time>2014-6-24T23:13:39Z</time></trkpt>
<trkpt lat="48.11285780" lon="-72.24779760"><ele></ele><time>2014-6-24T23:13:42Z</time></trkpt>
<trkpt lat="48.11286240" lon="-72.24779990"><ele></ele><time>2014-6-24T23:13:45Z</time></trkpt>
<trkpt lat="48.11286390" lon="-72.24780040"><ele></ele><time>2014-6-24T23:13:48Z</time></trkpt>
<trkpt lat="48.11286540" lon="-72.24780080"><ele></ele><time>2014-6-24T23:13:51Z</time></trkpt>
<trkpt lat="48.11286640" lon="-72.24780120"><ele></ele><time>2014-6-24T23:13:54Z</time></trkpt>
<trkpt lat="48.11286710" lon="-72.24780160"><ele></ele><time>2014-6-24T23:13:57Z</time></trkpt>
<trkpt lat="48.11286740" lon="-72.24780180"><ele></ele><time>2014-6-24T23:14:0Z</time></trkpt>
<trkpt lat="48.11286770" lon="-72.24780190"><ele></ele><time>2014-6-24T23:14:3Z</time></trkpt>
<trkpt lat="48.11286790" lon="-72.24780200"><ele></ele><time>2014-6-24T23:14:6Z</time></trkpt>
<trkpt lat="48.11286790" lon="-72.24780200"><ele></ele><time>2014-6-24T23:14:9Z</time></trkpt>
<trkpt lat="48.11286770" lon="-72.24780200"><ele></ele><time>2014-6-24T23:14:12Z</time></trkpt>
<trkpt lat="48.11286750" lon="-72.24780190"><ele></ele><time>2014-6-24T23:14:15Z</time></trkpt>
<trkpt lat="48.11286640" lon="-72.24780120"><ele></ele><time>2014-6-24T23:14:18Z</time></trkpt>
<trkpt lat="48.11286590" lon="-72.24780100"><ele></ele><time>2014-6-24T23:14:21Z</time></trkpt>
<trkpt lat="48.11286310" lon="-72.24779970"><ele></ele><time>2014-6-24T23:14:24Z</time></trkpt>
<trkpt lat="48.11286210" lon="-72.24779940"><ele></ele><time>2014-6-24T23:14:27Z</time></trkpt>
<trkpt lat="48.11286130" lon="-72.24779900"><ele></ele><time>2014-6-24T23:14:30Z</time></trkpt>
<trkpt lat="48.11286060" lon="-72.24779870"><ele></ele><time>2014-6-24T23:14:33Z</time></trkpt>
<trkpt lat="48.11285990" lon="-72.24779840"><ele></ele><time>2014-6-24T23:14:36Z</time></trkpt>
<trkpt lat="48.11285950" lon="-72.24779800"><ele></ele><time>2014-6-24T23:14:39Z</time></trkpt>
<trkpt lat="48.11285910" lon="-72.24779770"><ele></ele><time>2014-6-24T23:14:42Z</time></trkpt>
<trkpt lat="48.11285880" lon="-72.24779730"><ele></ele><time>2014-6-24T23:14:45Z</time></trkpt>
<trkpt lat="48.11285840" lon="-72.24779690"><ele></ele><time>2014-6-24T23:14:48Z</time></trkpt>
<trkpt lat="48.11285770" lon="-72.24779590"><ele></ele><time>2014-6-24T23:14:51Z</time></trkpt>
<trkpt lat="48.11285750" lon="-72.24779560"><ele></ele><time>2014-6-24T23:14:54Z</time></trkpt>
<trkpt lat="48.11285720" lon="-72.24779540"><ele></ele><time>2014-6-24T23:14:57Z</time></trkpt>
<trkpt lat="48.11285690" lon="-72.24779510"><ele></ele><time>2014-6-24T23:15:0Z</time></trkpt>
<trkpt lat="48.11285650" lon="-72.24779490"><ele></ele><time>2014-6-24T23:15:3Z</time></trkpt>
<trkpt lat="48.11285620" lon="-72.24779460"><ele></ele><time>2014-6-24T23:15:6Z</time></trkpt>
<trkpt lat="48.11285660" lon="-72.24779410"><ele></ele><time>2014-6-24T23:15:9Z</time></trkpt>
<trkpt lat="48.11285670" lon="-72.24779400"><ele></ele><time>2014-6-24T23:15:12Z</time></trkpt>
<trkpt lat="48.11285710" lon="-72.24779380"><ele></ele><time>2014-6-24T23:15:15Z</time></trkpt>
<trkpt lat="48.11285750" lon="-72.24779360"><ele></ele><time>2014-6-24T23:15:18Z</time></trkpt>
<trkpt lat="48.11285810" lon="-72.24779340"><ele></ele><time>2014-6-24T23:15:21Z</time></trkpt>
<trkpt lat="48.11285980" lon="-72.24779300"><ele></ele><time>2014-6-24T23:15:24Z</time></trkpt>
<trkpt lat="48.11286080" lon="-72.24779290"><ele></ele><time>2014-6-24T23:15:27Z</time></trkpt>
<trkpt lat="48.11286180" lon="-72.24779280"><ele></ele><time>2014-6-24T23:15:30Z</time></trkpt>
<trkpt lat="48.11286250" lon="-72.24779260"><ele></ele><time>2014-6-24T23:15:33Z</time></trkpt>
<trkpt lat="48.11286300" lon="-72.24779240"><ele></ele><time>2014-6-24T23:15:36Z</time></trkpt>
<trkpt lat="48.11286260" lon="-72.24779190"><ele></ele><time>2014-6-24T23:15:39Z</time></trkpt>
<trkpt lat="48.11286200" lon="-72.24779170"><ele></ele><time>2014-6-24T23:15:42Z</time></trkpt>
<trkpt lat="48.11286170" lon="-72.24779150"><ele></ele><time>2014-6-24T23:15:45Z</time></trkpt>
<trkpt lat="48.11286140" lon="-72.24779130"><ele></ele><time>2014-6-24T23:15:48Z</time></trkpt>
<trkpt lat="48.11286140" lon="-72.24779100"><ele></ele><time>2014-6-24T23:15:51Z</time></trkpt>
<trkpt lat="48.11286150" lon="-72.24779070"><ele></ele><time>2014-6-24T23:15:54Z</time></trkpt>
<trkpt lat="48.11286160" lon="-72.24779050"><ele></ele><time>2014-6-24T23:15:57Z</time></trkpt>
<trkpt lat="48.11286150" lon="-72.24779020"><ele></ele><time>2014-6-24T23:16:0Z</time></trkpt>
<trkpt lat="48.11286120" lon="-72.24778990"><ele></ele><time>2014-6-24T23:16:3Z</time></trkpt>
<trkpt lat="48.11286040" lon="-72.24778930"><ele></ele><time>2014-6-24T23:16:6Z</time></trkpt>
<trkpt lat="48.11286020" lon="-72.24778890"><ele></ele><time>2014-6-24T23:16:9Z</time></trkpt>
<trkpt lat="48.11285960" lon="-72.24778840"><ele></ele><time>2014-6-24T23:16:12Z</time></trkpt>
<trkpt lat="48.11285910" lon="-72.24778800"><ele></ele><time>2014-6-24T23:16:15Z</time></trkpt>
<trkpt lat="48.11285650" lon="-72.24778680"><ele></ele><time>2014-6-24T23:16:18Z</time></trkpt>
<trkpt lat="48.11285590" lon="-72.24778640"><ele></ele><time>2014-6-24T23:16:21Z</time></trkpt>
<trkpt lat="48.11285560" lon="-72.24778580"><ele></ele><time>2014-6-24T23:16:24Z</time></trkpt>
<trkpt lat="48.11285520" lon="-72.24778530"><ele></ele><time>2014-6-24T23:16:27Z</time></trkpt>
<trkpt lat="48.11285480" lon="-72.24778470"><ele></ele><time>2014-6-24T23:16:30Z</time></trkpt>
<trkpt lat="48.11285340" lon="-72.24778130"><ele></ele><time>2014-6-24T23:16:33Z</time></trkpt>
<trkpt lat="48.11285330" lon="-72.24777980"><ele></ele><time>2014-6-24T23:16:36Z</time></trkpt>
<trkpt lat="48.11285290" lon="-72.24777820"><ele></ele><time>2014-6-24T23:16:39Z</time></trkpt>
<trkpt lat="48.11285250" lon="-72.24777670"><ele></ele><time>2014-6-24T23:16:42Z</time></trkpt>
<trkpt lat="48.11285180" lon="-72.24777520"><ele></ele><time>2014-6-24T23:16:45Z</time></trkpt>
<trkpt lat="48.11285120" lon="-72.24777330"><ele></ele><time>2014-6-24T23:16:48Z</time></trkpt>
<trkpt lat="48.11285110" lon="-72.24777110"><ele></ele><time>2014-6-24T23:16:51Z</time></trkpt>
<trkpt lat="48.11285100" lon="-72.24776670"><ele></ele><time>2014-6-24T23:16:54Z</time></trkpt>
<trkpt lat="48.11285060" lon="-72.24776330"><ele></ele><time>2014-6-24T23:16:57Z</time></trkpt>
<trkpt lat="48.11285040" lon="-72.24776190"><ele></ele><time>2014-6-24T23:17:0Z</time></trkpt>
<trkpt lat="48.11285030" lon="-72.24776020"><ele></ele><time>2014-6-24T23:17:3Z</time></trkpt>
<trkpt lat="48.11285050" lon="-72.24775850"><ele></ele><time>2014-6-24T23:17:6Z</time></trkpt>
<trkpt lat="48.11285110" lon="-72.24775440"><ele></ele><time>2014-6-24T23:17:9Z</time></trkpt>
<trkpt lat="48.11285120" lon="-72.24775300"><ele></ele><time>2014-6-24T23:17:12Z</time></trkpt>
<trkpt lat="48.11285150" lon="-72.24775140"><ele></ele><time>2014-6-24T23:17:15Z</time></trkpt>
<trkpt lat="48.11285180" lon="-72.24774980"><ele></ele><time>2014-6-24T23:17:18Z</time></trkpt>
<trkpt lat="48.11285240" lon="-72.24774690"><ele></ele><time>2014-6-24T23:17:21Z</time></trkpt>
<trkpt lat="48.11285240" lon="-72.24774670"><ele></ele><time>2014-6-24T23:17:24Z</time></trkpt>
<trkpt lat="48.11285270" lon="-72.24774500"><ele></ele><time>2014-6-24T23:17:27Z</time></trkpt>
<trkpt lat="48.11285300" lon="-72.24774240"><ele></ele><time>2014-6-24T23:17:30Z</time></trkpt>
<trkpt lat="48.11285320" lon="-72.24772740"><ele></ele><time>2014-6-24T23:17:33Z</time></trkpt>
<trkpt lat="48.11285340" lon="-72.24774050"><ele></ele><time>2014-6-24T23:17:36Z</time></trkpt>
<trkpt lat="48.11285910" lon="-72.24773440"><ele></ele><time>2014-6-24T23:17:39Z</time></trkpt>
<trkpt lat="48.11286460" lon="-72.24773240"><ele></ele><time>2014-6-24T23:17:42Z</time></trkpt>
<trkpt lat="48.11286500" lon="-72.24773170"><ele></ele><time>2014-6-24T23:17:45Z</time></trkpt>
<trkpt lat="48.11286500" lon="-72.24773180"><ele></ele><time>2014-6-24T23:17:48Z</time></trkpt>
<trkpt lat="48.11286520" lon="-72.24773160"><ele></ele><time>2014-6-24T23:17:51Z</time></trkpt>
<trkpt lat="48.11286330" lon="-72.24773150"><ele></ele><time>2014-6-24T23:17:54Z</time></trkpt>
<trkpt lat="48.11285620" lon="-72.24773120"><ele></ele><time>2014-6-24T23:17:57Z</time></trkpt>
<trkpt lat="48.11281960" lon="-72.24774460"><ele></ele><time>2014-6-24T23:18:0Z</time></trkpt>
<trkpt lat="48.11280750" lon="-72.24775300"><ele></ele><time>2014-6-24T23:18:3Z</time></trkpt>
<trkpt lat="48.11279610" lon="-72.24776210"><ele></ele><time>2014-6-24T23:18:6Z</time></trkpt>
<trkpt lat="48.11275010" lon="-72.24780390"><ele></ele><time>2014-6-24T23:18:9Z</time></trkpt>
<trkpt lat="48.11273900" lon="-72.24781530"><ele></ele><time>2014-6-24T23:18:12Z</time></trkpt>
<trkpt lat="48.11272850" lon="-72.24782620"><ele></ele><time>2014-6-24T23:18:15Z</time></trkpt>
<trkpt lat="48.11269730" lon="-72.24785800"><ele></ele><time>2014-6-24T23:18:18Z</time></trkpt>
<trkpt lat="48.11268720" lon="-72.24786850"><ele></ele><time>2014-6-24T23:18:21Z</time></trkpt>
<trkpt lat="48.11267710" lon="-72.24787870"><ele></ele><time>2014-6-24T23:18:24Z</time></trkpt>
<trkpt lat="48.11266680" lon="-72.24788850"><ele></ele><time>2014-6-24T23:18:27Z</time></trkpt>
<trkpt lat="48.11263550" lon="-72.24791770"><ele></ele><time>2014-6-24T23:18:30Z</time></trkpt>
<trkpt lat="48.11262530" lon="-72.24792610"><ele></ele><time>2014-6-24T23:18:33Z</time></trkpt>
<trkpt lat="48.11261490" lon="-72.24793380"><ele></ele><time>2014-6-24T23:18:36Z</time></trkpt>
<trkpt lat="48.11260380" lon="-72.24794220"><ele></ele><time>2014-6-24T23:18:39Z</time></trkpt>
<trkpt lat="48.11258110" lon="-72.24796120"><ele></ele><time>2014-6-24T23:18:42Z</time></trkpt>
<trkpt lat="48.11257080" lon="-72.24796990"><ele></ele><time>2014-6-24T23:18:45Z</time></trkpt>
<trkpt lat="48.11256030" lon="-72.24797860"><ele></ele><time>2014-6-24T23:18:48Z</time></trkpt>
<trkpt lat="48.11255000" lon="-72.24798810"><ele></ele><time>2014-6-24T23:18:51Z</time></trkpt>
<trkpt lat="48.11253900" lon="-72.24799900"><ele></ele><time>2014-6-24T23:18:54Z</time></trkpt>
<trkpt lat="48.11252940" lon="-72.24800930"><ele></ele><time>2014-6-24T23:18:57Z</time></trkpt>
<trkpt lat="48.11251910" lon="-72.24801910"><ele></ele><time>2014-6-24T23:19:0Z</time></trkpt>
<trkpt lat="48.11250880" lon="-72.24802840"><ele></ele><time>2014-6-24T23:19:3Z</time></trkpt>
<trkpt lat="48.11248800" lon="-72.24804790"><ele></ele><time>2014-6-24T23:19:6Z</time></trkpt>
<trkpt lat="48.11245740" lon="-72.24807790"><ele></ele><time>2014-6-24T23:19:9Z</time></trkpt>
<trkpt lat="48.11244720" lon="-72.24808680"><ele></ele><time>2014-6-24T23:19:12Z</time></trkpt>
<trkpt lat="48.11243690" lon="-72.24809580"><ele></ele><time>2014-6-24T23:19:15Z</time></trkpt>
<trkpt lat="48.11242670" lon="-72.24810470"><ele></ele><time>2014-6-24T23:19:18Z</time></trkpt>
<trkpt lat="48.11240600" lon="-72.24812200"><ele></ele><time>2014-6-24T23:19:21Z</time></trkpt>
<trkpt lat="48.11239570" lon="-72.24813020"><ele></ele><time>2014-6-24T23:19:24Z</time></trkpt>
<trkpt lat="48.11237540" lon="-72.24814670"><ele></ele><time>2014-6-24T23:19:27Z</time></trkpt>
<trkpt lat="48.11236520" lon="-72.24815490"><ele></ele><time>2014-6-24T23:19:30Z</time></trkpt>
<trkpt lat="48.11235500" lon="-72.24816310"><ele></ele><time>2014-6-24T23:19:33Z</time></trkpt>
<trkpt lat="48.11234480" lon="-72.24817140"><ele></ele><time>2014-6-24T23:19:36Z</time></trkpt>
<trkpt lat="48.11233430" lon="-72.24817980"><ele></ele><time>2014-6-24T23:19:39Z</time></trkpt>
<trkpt lat="48.11232400" lon="-72.24818780"><ele></ele><time>2014-6-24T23:19:42Z</time></trkpt>
<trkpt lat="48.11231300" lon="-72.24819570"><ele></ele><time>2014-6-24T23:19:45Z</time></trkpt>
<trkpt lat="48.11228160" lon="-72.24822170"><ele></ele><time>2014-6-24T23:19:48Z</time></trkpt>
<trkpt lat="48.11225090" lon="-72.24824800"><ele></ele><time>2014-6-24T23:19:51Z</time></trkpt>
<trkpt lat="48.11224080" lon="-72.24825630"><ele></ele><time>2014-6-24T23:19:54Z</time></trkpt>
<trkpt lat="48.11223050" lon="-72.24826390"><ele></ele><time>2014-6-24T23:19:57Z</time></trkpt>
<trkpt lat="48.11222030" lon="-72.24827170"><ele></ele><time>2014-6-24T23:20:0Z</time></trkpt>
<trkpt lat="48.11220990" lon="-72.24827990"><ele></ele><time>2014-6-24T23:20:3Z</time></trkpt>
<trkpt lat="48.11219920" lon="-72.24828800"><ele></ele><time>2014-6-24T23:20:6Z</time></trkpt>
<trkpt lat="48.11218840" lon="-72.24829570"><ele></ele><time>2014-6-24T23:20:9Z</time></trkpt>
<trkpt lat="48.11215580" lon="-72.24831910"><ele></ele><time>2014-6-24T23:20:12Z</time></trkpt>
<trkpt lat="48.11212250" lon="-72.24834200"><ele></ele><time>2014-6-24T23:20:15Z</time></trkpt>
<trkpt lat="48.11211180" lon="-72.24835060"><ele></ele><time>2014-6-24T23:20:18Z</time></trkpt>
<trkpt lat="48.11210100" lon="-72.24835940"><ele></ele><time>2014-6-24T23:20:21Z</time></trkpt>
<trkpt lat="48.11209020" lon="-72.24836800"><ele></ele><time>2014-6-24T23:20:24Z</time></trkpt>
<trkpt lat="48.11207970" lon="-72.24837730"><ele></ele><time>2014-6-24T23:20:27Z</time></trkpt>
<trkpt lat="48.11206920" lon="-72.24838670"><ele></ele><time>2014-6-24T23:20:30Z</time></trkpt>
<trkpt lat="48.11203770" lon="-72.24841420"><ele></ele><time>2014-6-24T23:20:33Z</time></trkpt>
<trkpt lat="48.11200680" lon="-72.24844030"><ele></ele><time>2014-6-24T23:20:36Z</time></trkpt>
<trkpt lat="48.11198740" lon="-72.24845810"><ele></ele><time>2014-6-24T23:20:39Z</time></trkpt>
<trkpt lat="48.11197760" lon="-72.24846690"><ele></ele><time>2014-6-24T23:20:42Z</time></trkpt>
<trkpt lat="48.11194840" lon="-72.24849360"><ele></ele><time>2014-6-24T23:20:45Z</time></trkpt>
<trkpt lat="48.11193890" lon="-72.24850350"><ele></ele><time>2014-6-24T23:20:48Z</time></trkpt>
<trkpt lat="48.11192890" lon="-72.24851310"><ele></ele><time>2014-6-24T23:20:51Z</time></trkpt>
<trkpt lat="48.11191900" lon="-72.24852240"><ele></ele><time>2014-6-24T23:20:54Z</time></trkpt>
<trkpt lat="48.11190890" lon="-72.24853150"><ele></ele><time>2014-6-24T23:20:57Z</time></trkpt>
<trkpt lat="48.11189840" lon="-72.24853990"><ele></ele><time>2014-6-24T23:21:0Z</time></trkpt>
<trkpt lat="48.11188780" lon="-72.24854800"><ele></ele><time>2014-6-24T23:21:3Z</time></trkpt>
<trkpt lat="48.11185760" lon="-72.24857430"><ele></ele><time>2014-6-24T23:21:6Z</time></trkpt>
<trkpt lat="48.11182940" lon="-72.24860420"><ele></ele><time>2014-6-24T23:21:9Z</time></trkpt>
<trkpt lat="48.11182020" lon="-72.24861500"><ele></ele><time>2014-6-24T23:21:12Z</time></trkpt>
<trkpt lat="48.11181100" lon="-72.24862530"><ele></ele><time>2014-6-24T23:21:15Z</time></trkpt>
<trkpt lat="48.11180160" lon="-72.24863510"><ele></ele><time>2014-6-24T23:21:18Z</time></trkpt>
<trkpt lat="48.11179220" lon="-72.24864430"><ele></ele><time>2014-6-24T23:21:21Z</time></trkpt>
<trkpt lat="48.11178250" lon="-72.24865340"><ele></ele><time>2014-6-24T23:21:24Z</time></trkpt>
<trkpt lat="48.11177250" lon="-72.24866230"><ele></ele><time>2014-6-24T23:21:27Z</time></trkpt>
<trkpt lat="48.11175220" lon="-72.24868080"><ele></ele><time>2014-6-24T23:21:30Z</time></trkpt>
<trkpt lat="48.11174240" lon="-72.24868990"><ele></ele><time>2014-6-24T23:21:33Z</time></trkpt>
<trkpt lat="48.11171360" lon="-72.24871510"><ele></ele><time>2014-6-24T23:21:36Z</time></trkpt>
<trkpt lat="48.11170450" lon="-72.24872470"><ele></ele><time>2014-6-24T23:21:39Z</time></trkpt>
<trkpt lat="48.11169610" lon="-72.24873390"><ele></ele><time>2014-6-24T23:21:42Z</time></trkpt>
<trkpt lat="48.11168700" lon="-72.24874330"><ele></ele><time>2014-6-24T23:21:45Z</time></trkpt>
<trkpt lat="48.11167780" lon="-72.24875320"><ele></ele><time>2014-6-24T23:21:48Z</time></trkpt>
<trkpt lat="48.11166890" lon="-72.24876310"><ele></ele><time>2014-6-24T23:21:51Z</time></trkpt>
<trkpt lat="48.11165990" lon="-72.24877300"><ele></ele><time>2014-6-24T23:21:54Z</time></trkpt>
<trkpt lat="48.11163280" lon="-72.24880290"><ele></ele><time>2014-6-24T23:21:57Z</time></trkpt>
<trkpt lat="48.11160640" lon="-72.24883190"><ele></ele><time>2014-6-24T23:22:0Z</time></trkpt>
<trkpt lat="48.11159770" lon="-72.24884170"><ele></ele><time>2014-6-24T23:22:3Z</time></trkpt>
<trkpt lat="48.11158840" lon="-72.24885010"><ele></ele><time>2014-6-24T23:22:6Z</time></trkpt>
<trkpt lat="48.11157960" lon="-72.24885810"><ele></ele><time>2014-6-24T23:22:9Z</time></trkpt>
<trkpt lat="48.11157070" lon="-72.24886690"><ele></ele><time>2014-6-24T23:22:12Z</time></trkpt>
<trkpt lat="48.11156220" lon="-72.24887540"><ele></ele><time>2014-6-24T23:22:15Z</time></trkpt>
<trkpt lat="48.11155370" lon="-72.24888330"><ele></ele><time>2014-6-24T23:22:18Z</time></trkpt>
<trkpt lat="48.11152800" lon="-72.24890700"><ele></ele><time>2014-6-24T23:22:21Z</time></trkpt>
<trkpt lat="48.11150190" lon="-72.24893170"><ele></ele><time>2014-6-24T23:22:24Z</time></trkpt>
<trkpt lat="48.11149320" lon="-72.24894000"><ele></ele><time>2014-6-24T23:22:27Z</time></trkpt>
<trkpt lat="48.11148430" lon="-72.24894930"><ele></ele><time>2014-6-24T23:22:30Z</time></trkpt>
<trkpt lat="48.11147530" lon="-72.24895940"><ele></ele><time>2014-6-24T23:22:33Z</time></trkpt>
<trkpt lat="48.11146630" lon="-72.24896930"><ele></ele><time>2014-6-24T23:22:36Z</time></trkpt>
<trkpt lat="48.11145710" lon="-72.24897850"><ele></ele><time>2014-6-24T23:22:39Z</time></trkpt>
<trkpt lat="48.11144810" lon="-72.24898710"><ele></ele><time>2014-6-24T23:22:42Z</time></trkpt>
<trkpt lat="48.11143080" lon="-72.24900460"><ele></ele><time>2014-6-24T23:22:45Z</time></trkpt>
<trkpt lat="48.11142220" lon="-72.24901280"><ele></ele><time>2014-6-24T23:22:48Z</time></trkpt>
<trkpt lat="48.11139830" lon="-72.24903500"><ele></ele><time>2014-6-24T23:22:51Z</time></trkpt>
<trkpt lat="48.11139090" lon="-72.24904200"><ele></ele><time>2014-6-24T23:22:54Z</time></trkpt>
<trkpt lat="48.11138370" lon="-72.24904950"><ele></ele><time>2014-6-24T23:22:57Z</time></trkpt>
<trkpt lat="48.11137660" lon="-72.24905750"><ele></ele><time>2014-6-24T23:23:0Z</time></trkpt>
<trkpt lat="48.11136920" lon="-72.24906500"><ele></ele><time>2014-6-24T23:23:3Z</time></trkpt>
<trkpt lat="48.11136180" lon="-72.24907230"><ele></ele><time>2014-6-24T23:23:6Z</time></trkpt>
<trkpt lat="48.11135450" lon="-72.24907980"><ele></ele><time>2014-6-24T23:23:9Z</time></trkpt>
<trkpt lat="48.11133290" lon="-72.24910110"><ele></ele><time>2014-6-24T23:23:12Z</time></trkpt>
<trkpt lat="48.11131390" lon="-72.24912080"><ele></ele><time>2014-6-24T23:23:15Z</time></trkpt>
<trkpt lat="48.11130730" lon="-72.24912720"><ele></ele><time>2014-6-24T23:23:18Z</time></trkpt>
<trkpt lat="48.11130100" lon="-72.24913300"><ele></ele><time>2014-6-24T23:23:21Z</time></trkpt>
<trkpt lat="48.11129440" lon="-72.24913920"><ele></ele><time>2014-6-24T23:23:24Z</time></trkpt>
<trkpt lat="48.11128780" lon="-72.24914650"><ele></ele><time>2014-6-24T23:23:27Z</time></trkpt>
<trkpt lat="48.11128140" lon="-72.24915320"><ele></ele><time>2014-6-24T23:23:30Z</time></trkpt>
<trkpt lat="48.11127520" lon="-72.24916030"><ele></ele><time>2014-6-24T23:23:33Z</time></trkpt>
<trkpt lat="48.11125930" lon="-72.24917810"><ele></ele><time>2014-6-24T23:23:36Z</time></trkpt>
<trkpt lat="48.11125150" lon="-72.24918690"><ele></ele><time>2014-6-24T23:23:39Z</time></trkpt>
<trkpt lat="48.11124960" lon="-72.24918960"><ele></ele><time>2014-6-24T23:23:42Z</time></trkpt>
<trkpt lat="48.11124790" lon="-72.24919420"><ele></ele><time>2014-6-24T23:23:45Z</time></trkpt>
<trkpt lat="48.11124560" lon="-72.24919820"><ele></ele><time>2014-6-24T23:23:48Z</time></trkpt>
<trkpt lat="48.11124300" lon="-72.24920380"><ele></ele><time>2014-6-24T23:23:51Z</time></trkpt>
<trkpt lat="48.11124030" lon="-72.24920920"><ele></ele><time>2014-6-24T23:23:54Z</time></trkpt>
<trkpt lat="48.11123750" lon="-72.24921420"><ele></ele><time>2014-6-24T23:23:57Z</time></trkpt>
<trkpt lat="48.11123240" lon="-72.24922400"><ele></ele><time>2014-6-24T23:24:0Z</time></trkpt>
<trkpt lat="48.11123030" lon="-72.24922880"><ele></ele><time>2014-6-24T23:24:3Z</time></trkpt>
<trkpt lat="48.11122300" lon="-72.24924450"><ele></ele><time>2014-6-24T23:24:6Z</time></trkpt>
<trkpt lat="48.11122020" lon="-72.24925050"><ele></ele><time>2014-6-24T23:24:9Z</time></trkpt>
<trkpt lat="48.11121750" lon="-72.24925660"><ele></ele><time>2014-6-24T23:24:12Z</time></trkpt>
<trkpt lat="48.11121480" lon="-72.24926290"><ele></ele><time>2014-6-24T23:24:15Z</time></trkpt>
<trkpt lat="48.11121220" lon="-72.24926910"><ele></ele><time>2014-6-24T23:24:18Z</time></trkpt>
<trkpt lat="48.11120960" lon="-72.24927580"><ele></ele><time>2014-6-24T23:24:21Z</time></trkpt>
<trkpt lat="48.11120710" lon="-72.24928240"><ele></ele><time>2014-6-24T23:24:24Z</time></trkpt>
<trkpt lat="48.11119910" lon="-72.24930580"><ele></ele><time>2014-6-24T23:24:27Z</time></trkpt>
<trkpt lat="48.11119020" lon="-72.24933380"><ele></ele><time>2014-6-24T23:24:30Z</time></trkpt>
<trkpt lat="48.11118610" lon="-72.24934310"><ele></ele><time>2014-6-24T23:24:33Z</time></trkpt>
<trkpt lat="48.11118170" lon="-72.24935230"><ele></ele><time>2014-6-24T23:24:36Z</time></trkpt>
<trkpt lat="48.11117720" lon="-72.24936110"><ele></ele><time>2014-6-24T23:24:39Z</time></trkpt>
<trkpt lat="48.11117290" lon="-72.24936950"><ele></ele><time>2014-6-24T23:24:42Z</time></trkpt>
<trkpt lat="48.11116810" lon="-72.24937760"><ele></ele><time>2014-6-24T23:24:45Z</time></trkpt>
<trkpt lat="48.11116320" lon="-72.24938500"><ele></ele><time>2014-6-24T23:24:48Z</time></trkpt>
<trkpt lat="48.11115320" lon="-72.24939930"><ele></ele><time>2014-6-24T23:24:51Z</time></trkpt>
<trkpt lat="48.11114790" lon="-72.24940670"><ele></ele><time>2014-6-24T23:24:54Z</time></trkpt>
<trkpt lat="48.11113110" lon="-72.24942910"><ele></ele><time>2014-6-24T23:24:57Z</time></trkpt>
<trkpt lat="48.11112530" lon="-72.24943650"><ele></ele><time>2014-6-24T23:25:0Z</time></trkpt>
<trkpt lat="48.11111940" lon="-72.24944380"><ele></ele><time>2014-6-24T23:25:3Z</time></trkpt>
<trkpt lat="48.11111300" lon="-72.24945040"><ele></ele><time>2014-6-24T23:25:6Z</time></trkpt>
<trkpt lat="48.11110640" lon="-72.24945720"><ele></ele><time>2014-6-24T23:25:9Z</time></trkpt>
<trkpt lat="48.11109960" lon="-72.24946300"><ele></ele><time>2014-6-24T23:25:12Z</time></trkpt>
<trkpt lat="48.11109290" lon="-72.24946920"><ele></ele><time>2014-6-24T23:25:15Z</time></trkpt>
<trkpt lat="48.11107890" lon="-72.24948040"><ele></ele><time>2014-6-24T23:25:18Z</time></trkpt>
<trkpt lat="48.11107190" lon="-72.24948630"><ele></ele><time>2014-6-24T23:25:21Z</time></trkpt>
<trkpt lat="48.11105790" lon="-72.24949820"><ele></ele><time>2014-6-24T23:25:24Z</time></trkpt>
<trkpt lat="48.11105130" lon="-72.24950410"><ele></ele><time>2014-6-24T23:25:27Z</time></trkpt>
<trkpt lat="48.11104470" lon="-72.24950980"><ele></ele><time>2014-6-24T23:25:30Z</time></trkpt>
<trkpt lat="48.11103880" lon="-72.24951520"><ele></ele><time>2014-6-24T23:25:33Z</time></trkpt>
<trkpt lat="48.11103290" lon="-72.24952000"><ele></ele><time>2014-6-24T23:25:36Z</time></trkpt>
<trkpt lat="48.11102710" lon="-72.24952510"><ele></ele><time>2014-6-24T23:25:39Z</time></trkpt>
<trkpt lat="48.11102180" lon="-72.24953000"><ele></ele><time>2014-6-24T23:25:42Z</time></trkpt>
<trkpt lat="48.11101650" lon="-72.24953460"><ele></ele><time>2014-6-24T23:25:45Z</time></trkpt>
<trkpt lat="48.11100290" lon="-72.24954660"><ele></ele><time>2014-6-24T23:25:48Z</time></trkpt>
<trkpt lat="48.11098970" lon="-72.24955760"><ele></ele><time>2014-6-24T23:25:51Z</time></trkpt>
<trkpt lat="48.11098500" lon="-72.24956150"><ele></ele><time>2014-6-24T23:25:54Z</time></trkpt>
<trkpt lat="48.11098010" lon="-72.24956600"><ele></ele><time>2014-6-24T23:25:57Z</time></trkpt>
<trkpt lat="48.11097490" lon="-72.24957020"><ele></ele><time>2014-6-24T23:26:0Z</time></trkpt>
<trkpt lat="48.11096980" lon="-72.24957490"><ele></ele><time>2014-6-24T23:26:3Z</time></trkpt>
<trkpt lat="48.11096520" lon="-72.24957920"><ele></ele><time>2014-6-24T23:26:6Z</time></trkpt>
<trkpt lat="48.11096090" lon="-72.24958400"><ele></ele><time>2014-6-24T23:26:9Z</time></trkpt>
<trkpt lat="48.11095640" lon="-72.24958830"><ele></ele><time>2014-6-24T23:26:12Z</time></trkpt>
<trkpt lat="48.11095180" lon="-72.24959290"><ele></ele><time>2014-6-24T23:26:15Z</time></trkpt>
<trkpt lat="48.11093720" lon="-72.24960640"><ele></ele><time>2014-6-24T23:26:18Z</time></trkpt>
<trkpt lat="48.11092240" lon="-72.24962080"><ele></ele><time>2014-6-24T23:26:21Z</time></trkpt>
<trkpt lat="48.11091680" lon="-72.24962520"><ele></ele><time>2014-6-24T23:26:24Z</time></trkpt>
<trkpt lat="48.11091140" lon="-72.24962980"><ele></ele><time>2014-6-24T23:26:27Z</time></trkpt>
<trkpt lat="48.11090570" lon="-72.24963440"><ele></ele><time>2014-6-24T23:26:30Z</time></trkpt>
<trkpt lat="48.11090020" lon="-72.24963890"><ele></ele><time>2014-6-24T23:26:33Z</time></trkpt>
<trkpt lat="48.11089500" lon="-72.24964310"><ele></ele><time>2014-6-24T23:26:36Z</time></trkpt>
<trkpt lat="48.11089000" lon="-72.24964760"><ele></ele><time>2014-6-24T23:26:39Z</time></trkpt>
<trkpt lat="48.11087420" lon="-72.24965980"><ele></ele><time>2014-6-24T23:26:42Z</time></trkpt>
<trkpt lat="48.11086130" lon="-72.24966770"><ele></ele><time>2014-6-24T23:26:45Z</time></trkpt>
<trkpt lat="48.11085760" lon="-72.24967020"><ele></ele><time>2014-6-24T23:26:48Z</time></trkpt>
<trkpt lat="48.11085380" lon="-72.24967280"><ele></ele><time>2014-6-24T23:26:51Z</time></trkpt>
<trkpt lat="48.11084940" lon="-72.24967660"><ele></ele><time>2014-6-24T23:26:54Z</time></trkpt>
<trkpt lat="48.11084430" lon="-72.24968050"><ele></ele><time>2014-6-24T23:26:57Z</time></trkpt>
<trkpt lat="48.11083960" lon="-72.24968450"><ele></ele><time>2014-6-24T23:27:0Z</time></trkpt>
<trkpt lat="48.11083560" lon="-72.24968830"><ele></ele><time>2014-6-24T23:27:3Z</time></trkpt>
<trkpt lat="48.11082340" lon="-72.24969850"><ele></ele><time>2014-6-24T23:27:6Z</time></trkpt>
<trkpt lat="48.11081320" lon="-72.24970530"><ele></ele><time>2014-6-24T23:27:9Z</time></trkpt>
<trkpt lat="48.11080750" lon="-72.24970900"><ele></ele><time>2014-6-24T23:27:12Z</time></trkpt>
<trkpt lat="48.11080080" lon="-72.24971230"><ele></ele><time>2014-6-24T23:27:15Z</time></trkpt>
<trkpt lat="48.11079380" lon="-72.24971620"><ele></ele><time>2014-6-24T23:27:18Z</time></trkpt>
<trkpt lat="48.11078650" lon="-72.24971980"><ele></ele><time>2014-6-24T23:27:21Z</time></trkpt>
<trkpt lat="48.11077960" lon="-72.24972330"><ele></ele><time>2014-6-24T23:27:24Z</time></trkpt>
<trkpt lat="48.11077250" lon="-72.24972610"><ele></ele><time>2014-6-24T23:27:27Z</time></trkpt>
<trkpt lat="48.11076570" lon="-72.24972940"><ele></ele><time>2014-6-24T23:27:30Z</time></trkpt>
<trkpt lat="48.11074820" lon="-72.24973970"><ele></ele><time>2014-6-24T23:27:33Z</time></trkpt>
<trkpt lat="48.11074290" lon="-72.24974350"><ele></ele><time>2014-6-24T23:27:36Z</time></trkpt>
<trkpt lat="48.11073820" lon="-72.24974790"><ele></ele><time>2014-6-24T23:27:39Z</time></trkpt>
<trkpt lat="48.11073470" lon="-72.24975160"><ele></ele><time>2014-6-24T23:27:42Z</time></trkpt>
<trkpt lat="48.11072860" lon="-72.24975930"><ele></ele><time>2014-6-24T23:27:45Z</time></trkpt>
<trkpt lat="48.11072610" lon="-72.24976290"><ele></ele><time>2014-6-24T23:27:48Z</time></trkpt>
<trkpt lat="48.11072380" lon="-72.24976720"><ele></ele><time>2014-6-24T23:27:51Z</time></trkpt>
<trkpt lat="48.11072110" lon="-72.24977280"><ele></ele><time>2014-6-24T23:27:54Z</time></trkpt>
<trkpt lat="48.11071880" lon="-72.24977920"><ele></ele><time>2014-6-24T23:27:57Z</time></trkpt>
<trkpt lat="48.11071630" lon="-72.24978620"><ele></ele><time>2014-6-24T23:28:0Z</time></trkpt>
<trkpt lat="48.11071390" lon="-72.24979370"><ele></ele><time>2014-6-24T23:28:3Z</time></trkpt>
<trkpt lat="48.11070770" lon="-72.24981880"><ele></ele><time>2014-6-24T23:28:6Z</time></trkpt>
<trkpt lat="48.11070550" lon="-72.24983590"><ele></ele><time>2014-6-24T23:28:9Z</time></trkpt>
<trkpt lat="48.11070480" lon="-72.24984410"><ele></ele><time>2014-6-24T23:28:12Z</time></trkpt>
<trkpt lat="48.11070440" lon="-72.24985290"><ele></ele><time>2014-6-24T23:28:15Z</time></trkpt>
<trkpt lat="48.11070420" lon="-72.24986210"><ele></ele><time>2014-6-24T23:28:18Z</time></trkpt>
<trkpt lat="48.11070380" lon="-72.24987240"><ele></ele><time>2014-6-24T23:28:21Z</time></trkpt>
<trkpt lat="48.11070350" lon="-72.24988290"><ele></ele><time>2014-6-24T23:28:24Z</time></trkpt>
<trkpt lat="48.11070320" lon="-72.24989330"><ele></ele><time>2014-6-24T23:28:27Z</time></trkpt>
<trkpt lat="48.11070300" lon="-72.24990400"><ele></ele><time>2014-6-24T23:28:30Z</time></trkpt>
<trkpt lat="48.11070260" lon="-72.24993540"><ele></ele><time>2014-6-24T23:28:33Z</time></trkpt>
<trkpt lat="48.11070160" lon="-72.24996560"><ele></ele><time>2014-6-24T23:28:36Z</time></trkpt>
<trkpt lat="48.11070090" lon="-72.24997550"><ele></ele><time>2014-6-24T23:28:39Z</time></trkpt>
<trkpt lat="48.11070020" lon="-72.24998530"><ele></ele><time>2014-6-24T23:28:42Z</time></trkpt>
<trkpt lat="48.11069830" lon="-72.24999530"><ele></ele><time>2014-6-24T23:28:45Z</time></trkpt>
<trkpt lat="48.11069660" lon="-72.25000480"><ele></ele><time>2014-6-24T23:28:48Z</time></trkpt>
<trkpt lat="48.11069460" lon="-72.25001360"><ele></ele><time>2014-6-24T23:28:51Z</time></trkpt>
<trkpt lat="48.11069270" lon="-72.25002250"><ele></ele><time>2014-6-24T23:28:54Z</time></trkpt>
<trkpt lat="48.11068700" lon="-72.25004910"><ele></ele><time>2014-6-24T23:28:57Z</time></trkpt>
<trkpt lat="48.11068510" lon="-72.25005840"><ele></ele><time>2014-6-24T23:29:0Z</time></trkpt>
<trkpt lat="48.11068140" lon="-72.25007600"><ele></ele><time>2014-6-24T23:29:3Z</time></trkpt>
<trkpt lat="48.11067970" lon="-72.25008450"><ele></ele><time>2014-6-24T23:29:6Z</time></trkpt>
<trkpt lat="48.11067840" lon="-72.25009290"><ele></ele><time>2014-6-24T23:29:9Z</time></trkpt>
<trkpt lat="48.11067710" lon="-72.25010100"><ele></ele><time>2014-6-24T23:29:12Z</time></trkpt>
<trkpt lat="48.11067550" lon="-72.25010890"><ele></ele><time>2014-6-24T23:29:15Z</time></trkpt>
<trkpt lat="48.11067410" lon="-72.25011770"><ele></ele><time>2014-6-24T23:29:18Z</time></trkpt>
<trkpt lat="48.11067240" lon="-72.25012650"><ele></ele><time>2014-6-24T23:29:21Z</time></trkpt>
<trkpt lat="48.11066720" lon="-72.25015300"><ele></ele><time>2014-6-24T23:29:24Z</time></trkpt>
<trkpt lat="48.11066160" lon="-72.25018200"><ele></ele><time>2014-6-24T23:29:27Z</time></trkpt>
<trkpt lat="48.11065940" lon="-72.25019100"><ele></ele><time>2014-6-24T23:29:30Z</time></trkpt>
<trkpt lat="48.11065720" lon="-72.25019940"><ele></ele><time>2014-6-24T23:29:33Z</time></trkpt>
<trkpt lat="48.11065440" lon="-72.25020940"><ele></ele><time>2014-6-24T23:29:36Z</time></trkpt>
<trkpt lat="48.11065240" lon="-72.25021820"><ele></ele><time>2014-6-24T23:29:39Z</time></trkpt>
<trkpt lat="48.11064920" lon="-72.25022760"><ele></ele><time>2014-6-24T23:29:42Z</time></trkpt>
<trkpt lat="48.11063740" lon="-72.25025160"><ele></ele><time>2014-6-24T23:29:45Z</time></trkpt>
<trkpt lat="48.11062510" lon="-72.25027330"><ele></ele><time>2014-6-24T23:29:48Z</time></trkpt>
<trkpt lat="48.11061210" lon="-72.25029840"><ele></ele><time>2014-6-24T23:29:51Z</time></trkpt>
<trkpt lat="48.11059890" lon="-72.25032750"><ele></ele><time>2014-6-24T23:29:54Z</time></trkpt>
<trkpt lat="48.11059460" lon="-72.25033840"><ele></ele><time>2014-6-24T23:29:57Z</time></trkpt>
<trkpt lat="48.11059040" lon="-72.25034870"><ele></ele><time>2014-6-24T23:30:0Z</time></trkpt>
<trkpt lat="48.11058630" lon="-72.25035900"><ele></ele><time>2014-6-24T23:30:3Z</time></trkpt>
<trkpt lat="48.11058200" lon="-72.25036930"><ele></ele><time>2014-6-24T23:30:6Z</time></trkpt>
<trkpt lat="48.11057750" lon="-72.25038030"><ele></ele><time>2014-6-24T23:30:9Z</time></trkpt>
<trkpt lat="48.11057370" lon="-72.25039180"><ele></ele><time>2014-6-24T23:30:12Z</time></trkpt>
<trkpt lat="48.11056140" lon="-72.25042490"><ele></ele><time>2014-6-24T23:30:15Z</time></trkpt>
<trkpt lat="48.11055770" lon="-72.25043460"><ele></ele><time>2014-6-24T23:30:18Z</time></trkpt>
<trkpt lat="48.11054920" lon="-72.25045410"><ele></ele><time>2014-6-24T23:30:21Z</time></trkpt>
<trkpt lat="48.11054450" lon="-72.25046320"><ele></ele><time>2014-6-24T23:30:24Z</time></trkpt>
<trkpt lat="48.11054020" lon="-72.25047250"><ele></ele><time>2014-6-24T23:30:27Z</time></trkpt>
<trkpt lat="48.11053580" lon="-72.25048160"><ele></ele><time>2014-6-24T23:30:30Z</time></trkpt>
<trkpt lat="48.11053150" lon="-72.25049120"><ele></ele><time>2014-6-24T23:30:33Z</time></trkpt>
<trkpt lat="48.11052720" lon="-72.25050050"><ele></ele><time>2014-6-24T23:30:36Z</time></trkpt>
<trkpt lat="48.11052270" lon="-72.25051030"><ele></ele><time>2014-6-24T23:30:39Z</time></trkpt>
<trkpt lat="48.11050900" lon="-72.25053660"><ele></ele><time>2014-6-24T23:30:42Z</time></trkpt>
<trkpt lat="48.11049960" lon="-72.25055340"><ele></ele><time>2014-6-24T23:30:45Z</time></trkpt>
<trkpt lat="48.11049500" lon="-72.25056170"><ele></ele><time>2014-6-24T23:30:48Z</time></trkpt>
<trkpt lat="48.11049020" lon="-72.25057070"><ele></ele><time>2014-6-24T23:30:51Z</time></trkpt>
<trkpt lat="48.11048550" lon="-72.25058090"><ele></ele><time>2014-6-24T23:30:54Z</time></trkpt>
<trkpt lat="48.11048080" lon="-72.25059080"><ele></ele><time>2014-6-24T23:30:57Z</time></trkpt>
<trkpt lat="48.11047620" lon="-72.25060030"><ele></ele><time>2014-6-24T23:31:0Z</time></trkpt>
<trkpt lat="48.11047140" lon="-72.25060890"><ele></ele><time>2014-6-24T23:31:3Z</time></trkpt>
<trkpt lat="48.11046660" lon="-72.25061710"><ele></ele><time>2014-6-24T23:31:6Z</time></trkpt>
<trkpt lat="48.11046190" lon="-72.25062470"><ele></ele><time>2014-6-24T23:31:9Z</time></trkpt>
<trkpt lat="48.11045340" lon="-72.25063900"><ele></ele><time>2014-6-24T23:31:12Z</time></trkpt>
<trkpt lat="48.11044030" lon="-72.25065840"><ele></ele><time>2014-6-24T23:31:15Z</time></trkpt>
<trkpt lat="48.11043540" lon="-72.25066500"><ele></ele><time>2014-6-24T23:31:18Z</time></trkpt>
<trkpt lat="48.11043040" lon="-72.25067170"><ele></ele><time>2014-6-24T23:31:21Z</time></trkpt>
<trkpt lat="48.11042570" lon="-72.25067840"><ele></ele><time>2014-6-24T23:31:24Z</time></trkpt>
<trkpt lat="48.11042070" lon="-72.25068510"><ele></ele><time>2014-6-24T23:31:27Z</time></trkpt>
<trkpt lat="48.11041560" lon="-72.25069240"><ele></ele><time>2014-6-24T23:31:30Z</time></trkpt>
<trkpt lat="48.11041030" lon="-72.25069970"><ele></ele><time>2014-6-24T23:31:33Z</time></trkpt>
<trkpt lat="48.11039530" lon="-72.25072270"><ele></ele><time>2014-6-24T23:31:36Z</time></trkpt>
<trkpt lat="48.11038100" lon="-72.25074630"><ele></ele><time>2014-6-24T23:31:39Z</time></trkpt>
<trkpt lat="48.11037590" lon="-72.25075460"><ele></ele><time>2014-6-24T23:31:42Z</time></trkpt>
<trkpt lat="48.11037070" lon="-72.25076310"><ele></ele><time>2014-6-24T23:31:45Z</time></trkpt>
<trkpt lat="48.11036550" lon="-72.25077160"><ele></ele><time>2014-6-24T23:31:48Z</time></trkpt>
<trkpt lat="48.11036010" lon="-72.25077990"><ele></ele><time>2014-6-24T23:31:51Z</time></trkpt>
<trkpt lat="48.11035480" lon="-72.25078820"><ele></ele><time>2014-6-24T23:31:54Z</time></trkpt>
<trkpt lat="48.11034950" lon="-72.25079680"><ele></ele><time>2014-6-24T23:31:57Z</time></trkpt>
<trkpt lat="48.11033240" lon="-72.25082530"><ele></ele><time>2014-6-24T23:32:0Z</time></trkpt>
<trkpt lat="48.11031550" lon="-72.25085320"><ele></ele><time>2014-6-24T23:32:3Z</time></trkpt>
<trkpt lat="48.11030970" lon="-72.25086200"><ele></ele><time>2014-6-24T23:32:6Z</time></trkpt>
<trkpt lat="48.11030450" lon="-72.25087090"><ele></ele><time>2014-6-24T23:32:9Z</time></trkpt>
<trkpt lat="48.11029920" lon="-72.25087980"><ele></ele><time>2014-6-24T23:32:12Z</time></trkpt>
<trkpt lat="48.11029420" lon="-72.25088900"><ele></ele><time>2014-6-24T23:32:15Z</time></trkpt>
<trkpt lat="48.11028940" lon="-72.25089740"><ele></ele><time>2014-6-24T23:32:18Z</time></trkpt>
<trkpt lat="48.11028490" lon="-72.25090580"><ele></ele><time>2014-6-24T23:32:21Z</time></trkpt>
<trkpt lat="48.11027610" lon="-72.25092200"><ele></ele><time>2014-6-24T23:32:24Z</time></trkpt>
<trkpt lat="48.11027130" lon="-72.25093070"><ele></ele><time>2014-6-24T23:32:27Z</time></trkpt>
<trkpt lat="48.11025820" lon="-72.25095470"><ele></ele><time>2014-6-24T23:32:30Z</time></trkpt>
<trkpt lat="48.11025410" lon="-72.25096230"><ele></ele><time>2014-6-24T23:32:33Z</time></trkpt>
<trkpt lat="48.11025030" lon="-72.25096990"><ele></ele><time>2014-6-24T23:32:36Z</time></trkpt>
<trkpt lat="48.11024690" lon="-72.25097710"><ele></ele><time>2014-6-24T23:32:39Z</time></trkpt>
<trkpt lat="48.11024340" lon="-72.25098420"><ele></ele><time>2014-6-24T23:32:42Z</time></trkpt>
<trkpt lat="48.11024050" lon="-72.25099130"><ele></ele><time>2014-6-24T23:32:45Z</time></trkpt>
<trkpt lat="48.11023730" lon="-72.25099890"><ele></ele><time>2014-6-24T23:32:48Z</time></trkpt>
<trkpt lat="48.11022710" lon="-72.25102400"><ele></ele><time>2014-6-24T23:32:51Z</time></trkpt>
<trkpt lat="48.11021610" lon="-72.25105200"><ele></ele><time>2014-6-24T23:32:54Z</time></trkpt>
<trkpt lat="48.11021260" lon="-72.25106210"><ele></ele><time>2014-6-24T23:32:57Z</time></trkpt>
<trkpt lat="48.11020940" lon="-72.25107200"><ele></ele><time>2014-6-24T23:33:0Z</time></trkpt>
<trkpt lat="48.11020570" lon="-72.25108230"><ele></ele><time>2014-6-24T23:33:3Z</time></trkpt>
<trkpt lat="48.11020190" lon="-72.25109280"><ele></ele><time>2014-6-24T23:33:6Z</time></trkpt>
<trkpt lat="48.11019830" lon="-72.25110330"><ele></ele><time>2014-6-24T23:33:9Z</time></trkpt>
<trkpt lat="48.11019390" lon="-72.25111400"><ele></ele><time>2014-6-24T23:33:12Z</time></trkpt>
<trkpt lat="48.11018570" lon="-72.25113600"><ele></ele><time>2014-6-24T23:33:15Z</time></trkpt>
<trkpt lat="48.11018180" lon="-72.25114740"><ele></ele><time>2014-6-24T23:33:18Z</time></trkpt>
<trkpt lat="48.11017810" lon="-72.25115920"><ele></ele><time>2014-6-24T23:33:21Z</time></trkpt>
<trkpt lat="48.11017410" lon="-72.25117070"><ele></ele><time>2014-6-24T23:33:24Z</time></trkpt>
<trkpt lat="48.11016380" lon="-72.25120420"><ele></ele><time>2014-6-24T23:33:27Z</time></trkpt>
<trkpt lat="48.11016060" lon="-72.25121580"><ele></ele><time>2014-6-24T23:33:30Z</time></trkpt>
<trkpt lat="48.11015710" lon="-72.25122790"><ele></ele><time>2014-6-24T23:33:33Z</time></trkpt>
<trkpt lat="48.11015390" lon="-72.25123960"><ele></ele><time>2014-6-24T23:33:36Z</time></trkpt>
<trkpt lat="48.11015100" lon="-72.25125070"><ele></ele><time>2014-6-24T23:33:39Z</time></trkpt>
<trkpt lat="48.11014860" lon="-72.25126130"><ele></ele><time>2014-6-24T23:33:42Z</time></trkpt>
<trkpt lat="48.11014590" lon="-72.25127220"><ele></ele><time>2014-6-24T23:33:45Z</time></trkpt>
<trkpt lat="48.11014320" lon="-72.25128320"><ele></ele><time>2014-6-24T23:33:48Z</time></trkpt>
<trkpt lat="48.11014050" lon="-72.25129460"><ele></ele><time>2014-6-24T23:33:51Z</time></trkpt>
<trkpt lat="48.11013780" lon="-72.25130620"><ele></ele><time>2014-6-24T23:33:54Z</time></trkpt>
<trkpt lat="48.11013540" lon="-72.25131840"><ele></ele><time>2014-6-24T23:33:57Z</time></trkpt>
<trkpt lat="48.11013130" lon="-72.25134470"><ele></ele><time>2014-6-24T23:34:0Z</time></trkpt>
<trkpt lat="48.11012880" lon="-72.25135840"><ele></ele><time>2014-6-24T23:34:3Z</time></trkpt>
<trkpt lat="48.11012030" lon="-72.25139960"><ele></ele><time>2014-6-24T23:34:6Z</time></trkpt>
<trkpt lat="48.11011770" lon="-72.25141390"><ele></ele><time>2014-6-24T23:34:9Z</time></trkpt>
<trkpt lat="48.11011510" lon="-72.25142730"><ele></ele><time>2014-6-24T23:34:12Z</time></trkpt>
<trkpt lat="48.11011260" lon="-72.25144060"><ele></ele><time>2014-6-24T23:34:15Z</time></trkpt>
<trkpt lat="48.11011000" lon="-72.25145390"><ele></ele><time>2014-6-24T23:34:18Z</time></trkpt>
<trkpt lat="48.11010750" lon="-72.25146690"><ele></ele><time>2014-6-24T23:34:21Z</time></trkpt>
<trkpt lat="48.11010510" lon="-72.25147970"><ele></ele><time>2014-6-24T23:34:24Z</time></trkpt>
<trkpt lat="48.11009810" lon="-72.25152230"><ele></ele><time>2014-6-24T23:34:27Z</time></trkpt>
<trkpt lat="48.11009170" lon="-72.25156510"><ele></ele><time>2014-6-24T23:34:30Z</time></trkpt>
<trkpt lat="48.11008950" lon="-72.25158020"><ele></ele><time>2014-6-24T23:34:33Z</time></trkpt>
<trkpt lat="48.11008750" lon="-72.25159530"><ele></ele><time>2014-6-24T23:34:36Z</time></trkpt>
<trkpt lat="48.11008580" lon="-72.25161020"><ele></ele><time>2014-6-24T23:34:39Z</time></trkpt>
<trkpt lat="48.11008390" lon="-72.25162540"><ele></ele><time>2014-6-24T23:34:42Z</time></trkpt>
<trkpt lat="48.11008200" lon="-72.25164040"><ele></ele><time>2014-6-24T23:34:45Z</time></trkpt>
<trkpt lat="48.11008040" lon="-72.25165530"><ele></ele><time>2014-6-24T23:34:48Z</time></trkpt>
<trkpt lat="48.11007620" lon="-72.25168610"><ele></ele><time>2014-6-24T23:34:51Z</time></trkpt>
<trkpt lat="48.11007420" lon="-72.25170090"><ele></ele><time>2014-6-24T23:34:54Z</time></trkpt>
<trkpt lat="48.11006610" lon="-72.25174360"><ele></ele><time>2014-6-24T23:34:57Z</time></trkpt>
<trkpt lat="48.11006340" lon="-72.25175690"><ele></ele><time>2014-6-24T23:35:0Z</time></trkpt>
<trkpt lat="48.11006090" lon="-72.25177010"><ele></ele><time>2014-6-24T23:35:3Z</time></trkpt>
<trkpt lat="48.11005810" lon="-72.25178290"><ele></ele><time>2014-6-24T23:35:6Z</time></trkpt>
<trkpt lat="48.11005540" lon="-72.25179570"><ele></ele><time>2014-6-24T23:35:9Z</time></trkpt>
<trkpt lat="48.11005230" lon="-72.25180830"><ele></ele><time>2014-6-24T23:35:12Z</time></trkpt>
<trkpt lat="48.11004860" lon="-72.25182060"><ele></ele><time>2014-6-24T23:35:15Z</time></trkpt>
<trkpt lat="48.11003460" lon="-72.25185880"><ele></ele><time>2014-6-24T23:35:18Z</time></trkpt>
<trkpt lat="48.11002240" lon="-72.25189460"><ele></ele><time>2014-6-24T23:35:21Z</time></trkpt>
<trkpt lat="48.11001810" lon="-72.25190580"><ele></ele><time>2014-6-24T23:35:24Z</time></trkpt>
<trkpt lat="48.11001390" lon="-72.25191710"><ele></ele><time>2014-6-24T23:35:27Z</time></trkpt>
<trkpt lat="48.11000970" lon="-72.25192790"><ele></ele><time>2014-6-24T23:35:30Z</time></trkpt>
<trkpt lat="48.11000510" lon="-72.25193860"><ele></ele><time>2014-6-24T23:35:33Z</time></trkpt>
<trkpt lat="48.11000040" lon="-72.25194900"><ele></ele><time>2014-6-24T23:35:36Z</time></trkpt>
<trkpt lat="48.10999590" lon="-72.25195940"><ele></ele><time>2014-6-24T23:35:39Z</time></trkpt>
<trkpt lat="48.10998120" lon="-72.25198820"><ele></ele><time>2014-6-24T23:35:42Z</time></trkpt>
<trkpt lat="48.10996670" lon="-72.25201430"><ele></ele><time>2014-6-24T23:35:45Z</time></trkpt>
<trkpt lat="48.10996170" lon="-72.25202270"><ele></ele><time>2014-6-24T23:35:48Z</time></trkpt>
<trkpt lat="48.10995630" lon="-72.25203060"><ele></ele><time>2014-6-24T23:35:51Z</time></trkpt>
<trkpt lat="48.10995080" lon="-72.25203860"><ele></ele><time>2014-6-24T23:35:54Z</time></trkpt>
<trkpt lat="48.10994520" lon="-72.25204620"><ele></ele><time>2014-6-24T23:35:57Z</time></trkpt>
<trkpt lat="48.10993940" lon="-72.25205390"><ele></ele><time>2014-6-24T23:36:0Z</time></trkpt>
<trkpt lat="48.10993330" lon="-72.25206090"><ele></ele><time>2014-6-24T23:36:3Z</time></trkpt>
<trkpt lat="48.10991960" lon="-72.25207160"><ele></ele><time>2014-6-24T23:36:6Z</time></trkpt>
<trkpt lat="48.10991250" lon="-72.25207650"><ele></ele><time>2014-6-24T23:36:9Z</time></trkpt>
<trkpt lat="48.10989750" lon="-72.25208440"><ele></ele><time>2014-6-24T23:36:12Z</time></trkpt>
<trkpt lat="48.10988980" lon="-72.25208790"><ele></ele><time>2014-6-24T23:36:15Z</time></trkpt>
<trkpt lat="48.10988200" lon="-72.25209010"><ele></ele><time>2014-6-24T23:36:18Z</time></trkpt>
<trkpt lat="48.10987450" lon="-72.25209110"><ele></ele><time>2014-6-24T23:36:21Z</time></trkpt>
<trkpt lat="48.10986720" lon="-72.25209140"><ele></ele><time>2014-6-24T23:36:24Z</time></trkpt>
<trkpt lat="48.10986000" lon="-72.25209090"><ele></ele><time>2014-6-24T23:36:27Z</time></trkpt>
<trkpt lat="48.10985270" lon="-72.25208920"><ele></ele><time>2014-6-24T23:36:30Z</time></trkpt>
<trkpt lat="48.10984560" lon="-72.25208640"><ele></ele><time>2014-6-24T23:36:33Z</time></trkpt>
<trkpt lat="48.10983230" lon="-72.25208040"><ele></ele><time>2014-6-24T23:36:36Z</time></trkpt>
<trkpt lat="48.10982680" lon="-72.25207760"><ele></ele><time>2014-6-24T23:36:39Z</time></trkpt>
<trkpt lat="48.10981180" lon="-72.25207060"><ele></ele><time>2014-6-24T23:36:42Z</time></trkpt>
<trkpt lat="48.10980630" lon="-72.25206930"><ele></ele><time>2014-6-24T23:36:45Z</time></trkpt>
<trkpt lat="48.10980120" lon="-72.25206770"><ele></ele><time>2014-6-24T23:36:48Z</time></trkpt>
<trkpt lat="48.10979570" lon="-72.25206580"><ele></ele><time>2014-6-24T23:36:51Z</time></trkpt>
<trkpt lat="48.10978990" lon="-72.25206310"><ele></ele><time>2014-6-24T23:36:54Z</time></trkpt>
<trkpt lat="48.10978580" lon="-72.25206130"><ele></ele><time>2014-6-24T23:36:57Z</time></trkpt>
<trkpt lat="48.10978230" lon="-72.25205880"><ele></ele><time>2014-6-24T23:37:0Z</time></trkpt>
<trkpt lat="48.10977590" lon="-72.25205450"><ele></ele><time>2014-6-24T23:37:3Z</time></trkpt>
<trkpt lat="48.10977300" lon="-72.25205210"><ele></ele><time>2014-6-24T23:37:6Z</time></trkpt>
<trkpt lat="48.10977000" lon="-72.25204980"><ele></ele><time>2014-6-24T23:37:9Z</time></trkpt>
<trkpt lat="48.10976210" lon="-72.25204290"><ele></ele><time>2014-6-24T23:37:12Z</time></trkpt>
<trkpt lat="48.10975810" lon="-72.25203930"><ele></ele><time>2014-6-24T23:37:15Z</time></trkpt>
<trkpt lat="48.10975440" lon="-72.25203590"><ele></ele><time>2014-6-24T23:37:18Z</time></trkpt>
<trkpt lat="48.10975060" lon="-72.25203220"><ele></ele><time>2014-6-24T23:37:21Z</time></trkpt>
<trkpt lat="48.10974670" lon="-72.25202840"><ele></ele><time>2014-6-24T23:37:24Z</time></trkpt>
<trkpt lat="48.10974290" lon="-72.25202400"><ele></ele><time>2014-6-24T23:37:27Z</time></trkpt>
<trkpt lat="48.10973970" lon="-72.25201980"><ele></ele><time>2014-6-24T23:37:30Z</time></trkpt>
<trkpt lat="48.10973030" lon="-72.25200390"><ele></ele><time>2014-6-24T23:37:33Z</time></trkpt>
<trkpt lat="48.10972710" lon="-72.25199760"><ele></ele><time>2014-6-24T23:37:36Z</time></trkpt>
<trkpt lat="48.10971780" lon="-72.25197820"><ele></ele><time>2014-6-24T23:37:39Z</time></trkpt>
<trkpt lat="48.10971490" lon="-72.25197140"><ele></ele><time>2014-6-24T23:37:42Z</time></trkpt>
<trkpt lat="48.10971220" lon="-72.25196510"><ele></ele><time>2014-6-24T23:37:45Z</time></trkpt>
<trkpt lat="48.10970990" lon="-72.25195890"><ele></ele><time>2014-6-24T23:37:48Z</time></trkpt>
<trkpt lat="48.10970750" lon="-72.25195310"><ele></ele><time>2014-6-24T23:37:51Z</time></trkpt>
<trkpt lat="48.10970500" lon="-72.25194840"><ele></ele><time>2014-6-24T23:37:54Z</time></trkpt>
<trkpt lat="48.10970290" lon="-72.25194330"><ele></ele><time>2014-6-24T23:37:57Z</time></trkpt>
<trkpt lat="48.10969770" lon="-72.25192830"><ele></ele><time>2014-6-24T23:38:0Z</time></trkpt>
<trkpt lat="48.10969610" lon="-72.25192260"><ele></ele><time>2014-6-24T23:38:3Z</time></trkpt>
<trkpt lat="48.10969320" lon="-72.25190910"><ele></ele><time>2014-6-24T23:38:6Z</time></trkpt>
<trkpt lat="48.10969190" lon="-72.25190220"><ele></ele><time>2014-6-24T23:38:9Z</time></trkpt>
<trkpt lat="48.10969110" lon="-72.25189580"><ele></ele><time>2014-6-24T23:38:12Z</time></trkpt>
<trkpt lat="48.10968980" lon="-72.25188930"><ele></ele><time>2014-6-24T23:38:15Z</time></trkpt>
<trkpt lat="48.10968860" lon="-72.25188230"><ele></ele><time>2014-6-24T23:38:18Z</time></trkpt>
<trkpt lat="48.10968680" lon="-72.25187520"><ele></ele><time>2014-6-24T23:38:21Z</time></trkpt>
<trkpt lat="48.10968520" lon="-72.25186870"><ele></ele><time>2014-6-24T23:38:24Z</time></trkpt>
<trkpt lat="48.10968380" lon="-72.25186230"><ele></ele><time>2014-6-24T23:38:27Z</time></trkpt>
<trkpt lat="48.10967900" lon="-72.25184310"><ele></ele><time>2014-6-24T23:38:30Z</time></trkpt>
<trkpt lat="48.10967720" lon="-72.25183620"><ele></ele><time>2014-6-24T23:38:33Z</time></trkpt>
<trkpt lat="48.10967420" lon="-72.25182490"><ele></ele><time>2014-6-24T23:38:36Z</time></trkpt>
<trkpt lat="48.10967310" lon="-72.25181900"><ele></ele><time>2014-6-24T23:38:39Z</time></trkpt>
<trkpt lat="48.10967150" lon="-72.25181250"><ele></ele><time>2014-6-24T23:38:42Z</time></trkpt>
<trkpt lat="48.10966990" lon="-72.25180560"><ele></ele><time>2014-6-24T23:38:45Z</time></trkpt>
<trkpt lat="48.10966860" lon="-72.25179930"><ele></ele><time>2014-6-24T23:38:48Z</time></trkpt>
<trkpt lat="48.10966690" lon="-72.25179330"><ele></ele><time>2014-6-24T23:38:51Z</time></trkpt>
<trkpt lat="48.10966530" lon="-72.25178730"><ele></ele><time>2014-6-24T23:38:54Z</time></trkpt>
<trkpt lat="48.10966330" lon="-72.25178150"><ele></ele><time>2014-6-24T23:38:57Z</time></trkpt>
<trkpt lat="48.10965920" lon="-72.25176950"><ele></ele><time>2014-6-24T23:39:0Z</time></trkpt>
<trkpt lat="48.10965720" lon="-72.25176370"><ele></ele><time>2014-6-24T23:39:3Z</time></trkpt>
<trkpt lat="48.10965540" lon="-72.25175820"><ele></ele><time>2014-6-24T23:39:6Z</time></trkpt>
<trkpt lat="48.10965170" lon="-72.25174550"><ele></ele><time>2014-6-24T23:39:9Z</time></trkpt>
<trkpt lat="48.10965010" lon="-72.25173920"><ele></ele><time>2014-6-24T23:39:12Z</time></trkpt>
<trkpt lat="48.10964860" lon="-72.25173350"><ele></ele><time>2014-6-24T23:39:15Z</time></trkpt>
<trkpt lat="48.10964720" lon="-72.25172770"><ele></ele><time>2014-6-24T23:39:18Z</time></trkpt>
<trkpt lat="48.10964550" lon="-72.25172150"><ele></ele><time>2014-6-24T23:39:21Z</time></trkpt>
<trkpt lat="48.10964390" lon="-72.25171480"><ele></ele><time>2014-6-24T23:39:24Z</time></trkpt>
<trkpt lat="48.10964250" lon="-72.25170780"><ele></ele><time>2014-6-24T23:39:27Z</time></trkpt>
<trkpt lat="48.10963750" lon="-72.25168520"><ele></ele><time>2014-6-24T23:39:30Z</time></trkpt>
<trkpt lat="48.10963150" lon="-72.25166670"><ele></ele><time>2014-6-24T23:39:33Z</time></trkpt>
<trkpt lat="48.10962980" lon="-72.25166190"><ele></ele><time>2014-6-24T23:39:36Z</time></trkpt>
<trkpt lat="48.10962910" lon="-72.25165960"><ele></ele><time>2014-6-24T23:39:39Z</time></trkpt>
<trkpt lat="48.10962880" lon="-72.25165910"><ele></ele><time>2014-6-24T23:39:42Z</time></trkpt>
<trkpt lat="48.10962910" lon="-72.25165990"><ele></ele><time>2014-6-24T23:39:45Z</time></trkpt>
<trkpt lat="48.10962970" lon="-72.25166150"><ele></ele><time>2014-6-24T23:39:48Z</time></trkpt>
<trkpt lat="48.10963050" lon="-72.25166370"><ele></ele><time>2014-6-24T23:39:51Z</time></trkpt>
<trkpt lat="48.10963220" lon="-72.25166820"><ele></ele><time>2014-6-24T23:39:54Z</time></trkpt>
<trkpt lat="48.10963300" lon="-72.25167050"><ele></ele><time>2014-6-24T23:39:57Z</time></trkpt>
<trkpt lat="48.10963150" lon="-72.25166680"><ele></ele><time>2014-6-24T23:40:0Z</time></trkpt>
<trkpt lat="48.10963120" lon="-72.25166610"><ele></ele><time>2014-6-24T23:40:3Z</time></trkpt>
<trkpt lat="48.10963120" lon="-72.25166610"><ele></ele><time>2014-6-24T23:40:6Z</time></trkpt>
<trkpt lat="48.10963130" lon="-72.25166650"><ele></ele><time>2014-6-24T23:40:9Z</time></trkpt>
<trkpt lat="48.10963160" lon="-72.25166740"><ele></ele><time>2014-6-24T23:40:12Z</time></trkpt>
<trkpt lat="48.10963210" lon="-72.25166870"><ele></ele><time>2014-6-24T23:40:15Z</time></trkpt>
<trkpt lat="48.10963280" lon="-72.25166990"><ele></ele><time>2014-6-24T23:40:18Z</time></trkpt>
<trkpt lat="48.10963370" lon="-72.25166720"><ele></ele><time>2014-6-24T23:40:21Z</time></trkpt>
<trkpt lat="48.10963400" lon="-72.25166810"><ele></ele><time>2014-6-24T23:40:24Z</time></trkpt>
<trkpt lat="48.10963390" lon="-72.25166860"><ele></ele><time>2014-6-24T23:40:27Z</time></trkpt>
<trkpt lat="48.10963400" lon="-72.25166880"><ele></ele><time>2014-6-24T23:40:30Z</time></trkpt>
<trkpt lat="48.10963400" lon="-72.25166880"><ele></ele><time>2014-6-24T23:40:33Z</time></trkpt>
<trkpt lat="48.10963390" lon="-72.25166750"><ele></ele><time>2014-6-24T23:40:36Z</time></trkpt>
<trkpt lat="48.10963390" lon="-72.25166670"><ele></ele><time>2014-6-24T23:40:39Z</time></trkpt>
<trkpt lat="48.10963400" lon="-72.25166630"><ele></ele><time>2014-6-24T23:40:42Z</time></trkpt>
<trkpt lat="48.10963400" lon="-72.25166520"><ele></ele><time>2014-6-24T23:40:45Z</time></trkpt>
<trkpt lat="48.10963420" lon="-72.25166420"><ele></ele><time>2014-6-24T23:40:48Z</time></trkpt>
<trkpt lat="48.10963460" lon="-72.25166370"><ele></ele><time>2014-6-24T23:40:51Z</time></trkpt>
<trkpt lat="48.10963530" lon="-72.25166260"><ele></ele><time>2014-6-24T23:40:54Z</time></trkpt>
<trkpt lat="48.10963570" lon="-72.25166220"><ele></ele><time>2014-6-24T23:40:57Z</time></trkpt>
<trkpt lat="48.10963600" lon="-72.25166190"><ele></ele><time>2014-6-24T23:41:0Z</time></trkpt>
<trkpt lat="48.10963660" lon="-72.25166220"><ele></ele><time>2014-6-24T23:41:3Z</time></trkpt>
<trkpt lat="48.10963700" lon="-72.25166290"><ele></ele><time>2014-6-24T23:41:6Z</time></trkpt>
<trkpt lat="48.10963720" lon="-72.25166410"><ele></ele><time>2014-6-24T23:41:9Z</time></trkpt>
<trkpt lat="48.10963740" lon="-72.25166500"><ele></ele><time>2014-6-24T23:41:12Z</time></trkpt>
<trkpt lat="48.10963750" lon="-72.25166630"><ele></ele><time>2014-6-24T23:41:15Z</time></trkpt>
<trkpt lat="48.10963770" lon="-72.25166760"><ele></ele><time>2014-6-24T23:41:18Z</time></trkpt>
<trkpt lat="48.10963800" lon="-72.25167100"><ele></ele><time>2014-6-24T23:41:21Z</time></trkpt>
<trkpt lat="48.10963830" lon="-72.25167230"><ele></ele><time>2014-6-24T23:41:24Z</time></trkpt>
<trkpt lat="48.10963840" lon="-72.25167260"><ele></ele><time>2014-6-24T23:41:27Z</time></trkpt>
<trkpt lat="48.10963860" lon="-72.25167310"><ele></ele><time>2014-6-24T23:41:30Z</time></trkpt>
<trkpt lat="48.10963880" lon="-72.25167360"><ele></ele><time>2014-6-24T23:41:33Z</time></trkpt>
<trkpt lat="48.10963900" lon="-72.25167440"><ele></ele><time>2014-6-24T23:41:36Z</time></trkpt>
<trkpt lat="48.10963910" lon="-72.25167480"><ele></ele><time>2014-6-24T23:41:39Z</time></trkpt>
<trkpt lat="48.10963930" lon="-72.25167530"><ele></ele><time>2014-6-24T23:41:42Z</time></trkpt>
<trkpt lat="48.10963950" lon="-72.25167600"><ele></ele><time>2014-6-24T23:41:45Z</time></trkpt>
<trkpt lat="48.10964000" lon="-72.25167610"><ele></ele><time>2014-6-24T23:41:48Z</time></trkpt>
<trkpt lat="48.10964020" lon="-72.25167590"><ele></ele><time>2014-6-24T23:41:51Z</time></trkpt>
<trkpt lat="48.10964030" lon="-72.25167560"><ele></ele><time>2014-6-24T23:41:54Z</time></trkpt>
<trkpt lat="48.10964060" lon="-72.25167540"><ele></ele><time>2014-6-24T23:41:57Z</time></trkpt>
<trkpt lat="48.10964080" lon="-72.25167500"><ele></ele><time>2014-6-24T23:42:0Z</time></trkpt>
<trkpt lat="48.10964110" lon="-72.25167460"><ele></ele><time>2014-6-24T23:42:3Z</time></trkpt>
<trkpt lat="48.10964140" lon="-72.25167430"><ele></ele><time>2014-6-24T23:42:6Z</time></trkpt>
<trkpt lat="48.10964170" lon="-72.25167440"><ele></ele><time>2014-6-24T23:42:9Z</time></trkpt>
<trkpt lat="48.10964200" lon="-72.25167460"><ele></ele><time>2014-6-24T23:42:12Z</time></trkpt>
<trkpt lat="48.10971540" lon="-72.25164500"><ele></ele><time>2014-6-24T23:42:15Z</time></trkpt>
<trkpt lat="48.10969470" lon="-72.25164870"><ele></ele><time>2014-6-24T23:42:18Z</time></trkpt>
<trkpt lat="48.10968080" lon="-72.25165170"><ele></ele><time>2014-6-24T23:42:21Z</time></trkpt>
<trkpt lat="48.10967110" lon="-72.25165350"><ele></ele><time>2014-6-24T23:42:24Z</time></trkpt>
<trkpt lat="48.10966440" lon="-72.25165470"><ele></ele><time>2014-6-24T23:42:27Z</time></trkpt>
<trkpt lat="48.10965990" lon="-72.25165530"><ele></ele><time>2014-6-24T23:42:30Z</time></trkpt>
<trkpt lat="48.10965710" lon="-72.25165540"><ele></ele><time>2014-6-24T23:42:33Z</time></trkpt>
<trkpt lat="48.10965500" lon="-72.25165520"><ele></ele><time>2014-6-24T23:42:36Z</time></trkpt>
<trkpt lat="48.10965380" lon="-72.25165460"><ele></ele><time>2014-6-24T23:42:39Z</time></trkpt>
<trkpt lat="48.10965270" lon="-72.25165380"><ele></ele><time>2014-6-24T23:42:42Z</time></trkpt>
<trkpt lat="48.10965170" lon="-72.25165310"><ele></ele><time>2014-6-24T23:42:45Z</time></trkpt>
<trkpt lat="48.10965030" lon="-72.25165220"><ele></ele><time>2014-6-24T23:42:48Z</time></trkpt>
<trkpt lat="48.10964900" lon="-72.25165140"><ele></ele><time>2014-6-24T23:42:51Z</time></trkpt>
<trkpt lat="48.10964810" lon="-72.25165040"><ele></ele><time>2014-6-24T23:42:54Z</time></trkpt>
<trkpt lat="48.10964760" lon="-72.25164980"><ele></ele><time>2014-6-24T23:42:57Z</time></trkpt>
<trkpt lat="48.10964720" lon="-72.25164940"><ele></ele><time>2014-6-24T23:43:0Z</time></trkpt>
<trkpt lat="48.10964780" lon="-72.25164910"><ele></ele><time>2014-6-24T23:43:3Z</time></trkpt>
<trkpt lat="48.10964880" lon="-72.25164900"><ele></ele><time>2014-6-24T23:43:6Z</time></trkpt>
<trkpt lat="48.10964960" lon="-72.25164900"><ele></ele><time>2014-6-24T23:43:9Z</time></trkpt>
<trkpt lat="48.10965020" lon="-72.25164890"><ele></ele><time>2014-6-24T23:43:12Z</time></trkpt>
<trkpt lat="48.10965020" lon="-72.25164890"><ele></ele><time>2014-6-24T23:43:15Z</time></trkpt>
<trkpt lat="48.10965020" lon="-72.25164890"><ele></ele><time>2014-6-24T23:43:18Z</time></trkpt>
<trkpt lat="48.10965100" lon="-72.25164860"><ele></ele><time>2014-6-24T23:43:21Z</time></trkpt>
<trkpt lat="48.10965090" lon="-72.25164830"><ele></ele><time>2014-6-24T23:43:24Z</time></trkpt>
<trkpt lat="48.10965090" lon="-72.25164830"><ele></ele><time>2014-6-24T23:43:27Z</time></trkpt>
<trkpt lat="48.10965060" lon="-72.25164780"><ele></ele><time>2014-6-24T23:43:30Z</time></trkpt>
<trkpt lat="48.10965030" lon="-72.25164750"><ele></ele><time>2014-6-24T23:43:33Z</time></trkpt>
<trkpt lat="48.10965030" lon="-72.25164750"><ele></ele><time>2014-6-24T23:43:36Z</time></trkpt>
<trkpt lat="48.10965010" lon="-72.25164690"><ele></ele><time>2014-6-24T23:43:39Z</time></trkpt>
<trkpt lat="48.10965000" lon="-72.25164660"><ele></ele><time>2014-6-24T23:43:42Z</time></trkpt>
<trkpt lat="48.10965010" lon="-72.25164650"><ele></ele><time>2014-6-24T23:43:45Z</time></trkpt>
<trkpt lat="48.10965010" lon="-72.25164650"><ele></ele><time>2014-6-24T23:43:48Z</time></trkpt>
<trkpt lat="48.10965010" lon="-72.25164650"><ele></ele><time>2014-6-24T23:43:51Z</time></trkpt>
<trkpt lat="48.10965010" lon="-72.25164690"><ele></ele><time>2014-6-24T23:43:54Z</time></trkpt>
<trkpt lat="48.10964990" lon="-72.25164730"><ele></ele><time>2014-6-24T23:43:57Z</time></trkpt>
<trkpt lat="48.10964970" lon="-72.25164770"><ele></ele><time>2014-6-24T23:44:0Z</time></trkpt>
<trkpt lat="48.10964960" lon="-72.25164830"><ele></ele><time>2014-6-24T23:44:3Z</time></trkpt>
<trkpt lat="48.10964950" lon="-72.25164900"><ele></ele><time>2014-6-24T23:44:6Z</time></trkpt>
<trkpt lat="48.10964950" lon="-72.25164920"><ele></ele><time>2014-6-24T23:44:9Z</time></trkpt>
<trkpt lat="48.10964950" lon="-72.25164920"><ele></ele><time>2014-6-24T23:44:12Z</time></trkpt>
<trkpt lat="48.10964950" lon="-72.25164920"><ele></ele><time>2014-6-24T23:44:15Z</time></trkpt>
<trkpt lat="48.10965030" lon="-72.25165020"><ele></ele><time>2014-6-24T23:44:18Z</time></trkpt>
<trkpt lat="48.10965040" lon="-72.25165110"><ele></ele><time>2014-6-24T23:44:21Z</time></trkpt>
<trkpt lat="48.10965030" lon="-72.25165150"><ele></ele><time>2014-6-24T23:44:24Z</time></trkpt>
<trkpt lat="48.10965030" lon="-72.25165150"><ele></ele><time>2014-6-24T23:44:27Z</time></trkpt>
<trkpt lat="48.10965010" lon="-72.25165180"><ele></ele><time>2014-6-24T23:44:30Z</time></trkpt>
<trkpt lat="48.10964990" lon="-72.25165190"><ele></ele><time>2014-6-24T23:44:33Z</time></trkpt>
<trkpt lat="48.10964980" lon="-72.25165220"><ele></ele><time>2014-6-24T23:44:36Z</time></trkpt>
<trkpt lat="48.10964980" lon="-72.25165240"><ele></ele><time>2014-6-24T23:44:39Z</time></trkpt>
<trkpt lat="48.10964960" lon="-72.25165260"><ele></ele><time>2014-6-24T23:44:42Z</time></trkpt>
<trkpt lat="48.10964920" lon="-72.25165270"><ele></ele><time>2014-6-24T23:44:45Z</time></trkpt>
<trkpt lat="48.10964890" lon="-72.25165270"><ele></ele><time>2014-6-24T23:44:48Z</time></trkpt>
<trkpt lat="48.10964870" lon="-72.25165280"><ele></ele><time>2014-6-24T23:44:51Z</time></trkpt>
<trkpt lat="48.10717350" lon="-72.25324590"><ele></ele><time>2014-6-24T23:44:54Z</time></trkpt>
<trkpt lat="48.10717320" lon="-72.25324580"><ele></ele><time>2014-6-24T23:44:57Z</time></trkpt>
<trkpt lat="48.10717300" lon="-72.25324580"><ele></ele><time>2014-6-24T23:45:0Z</time></trkpt>
<trkpt lat="48.10717190" lon="-72.25324600"><ele></ele><time>2014-6-24T23:45:3Z</time></trkpt>
<trkpt lat="48.10717110" lon="-72.25324610"><ele></ele><time>2014-6-24T23:45:6Z</time></trkpt>
<trkpt lat="48.10716990" lon="-72.25324630"><ele></ele><time>2014-6-24T23:45:9Z</time></trkpt>
<trkpt lat="48.10716840" lon="-72.25324650"><ele></ele><time>2014-6-24T23:45:12Z</time></trkpt>
<trkpt lat="48.10716740" lon="-72.25324680"><ele></ele><time>2014-6-24T23:45:15Z</time></trkpt>
<trkpt lat="48.10716670" lon="-72.25324690"><ele></ele><time>2014-6-24T23:45:18Z</time></trkpt>
<trkpt lat="48.10716620" lon="-72.25324700"><ele></ele><time>2014-6-24T23:45:21Z</time></trkpt>
<trkpt lat="48.10716560" lon="-72.25324710"><ele></ele><time>2014-6-24T23:45:24Z</time></trkpt>
<trkpt lat="48.10716530" lon="-72.25324720"><ele></ele><time>2014-6-24T23:45:27Z</time></trkpt>
<trkpt lat="48.10716520" lon="-72.25324730"><ele></ele><time>2014-6-24T23:45:30Z</time></trkpt>
<trkpt lat="48.10716510" lon="-72.25324750"><ele></ele><time>2014-6-24T23:45:33Z</time></trkpt>
<trkpt lat="48.10716490" lon="-72.25324770"><ele></ele><time>2014-6-24T23:45:36Z</time></trkpt>
<trkpt lat="48.10716480" lon="-72.25324770"><ele></ele><time>2014-6-24T23:45:39Z</time></trkpt>
<trkpt lat="48.10716540" lon="-72.25324790"><ele></ele><time>2014-6-24T23:45:42Z</time></trkpt>
<trkpt lat="48.10716650" lon="-72.25324800"><ele></ele><time>2014-6-24T23:45:45Z</time></trkpt>
<trkpt lat="48.10716750" lon="-72.25324800"><ele></ele><time>2014-6-24T23:45:48Z</time></trkpt>
<trkpt lat="48.10716800" lon="-72.25324810"><ele></ele><time>2014-6-24T23:45:51Z</time></trkpt>
<trkpt lat="48.10716930" lon="-72.25324840"><ele></ele><time>2014-6-24T23:45:54Z</time></trkpt>
<trkpt lat="48.10716970" lon="-72.25324860"><ele></ele><time>2014-6-24T23:45:57Z</time></trkpt>
<trkpt lat="48.10717020" lon="-72.25324880"><ele></ele><time>2014-6-24T23:46:0Z</time></trkpt>
<trkpt lat="48.10717070" lon="-72.25324890"><ele></ele><time>2014-6-24T23:46:3Z</time></trkpt>
<trkpt lat="48.10717140" lon="-72.25324900"><ele></ele><time>2014-6-24T23:46:6Z</time></trkpt>
<trkpt lat="48.10717180" lon="-72.25324920"><ele></ele><time>2014-6-24T23:46:9Z</time></trkpt>
<trkpt lat="48.10717180" lon="-72.25324920"><ele></ele><time>2014-6-24T23:46:12Z</time></trkpt>
<trkpt lat="48.10717180" lon="-72.25324930"><ele></ele><time>2014-6-24T23:46:15Z</time></trkpt>
<trkpt lat="48.10717170" lon="-72.25324940"><ele></ele><time>2014-6-24T23:46:18Z</time></trkpt>
<trkpt lat="48.10717140" lon="-72.25324940"><ele></ele><time>2014-6-24T23:46:21Z</time></trkpt>
<trkpt lat="48.10717100" lon="-72.25324940"><ele></ele><time>2014-6-24T23:46:24Z</time></trkpt>
<trkpt lat="48.10717070" lon="-72.25324950"><ele></ele><time>2014-6-24T23:46:27Z</time></trkpt>
<trkpt lat="48.10717050" lon="-72.25324940"><ele></ele><time>2014-6-24T23:46:30Z</time></trkpt>
<trkpt lat="48.10717030" lon="-72.25324930"><ele></ele><time>2014-6-24T23:46:33Z</time></trkpt>
<trkpt lat="48.10717000" lon="-72.25324920"><ele></ele><time>2014-6-24T23:46:36Z</time></trkpt>
<trkpt lat="48.10716980" lon="-72.25324910"><ele></ele><time>2014-6-24T23:46:39Z</time></trkpt>
<trkpt lat="48.10716970" lon="-72.25324910"><ele></ele><time>2014-6-24T23:46:42Z</time></trkpt>
<trkpt lat="48.10716960" lon="-72.25324910"><ele></ele><time>2014-6-24T23:46:45Z</time></trkpt>
<trkpt lat="48.10716960" lon="-72.25324910"><ele></ele><time>2014-6-24T23:46:48Z</time></trkpt>
<trkpt lat="48.10716970" lon="-72.25324930"><ele></ele><time>2014-6-24T23:46:51Z</time></trkpt>
<trkpt lat="48.10716930" lon="-72.25324910"><ele></ele><time>2014-6-24T23:46:54Z</time></trkpt>
<trkpt lat="48.10716880" lon="-72.25324880"><ele></ele><time>2014-6-24T23:46:57Z</time></trkpt>
<trkpt lat="48.10716850" lon="-72.25324840"><ele></ele><time>2014-6-24T23:47:0Z</time></trkpt>
<trkpt lat="48.10716830" lon="-72.25324790"><ele></ele><time>2014-6-24T23:47:3Z</time></trkpt>
<trkpt lat="48.10716820" lon="-72.25324750"><ele></ele><time>2014-6-24T23:47:6Z</time></trkpt>
<trkpt lat="48.10716790" lon="-72.25324700"><ele></ele><time>2014-6-24T23:47:9Z</time></trkpt>
<trkpt lat="48.10716770" lon="-72.25324650"><ele></ele><time>2014-6-24T23:47:12Z</time></trkpt>
<trkpt lat="48.10716700" lon="-72.25324590"><ele></ele><time>2014-6-24T23:47:15Z</time></trkpt>
<trkpt lat="48.10716670" lon="-72.25324530"><ele></ele><time>2014-6-24T23:47:18Z</time></trkpt>
<trkpt lat="48.10716630" lon="-72.25324470"><ele></ele><time>2014-6-24T23:47:21Z</time></trkpt>
<trkpt lat="48.10716610" lon="-72.25324410"><ele></ele><time>2014-6-24T23:47:24Z</time></trkpt>
<trkpt lat="48.10716590" lon="-72.25324340"><ele></ele><time>2014-6-24T23:47:27Z</time></trkpt>
<trkpt lat="48.10716560" lon="-72.25324300"><ele></ele><time>2014-6-24T23:47:30Z</time></trkpt>
<trkpt lat="48.10716520" lon="-72.25324260"><ele></ele><time>2014-6-24T23:47:33Z</time></trkpt>
<trkpt lat="48.10716480" lon="-72.25324220"><ele></ele><time>2014-6-24T23:47:36Z</time></trkpt>
<trkpt lat="48.10716440" lon="-72.25324180"><ele></ele><time>2014-6-24T23:47:39Z</time></trkpt>
<trkpt lat="48.10716430" lon="-72.25324130"><ele></ele><time>2014-6-24T23:47:42Z</time></trkpt>
<trkpt lat="48.10716400" lon="-72.25324090"><ele></ele><time>2014-6-24T23:47:45Z</time></trkpt>
<trkpt lat="48.10716370" lon="-72.25324040"><ele></ele><time>2014-6-24T23:47:48Z</time></trkpt>
<trkpt lat="48.10716350" lon="-72.25323990"><ele></ele><time>2014-6-24T23:47:51Z</time></trkpt>
<trkpt lat="48.10716330" lon="-72.25323950"><ele></ele><time>2014-6-24T23:47:54Z</time></trkpt>
<trkpt lat="48.10716330" lon="-72.25323910"><ele></ele><time>2014-6-24T23:47:57Z</time></trkpt>
<trkpt lat="48.10716330" lon="-72.25323860"><ele></ele><time>2014-6-24T23:48:0Z</time></trkpt>
<trkpt lat="48.10716310" lon="-72.25323810"><ele></ele><time>2014-6-24T23:48:3Z</time></trkpt>
<trkpt lat="48.10716270" lon="-72.25323750"><ele></ele><time>2014-6-24T23:48:6Z</time></trkpt>
<trkpt lat="48.10716120" lon="-72.25323830"><ele></ele><time>2014-6-24T23:48:9Z</time></trkpt>
<trkpt lat="48.10716130" lon="-72.25324130"><ele></ele><time>2014-6-24T23:48:12Z</time></trkpt>
<trkpt lat="48.10716420" lon="-72.25324590"><ele></ele><time>2014-6-24T23:48:15Z</time></trkpt>
<trkpt lat="48.10716900" lon="-72.25324840"><ele></ele><time>2014-6-24T23:48:18Z</time></trkpt>
<trkpt lat="48.10717470" lon="-72.25325010"><ele></ele><time>2014-6-24T23:48:21Z</time></trkpt>
<trkpt lat="48.10718140" lon="-72.25325210"><ele></ele><time>2014-6-24T23:48:24Z</time></trkpt>
<trkpt lat="48.10718840" lon="-72.25325490"><ele></ele><time>2014-6-24T23:48:27Z</time></trkpt>
<trkpt lat="48.10719380" lon="-72.25325980"><ele></ele><time>2014-6-24T23:48:30Z</time></trkpt>
<trkpt lat="48.10719790" lon="-72.25326820"><ele></ele><time>2014-6-24T23:48:33Z</time></trkpt>
<trkpt lat="48.10720100" lon="-72.25327720"><ele></ele><time>2014-6-24T23:48:36Z</time></trkpt>
<trkpt lat="48.10720310" lon="-72.25328780"><ele></ele><time>2014-6-24T23:48:39Z</time></trkpt>
<trkpt lat="48.10720280" lon="-72.25329870"><ele></ele><time>2014-6-24T23:48:42Z</time></trkpt>
<trkpt lat="48.10720190" lon="-72.25331030"><ele></ele><time>2014-6-24T23:48:45Z</time></trkpt>
<trkpt lat="48.10719920" lon="-72.25332170"><ele></ele><time>2014-6-24T23:48:48Z</time></trkpt>
<trkpt lat="48.10719630" lon="-72.25333230"><ele></ele><time>2014-6-24T23:48:51Z</time></trkpt>
<trkpt lat="48.10719270" lon="-72.25334280"><ele></ele><time>2014-6-24T23:48:54Z</time></trkpt>
<trkpt lat="48.10718900" lon="-72.25335370"><ele></ele><time>2014-6-24T23:48:57Z</time></trkpt>
<trkpt lat="48.10717970" lon="-72.25337380"><ele></ele><time>2014-6-24T23:49:0Z</time></trkpt>
<trkpt lat="48.10717540" lon="-72.25338370"><ele></ele><time>2014-6-24T23:49:3Z</time></trkpt>
<trkpt lat="48.10717210" lon="-72.25339410"><ele></ele><time>2014-6-24T23:49:6Z</time></trkpt>
<trkpt lat="48.10717080" lon="-72.25340480"><ele></ele><time>2014-6-24T23:49:9Z</time></trkpt>
<trkpt lat="48.10717030" lon="-72.25341530"><ele></ele><time>2014-6-24T23:49:12Z</time></trkpt>
<trkpt lat="48.10717120" lon="-72.25342500"><ele></ele><time>2014-6-24T23:49:15Z</time></trkpt>
<trkpt lat="48.10717230" lon="-72.25343430"><ele></ele><time>2014-6-24T23:49:18Z</time></trkpt>
<trkpt lat="48.10717540" lon="-72.25345100"><ele></ele><time>2014-6-24T23:49:21Z</time></trkpt>
<trkpt lat="48.10717700" lon="-72.25345890"><ele></ele><time>2014-6-24T23:49:24Z</time></trkpt>
<trkpt lat="48.10717980" lon="-72.25346720"><ele></ele><time>2014-6-24T23:49:27Z</time></trkpt>
<trkpt lat="48.10718220" lon="-72.25347330"><ele></ele><time>2014-6-24T23:49:30Z</time></trkpt>
<trkpt lat="48.10718410" lon="-72.25347550"><ele></ele><time>2014-6-24T23:49:33Z</time></trkpt>
<trkpt lat="48.10718510" lon="-72.25347810"><ele></ele><time>2014-6-24T23:49:36Z</time></trkpt>
<trkpt lat="48.10718590" lon="-72.25348080"><ele></ele><time>2014-6-24T23:49:39Z</time></trkpt>
<trkpt lat="48.10718650" lon="-72.25348450"><ele></ele><time>2014-6-24T23:49:42Z</time></trkpt>
<trkpt lat="48.10718690" lon="-72.25348830"><ele></ele><time>2014-6-24T23:49:45Z</time></trkpt>
<trkpt lat="48.10718730" lon="-72.25349080"><ele></ele><time>2014-6-24T23:49:48Z</time></trkpt>
<trkpt lat="48.10718770" lon="-72.25349380"><ele></ele><time>2014-6-24T23:49:51Z</time></trkpt>
<trkpt lat="48.10718810" lon="-72.25349810"><ele></ele><time>2014-6-24T23:49:54Z</time></trkpt>
<trkpt lat="48.10718900" lon="-72.25350290"><ele></ele><time>2014-6-24T23:49:57Z</time></trkpt>
<trkpt lat="48.10718990" lon="-72.25350750"><ele></ele><time>2014-6-24T23:50:0Z</time></trkpt>
<trkpt lat="48.10719020" lon="-72.25351340"><ele></ele><time>2014-6-24T23:50:3Z</time></trkpt>
<trkpt lat="48.10719020" lon="-72.25351880"><ele></ele><time>2014-6-24T23:50:6Z</time></trkpt>
<trkpt lat="48.10719050" lon="-72.25352470"><ele></ele><time>2014-6-24T23:50:9Z</time></trkpt>
<trkpt lat="48.10719100" lon="-72.25353110"><ele></ele><time>2014-6-24T23:50:12Z</time></trkpt>
<trkpt lat="48.10719250" lon="-72.25354190"><ele></ele><time>2014-6-24T23:50:15Z</time></trkpt>
<trkpt lat="48.10719360" lon="-72.25354780"><ele></ele><time>2014-6-24T23:50:18Z</time></trkpt>
<trkpt lat="48.10719460" lon="-72.25355250"><ele></ele><time>2014-6-24T23:50:21Z</time></trkpt>
<trkpt lat="48.10719520" lon="-72.25355600"><ele></ele><time>2014-6-24T23:50:24Z</time></trkpt>
<trkpt lat="48.10719590" lon="-72.25355870"><ele></ele><time>2014-6-24T23:50:27Z</time></trkpt>
<trkpt lat="48.10719680" lon="-72.25356040"><ele></ele><time>2014-6-24T23:50:30Z</time></trkpt>
<trkpt lat="48.10720160" lon="-72.25356620"><ele></ele><time>2014-6-24T23:50:33Z</time></trkpt>
<trkpt lat="48.10720390" lon="-72.25356850"><ele></ele><time>2014-6-24T23:50:36Z</time></trkpt>
<trkpt lat="48.10720980" lon="-72.25357400"><ele></ele><time>2014-6-24T23:50:39Z</time></trkpt>
<trkpt lat="48.10721340" lon="-72.25357720"><ele></ele><time>2014-6-24T23:50:42Z</time></trkpt>
<trkpt lat="48.10721700" lon="-72.25357980"><ele></ele><time>2014-6-24T23:50:45Z</time></trkpt>
<trkpt lat="48.10722020" lon="-72.25358260"><ele></ele><time>2014-6-24T23:50:48Z</time></trkpt>
<trkpt lat="48.10722330" lon="-72.25358500"><ele></ele><time>2014-6-24T23:50:51Z</time></trkpt>
<trkpt lat="48.10722600" lon="-72.25358650"><ele></ele><time>2014-6-24T23:50:54Z</time></trkpt>
<trkpt lat="48.10722840" lon="-72.25358770"><ele></ele><time>2014-6-24T23:50:57Z</time></trkpt>
<trkpt lat="48.10723070" lon="-72.25358930"><ele></ele><time>2014-6-24T23:51:0Z</time></trkpt>
<trkpt lat="48.10723330" lon="-72.25359140"><ele></ele><time>2014-6-24T23:51:3Z</time></trkpt>
<trkpt lat="48.10724170" lon="-72.25360050"><ele></ele><time>2014-6-24T23:51:6Z</time></trkpt>
<trkpt lat="48.10724900" lon="-72.25360840"><ele></ele><time>2014-6-24T23:51:9Z</time></trkpt>
<trkpt lat="48.10725320" lon="-72.25361180"><ele></ele><time>2014-6-24T23:51:12Z</time></trkpt>
<trkpt lat="48.10725680" lon="-72.25361500"><ele></ele><time>2014-6-24T23:51:15Z</time></trkpt>
<trkpt lat="48.10725970" lon="-72.25361720"><ele></ele><time>2014-6-24T23:51:18Z</time></trkpt>
<trkpt lat="48.10726370" lon="-72.25361900"><ele></ele><time>2014-6-24T23:51:21Z</time></trkpt>
<trkpt lat="48.10726690" lon="-72.25362080"><ele></ele><time>2014-6-24T23:51:24Z</time></trkpt>
<trkpt lat="48.10726910" lon="-72.25362310"><ele></ele><time>2014-6-24T23:51:27Z</time></trkpt>
<trkpt lat="48.10727130" lon="-72.25362440"><ele></ele><time>2014-6-24T23:51:30Z</time></trkpt>
<trkpt lat="48.10727330" lon="-72.25362560"><ele></ele><time>2014-6-24T23:51:33Z</time></trkpt>
<trkpt lat="48.10727490" lon="-72.25362680"><ele></ele><time>2014-6-24T23:51:36Z</time></trkpt>
<trkpt lat="48.10727680" lon="-72.25362830"><ele></ele><time>2014-6-24T23:51:39Z</time></trkpt>
<trkpt lat="48.10727910" lon="-72.25362980"><ele></ele><time>2014-6-24T23:51:42Z</time></trkpt>
<trkpt lat="48.10728250" lon="-72.25363190"><ele></ele><time>2014-6-24T23:51:45Z</time></trkpt>
<trkpt lat="48.10728730" lon="-72.25363330"><ele></ele><time>2014-6-24T23:51:48Z</time></trkpt>
<trkpt lat="48.10729210" lon="-72.25363540"><ele></ele><time>2014-6-24T23:51:51Z</time></trkpt>
<trkpt lat="48.10729700" lon="-72.25363720"><ele></ele><time>2014-6-24T23:51:54Z</time></trkpt>
<trkpt lat="48.10730160" lon="-72.25363880"><ele></ele><time>2014-6-24T23:51:57Z</time></trkpt>
<trkpt lat="48.10730640" lon="-72.25364080"><ele></ele><time>2014-6-24T23:52:0Z</time></trkpt>
<trkpt lat="48.10731160" lon="-72.25364240"><ele></ele><time>2014-6-24T23:52:3Z</time></trkpt>
<trkpt lat="48.10731650" lon="-72.25364350"><ele></ele><time>2014-6-24T23:52:6Z</time></trkpt>
<trkpt lat="48.10732180" lon="-72.25364490"><ele></ele><time>2014-6-24T23:52:9Z</time></trkpt>
<trkpt lat="48.10732700" lon="-72.25364670"><ele></ele><time>2014-6-24T23:52:12Z</time></trkpt>
<trkpt lat="48.10733140" lon="-72.25364840"><ele></ele><time>2014-6-24T23:52:15Z</time></trkpt>
<trkpt lat="48.10733430" lon="-72.25364930"><ele></ele><time>2014-6-24T23:52:18Z</time></trkpt>
<trkpt lat="48.10733730" lon="-72.25365030"><ele></ele><time>2014-6-24T23:52:21Z</time></trkpt>
<trkpt lat="48.10733730" lon="-72.25365030"><ele></ele><time>2014-6-24T23:52:24Z</time></trkpt>
<trkpt lat="48.10734140" lon="-72.25365130"><ele></ele><time>2014-6-24T23:52:27Z</time></trkpt>
<trkpt lat="48.10734230" lon="-72.25365140"><ele></ele><time>2014-6-24T23:52:30Z</time></trkpt>
<trkpt lat="48.10734230" lon="-72.25365140"><ele></ele><time>2014-6-24T23:52:33Z</time></trkpt>
<trkpt lat="48.10734310" lon="-72.25365120"><ele></ele><time>2014-6-24T23:52:36Z</time></trkpt>
<trkpt lat="48.10734350" lon="-72.25365120"><ele></ele><time>2014-6-24T23:52:39Z</time></trkpt>
<trkpt lat="48.10734450" lon="-72.25365100"><ele></ele><time>2014-6-24T23:52:42Z</time></trkpt>
<trkpt lat="48.10734530" lon="-72.25365150"><ele></ele><time>2014-6-24T23:52:45Z</time></trkpt>
<trkpt lat="48.10734640" lon="-72.25365170"><ele></ele><time>2014-6-24T23:52:48Z</time></trkpt>
<trkpt lat="48.10734750" lon="-72.25365160"><ele></ele><time>2014-6-24T23:52:51Z</time></trkpt>
<trkpt lat="48.10734780" lon="-72.25365250"><ele></ele><time>2014-6-24T23:52:54Z</time></trkpt>
<trkpt lat="48.10734790" lon="-72.25365210"><ele></ele><time>2014-6-24T23:52:57Z</time></trkpt>
<trkpt lat="48.10734800" lon="-72.25365140"><ele></ele><time>2014-6-24T23:53:0Z</time></trkpt>
<trkpt lat="48.10734820" lon="-72.25365040"><ele></ele><time>2014-6-24T23:53:3Z</time></trkpt>
<trkpt lat="48.10734930" lon="-72.25364880"><ele></ele><time>2014-6-24T23:53:6Z</time></trkpt>
<trkpt lat="48.10735070" lon="-72.25364890"><ele></ele><time>2014-6-24T23:53:9Z</time></trkpt>
<trkpt lat="48.10735260" lon="-72.25364940"><ele></ele><time>2014-6-24T23:53:12Z</time></trkpt>
<trkpt lat="48.10735490" lon="-72.25365120"><ele></ele><time>2014-6-24T23:53:15Z</time></trkpt>
<trkpt lat="48.10736120" lon="-72.25366320"><ele></ele><time>2014-6-24T23:53:18Z</time></trkpt>
<trkpt lat="48.10736460" lon="-72.25367090"><ele></ele><time>2014-6-24T23:53:21Z</time></trkpt>
<trkpt lat="48.10736860" lon="-72.25368060"><ele></ele><time>2014-6-24T23:53:24Z</time></trkpt>
<trkpt lat="48.10737210" lon="-72.25369230"><ele></ele><time>2014-6-24T23:53:27Z</time></trkpt>
<trkpt lat="48.10737510" lon="-72.25370340"><ele></ele><time>2014-6-24T23:53:30Z</time></trkpt>
<trkpt lat="48.10737800" lon="-72.25371440"><ele></ele><time>2014-6-24T23:53:33Z</time></trkpt>
<trkpt lat="48.10738080" lon="-72.25372550"><ele></ele><time>2014-6-24T23:53:36Z</time></trkpt>
<trkpt lat="48.10738360" lon="-72.25373830"><ele></ele><time>2014-6-24T23:53:39Z</time></trkpt>
<trkpt lat="48.10738670" lon="-72.25375140"><ele></ele><time>2014-6-24T23:53:42Z</time></trkpt>
<trkpt lat="48.10738980" lon="-72.25376640"><ele></ele><time>2014-6-24T23:53:45Z</time></trkpt>
<trkpt lat="48.10739220" lon="-72.25377700"><ele></ele><time>2014-6-24T23:53:48Z</time></trkpt>
<trkpt lat="48.10739480" lon="-72.25378690"><ele></ele><time>2014-6-24T23:53:51Z</time></trkpt>
<trkpt lat="48.10739740" lon="-72.25379660"><ele></ele><time>2014-6-24T23:53:54Z</time></trkpt>
<trkpt lat="48.10740010" lon="-72.25380650"><ele></ele><time>2014-6-24T23:53:57Z</time></trkpt>
<trkpt lat="48.10740620" lon="-72.25382600"><ele></ele><time>2014-6-24T23:54:0Z</time></trkpt>
<trkpt lat="48.10740940" lon="-72.25383470"><ele></ele><time>2014-6-24T23:54:3Z</time></trkpt>
<trkpt lat="48.10741770" lon="-72.25385170"><ele></ele><time>2014-6-24T23:54:6Z</time></trkpt>
<trkpt lat="48.10742230" lon="-72.25386050"><ele></ele><time>2014-6-24T23:54:9Z</time></trkpt>
<trkpt lat="48.10742760" lon="-72.25386940"><ele></ele><time>2014-6-24T23:54:12Z</time></trkpt>
<trkpt lat="48.10743280" lon="-72.25387880"><ele></ele><time>2014-6-24T23:54:15Z</time></trkpt>
<trkpt lat="48.10743760" lon="-72.25388730"><ele></ele><time>2014-6-24T23:54:18Z</time></trkpt>
<trkpt lat="48.10744170" lon="-72.25389640"><ele></ele><time>2014-6-24T23:54:21Z</time></trkpt>
<trkpt lat="48.10744560" lon="-72.25390570"><ele></ele><time>2014-6-24T23:54:24Z</time></trkpt>
<trkpt lat="48.10744920" lon="-72.25391630"><ele></ele><time>2014-6-24T23:54:27Z</time></trkpt>
<trkpt lat="48.10745170" lon="-72.25392680"><ele></ele><time>2014-6-24T23:54:30Z</time></trkpt>
<trkpt lat="48.10745340" lon="-72.25393710"><ele></ele><time>2014-6-24T23:54:33Z</time></trkpt>
<trkpt lat="48.10745420" lon="-72.25395020"><ele></ele><time>2014-6-24T23:54:36Z</time></trkpt>
<trkpt lat="48.10745470" lon="-72.25396180"><ele></ele><time>2014-6-24T23:54:39Z</time></trkpt>
<trkpt lat="48.10745410" lon="-72.25397420"><ele></ele><time>2014-6-24T23:54:42Z</time></trkpt>
<trkpt lat="48.10745330" lon="-72.25398670"><ele></ele><time>2014-6-24T23:54:45Z</time></trkpt>
<trkpt lat="48.10745120" lon="-72.25400040"><ele></ele><time>2014-6-24T23:54:48Z</time></trkpt>
<trkpt lat="48.10744840" lon="-72.25401320"><ele></ele><time>2014-6-24T23:54:51Z</time></trkpt>
<trkpt lat="48.10744040" lon="-72.25403740"><ele></ele><time>2014-6-24T23:54:54Z</time></trkpt>
<trkpt lat="48.10743540" lon="-72.25404920"><ele></ele><time>2014-6-24T23:54:57Z</time></trkpt>
<trkpt lat="48.10742920" lon="-72.25405970"><ele></ele><time>2014-6-24T23:55:0Z</time></trkpt>
<trkpt lat="48.10742280" lon="-72.25407050"><ele></ele><time>2014-6-24T23:55:3Z</time></trkpt>
<trkpt lat="48.10741640" lon="-72.25408130"><ele></ele><time>2014-6-24T23:55:6Z</time></trkpt>
<trkpt lat="48.10740990" lon="-72.25409220"><ele></ele><time>2014-6-24T23:55:9Z</time></trkpt>
<trkpt lat="48.10740320" lon="-72.25410420"><ele></ele><time>2014-6-24T23:55:12Z</time></trkpt>
<trkpt lat="48.10739660" lon="-72.25411360"><ele></ele><time>2014-6-24T23:55:15Z</time></trkpt>
<trkpt lat="48.10738990" lon="-72.25412370"><ele></ele><time>2014-6-24T23:55:18Z</time></trkpt>
<trkpt lat="48.10738330" lon="-72.25413390"><ele></ele><time>2014-6-24T23:55:21Z</time></trkpt>
<trkpt lat="48.10737650" lon="-72.25414430"><ele></ele><time>2014-6-24T23:55:24Z</time></trkpt>
<trkpt lat="48.10736970" lon="-72.25415510"><ele></ele><time>2014-6-24T23:55:27Z</time></trkpt>
<trkpt lat="48.10736240" lon="-72.25416560"><ele></ele><time>2014-6-24T23:55:30Z</time></trkpt>
<trkpt lat="48.10735520" lon="-72.25417650"><ele></ele><time>2014-6-24T23:55:33Z</time></trkpt>
<trkpt lat="48.10734830" lon="-72.25418740"><ele></ele><time>2014-6-24T23:55:36Z</time></trkpt>
<trkpt lat="48.10734130" lon="-72.25419800"><ele></ele><time>2014-6-24T23:55:39Z</time></trkpt>
<trkpt lat="48.10733470" lon="-72.25420960"><ele></ele><time>2014-6-24T23:55:42Z</time></trkpt>
<trkpt lat="48.10732820" lon="-72.25422140"><ele></ele><time>2014-6-24T23:55:45Z</time></trkpt>
<trkpt lat="48.10732220" lon="-72.25423360"><ele></ele><time>2014-6-24T23:55:48Z</time></trkpt>
<trkpt lat="48.10731610" lon="-72.25424530"><ele></ele><time>2014-6-24T23:55:51Z</time></trkpt>
<trkpt lat="48.10731020" lon="-72.25425680"><ele></ele><time>2014-6-24T23:55:54Z</time></trkpt>
<trkpt lat="48.10729870" lon="-72.25427810"><ele></ele><time>2014-6-24T23:55:57Z</time></trkpt>
<trkpt lat="48.10729230" lon="-72.25429080"><ele></ele><time>2014-6-24T23:56:0Z</time></trkpt>
<trkpt lat="48.10728690" lon="-72.25430180"><ele></ele><time>2014-6-24T23:56:3Z</time></trkpt>
<trkpt lat="48.10728120" lon="-72.25431390"><ele></ele><time>2014-6-24T23:56:6Z</time></trkpt>
<trkpt lat="48.10727650" lon="-72.25432520"><ele></ele><time>2014-6-24T23:56:9Z</time></trkpt>
<trkpt lat="48.10727120" lon="-72.25433640"><ele></ele><time>2014-6-24T23:56:12Z</time></trkpt>
<trkpt lat="48.10726600" lon="-72.25434710"><ele></ele><time>2014-6-24T23:56:15Z</time></trkpt>
<trkpt lat="48.10726060" lon="-72.25435790"><ele></ele><time>2014-6-24T23:56:18Z</time></trkpt>
<trkpt lat="48.10725480" lon="-72.25436880"><ele></ele><time>2014-6-24T23:56:21Z</time></trkpt>
<trkpt lat="48.10724910" lon="-72.25437950"><ele></ele><time>2014-6-24T23:56:24Z</time></trkpt>
<trkpt lat="48.10724320" lon="-72.25438990"><ele></ele><time>2014-6-24T23:56:27Z</time></trkpt>
<trkpt lat="48.10723730" lon="-72.25439970"><ele></ele><time>2014-6-24T23:56:30Z</time></trkpt>
<trkpt lat="48.10723110" lon="-72.25440980"><ele></ele><time>2014-6-24T23:56:33Z</time></trkpt>
<trkpt lat="48.10722420" lon="-72.25441910"><ele></ele><time>2014-6-24T23:56:36Z</time></trkpt>
<trkpt lat="48.10720990" lon="-72.25443640"><ele></ele><time>2014-6-24T23:56:39Z</time></trkpt>
<trkpt lat="48.10720250" lon="-72.25444440"><ele></ele><time>2014-6-24T23:56:42Z</time></trkpt>
<trkpt lat="48.10719500" lon="-72.25445250"><ele></ele><time>2014-6-24T23:56:45Z</time></trkpt>
<trkpt lat="48.10718740" lon="-72.25446020"><ele></ele><time>2014-6-24T23:56:48Z</time></trkpt>
<trkpt lat="48.10717940" lon="-72.25446800"><ele></ele><time>2014-6-24T23:56:51Z</time></trkpt>
<trkpt lat="48.10717160" lon="-72.25447620"><ele></ele><time>2014-6-24T23:56:54Z</time></trkpt>
<trkpt lat="48.10716390" lon="-72.25448390"><ele></ele><time>2014-6-24T23:56:57Z</time></trkpt>
<trkpt lat="48.10715650" lon="-72.25449250"><ele></ele><time>2014-6-24T23:57:0Z</time></trkpt>
<trkpt lat="48.10714900" lon="-72.25450150"><ele></ele><time>2014-6-24T23:57:3Z</time></trkpt>
<trkpt lat="48.10714130" lon="-72.25451100"><ele></ele><time>2014-6-24T23:57:6Z</time></trkpt>
<trkpt lat="48.10713420" lon="-72.25452140"><ele></ele><time>2014-6-24T23:57:9Z</time></trkpt>
<trkpt lat="48.10712690" lon="-72.25453190"><ele></ele><time>2014-6-24T23:57:12Z</time></trkpt>
<trkpt lat="48.10711950" lon="-72.25454260"><ele></ele><time>2014-6-24T23:57:15Z</time></trkpt>
<trkpt lat="48.10711240" lon="-72.25455360"><ele></ele><time>2014-6-24T23:57:18Z</time></trkpt>
<trkpt lat="48.10710520" lon="-72.25456460"><ele></ele><time>2014-6-24T23:57:21Z</time></trkpt>
<trkpt lat="48.10709820" lon="-72.25457500"><ele></ele><time>2014-6-24T23:57:24Z</time></trkpt>
<trkpt lat="48.10709130" lon="-72.25458570"><ele></ele><time>2014-6-24T23:57:27Z</time></trkpt>
<trkpt lat="48.10707690" lon="-72.25460620"><ele></ele><time>2014-6-24T23:57:30Z</time></trkpt>
<trkpt lat="48.10706900" lon="-72.25461720"><ele></ele><time>2014-6-24T23:57:33Z</time></trkpt>
<trkpt lat="48.10706090" lon="-72.25462690"><ele></ele><time>2014-6-24T23:57:36Z</time></trkpt>
<trkpt lat="48.10705190" lon="-72.25463710"><ele></ele><time>2014-6-24T23:57:39Z</time></trkpt>
<trkpt lat="48.10704200" lon="-72.25464850"><ele></ele><time>2014-6-24T23:57:42Z</time></trkpt>
<trkpt lat="48.10703310" lon="-72.25465810"><ele></ele><time>2014-6-24T23:57:45Z</time></trkpt>
<trkpt lat="48.10702390" lon="-72.25466670"><ele></ele><time>2014-6-24T23:57:48Z</time></trkpt>
<trkpt lat="48.10701450" lon="-72.25467550"><ele></ele><time>2014-6-24T23:57:51Z</time></trkpt>
<trkpt lat="48.10700540" lon="-72.25468440"><ele></ele><time>2014-6-24T23:57:54Z</time></trkpt>
<trkpt lat="48.10699630" lon="-72.25469400"><ele></ele><time>2014-6-24T23:57:57Z</time></trkpt>
<trkpt lat="48.10698700" lon="-72.25470370"><ele></ele><time>2014-6-24T23:58:0Z</time></trkpt>
<trkpt lat="48.10697770" lon="-72.25471310"><ele></ele><time>2014-6-24T23:58:3Z</time></trkpt>
<trkpt lat="48.10696840" lon="-72.25472350"><ele></ele><time>2014-6-24T23:58:6Z</time></trkpt>
<trkpt lat="48.10695930" lon="-72.25473440"><ele></ele><time>2014-6-24T23:58:9Z</time></trkpt>
<trkpt lat="48.10695040" lon="-72.25474420"><ele></ele><time>2014-6-24T23:58:12Z</time></trkpt>
<trkpt lat="48.10694160" lon="-72.25475400"><ele></ele><time>2014-6-24T23:58:15Z</time></trkpt>
<trkpt lat="48.10693290" lon="-72.25476270"><ele></ele><time>2014-6-24T23:58:18Z</time></trkpt>
<trkpt lat="48.10692420" lon="-72.25477090"><ele></ele><time>2014-6-24T23:58:21Z</time></trkpt>
<trkpt lat="48.10691600" lon="-72.25478000"><ele></ele><time>2014-6-24T23:58:24Z</time></trkpt>
<trkpt lat="48.10690800" lon="-72.25478920"><ele></ele><time>2014-6-24T23:58:27Z</time></trkpt>
<trkpt lat="48.10689970" lon="-72.25479790"><ele></ele><time>2014-6-24T23:58:30Z</time></trkpt>
<trkpt lat="48.10689150" lon="-72.25480690"><ele></ele><time>2014-6-24T23:58:33Z</time></trkpt>
<trkpt lat="48.10688320" lon="-72.25481630"><ele></ele><time>2014-6-24T23:58:36Z</time></trkpt>
<trkpt lat="48.10687480" lon="-72.25482580"><ele></ele><time>2014-6-24T23:58:39Z</time></trkpt>
<trkpt lat="48.10686630" lon="-72.25483600"><ele></ele><time>2014-6-24T23:58:42Z</time></trkpt>
<trkpt lat="48.10685780" lon="-72.25484690"><ele></ele><time>2014-6-24T23:58:45Z</time></trkpt>
<trkpt lat="48.10684910" lon="-72.25485770"><ele></ele><time>2014-6-24T23:58:48Z</time></trkpt>
<trkpt lat="48.10684010" lon="-72.25486950"><ele></ele><time>2014-6-24T23:58:51Z</time></trkpt>
<trkpt lat="48.10683170" lon="-72.25488100"><ele></ele><time>2014-6-24T23:58:54Z</time></trkpt>
<trkpt lat="48.10682340" lon="-72.25489160"><ele></ele><time>2014-6-24T23:58:57Z</time></trkpt>
<trkpt lat="48.10681520" lon="-72.25490170"><ele></ele><time>2014-6-24T23:59:0Z</time></trkpt>
<trkpt lat="48.10680670" lon="-72.25491180"><ele></ele><time>2014-6-24T23:59:3Z</time></trkpt>
<trkpt lat="48.10679750" lon="-72.25492230"><ele></ele><time>2014-6-24T23:59:6Z</time></trkpt>
<trkpt lat="48.10678830" lon="-72.25493290"><ele></ele><time>2014-6-24T23:59:9Z</time></trkpt>
<trkpt lat="48.10677950" lon="-72.25494400"><ele></ele><time>2014-6-24T23:59:12Z</time></trkpt>
<trkpt lat="48.10677080" lon="-72.25495470"><ele></ele><time>2014-6-24T23:59:15Z</time></trkpt>
<trkpt lat="48.10676190" lon="-72.25496520"><ele></ele><time>2014-6-24T23:59:18Z</time></trkpt>
<trkpt lat="48.10675240" lon="-72.25497670"><ele></ele><time>2014-6-24T23:59:21Z</time></trkpt>
<trkpt lat="48.10674280" lon="-72.25498900"><ele></ele><time>2014-6-24T23:59:24Z</time></trkpt>
<trkpt lat="48.10673380" lon="-72.25499990"><ele></ele><time>2014-6-24T23:59:27Z</time></trkpt>
<trkpt lat="48.10672520" lon="-72.25501090"><ele></ele><time>2014-6-24T23:59:30Z</time></trkpt>
<trkpt lat="48.10671640" lon="-72.25502270"><ele></ele><time>2014-6-24T23:59:33Z</time></trkpt>
<trkpt lat="48.10670730" lon="-72.25503500"><ele></ele><time>2014-6-24T23:59:36Z</time></trkpt>
<trkpt lat="48.10669930" lon="-72.25504570"><ele></ele><time>2014-6-24T23:59:39Z</time></trkpt>
<trkpt lat="48.10669050" lon="-72.25505690"><ele></ele><time>2014-6-24T23:59:42Z</time></trkpt>
<trkpt lat="48.10668190" lon="-72.25506660"><ele></ele><time>2014-6-24T23:59:45Z</time></trkpt>
<trkpt lat="48.10667260" lon="-72.25507620"><ele></ele><time>2014-6-24T23:59:48Z</time></trkpt>
<trkpt lat="48.10666260" lon="-72.25508580"><ele></ele><time>2014-6-24T23:59:51Z</time></trkpt>
<trkpt lat="48.10665390" lon="-72.25509510"><ele></ele><time>2014-6-24T23:59:54Z</time></trkpt>
<trkpt lat="48.10664470" lon="-72.25510520"><ele></ele><time>2014-6-24T23:59:57Z</time></trkpt>
<trkpt lat="48.10663580" lon="-72.25511550"><ele></ele><time>2014-6-25T0:0:0Z</time></trkpt>
<trkpt lat="48.10662690" lon="-72.25512610"><ele></ele><time>2014-6-25T0:0:3Z</time></trkpt>
<trkpt lat="48.10661760" lon="-72.25513640"><ele></ele><time>2014-6-25T0:0:6Z</time></trkpt>
<trkpt lat="48.10660830" lon="-72.25514770"><ele></ele><time>2014-6-25T0:0:9Z</time></trkpt>
<trkpt lat="48.10659890" lon="-72.25516050"><ele></ele><time>2014-6-25T0:0:12Z</time></trkpt>
<trkpt lat="48.10658940" lon="-72.25517330"><ele></ele><time>2014-6-25T0:0:15Z</time></trkpt>
<trkpt lat="48.10657950" lon="-72.25518480"><ele></ele><time>2014-6-25T0:0:18Z</time></trkpt>
<trkpt lat="48.10656940" lon="-72.25519570"><ele></ele><time>2014-6-25T0:0:21Z</time></trkpt>
<trkpt lat="48.10655930" lon="-72.25520610"><ele></ele><time>2014-6-25T0:0:24Z</time></trkpt>
<trkpt lat="48.10654850" lon="-72.25521470"><ele></ele><time>2014-6-25T0:0:27Z</time></trkpt>
<trkpt lat="48.10653740" lon="-72.25522330"><ele></ele><time>2014-6-25T0:0:30Z</time></trkpt>
<trkpt lat="48.10652630" lon="-72.25523140"><ele></ele><time>2014-6-25T0:0:33Z</time></trkpt>
<trkpt lat="48.10651490" lon="-72.25523870"><ele></ele><time>2014-6-25T0:0:36Z</time></trkpt>
<trkpt lat="48.10650330" lon="-72.25524670"><ele></ele><time>2014-6-25T0:0:39Z</time></trkpt>
<trkpt lat="48.10649280" lon="-72.25525420"><ele></ele><time>2014-6-25T0:0:42Z</time></trkpt>
<trkpt lat="48.10648190" lon="-72.25526170"><ele></ele><time>2014-6-25T0:0:45Z</time></trkpt>
<trkpt lat="48.10645950" lon="-72.25527780"><ele></ele><time>2014-6-25T0:0:48Z</time></trkpt>
<trkpt lat="48.10644830" lon="-72.25528400"><ele></ele><time>2014-6-25T0:0:51Z</time></trkpt>
<trkpt lat="48.10643680" lon="-72.25528980"><ele></ele><time>2014-6-25T0:0:54Z</time></trkpt>
<trkpt lat="48.10642530" lon="-72.25529550"><ele></ele><time>2014-6-25T0:0:57Z</time></trkpt>
<trkpt lat="48.10641390" lon="-72.25529940"><ele></ele><time>2014-6-25T0:1:0Z</time></trkpt>
<trkpt lat="48.10640270" lon="-72.25530420"><ele></ele><time>2014-6-25T0:1:3Z</time></trkpt>
<trkpt lat="48.10639300" lon="-72.25530820"><ele></ele><time>2014-6-25T0:1:6Z</time></trkpt>
<trkpt lat="48.10638320" lon="-72.25531250"><ele></ele><time>2014-6-25T0:1:9Z</time></trkpt>
<trkpt lat="48.10636490" lon="-72.25532490"><ele></ele><time>2014-6-25T0:1:12Z</time></trkpt>
<trkpt lat="48.10635640" lon="-72.25533020"><ele></ele><time>2014-6-25T0:1:15Z</time></trkpt>
<trkpt lat="48.10634580" lon="-72.25533340"><ele></ele><time>2014-6-25T0:1:18Z</time></trkpt>
<trkpt lat="48.10633430" lon="-72.25533700"><ele></ele><time>2014-6-25T0:1:21Z</time></trkpt>
<trkpt lat="48.10632290" lon="-72.25533910"><ele></ele><time>2014-6-25T0:1:24Z</time></trkpt>
<trkpt lat="48.10631060" lon="-72.25533850"><ele></ele><time>2014-6-25T0:1:27Z</time></trkpt>
<trkpt lat="48.10629940" lon="-72.25533860"><ele></ele><time>2014-6-25T0:1:30Z</time></trkpt>
<trkpt lat="48.10628860" lon="-72.25533860"><ele></ele><time>2014-6-25T0:1:33Z</time></trkpt>
<trkpt lat="48.10627850" lon="-72.25533950"><ele></ele><time>2014-6-25T0:1:36Z</time></trkpt>
<trkpt lat="48.10626800" lon="-72.25534110"><ele></ele><time>2014-6-25T0:1:39Z</time></trkpt>
<trkpt lat="48.10625650" lon="-72.25534210"><ele></ele><time>2014-6-25T0:1:42Z</time></trkpt>
<trkpt lat="48.10624540" lon="-72.25534170"><ele></ele><time>2014-6-25T0:1:45Z</time></trkpt>
<trkpt lat="48.10623500" lon="-72.25534070"><ele></ele><time>2014-6-25T0:1:48Z</time></trkpt>
<trkpt lat="48.10622460" lon="-72.25533930"><ele></ele><time>2014-6-25T0:1:51Z</time></trkpt>
<trkpt lat="48.10621370" lon="-72.25533740"><ele></ele><time>2014-6-25T0:1:54Z</time></trkpt>
<trkpt lat="48.10620330" lon="-72.25533470"><ele></ele><time>2014-6-25T0:1:57Z</time></trkpt>
<trkpt lat="48.10619310" lon="-72.25533210"><ele></ele><time>2014-6-25T0:2:0Z</time></trkpt>
<trkpt lat="48.10618320" lon="-72.25532970"><ele></ele><time>2014-6-25T0:2:3Z</time></trkpt>
<trkpt lat="48.10617350" lon="-72.25532850"><ele></ele><time>2014-6-25T0:2:6Z</time></trkpt>
<trkpt lat="48.10615470" lon="-72.25532750"><ele></ele><time>2014-6-25T0:2:9Z</time></trkpt>
<trkpt lat="48.10614570" lon="-72.25532780"><ele></ele><time>2014-6-25T0:2:12Z</time></trkpt>
<trkpt lat="48.10613660" lon="-72.25532880"><ele></ele><time>2014-6-25T0:2:15Z</time></trkpt>
<trkpt lat="48.10612680" lon="-72.25533160"><ele></ele><time>2014-6-25T0:2:18Z</time></trkpt>
<trkpt lat="48.10611750" lon="-72.25533440"><ele></ele><time>2014-6-25T0:2:21Z</time></trkpt>
<trkpt lat="48.10610860" lon="-72.25533690"><ele></ele><time>2014-6-25T0:2:24Z</time></trkpt>
<trkpt lat="48.10610000" lon="-72.25534050"><ele></ele><time>2014-6-25T0:2:27Z</time></trkpt>
<trkpt lat="48.10609160" lon="-72.25534450"><ele></ele><time>2014-6-25T0:2:30Z</time></trkpt>
<trkpt lat="48.10608330" lon="-72.25534900"><ele></ele><time>2014-6-25T0:2:33Z</time></trkpt>
<trkpt lat="48.10607470" lon="-72.25535440"><ele></ele><time>2014-6-25T0:2:36Z</time></trkpt>
<trkpt lat="48.10606650" lon="-72.25535990"><ele></ele><time>2014-6-25T0:2:39Z</time></trkpt>
<trkpt lat="48.10605820" lon="-72.25536530"><ele></ele><time>2014-6-25T0:2:42Z</time></trkpt>
<trkpt lat="48.10604860" lon="-72.25537330"><ele></ele><time>2014-6-25T0:2:45Z</time></trkpt>
<trkpt lat="48.10604000" lon="-72.25538090"><ele></ele><time>2014-6-25T0:2:48Z</time></trkpt>
<trkpt lat="48.10602190" lon="-72.25539680"><ele></ele><time>2014-6-25T0:2:51Z</time></trkpt>
<trkpt lat="48.10601290" lon="-72.25540510"><ele></ele><time>2014-6-25T0:2:54Z</time></trkpt>
<trkpt lat="48.10600470" lon="-72.25541230"><ele></ele><time>2014-6-25T0:2:57Z</time></trkpt>
<trkpt lat="48.10599550" lon="-72.25542100"><ele></ele><time>2014-6-25T0:3:0Z</time></trkpt>
<trkpt lat="48.10598690" lon="-72.25542770"><ele></ele><time>2014-6-25T0:3:3Z</time></trkpt>
<trkpt lat="48.10597840" lon="-72.25543440"><ele></ele><time>2014-6-25T0:3:6Z</time></trkpt>
<trkpt lat="48.10597050" lon="-72.25544200"><ele></ele><time>2014-6-25T0:3:9Z</time></trkpt>
<trkpt lat="48.10596300" lon="-72.25544940"><ele></ele><time>2014-6-25T0:3:12Z</time></trkpt>
<trkpt lat="48.10595550" lon="-72.25545730"><ele></ele><time>2014-6-25T0:3:15Z</time></trkpt>
<trkpt lat="48.10593950" lon="-72.25547390"><ele></ele><time>2014-6-25T0:3:18Z</time></trkpt>
<trkpt lat="48.10593250" lon="-72.25548210"><ele></ele><time>2014-6-25T0:3:21Z</time></trkpt>
<trkpt lat="48.10592480" lon="-72.25549020"><ele></ele><time>2014-6-25T0:3:24Z</time></trkpt>
<trkpt lat="48.10591830" lon="-72.25549750"><ele></ele><time>2014-6-25T0:3:27Z</time></trkpt>
<trkpt lat="48.10591160" lon="-72.25550560"><ele></ele><time>2014-6-25T0:3:30Z</time></trkpt>
<trkpt lat="48.10590470" lon="-72.25551400"><ele></ele><time>2014-6-25T0:3:33Z</time></trkpt>
<trkpt lat="48.10589840" lon="-72.25552170"><ele></ele><time>2014-6-25T0:3:36Z</time></trkpt>
<trkpt lat="48.10589200" lon="-72.25552910"><ele></ele><time>2014-6-25T0:3:39Z</time></trkpt>
<trkpt lat="48.10588490" lon="-72.25553760"><ele></ele><time>2014-6-25T0:3:42Z</time></trkpt>
<trkpt lat="48.10587830" lon="-72.25554590"><ele></ele><time>2014-6-25T0:3:45Z</time></trkpt>
<trkpt lat="48.10587220" lon="-72.25555440"><ele></ele><time>2014-6-25T0:3:48Z</time></trkpt>
<trkpt lat="48.10586590" lon="-72.25556340"><ele></ele><time>2014-6-25T0:3:51Z</time></trkpt>
<trkpt lat="48.10585990" lon="-72.25557280"><ele></ele><time>2014-6-25T0:3:54Z</time></trkpt>
<trkpt lat="48.10585390" lon="-72.25558280"><ele></ele><time>2014-6-25T0:3:57Z</time></trkpt>
<trkpt lat="48.10584740" lon="-72.25559350"><ele></ele><time>2014-6-25T0:4:0Z</time></trkpt>
<trkpt lat="48.10584120" lon="-72.25560340"><ele></ele><time>2014-6-25T0:4:3Z</time></trkpt>
<trkpt lat="48.10583530" lon="-72.25561360"><ele></ele><time>2014-6-25T0:4:6Z</time></trkpt>
<trkpt lat="48.10582870" lon="-72.25562420"><ele></ele><time>2014-6-25T0:4:9Z</time></trkpt>
<trkpt lat="48.10582210" lon="-72.25563500"><ele></ele><time>2014-6-25T0:4:12Z</time></trkpt>
<trkpt lat="48.10581490" lon="-72.25564580"><ele></ele><time>2014-6-25T0:4:15Z</time></trkpt>
<trkpt lat="48.10580690" lon="-72.25565670"><ele></ele><time>2014-6-25T0:4:18Z</time></trkpt>
<trkpt lat="48.10579880" lon="-72.25566830"><ele></ele><time>2014-6-25T0:4:21Z</time></trkpt>
<trkpt lat="48.10579090" lon="-72.25568000"><ele></ele><time>2014-6-25T0:4:24Z</time></trkpt>
<trkpt lat="48.10577410" lon="-72.25570260"><ele></ele><time>2014-6-25T0:4:27Z</time></trkpt>
<trkpt lat="48.10576600" lon="-72.25571170"><ele></ele><time>2014-6-25T0:4:30Z</time></trkpt>
<trkpt lat="48.10575700" lon="-72.25572110"><ele></ele><time>2014-6-25T0:4:33Z</time></trkpt>
<trkpt lat="48.10574760" lon="-72.25572850"><ele></ele><time>2014-6-25T0:4:36Z</time></trkpt>
<trkpt lat="48.10573870" lon="-72.25573540"><ele></ele><time>2014-6-25T0:4:39Z</time></trkpt>
<trkpt lat="48.10572910" lon="-72.25574200"><ele></ele><time>2014-6-25T0:4:42Z</time></trkpt>
<trkpt lat="48.10571980" lon="-72.25574840"><ele></ele><time>2014-6-25T0:4:45Z</time></trkpt>
<trkpt lat="48.10571100" lon="-72.25575440"><ele></ele><time>2014-6-25T0:4:48Z</time></trkpt>
<trkpt lat="48.10570130" lon="-72.25576210"><ele></ele><time>2014-6-25T0:4:51Z</time></trkpt>
<trkpt lat="48.10569130" lon="-72.25576920"><ele></ele><time>2014-6-25T0:4:54Z</time></trkpt>
<trkpt lat="48.10568090" lon="-72.25577560"><ele></ele><time>2014-6-25T0:4:57Z</time></trkpt>
<trkpt lat="48.10567040" lon="-72.25578160"><ele></ele><time>2014-6-25T0:5:0Z</time></trkpt>
<trkpt lat="48.10566000" lon="-72.25578700"><ele></ele><time>2014-6-25T0:5:3Z</time></trkpt>
<trkpt lat="48.10565020" lon="-72.25579190"><ele></ele><time>2014-6-25T0:5:6Z</time></trkpt>
<trkpt lat="48.10563300" lon="-72.25580080"><ele></ele><time>2014-6-25T0:5:9Z</time></trkpt>
<trkpt lat="48.10561340" lon="-72.25581180"><ele></ele><time>2014-6-25T0:5:12Z</time></trkpt>
<trkpt lat="48.10560400" lon="-72.25581660"><ele></ele><time>2014-6-25T0:5:15Z</time></trkpt>
<trkpt lat="48.10559500" lon="-72.25582080"><ele></ele><time>2014-6-25T0:5:18Z</time></trkpt>
<trkpt lat="48.10558570" lon="-72.25582420"><ele></ele><time>2014-6-25T0:5:21Z</time></trkpt>
<trkpt lat="48.10557590" lon="-72.25582770"><ele></ele><time>2014-6-25T0:5:24Z</time></trkpt>
<trkpt lat="48.10556580" lon="-72.25583240"><ele></ele><time>2014-6-25T0:5:27Z</time></trkpt>
<trkpt lat="48.10555490" lon="-72.25583810"><ele></ele><time>2014-6-25T0:5:30Z</time></trkpt>
<trkpt lat="48.10554370" lon="-72.25584480"><ele></ele><time>2014-6-25T0:5:33Z</time></trkpt>
<trkpt lat="48.10553170" lon="-72.25585180"><ele></ele><time>2014-6-25T0:5:36Z</time></trkpt>
<trkpt lat="48.10551980" lon="-72.25585700"><ele></ele><time>2014-6-25T0:5:39Z</time></trkpt>
<trkpt lat="48.10550970" lon="-72.25586200"><ele></ele><time>2014-6-25T0:5:42Z</time></trkpt>
<trkpt lat="48.10549970" lon="-72.25586660"><ele></ele><time>2014-6-25T0:5:45Z</time></trkpt>
<trkpt lat="48.10548990" lon="-72.25587150"><ele></ele><time>2014-6-25T0:5:48Z</time></trkpt>
<trkpt lat="48.10547980" lon="-72.25587670"><ele></ele><time>2014-6-25T0:5:51Z</time></trkpt>
<trkpt lat="48.10547010" lon="-72.25588150"><ele></ele><time>2014-6-25T0:5:54Z</time></trkpt>
<trkpt lat="48.10544960" lon="-72.25589050"><ele></ele><time>2014-6-25T0:5:57Z</time></trkpt>
<trkpt lat="48.10543990" lon="-72.25589490"><ele></ele><time>2014-6-25T0:6:0Z</time></trkpt>
<trkpt lat="48.10543030" lon="-72.25590030"><ele></ele><time>2014-6-25T0:6:3Z</time></trkpt>
<trkpt lat="48.10542100" lon="-72.25590570"><ele></ele><time>2014-6-25T0:6:6Z</time></trkpt>
<trkpt lat="48.10541180" lon="-72.25591060"><ele></ele><time>2014-6-25T0:6:9Z</time></trkpt>
<trkpt lat="48.10540220" lon="-72.25591640"><ele></ele><time>2014-6-25T0:6:12Z</time></trkpt>
<trkpt lat="48.10539240" lon="-72.25592140"><ele></ele><time>2014-6-25T0:6:15Z</time></trkpt>
<trkpt lat="48.10538200" lon="-72.25592630"><ele></ele><time>2014-6-25T0:6:18Z</time></trkpt>
<trkpt lat="48.10537150" lon="-72.25593080"><ele></ele><time>2014-6-25T0:6:21Z</time></trkpt>
<trkpt lat="48.10536210" lon="-72.25593390"><ele></ele><time>2014-6-25T0:6:24Z</time></trkpt>
<trkpt lat="48.10535260" lon="-72.25593690"><ele></ele><time>2014-6-25T0:6:27Z</time></trkpt>
<trkpt lat="48.10534220" lon="-72.25593970"><ele></ele><time>2014-6-25T0:6:30Z</time></trkpt>
<trkpt lat="48.10533220" lon="-72.25594220"><ele></ele><time>2014-6-25T0:6:33Z</time></trkpt>
<trkpt lat="48.10532240" lon="-72.25594490"><ele></ele><time>2014-6-25T0:6:36Z</time></trkpt>
<trkpt lat="48.10531230" lon="-72.25594830"><ele></ele><time>2014-6-25T0:6:39Z</time></trkpt>
<trkpt lat="48.10530160" lon="-72.25595350"><ele></ele><time>2014-6-25T0:6:42Z</time></trkpt>
<trkpt lat="48.10529000" lon="-72.25595950"><ele></ele><time>2014-6-25T0:6:45Z</time></trkpt>
<trkpt lat="48.10527940" lon="-72.25596530"><ele></ele><time>2014-6-25T0:6:48Z</time></trkpt>
<trkpt lat="48.10526870" lon="-72.25597090"><ele></ele><time>2014-6-25T0:6:51Z</time></trkpt>
<trkpt lat="48.10525810" lon="-72.25597690"><ele></ele><time>2014-6-25T0:6:54Z</time></trkpt>
<trkpt lat="48.10524730" lon="-72.25598310"><ele></ele><time>2014-6-25T0:6:57Z</time></trkpt>
<trkpt lat="48.10523720" lon="-72.25598870"><ele></ele><time>2014-6-25T0:7:0Z</time></trkpt>
<trkpt lat="48.10522680" lon="-72.25599330"><ele></ele><time>2014-6-25T0:7:3Z</time></trkpt>
<trkpt lat="48.10521600" lon="-72.25599810"><ele></ele><time>2014-6-25T0:7:6Z</time></trkpt>
<trkpt lat="48.10520640" lon="-72.25600280"><ele></ele><time>2014-6-25T0:7:9Z</time></trkpt>
<trkpt lat="48.10519660" lon="-72.25600780"><ele></ele><time>2014-6-25T0:7:12Z</time></trkpt>
<trkpt lat="48.10518600" lon="-72.25601270"><ele></ele><time>2014-6-25T0:7:15Z</time></trkpt>
<trkpt lat="48.10517570" lon="-72.25601690"><ele></ele><time>2014-6-25T0:7:18Z</time></trkpt>
<trkpt lat="48.10516510" lon="-72.25602160"><ele></ele><time>2014-6-25T0:7:21Z</time></trkpt>
<trkpt lat="48.10515390" lon="-72.25602630"><ele></ele><time>2014-6-25T0:7:24Z</time></trkpt>
<trkpt lat="48.10514290" lon="-72.25603040"><ele></ele><time>2014-6-25T0:7:27Z</time></trkpt>
<trkpt lat="48.10513170" lon="-72.25603370"><ele></ele><time>2014-6-25T0:7:30Z</time></trkpt>
<trkpt lat="48.10512100" lon="-72.25603740"><ele></ele><time>2014-6-25T0:7:33Z</time></trkpt>
<trkpt lat="48.10511180" lon="-72.25604110"><ele></ele><time>2014-6-25T0:7:36Z</time></trkpt>
<trkpt lat="48.10510260" lon="-72.25604500"><ele></ele><time>2014-6-25T0:7:39Z</time></trkpt>
<trkpt lat="48.10509280" lon="-72.25604760"><ele></ele><time>2014-6-25T0:7:42Z</time></trkpt>
<trkpt lat="48.10507300" lon="-72.25605380"><ele></ele><time>2014-6-25T0:7:45Z</time></trkpt>
<trkpt lat="48.10506320" lon="-72.25605700"><ele></ele><time>2014-6-25T0:7:48Z</time></trkpt>
<trkpt lat="48.10505400" lon="-72.25605980"><ele></ele><time>2014-6-25T0:7:51Z</time></trkpt>
<trkpt lat="48.10504520" lon="-72.25606240"><ele></ele><time>2014-6-25T0:7:54Z</time></trkpt>
<trkpt lat="48.10503610" lon="-72.25606410"><ele></ele><time>2014-6-25T0:7:57Z</time></trkpt>
<trkpt lat="48.10502800" lon="-72.25606630"><ele></ele><time>2014-6-25T0:8:0Z</time></trkpt>
<trkpt lat="48.10502070" lon="-72.25606790"><ele></ele><time>2014-6-25T0:8:3Z</time></trkpt>
<trkpt lat="48.10501270" lon="-72.25606890"><ele></ele><time>2014-6-25T0:8:6Z</time></trkpt>
<trkpt lat="48.10500490" lon="-72.25606880"><ele></ele><time>2014-6-25T0:8:9Z</time></trkpt>
<trkpt lat="48.10499690" lon="-72.25606860"><ele></ele><time>2014-6-25T0:8:12Z</time></trkpt>
<trkpt lat="48.10498780" lon="-72.25606770"><ele></ele><time>2014-6-25T0:8:15Z</time></trkpt>
<trkpt lat="48.10497940" lon="-72.25606640"><ele></ele><time>2014-6-25T0:8:18Z</time></trkpt>
<trkpt lat="48.10496310" lon="-72.25606350"><ele></ele><time>2014-6-25T0:8:21Z</time></trkpt>
<trkpt lat="48.10495570" lon="-72.25606300"><ele></ele><time>2014-6-25T0:8:24Z</time></trkpt>
<trkpt lat="48.10494600" lon="-72.25606220"><ele></ele><time>2014-6-25T0:8:27Z</time></trkpt>
<trkpt lat="48.10493690" lon="-72.25606190"><ele></ele><time>2014-6-25T0:8:30Z</time></trkpt>
<trkpt lat="48.10492820" lon="-72.25606140"><ele></ele><time>2014-6-25T0:8:33Z</time></trkpt>
<trkpt lat="48.10491130" lon="-72.25605960"><ele></ele><time>2014-6-25T0:8:36Z</time></trkpt>
<trkpt lat="48.10490220" lon="-72.25605770"><ele></ele><time>2014-6-25T0:8:39Z</time></trkpt>
<trkpt lat="48.10489330" lon="-72.25605510"><ele></ele><time>2014-6-25T0:8:42Z</time></trkpt>
<trkpt lat="48.10488430" lon="-72.25605210"><ele></ele><time>2014-6-25T0:8:45Z</time></trkpt>
<trkpt lat="48.10487550" lon="-72.25604970"><ele></ele><time>2014-6-25T0:8:48Z</time></trkpt>
<trkpt lat="48.10486670" lon="-72.25604740"><ele></ele><time>2014-6-25T0:8:51Z</time></trkpt>
<trkpt lat="48.10485810" lon="-72.25604550"><ele></ele><time>2014-6-25T0:8:54Z</time></trkpt>
<trkpt lat="48.10484970" lon="-72.25604320"><ele></ele><time>2014-6-25T0:8:57Z</time></trkpt>
<trkpt lat="48.10484160" lon="-72.25604060"><ele></ele><time>2014-6-25T0:9:0Z</time></trkpt>
<trkpt lat="48.10483330" lon="-72.25603780"><ele></ele><time>2014-6-25T0:9:3Z</time></trkpt>
<trkpt lat="48.10482520" lon="-72.25603520"><ele></ele><time>2014-6-25T0:9:6Z</time></trkpt>
<trkpt lat="48.10481770" lon="-72.25603260"><ele></ele><time>2014-6-25T0:9:9Z</time></trkpt>
<trkpt lat="48.10481020" lon="-72.25603070"><ele></ele><time>2014-6-25T0:9:12Z</time></trkpt>
<trkpt lat="48.10480250" lon="-72.25602910"><ele></ele><time>2014-6-25T0:9:15Z</time></trkpt>
<trkpt lat="48.10479470" lon="-72.25602750"><ele></ele><time>2014-6-25T0:9:18Z</time></trkpt>
<trkpt lat="48.10478670" lon="-72.25602580"><ele></ele><time>2014-6-25T0:9:21Z</time></trkpt>
<trkpt lat="48.10477860" lon="-72.25602400"><ele></ele><time>2014-6-25T0:9:24Z</time></trkpt>
<trkpt lat="48.10477020" lon="-72.25602150"><ele></ele><time>2014-6-25T0:9:27Z</time></trkpt>
<trkpt lat="48.10476140" lon="-72.25601850"><ele></ele><time>2014-6-25T0:9:30Z</time></trkpt>
<trkpt lat="48.10475280" lon="-72.25601650"><ele></ele><time>2014-6-25T0:9:33Z</time></trkpt>
<trkpt lat="48.10474380" lon="-72.25601480"><ele></ele><time>2014-6-25T0:9:36Z</time></trkpt>
<trkpt lat="48.10473440" lon="-72.25601540"><ele></ele><time>2014-6-25T0:9:39Z</time></trkpt>
<trkpt lat="48.10472490" lon="-72.25601790"><ele></ele><time>2014-6-25T0:9:42Z</time></trkpt>
<trkpt lat="48.10471610" lon="-72.25602100"><ele></ele><time>2014-6-25T0:9:45Z</time></trkpt>
<trkpt lat="48.10470800" lon="-72.25602520"><ele></ele><time>2014-6-25T0:9:48Z</time></trkpt>
<trkpt lat="48.10470130" lon="-72.25603140"><ele></ele><time>2014-6-25T0:9:51Z</time></trkpt>
<trkpt lat="48.10469500" lon="-72.25603840"><ele></ele><time>2014-6-25T0:9:54Z</time></trkpt>
<trkpt lat="48.10468920" lon="-72.25604670"><ele></ele><time>2014-6-25T0:9:57Z</time></trkpt>
<trkpt lat="48.10468390" lon="-72.25605780"><ele></ele><time>2014-6-25T0:10:0Z</time></trkpt>
<trkpt lat="48.10467890" lon="-72.25606890"><ele></ele><time>2014-6-25T0:10:3Z</time></trkpt>
<trkpt lat="48.10467430" lon="-72.25608040"><ele></ele><time>2014-6-25T0:10:6Z</time></trkpt>
<trkpt lat="48.10467010" lon="-72.25609210"><ele></ele><time>2014-6-25T0:10:9Z</time></trkpt>
<trkpt lat="48.10466640" lon="-72.25610440"><ele></ele><time>2014-6-25T0:10:12Z</time></trkpt>
<trkpt lat="48.10466330" lon="-72.25611580"><ele></ele><time>2014-6-25T0:10:15Z</time></trkpt>
<trkpt lat="48.10466090" lon="-72.25612760"><ele></ele><time>2014-6-25T0:10:18Z</time></trkpt>
<trkpt lat="48.10465900" lon="-72.25614040"><ele></ele><time>2014-6-25T0:10:21Z</time></trkpt>
<trkpt lat="48.10465780" lon="-72.25615400"><ele></ele><time>2014-6-25T0:10:24Z</time></trkpt>
<trkpt lat="48.10465720" lon="-72.25616730"><ele></ele><time>2014-6-25T0:10:27Z</time></trkpt>
<trkpt lat="48.10465700" lon="-72.25618190"><ele></ele><time>2014-6-25T0:10:30Z</time></trkpt>
<trkpt lat="48.10465790" lon="-72.25620890"><ele></ele><time>2014-6-25T0:10:33Z</time></trkpt>
<trkpt lat="48.10465770" lon="-72.25622150"><ele></ele><time>2014-6-25T0:10:36Z</time></trkpt>
<trkpt lat="48.10465790" lon="-72.25624550"><ele></ele><time>2014-6-25T0:10:39Z</time></trkpt>
<trkpt lat="48.10465820" lon="-72.25625650"><ele></ele><time>2014-6-25T0:10:42Z</time></trkpt>
<trkpt lat="48.10466030" lon="-72.25627930"><ele></ele><time>2014-6-25T0:10:45Z</time></trkpt>
<trkpt lat="48.10466030" lon="-72.25629230"><ele></ele><time>2014-6-25T0:10:48Z</time></trkpt>
<trkpt lat="48.10466040" lon="-72.25630530"><ele></ele><time>2014-6-25T0:10:51Z</time></trkpt>
<trkpt lat="48.10466080" lon="-72.25631730"><ele></ele><time>2014-6-25T0:10:54Z</time></trkpt>
<trkpt lat="48.10466100" lon="-72.25632970"><ele></ele><time>2014-6-25T0:10:57Z</time></trkpt>
<trkpt lat="48.10466100" lon="-72.25634180"><ele></ele><time>2014-6-25T0:11:0Z</time></trkpt>
<trkpt lat="48.10466120" lon="-72.25635370"><ele></ele><time>2014-6-25T0:11:3Z</time></trkpt>
<trkpt lat="48.10466110" lon="-72.25636610"><ele></ele><time>2014-6-25T0:11:6Z</time></trkpt>
<trkpt lat="48.10466050" lon="-72.25637830"><ele></ele><time>2014-6-25T0:11:9Z</time></trkpt>
<trkpt lat="48.10466000" lon="-72.25639010"><ele></ele><time>2014-6-25T0:11:12Z</time></trkpt>
<trkpt lat="48.10465960" lon="-72.25640190"><ele></ele><time>2014-6-25T0:11:15Z</time></trkpt>
<trkpt lat="48.10465900" lon="-72.25641330"><ele></ele><time>2014-6-25T0:11:18Z</time></trkpt>
<trkpt lat="48.10465910" lon="-72.25642560"><ele></ele><time>2014-6-25T0:11:21Z</time></trkpt>
<trkpt lat="48.10465920" lon="-72.25643790"><ele></ele><time>2014-6-25T0:11:24Z</time></trkpt>
<trkpt lat="48.10465970" lon="-72.25645120"><ele></ele><time>2014-6-25T0:11:27Z</time></trkpt>
<trkpt lat="48.10466040" lon="-72.25646380"><ele></ele><time>2014-6-25T0:11:30Z</time></trkpt>
<trkpt lat="48.10466190" lon="-72.25648760"><ele></ele><time>2014-6-25T0:11:33Z</time></trkpt>
<trkpt lat="48.10466290" lon="-72.25650030"><ele></ele><time>2014-6-25T0:11:36Z</time></trkpt>
<trkpt lat="48.10466360" lon="-72.25651130"><ele></ele><time>2014-6-25T0:11:39Z</time></trkpt>
<trkpt lat="48.10466520" lon="-72.25652290"><ele></ele><time>2014-6-25T0:11:42Z</time></trkpt>
<trkpt lat="48.10466720" lon="-72.25653470"><ele></ele><time>2014-6-25T0:11:45Z</time></trkpt>
<trkpt lat="48.10466910" lon="-72.25654650"><ele></ele><time>2014-6-25T0:11:48Z</time></trkpt>
<trkpt lat="48.10467090" lon="-72.25655840"><ele></ele><time>2014-6-25T0:11:51Z</time></trkpt>
<trkpt lat="48.10467290" lon="-72.25657000"><ele></ele><time>2014-6-25T0:11:54Z</time></trkpt>
<trkpt lat="48.10467500" lon="-72.25658260"><ele></ele><time>2014-6-25T0:11:57Z</time></trkpt>
<trkpt lat="48.10467740" lon="-72.25659460"><ele></ele><time>2014-6-25T0:12:0Z</time></trkpt>
<trkpt lat="48.10468060" lon="-72.25660760"><ele></ele><time>2014-6-25T0:12:3Z</time></trkpt>
<trkpt lat="48.10468380" lon="-72.25662160"><ele></ele><time>2014-6-25T0:12:6Z</time></trkpt>
<trkpt lat="48.10468630" lon="-72.25663390"><ele></ele><time>2014-6-25T0:12:9Z</time></trkpt>
<trkpt lat="48.10469120" lon="-72.25665930"><ele></ele><time>2014-6-25T0:12:12Z</time></trkpt>
<trkpt lat="48.10469300" lon="-72.25667150"><ele></ele><time>2014-6-25T0:12:15Z</time></trkpt>
<trkpt lat="48.10469490" lon="-72.25668440"><ele></ele><time>2014-6-25T0:12:18Z</time></trkpt>
<trkpt lat="48.10469710" lon="-72.25669730"><ele></ele><time>2014-6-25T0:12:21Z</time></trkpt>
<trkpt lat="48.10469930" lon="-72.25671030"><ele></ele><time>2014-6-25T0:12:24Z</time></trkpt>
<trkpt lat="48.10470380" lon="-72.25673550"><ele></ele><time>2014-6-25T0:12:27Z</time></trkpt>
<trkpt lat="48.10470580" lon="-72.25674820"><ele></ele><time>2014-6-25T0:12:30Z</time></trkpt>
<trkpt lat="48.10470810" lon="-72.25676140"><ele></ele><time>2014-6-25T0:12:33Z</time></trkpt>
<trkpt lat="48.10471020" lon="-72.25677430"><ele></ele><time>2014-6-25T0:12:36Z</time></trkpt>
<trkpt lat="48.10471210" lon="-72.25678750"><ele></ele><time>2014-6-25T0:12:39Z</time></trkpt>
<trkpt lat="48.10471330" lon="-72.25680100"><ele></ele><time>2014-6-25T0:12:42Z</time></trkpt>
<trkpt lat="48.10471510" lon="-72.25681450"><ele></ele><time>2014-6-25T0:12:45Z</time></trkpt>
<trkpt lat="48.10471810" lon="-72.25682850"><ele></ele><time>2014-6-25T0:12:48Z</time></trkpt>
<trkpt lat="48.10472070" lon="-72.25684240"><ele></ele><time>2014-6-25T0:12:51Z</time></trkpt>
<trkpt lat="48.10472380" lon="-72.25685660"><ele></ele><time>2014-6-25T0:12:54Z</time></trkpt>
<trkpt lat="48.10472660" lon="-72.25687070"><ele></ele><time>2014-6-25T0:12:57Z</time></trkpt>
<trkpt lat="48.10472960" lon="-72.25688550"><ele></ele><time>2014-6-25T0:13:0Z</time></trkpt>
<trkpt lat="48.10473320" lon="-72.25690070"><ele></ele><time>2014-6-25T0:13:3Z</time></trkpt>
<trkpt lat="48.10473750" lon="-72.25691570"><ele></ele><time>2014-6-25T0:13:6Z</time></trkpt>
<trkpt lat="48.10474280" lon="-72.25693180"><ele></ele><time>2014-6-25T0:13:9Z</time></trkpt>
<trkpt lat="48.10474800" lon="-72.25694810"><ele></ele><time>2014-6-25T0:13:12Z</time></trkpt>
<trkpt lat="48.10475260" lon="-72.25696320"><ele></ele><time>2014-6-25T0:13:15Z</time></trkpt>
<trkpt lat="48.10475690" lon="-72.25697880"><ele></ele><time>2014-6-25T0:13:18Z</time></trkpt>
<trkpt lat="48.10476090" lon="-72.25699460"><ele></ele><time>2014-6-25T0:13:21Z</time></trkpt>
<trkpt lat="48.10476570" lon="-72.25701130"><ele></ele><time>2014-6-25T0:13:24Z</time></trkpt>
<trkpt lat="48.10477030" lon="-72.25702520"><ele></ele><time>2014-6-25T0:13:27Z</time></trkpt>
<trkpt lat="48.10477500" lon="-72.25704020"><ele></ele><time>2014-6-25T0:13:30Z</time></trkpt>
<trkpt lat="48.10477980" lon="-72.25705540"><ele></ele><time>2014-6-25T0:13:33Z</time></trkpt>
<trkpt lat="48.10478440" lon="-72.25707080"><ele></ele><time>2014-6-25T0:13:36Z</time></trkpt>
<trkpt lat="48.10478900" lon="-72.25708570"><ele></ele><time>2014-6-25T0:13:39Z</time></trkpt>
<trkpt lat="48.10479350" lon="-72.25710180"><ele></ele><time>2014-6-25T0:13:42Z</time></trkpt>
<trkpt lat="48.10479850" lon="-72.25711830"><ele></ele><time>2014-6-25T0:13:45Z</time></trkpt>
<trkpt lat="48.10480270" lon="-72.25713270"><ele></ele><time>2014-6-25T0:13:48Z</time></trkpt>
<trkpt lat="48.10480700" lon="-72.25714700"><ele></ele><time>2014-6-25T0:13:51Z</time></trkpt>
<trkpt lat="48.10481140" lon="-72.25716160"><ele></ele><time>2014-6-25T0:13:54Z</time></trkpt>
<trkpt lat="48.10481600" lon="-72.25717630"><ele></ele><time>2014-6-25T0:13:57Z</time></trkpt>
<trkpt lat="48.10482050" lon="-72.25719200"><ele></ele><time>2014-6-25T0:14:0Z</time></trkpt>
<trkpt lat="48.10482430" lon="-72.25720730"><ele></ele><time>2014-6-25T0:14:3Z</time></trkpt>
<trkpt lat="48.10482830" lon="-72.25722200"><ele></ele><time>2014-6-25T0:14:6Z</time></trkpt>
<trkpt lat="48.10483260" lon="-72.25723670"><ele></ele><time>2014-6-25T0:14:9Z</time></trkpt>
<trkpt lat="48.10483670" lon="-72.25725180"><ele></ele><time>2014-6-25T0:14:12Z</time></trkpt>
<trkpt lat="48.10484060" lon="-72.25726660"><ele></ele><time>2014-6-25T0:14:15Z</time></trkpt>
<trkpt lat="48.10484420" lon="-72.25728100"><ele></ele><time>2014-6-25T0:14:18Z</time></trkpt>
<trkpt lat="48.10484770" lon="-72.25729530"><ele></ele><time>2014-6-25T0:14:21Z</time></trkpt>
<trkpt lat="48.10485110" lon="-72.25730930"><ele></ele><time>2014-6-25T0:14:24Z</time></trkpt>
<trkpt lat="48.10485490" lon="-72.25732370"><ele></ele><time>2014-6-25T0:14:27Z</time></trkpt>
<trkpt lat="48.10485880" lon="-72.25733880"><ele></ele><time>2014-6-25T0:14:30Z</time></trkpt>
<trkpt lat="48.10486290" lon="-72.25735360"><ele></ele><time>2014-6-25T0:14:33Z</time></trkpt>
<trkpt lat="48.10486720" lon="-72.25736850"><ele></ele><time>2014-6-25T0:14:36Z</time></trkpt>
<trkpt lat="48.10487100" lon="-72.25738390"><ele></ele><time>2014-6-25T0:14:39Z</time></trkpt>
<trkpt lat="48.10487490" lon="-72.25739940"><ele></ele><time>2014-6-25T0:14:42Z</time></trkpt>
<trkpt lat="48.10487880" lon="-72.25741530"><ele></ele><time>2014-6-25T0:14:45Z</time></trkpt>
<trkpt lat="48.10488290" lon="-72.25743110"><ele></ele><time>2014-6-25T0:14:48Z</time></trkpt>
<trkpt lat="48.10488690" lon="-72.25744670"><ele></ele><time>2014-6-25T0:14:51Z</time></trkpt>
<trkpt lat="48.10489090" lon="-72.25746220"><ele></ele><time>2014-6-25T0:14:54Z</time></trkpt>
<trkpt lat="48.10489560" lon="-72.25747970"><ele></ele><time>2014-6-25T0:14:57Z</time></trkpt>
<trkpt lat="48.10490000" lon="-72.25749700"><ele></ele><time>2014-6-25T0:15:0Z</time></trkpt>
<trkpt lat="48.10490630" lon="-72.25752120"><ele></ele><time>2014-6-25T0:15:3Z</time></trkpt>
<trkpt lat="48.10491110" lon="-72.25754040"><ele></ele><time>2014-6-25T0:15:6Z</time></trkpt>
<trkpt lat="48.10491510" lon="-72.25755730"><ele></ele><time>2014-6-25T0:15:9Z</time></trkpt>
<trkpt lat="48.10491980" lon="-72.25757630"><ele></ele><time>2014-6-25T0:15:12Z</time></trkpt>
<trkpt lat="48.10492440" lon="-72.25759390"><ele></ele><time>2014-6-25T0:15:15Z</time></trkpt>
<trkpt lat="48.10492950" lon="-72.25761160"><ele></ele><time>2014-6-25T0:15:18Z</time></trkpt>
<trkpt lat="48.10493440" lon="-72.25762890"><ele></ele><time>2014-6-25T0:15:21Z</time></trkpt>
<trkpt lat="48.10493910" lon="-72.25764620"><ele></ele><time>2014-6-25T0:15:24Z</time></trkpt>
<trkpt lat="48.10494370" lon="-72.25766220"><ele></ele><time>2014-6-25T0:15:27Z</time></trkpt>
<trkpt lat="48.10494840" lon="-72.25767810"><ele></ele><time>2014-6-25T0:15:30Z</time></trkpt>
<trkpt lat="48.10495730" lon="-72.25770910"><ele></ele><time>2014-6-25T0:15:33Z</time></trkpt>
<trkpt lat="48.10496640" lon="-72.25773940"><ele></ele><time>2014-6-25T0:15:36Z</time></trkpt>
<trkpt lat="48.10497060" lon="-72.25775410"><ele></ele><time>2014-6-25T0:15:39Z</time></trkpt>
<trkpt lat="48.10497500" lon="-72.25776810"><ele></ele><time>2014-6-25T0:15:42Z</time></trkpt>
<trkpt lat="48.10498480" lon="-72.25779500"><ele></ele><time>2014-6-25T0:15:45Z</time></trkpt>
<trkpt lat="48.10498940" lon="-72.25780690"><ele></ele><time>2014-6-25T0:15:48Z</time></trkpt>
<trkpt lat="48.10499360" lon="-72.25781710"><ele></ele><time>2014-6-25T0:15:51Z</time></trkpt>
<trkpt lat="48.10499770" lon="-72.25782580"><ele></ele><time>2014-6-25T0:15:54Z</time></trkpt>
<trkpt lat="48.10500170" lon="-72.25783400"><ele></ele><time>2014-6-25T0:15:57Z</time></trkpt>
<trkpt lat="48.10500480" lon="-72.25784130"><ele></ele><time>2014-6-25T0:16:0Z</time></trkpt>
<trkpt lat="48.10500800" lon="-72.25784840"><ele></ele><time>2014-6-25T0:16:3Z</time></trkpt>
<trkpt lat="48.10501130" lon="-72.25785570"><ele></ele><time>2014-6-25T0:16:6Z</time></trkpt>
<trkpt lat="48.10501490" lon="-72.25786330"><ele></ele><time>2014-6-25T0:16:9Z</time></trkpt>
<trkpt lat="48.10501970" lon="-72.25787180"><ele></ele><time>2014-6-25T0:16:12Z</time></trkpt>
<trkpt lat="48.10502480" lon="-72.25787970"><ele></ele><time>2014-6-25T0:16:15Z</time></trkpt>
<trkpt lat="48.10502990" lon="-72.25788710"><ele></ele><time>2014-6-25T0:16:18Z</time></trkpt>
<trkpt lat="48.10503540" lon="-72.25789360"><ele></ele><time>2014-6-25T0:16:21Z</time></trkpt>
<trkpt lat="48.10504610" lon="-72.25790550"><ele></ele><time>2014-6-25T0:16:24Z</time></trkpt>
<trkpt lat="48.10505120" lon="-72.25790950"><ele></ele><time>2014-6-25T0:16:27Z</time></trkpt>
<trkpt lat="48.10505530" lon="-72.25791210"><ele></ele><time>2014-6-25T0:16:30Z</time></trkpt>
<trkpt lat="48.10506120" lon="-72.25791380"><ele></ele><time>2014-6-25T0:16:33Z</time></trkpt>
<trkpt lat="48.10506180" lon="-72.25791200"><ele></ele><time>2014-6-25T0:16:36Z</time></trkpt>
<trkpt lat="48.10506210" lon="-72.25791100"><ele></ele><time>2014-6-25T0:16:39Z</time></trkpt>
<trkpt lat="48.10506240" lon="-72.25790980"><ele></ele><time>2014-6-25T0:16:42Z</time></trkpt>
<trkpt lat="48.10506240" lon="-72.25790850"><ele></ele><time>2014-6-25T0:16:45Z</time></trkpt>
<trkpt lat="48.10506360" lon="-72.25790680"><ele></ele><time>2014-6-25T0:16:48Z</time></trkpt>
<trkpt lat="48.10506520" lon="-72.25790470"><ele></ele><time>2014-6-25T0:16:51Z</time></trkpt>
<trkpt lat="48.10506680" lon="-72.25790280"><ele></ele><time>2014-6-25T0:16:54Z</time></trkpt>
<trkpt lat="48.10506800" lon="-72.25790110"><ele></ele><time>2014-6-25T0:16:57Z</time></trkpt>
<trkpt lat="48.10506910" lon="-72.25789960"><ele></ele><time>2014-6-25T0:17:0Z</time></trkpt>
<trkpt lat="48.10507000" lon="-72.25789840"><ele></ele><time>2014-6-25T0:17:3Z</time></trkpt>
<trkpt lat="48.10507090" lon="-72.25789760"><ele></ele><time>2014-6-25T0:17:6Z</time></trkpt>
<trkpt lat="48.10507260" lon="-72.25789640"><ele></ele><time>2014-6-25T0:17:9Z</time></trkpt>
<trkpt lat="48.10507340" lon="-72.25789630"><ele></ele><time>2014-6-25T0:17:12Z</time></trkpt>
<trkpt lat="48.10507490" lon="-72.25789570"><ele></ele><time>2014-6-25T0:17:15Z</time></trkpt>
<trkpt lat="48.10507590" lon="-72.25789560"><ele></ele><time>2014-6-25T0:17:18Z</time></trkpt>
<trkpt lat="48.10507740" lon="-72.25789550"><ele></ele><time>2014-6-25T0:17:21Z</time></trkpt>
<trkpt lat="48.10507890" lon="-72.25789540"><ele></ele><time>2014-6-25T0:17:24Z</time></trkpt>
<trkpt lat="48.10508040" lon="-72.25789520"><ele></ele><time>2014-6-25T0:17:27Z</time></trkpt>
<trkpt lat="48.10508170" lon="-72.25789510"><ele></ele><time>2014-6-25T0:17:30Z</time></trkpt>
<trkpt lat="48.10508300" lon="-72.25789500"><ele></ele><time>2014-6-25T0:17:33Z</time></trkpt>
<trkpt lat="48.10508370" lon="-72.25789490"><ele></ele><time>2014-6-25T0:17:36Z</time></trkpt>
<trkpt lat="48.10508420" lon="-72.25789480"><ele></ele><time>2014-6-25T0:17:39Z</time></trkpt>
<trkpt lat="48.10508460" lon="-72.25789470"><ele></ele><time>2014-6-25T0:17:42Z</time></trkpt>
<trkpt lat="48.10508480" lon="-72.25789460"><ele></ele><time>2014-6-25T0:17:45Z</time></trkpt>
<trkpt lat="48.10508480" lon="-72.25789440"><ele></ele><time>2014-6-25T0:17:48Z</time></trkpt>
<trkpt lat="48.10508480" lon="-72.25789430"><ele></ele><time>2014-6-25T0:17:51Z</time></trkpt>
<trkpt lat="48.10508460" lon="-72.25789420"><ele></ele><time>2014-6-25T0:17:54Z</time></trkpt>
<trkpt lat="48.10508450" lon="-72.25789410"><ele></ele><time>2014-6-25T0:17:57Z</time></trkpt>
<trkpt lat="48.10508450" lon="-72.25789440"><ele></ele><time>2014-6-25T0:18:0Z</time></trkpt>
<trkpt lat="48.10508430" lon="-72.25789450"><ele></ele><time>2014-6-25T0:18:3Z</time></trkpt>
<trkpt lat="48.10508390" lon="-72.25789450"><ele></ele><time>2014-6-25T0:18:6Z</time></trkpt>
<trkpt lat="48.10508380" lon="-72.25789450"><ele></ele><time>2014-6-25T0:18:9Z</time></trkpt>
<trkpt lat="48.10508380" lon="-72.25789450"><ele></ele><time>2014-6-25T0:18:12Z</time></trkpt>
<trkpt lat="48.10508370" lon="-72.25789430"><ele></ele><time>2014-6-25T0:18:15Z</time></trkpt>
<trkpt lat="48.10508360" lon="-72.25789410"><ele></ele><time>2014-6-25T0:18:18Z</time></trkpt>
<trkpt lat="48.10508320" lon="-72.25789410"><ele></ele><time>2014-6-25T0:18:21Z</time></trkpt>
<trkpt lat="48.10508290" lon="-72.25789370"><ele></ele><time>2014-6-25T0:18:24Z</time></trkpt>
<trkpt lat="48.10508260" lon="-72.25789400"><ele></ele><time>2014-6-25T0:18:27Z</time></trkpt>
<trkpt lat="48.10508260" lon="-72.25789460"><ele></ele><time>2014-6-25T0:18:30Z</time></trkpt>
<trkpt lat="48.10508300" lon="-72.25789540"><ele></ele><time>2014-6-25T0:18:33Z</time></trkpt>
<trkpt lat="48.10508340" lon="-72.25789620"><ele></ele><time>2014-6-25T0:18:36Z</time></trkpt>
<trkpt lat="48.10508340" lon="-72.25789640"><ele></ele><time>2014-6-25T0:18:39Z</time></trkpt>
<trkpt lat="48.10508330" lon="-72.25789620"><ele></ele><time>2014-6-25T0:18:42Z</time></trkpt>
<trkpt lat="48.10508330" lon="-72.25789580"><ele></ele><time>2014-6-25T0:18:45Z</time></trkpt>
<trkpt lat="48.10508310" lon="-72.25789540"><ele></ele><time>2014-6-25T0:18:48Z</time></trkpt>
<trkpt lat="48.10508290" lon="-72.25789500"><ele></ele><time>2014-6-25T0:18:51Z</time></trkpt>
<trkpt lat="48.10508260" lon="-72.25789450"><ele></ele><time>2014-6-25T0:18:54Z</time></trkpt>
<trkpt lat="48.10508230" lon="-72.25789370"><ele></ele><time>2014-6-25T0:18:57Z</time></trkpt>
<trkpt lat="48.10508200" lon="-72.25789290"><ele></ele><time>2014-6-25T0:19:0Z</time></trkpt>
<trkpt lat="48.10508170" lon="-72.25789210"><ele></ele><time>2014-6-25T0:19:3Z</time></trkpt>
<trkpt lat="48.10508130" lon="-72.25789130"><ele></ele><time>2014-6-25T0:19:6Z</time></trkpt>
<trkpt lat="48.10508090" lon="-72.25789030"><ele></ele><time>2014-6-25T0:19:9Z</time></trkpt>
<trkpt lat="48.10508030" lon="-72.25788950"><ele></ele><time>2014-6-25T0:19:12Z</time></trkpt>
<trkpt lat="48.10507970" lon="-72.25788890"><ele></ele><time>2014-6-25T0:19:15Z</time></trkpt>
<trkpt lat="48.10507890" lon="-72.25788820"><ele></ele><time>2014-6-25T0:19:18Z</time></trkpt>
<trkpt lat="48.10507810" lon="-72.25788760"><ele></ele><time>2014-6-25T0:19:21Z</time></trkpt>
<trkpt lat="48.10507730" lon="-72.25788710"><ele></ele><time>2014-6-25T0:19:24Z</time></trkpt>
<trkpt lat="48.10507650" lon="-72.25788680"><ele></ele><time>2014-6-25T0:19:27Z</time></trkpt>
<trkpt lat="48.10507580" lon="-72.25788670"><ele></ele><time>2014-6-25T0:19:30Z</time></trkpt>
<trkpt lat="48.10507510" lon="-72.25788670"><ele></ele><time>2014-6-25T0:19:33Z</time></trkpt>
<trkpt lat="48.10507440" lon="-72.25788670"><ele></ele><time>2014-6-25T0:19:36Z</time></trkpt>
<trkpt lat="48.10507380" lon="-72.25788700"><ele></ele><time>2014-6-25T0:19:39Z</time></trkpt>
<trkpt lat="48.10507320" lon="-72.25788740"><ele></ele><time>2014-6-25T0:19:42Z</time></trkpt>
<trkpt lat="48.10507270" lon="-72.25788790"><ele></ele><time>2014-6-25T0:19:45Z</time></trkpt>
<trkpt lat="48.10507210" lon="-72.25788850"><ele></ele><time>2014-6-25T0:19:48Z</time></trkpt>
<trkpt lat="48.10507070" lon="-72.25788950"><ele></ele><time>2014-6-25T0:19:51Z</time></trkpt>
<trkpt lat="48.10507020" lon="-72.25788960"><ele></ele><time>2014-6-25T0:19:54Z</time></trkpt>
<trkpt lat="48.10506980" lon="-72.25788940"><ele></ele><time>2014-6-25T0:19:57Z</time></trkpt>
<trkpt lat="48.10506930" lon="-72.25788890"><ele></ele><time>2014-6-25T0:20:0Z</time></trkpt>
<trkpt lat="48.10506890" lon="-72.25788840"><ele></ele><time>2014-6-25T0:20:3Z</time></trkpt>
<trkpt lat="48.10506860" lon="-72.25788780"><ele></ele><time>2014-6-25T0:20:6Z</time></trkpt>
<trkpt lat="48.10506830" lon="-72.25788740"><ele></ele><time>2014-6-25T0:20:9Z</time></trkpt>
<trkpt lat="48.10506810" lon="-72.25788700"><ele></ele><time>2014-6-25T0:20:12Z</time></trkpt>
<trkpt lat="48.10506790" lon="-72.25788680"><ele></ele><time>2014-6-25T0:20:15Z</time></trkpt>
<trkpt lat="48.10506770" lon="-72.25788660"><ele></ele><time>2014-6-25T0:20:18Z</time></trkpt>
<trkpt lat="48.10506750" lon="-72.25788660"><ele></ele><time>2014-6-25T0:20:21Z</time></trkpt>
<trkpt lat="48.10506730" lon="-72.25788630"><ele></ele><time>2014-6-25T0:20:24Z</time></trkpt>
<trkpt lat="48.10506720" lon="-72.25788600"><ele></ele><time>2014-6-25T0:20:27Z</time></trkpt>
<trkpt lat="48.10506700" lon="-72.25788570"><ele></ele><time>2014-6-25T0:20:30Z</time></trkpt>
<trkpt lat="48.10506680" lon="-72.25788540"><ele></ele><time>2014-6-25T0:20:33Z</time></trkpt>
<trkpt lat="48.10506660" lon="-72.25788510"><ele></ele><time>2014-6-25T0:20:36Z</time></trkpt>
<trkpt lat="48.10506640" lon="-72.25788530"><ele></ele><time>2014-6-25T0:20:39Z</time></trkpt>
<trkpt lat="48.10506610" lon="-72.25788560"><ele></ele><time>2014-6-25T0:20:42Z</time></trkpt>
<trkpt lat="48.10506580" lon="-72.25788570"><ele></ele><time>2014-6-25T0:20:45Z</time></trkpt>
<trkpt lat="48.10506550" lon="-72.25788570"><ele></ele><time>2014-6-25T0:20:48Z</time></trkpt>
<trkpt lat="48.10506530" lon="-72.25788570"><ele></ele><time>2014-6-25T0:20:51Z</time></trkpt>
<trkpt lat="48.10506510" lon="-72.25788570"><ele></ele><time>2014-6-25T0:20:54Z</time></trkpt>
<trkpt lat="48.10506500" lon="-72.25788550"><ele></ele><time>2014-6-25T0:20:57Z</time></trkpt>
<trkpt lat="48.10506480" lon="-72.25788540"><ele></ele><time>2014-6-25T0:21:0Z</time></trkpt>
<trkpt lat="48.10506460" lon="-72.25788520"><ele></ele><time>2014-6-25T0:21:3Z</time></trkpt>
<trkpt lat="48.10506440" lon="-72.25788500"><ele></ele><time>2014-6-25T0:21:6Z</time></trkpt>
<trkpt lat="48.10506420" lon="-72.25788480"><ele></ele><time>2014-6-25T0:21:9Z</time></trkpt>
<trkpt lat="48.10506410" lon="-72.25788450"><ele></ele><time>2014-6-25T0:21:12Z</time></trkpt>
<trkpt lat="48.10506380" lon="-72.25788410"><ele></ele><time>2014-6-25T0:21:15Z</time></trkpt>
<trkpt lat="48.10506360" lon="-72.25788380"><ele></ele><time>2014-6-25T0:21:18Z</time></trkpt>
<trkpt lat="48.10506350" lon="-72.25788360"><ele></ele><time>2014-6-25T0:21:21Z</time></trkpt>
<trkpt lat="48.10506330" lon="-72.25788330"><ele></ele><time>2014-6-25T0:21:24Z</time></trkpt>
<trkpt lat="48.10506310" lon="-72.25788280"><ele></ele><time>2014-6-25T0:21:27Z</time></trkpt>
<trkpt lat="48.10506290" lon="-72.25788230"><ele></ele><time>2014-6-25T0:21:30Z</time></trkpt>
<trkpt lat="48.10506280" lon="-72.25788170"><ele></ele><time>2014-6-25T0:21:33Z</time></trkpt>
<trkpt lat="48.10506280" lon="-72.25788130"><ele></ele><time>2014-6-25T0:21:36Z</time></trkpt>
<trkpt lat="48.10506280" lon="-72.25788110"><ele></ele><time>2014-6-25T0:21:39Z</time></trkpt>
<trkpt lat="48.10506290" lon="-72.25788110"><ele></ele><time>2014-6-25T0:21:42Z</time></trkpt>
<trkpt lat="48.10506290" lon="-72.25788110"><ele></ele><time>2014-6-25T0:21:45Z</time></trkpt>
<trkpt lat="48.10506290" lon="-72.25788100"><ele></ele><time>2014-6-25T0:21:48Z</time></trkpt>
<trkpt lat="48.10506290" lon="-72.25788100"><ele></ele><time>2014-6-25T0:21:51Z</time></trkpt>
<trkpt lat="48.10506290" lon="-72.25788120"><ele></ele><time>2014-6-25T0:21:54Z</time></trkpt>
<trkpt lat="48.10506290" lon="-72.25788150"><ele></ele><time>2014-6-25T0:21:57Z</time></trkpt>
<trkpt lat="48.10506290" lon="-72.25788190"><ele></ele><time>2014-6-25T0:22:0Z</time></trkpt>
<trkpt lat="48.10506280" lon="-72.25788200"><ele></ele><time>2014-6-25T0:22:3Z</time></trkpt>
<trkpt lat="48.10506280" lon="-72.25788200"><ele></ele><time>2014-6-25T0:22:6Z</time></trkpt>
<trkpt lat="48.10506220" lon="-72.25788180"><ele></ele><time>2014-6-25T0:22:9Z</time></trkpt>
<trkpt lat="48.10506170" lon="-72.25788180"><ele></ele><time>2014-6-25T0:22:12Z</time></trkpt>
<trkpt lat="48.10506110" lon="-72.25788220"><ele></ele><time>2014-6-25T0:22:15Z</time></trkpt>
<trkpt lat="48.10506050" lon="-72.25788240"><ele></ele><time>2014-6-25T0:22:18Z</time></trkpt>
<trkpt lat="48.10505940" lon="-72.25788310"><ele></ele><time>2014-6-25T0:22:21Z</time></trkpt>
<trkpt lat="48.10505860" lon="-72.25788310"><ele></ele><time>2014-6-25T0:22:24Z</time></trkpt>
<trkpt lat="48.10505630" lon="-72.25788280"><ele></ele><time>2014-6-25T0:22:27Z</time></trkpt>
<trkpt lat="48.10505520" lon="-72.25788240"><ele></ele><time>2014-6-25T0:22:30Z</time></trkpt>
<trkpt lat="48.10505430" lon="-72.25788150"><ele></ele><time>2014-6-25T0:22:33Z</time></trkpt>
<trkpt lat="48.10505330" lon="-72.25788060"><ele></ele><time>2014-6-25T0:22:36Z</time></trkpt>
<trkpt lat="48.10505110" lon="-72.25787820"><ele></ele><time>2014-6-25T0:22:39Z</time></trkpt>
<trkpt lat="48.10505050" lon="-72.25787750"><ele></ele><time>2014-6-25T0:22:42Z</time></trkpt>
<trkpt lat="48.10505010" lon="-72.25787710"><ele></ele><time>2014-6-25T0:22:45Z</time></trkpt>
<trkpt lat="48.10505020" lon="-72.25787700"><ele></ele><time>2014-6-25T0:22:48Z</time></trkpt>
<trkpt lat="48.10505030" lon="-72.25787710"><ele></ele><time>2014-6-25T0:22:51Z</time></trkpt>
<trkpt lat="48.10505050" lon="-72.25787700"><ele></ele><time>2014-6-25T0:22:54Z</time></trkpt>
<trkpt lat="48.10505070" lon="-72.25787710"><ele></ele><time>2014-6-25T0:22:57Z</time></trkpt>
<trkpt lat="48.10505130" lon="-72.25787640"><ele></ele><time>2014-6-25T0:23:0Z</time></trkpt>
<trkpt lat="48.10505150" lon="-72.25787600"><ele></ele><time>2014-6-25T0:23:3Z</time></trkpt>
<trkpt lat="48.10505190" lon="-72.25787600"><ele></ele><time>2014-6-25T0:23:6Z</time></trkpt>
<trkpt lat="48.10505200" lon="-72.25787570"><ele></ele><time>2014-6-25T0:23:9Z</time></trkpt>
<trkpt lat="48.10505230" lon="-72.25787620"><ele></ele><time>2014-6-25T0:23:12Z</time></trkpt>
<trkpt lat="48.10505250" lon="-72.25787680"><ele></ele><time>2014-6-25T0:23:15Z</time></trkpt>
<trkpt lat="48.10505360" lon="-72.25787790"><ele></ele><time>2014-6-25T0:23:18Z</time></trkpt>
<trkpt lat="48.10505490" lon="-72.25787940"><ele></ele><time>2014-6-25T0:23:21Z</time></trkpt>
<trkpt lat="48.10505640" lon="-72.25788150"><ele></ele><time>2014-6-25T0:23:24Z</time></trkpt>
<trkpt lat="48.10505730" lon="-72.25788440"><ele></ele><time>2014-6-25T0:23:27Z</time></trkpt>
<trkpt lat="48.10505860" lon="-72.25788740"><ele></ele><time>2014-6-25T0:23:30Z</time></trkpt>
<trkpt lat="48.10506050" lon="-72.25789050"><ele></ele><time>2014-6-25T0:23:33Z</time></trkpt>
<trkpt lat="48.10506220" lon="-72.25789370"><ele></ele><time>2014-6-25T0:23:36Z</time></trkpt>
<trkpt lat="48.10506830" lon="-72.25790390"><ele></ele><time>2014-6-25T0:23:39Z</time></trkpt>
<trkpt lat="48.10507100" lon="-72.25790780"><ele></ele><time>2014-6-25T0:23:42Z</time></trkpt>
<trkpt lat="48.10507340" lon="-72.25791120"><ele></ele><time>2014-6-25T0:23:45Z</time></trkpt>
<trkpt lat="48.10507590" lon="-72.25791440"><ele></ele><time>2014-6-25T0:23:48Z</time></trkpt>
<trkpt lat="48.10507840" lon="-72.25791770"><ele></ele><time>2014-6-25T0:23:51Z</time></trkpt>
<trkpt lat="48.10508100" lon="-72.25792160"><ele></ele><time>2014-6-25T0:23:54Z</time></trkpt>
<trkpt lat="48.10508300" lon="-72.25792530"><ele></ele><time>2014-6-25T0:23:57Z</time></trkpt>
<trkpt lat="48.10508430" lon="-72.25792860"><ele></ele><time>2014-6-25T0:24:0Z</time></trkpt>
<trkpt lat="48.10508430" lon="-72.25792860"><ele></ele><time>2014-6-25T0:24:3Z</time></trkpt>
<trkpt lat="48.10508430" lon="-72.25792860"><ele></ele><time>2014-6-25T0:24:6Z</time></trkpt>
<trkpt lat="48.10508430" lon="-72.25792860"><ele></ele><time>2014-6-25T0:24:9Z</time></trkpt>
<trkpt lat="48.10508430" lon="-72.25792860"><ele></ele><time>2014-6-25T0:24:12Z</time></trkpt>
<trkpt lat="48.10508780" lon="-72.25794120"><ele></ele><time>2014-6-25T0:24:15Z</time></trkpt>
<trkpt lat="48.10508710" lon="-72.25794210"><ele></ele><time>2014-6-25T0:24:18Z</time></trkpt>
<trkpt lat="48.10508710" lon="-72.25794210"><ele></ele><time>2014-6-25T0:24:21Z</time></trkpt>
<trkpt lat="48.10506980" lon="-72.25793980"><ele></ele><time>2014-6-25T0:24:24Z</time></trkpt>
<trkpt lat="48.10506550" lon="-72.25793440"><ele></ele><time>2014-6-25T0:24:27Z</time></trkpt>
<trkpt lat="48.10506130" lon="-72.25792630"><ele></ele><time>2014-6-25T0:24:30Z</time></trkpt>
<trkpt lat="48.10505760" lon="-72.25791620"><ele></ele><time>2014-6-25T0:24:33Z</time></trkpt>
<trkpt lat="48.10505140" lon="-72.25789170"><ele></ele><time>2014-6-25T0:24:36Z</time></trkpt>
<trkpt lat="48.10504930" lon="-72.25787900"><ele></ele><time>2014-6-25T0:24:39Z</time></trkpt>
<trkpt lat="48.10504820" lon="-72.25786590"><ele></ele><time>2014-6-25T0:24:42Z</time></trkpt>
<trkpt lat="48.10504990" lon="-72.25780530"><ele></ele><time>2014-6-25T0:24:45Z</time></trkpt>
<trkpt lat="48.10505130" lon="-72.25778830"><ele></ele><time>2014-6-25T0:24:48Z</time></trkpt>
<trkpt lat="48.10505550" lon="-72.25775660"><ele></ele><time>2014-6-25T0:24:51Z</time></trkpt>
<trkpt lat="48.10506650" lon="-72.25771170"><ele></ele><time>2014-6-25T0:24:54Z</time></trkpt>
<trkpt lat="48.10507160" lon="-72.25769730"><ele></ele><time>2014-6-25T0:24:57Z</time></trkpt>
<trkpt lat="48.10507830" lon="-72.25768380"><ele></ele><time>2014-6-25T0:25:0Z</time></trkpt>
<trkpt lat="48.10509440" lon="-72.25766100"><ele></ele><time>2014-6-25T0:25:3Z</time></trkpt>
<trkpt lat="48.10510300" lon="-72.25764990"><ele></ele><time>2014-6-25T0:25:6Z</time></trkpt>
<trkpt lat="48.10511180" lon="-72.25763930"><ele></ele><time>2014-6-25T0:25:9Z</time></trkpt>
<trkpt lat="48.10512190" lon="-72.25763020"><ele></ele><time>2014-6-25T0:25:12Z</time></trkpt>
<trkpt lat="48.10513200" lon="-72.25762160"><ele></ele><time>2014-6-25T0:25:15Z</time></trkpt>
<trkpt lat="48.10516160" lon="-72.25759410"><ele></ele><time>2014-6-25T0:25:18Z</time></trkpt>
<trkpt lat="48.10517210" lon="-72.25758600"><ele></ele><time>2014-6-25T0:25:21Z</time></trkpt>
<trkpt lat="48.10518270" lon="-72.25757740"><ele></ele><time>2014-6-25T0:25:24Z</time></trkpt>
<trkpt lat="48.10519370" lon="-72.25756740"><ele></ele><time>2014-6-25T0:25:27Z</time></trkpt>
<trkpt lat="48.10522280" lon="-72.25754430"><ele></ele><time>2014-6-25T0:25:30Z</time></trkpt>
<trkpt lat="48.10523190" lon="-72.25753680"><ele></ele><time>2014-6-25T0:25:33Z</time></trkpt>
<trkpt lat="48.10524170" lon="-72.25752960"><ele></ele><time>2014-6-25T0:25:36Z</time></trkpt>
<trkpt lat="48.10525150" lon="-72.25752270"><ele></ele><time>2014-6-25T0:25:39Z</time></trkpt>
<trkpt lat="48.10526190" lon="-72.25751600"><ele></ele><time>2014-6-25T0:25:42Z</time></trkpt>
<trkpt lat="48.10527320" lon="-72.25750820"><ele></ele><time>2014-6-25T0:25:45Z</time></trkpt>
<trkpt lat="48.10528450" lon="-72.25750000"><ele></ele><time>2014-6-25T0:25:48Z</time></trkpt>
<trkpt lat="48.10529490" lon="-72.25749290"><ele></ele><time>2014-6-25T0:25:51Z</time></trkpt>
<trkpt lat="48.10530510" lon="-72.25748600"><ele></ele><time>2014-6-25T0:25:54Z</time></trkpt>
<trkpt lat="48.10532600" lon="-72.25747190"><ele></ele><time>2014-6-25T0:25:57Z</time></trkpt>
<trkpt lat="48.10533640" lon="-72.25746420"><ele></ele><time>2014-6-25T0:26:0Z</time></trkpt>
<trkpt lat="48.10534660" lon="-72.25745670"><ele></ele><time>2014-6-25T0:26:3Z</time></trkpt>
<trkpt lat="48.10535690" lon="-72.25744910"><ele></ele><time>2014-6-25T0:26:6Z</time></trkpt>
<trkpt lat="48.10536780" lon="-72.25744240"><ele></ele><time>2014-6-25T0:26:9Z</time></trkpt>
<trkpt lat="48.10542890" lon="-72.25740680"><ele></ele><time>2014-6-25T0:26:12Z</time></trkpt>
<trkpt lat="48.10543900" lon="-72.25740020"><ele></ele><time>2014-6-25T0:26:15Z</time></trkpt>
<trkpt lat="48.10544870" lon="-72.25739330"><ele></ele><time>2014-6-25T0:26:18Z</time></trkpt>
<trkpt lat="48.10545810" lon="-72.25738640"><ele></ele><time>2014-6-25T0:26:21Z</time></trkpt>
<trkpt lat="48.10547670" lon="-72.25737300"><ele></ele><time>2014-6-25T0:26:24Z</time></trkpt>
<trkpt lat="48.10548580" lon="-72.25736610"><ele></ele><time>2014-6-25T0:26:27Z</time></trkpt>
<trkpt lat="48.10551130" lon="-72.25734390"><ele></ele><time>2014-6-25T0:26:30Z</time></trkpt>
<trkpt lat="48.10553820" lon="-72.25732030"><ele></ele><time>2014-6-25T0:26:33Z</time></trkpt>
<trkpt lat="48.10554760" lon="-72.25731360"><ele></ele><time>2014-6-25T0:26:36Z</time></trkpt>
<trkpt lat="48.10555660" lon="-72.25730660"><ele></ele><time>2014-6-25T0:26:39Z</time></trkpt>
<trkpt lat="48.10556560" lon="-72.25729920"><ele></ele><time>2014-6-25T0:26:42Z</time></trkpt>
<trkpt lat="48.10557410" lon="-72.25729120"><ele></ele><time>2014-6-25T0:26:45Z</time></trkpt>
<trkpt lat="48.10558310" lon="-72.25728280"><ele></ele><time>2014-6-25T0:26:48Z</time></trkpt>
<trkpt lat="48.10561090" lon="-72.25726050"><ele></ele><time>2014-6-25T0:26:51Z</time></trkpt>
<trkpt lat="48.10562020" lon="-72.25725350"><ele></ele><time>2014-6-25T0:26:54Z</time></trkpt>
<trkpt lat="48.10563860" lon="-72.25724020"><ele></ele><time>2014-6-25T0:26:57Z</time></trkpt>
<trkpt lat="48.10564740" lon="-72.25723400"><ele></ele><time>2014-6-25T0:27:0Z</time></trkpt>
<trkpt lat="48.10565410" lon="-72.25723040"><ele></ele><time>2014-6-25T0:27:3Z</time></trkpt>
<trkpt lat="48.10565930" lon="-72.25722800"><ele></ele><time>2014-6-25T0:27:6Z</time></trkpt>
<trkpt lat="48.10566330" lon="-72.25722660"><ele></ele><time>2014-6-25T0:27:9Z</time></trkpt>
<trkpt lat="48.10566570" lon="-72.25722620"><ele></ele><time>2014-6-25T0:27:12Z</time></trkpt>
<trkpt lat="48.10566910" lon="-72.25722430"><ele></ele><time>2014-6-25T0:27:15Z</time></trkpt>
<trkpt lat="48.10568330" lon="-72.25721280"><ele></ele><time>2014-6-25T0:27:18Z</time></trkpt>
<trkpt lat="48.10569810" lon="-72.25719740"><ele></ele><time>2014-6-25T0:27:21Z</time></trkpt>
<trkpt lat="48.10570670" lon="-72.25718770"><ele></ele><time>2014-6-25T0:27:24Z</time></trkpt>
<trkpt lat="48.10571580" lon="-72.25717180"><ele></ele><time>2014-6-25T0:27:27Z</time></trkpt>
<trkpt lat="48.10573260" lon="-72.25714740"><ele></ele><time>2014-6-25T0:27:30Z</time></trkpt>
<trkpt lat="48.10574830" lon="-72.25712930"><ele></ele><time>2014-6-25T0:27:33Z</time></trkpt>
<trkpt lat="48.10575650" lon="-72.25712170"><ele></ele><time>2014-6-25T0:27:36Z</time></trkpt>
<trkpt lat="48.10576520" lon="-72.25711450"><ele></ele><time>2014-6-25T0:27:39Z</time></trkpt>
<trkpt lat="48.10577380" lon="-72.25710720"><ele></ele><time>2014-6-25T0:27:42Z</time></trkpt>
<trkpt lat="48.10578210" lon="-72.25709970"><ele></ele><time>2014-6-25T0:27:45Z</time></trkpt>
<trkpt lat="48.10579090" lon="-72.25709230"><ele></ele><time>2014-6-25T0:27:48Z</time></trkpt>
<trkpt lat="48.10579950" lon="-72.25708480"><ele></ele><time>2014-6-25T0:27:51Z</time></trkpt>
<trkpt lat="48.10580780" lon="-72.25707750"><ele></ele><time>2014-6-25T0:27:54Z</time></trkpt>
<trkpt lat="48.10583250" lon="-72.25705620"><ele></ele><time>2014-6-25T0:27:57Z</time></trkpt>
<trkpt lat="48.10584860" lon="-72.25704230"><ele></ele><time>2014-6-25T0:28:0Z</time></trkpt>
<trkpt lat="48.10585670" lon="-72.25703570"><ele></ele><time>2014-6-25T0:28:3Z</time></trkpt>
<trkpt lat="48.10586480" lon="-72.25702920"><ele></ele><time>2014-6-25T0:28:6Z</time></trkpt>
<trkpt lat="48.10587290" lon="-72.25702290"><ele></ele><time>2014-6-25T0:28:9Z</time></trkpt>
<trkpt lat="48.10588060" lon="-72.25701620"><ele></ele><time>2014-6-25T0:28:12Z</time></trkpt>
<trkpt lat="48.10588840" lon="-72.25700920"><ele></ele><time>2014-6-25T0:28:15Z</time></trkpt>
<trkpt lat="48.10589640" lon="-72.25700170"><ele></ele><time>2014-6-25T0:28:18Z</time></trkpt>
<trkpt lat="48.10590460" lon="-72.25699410"><ele></ele><time>2014-6-25T0:28:21Z</time></trkpt>
<trkpt lat="48.10591260" lon="-72.25698640"><ele></ele><time>2014-6-25T0:28:24Z</time></trkpt>
<trkpt lat="48.10592950" lon="-72.25696990"><ele></ele><time>2014-6-25T0:28:27Z</time></trkpt>
<trkpt lat="48.10593810" lon="-72.25696160"><ele></ele><time>2014-6-25T0:28:30Z</time></trkpt>
<trkpt lat="48.10594760" lon="-72.25695340"><ele></ele><time>2014-6-25T0:28:33Z</time></trkpt>
<trkpt lat="48.10596660" lon="-72.25693860"><ele></ele><time>2014-6-25T0:28:36Z</time></trkpt>
<trkpt lat="48.10597570" lon="-72.25693080"><ele></ele><time>2014-6-25T0:28:39Z</time></trkpt>
<trkpt lat="48.10598430" lon="-72.25692400"><ele></ele><time>2014-6-25T0:28:42Z</time></trkpt>
<trkpt lat="48.10599300" lon="-72.25691730"><ele></ele><time>2014-6-25T0:28:45Z</time></trkpt>
<trkpt lat="48.10600200" lon="-72.25691060"><ele></ele><time>2014-6-25T0:28:48Z</time></trkpt>
<trkpt lat="48.10601060" lon="-72.25690410"><ele></ele><time>2014-6-25T0:28:51Z</time></trkpt>
<trkpt lat="48.10601890" lon="-72.25689680"><ele></ele><time>2014-6-25T0:28:54Z</time></trkpt>
<trkpt lat="48.10604530" lon="-72.25687540"><ele></ele><time>2014-6-25T0:28:57Z</time></trkpt>
<trkpt lat="48.10607230" lon="-72.25685470"><ele></ele><time>2014-6-25T0:29:0Z</time></trkpt>
<trkpt lat="48.10608070" lon="-72.25684740"><ele></ele><time>2014-6-25T0:29:3Z</time></trkpt>
<trkpt lat="48.10608920" lon="-72.25684040"><ele></ele><time>2014-6-25T0:29:6Z</time></trkpt>
<trkpt lat="48.10609820" lon="-72.25683380"><ele></ele><time>2014-6-25T0:29:9Z</time></trkpt>
<trkpt lat="48.10610810" lon="-72.25682650"><ele></ele><time>2014-6-25T0:29:12Z</time></trkpt>
<trkpt lat="48.10611770" lon="-72.25681890"><ele></ele><time>2014-6-25T0:29:15Z</time></trkpt>
<trkpt lat="48.10612710" lon="-72.25681140"><ele></ele><time>2014-6-25T0:29:18Z</time></trkpt>
<trkpt lat="48.10615510" lon="-72.25679060"><ele></ele><time>2014-6-25T0:29:21Z</time></trkpt>
<trkpt lat="48.10618460" lon="-72.25676890"><ele></ele><time>2014-6-25T0:29:24Z</time></trkpt>
<trkpt lat="48.10619500" lon="-72.25676190"><ele></ele><time>2014-6-25T0:29:27Z</time></trkpt>
<trkpt lat="48.10620500" lon="-72.25675520"><ele></ele><time>2014-6-25T0:29:30Z</time></trkpt>
<trkpt lat="48.10621510" lon="-72.25674850"><ele></ele><time>2014-6-25T0:29:33Z</time></trkpt>
<trkpt lat="48.10622540" lon="-72.25674190"><ele></ele><time>2014-6-25T0:29:36Z</time></trkpt>
<trkpt lat="48.10623470" lon="-72.25673540"><ele></ele><time>2014-6-25T0:29:39Z</time></trkpt>
<trkpt lat="48.10624390" lon="-72.25672950"><ele></ele><time>2014-6-25T0:29:42Z</time></trkpt>
<trkpt lat="48.10627360" lon="-72.25671230"><ele></ele><time>2014-6-25T0:29:45Z</time></trkpt>
<trkpt lat="48.10630060" lon="-72.25669340"><ele></ele><time>2014-6-25T0:29:48Z</time></trkpt>
<trkpt lat="48.10630940" lon="-72.25668670"><ele></ele><time>2014-6-25T0:29:51Z</time></trkpt>
<trkpt lat="48.10631810" lon="-72.25668070"><ele></ele><time>2014-6-25T0:29:54Z</time></trkpt>
<trkpt lat="48.10632740" lon="-72.25667510"><ele></ele><time>2014-6-25T0:29:57Z</time></trkpt>
<trkpt lat="48.10633710" lon="-72.25666940"><ele></ele><time>2014-6-25T0:30:0Z</time></trkpt>
<trkpt lat="48.10634610" lon="-72.25666400"><ele></ele><time>2014-6-25T0:30:3Z</time></trkpt>
<trkpt lat="48.10635540" lon="-72.25665910"><ele></ele><time>2014-6-25T0:30:6Z</time></trkpt>
<trkpt lat="48.10636480" lon="-72.25665350"><ele></ele><time>2014-6-25T0:30:9Z</time></trkpt>
<trkpt lat="48.10638250" lon="-72.25664280"><ele></ele><time>2014-6-25T0:30:12Z</time></trkpt>
<trkpt lat="48.10639180" lon="-72.25663630"><ele></ele><time>2014-6-25T0:30:15Z</time></trkpt>
<trkpt lat="48.10640040" lon="-72.25662990"><ele></ele><time>2014-6-25T0:30:18Z</time></trkpt>
<trkpt lat="48.10642650" lon="-72.25661090"><ele></ele><time>2014-6-25T0:30:21Z</time></trkpt>
<trkpt lat="48.10643550" lon="-72.25660530"><ele></ele><time>2014-6-25T0:30:24Z</time></trkpt>
<trkpt lat="48.10644490" lon="-72.25659960"><ele></ele><time>2014-6-25T0:30:27Z</time></trkpt>
<trkpt lat="48.10645350" lon="-72.25659390"><ele></ele><time>2014-6-25T0:30:30Z</time></trkpt>
<trkpt lat="48.10646250" lon="-72.25658820"><ele></ele><time>2014-6-25T0:30:33Z</time></trkpt>
<trkpt lat="48.10647180" lon="-72.25658260"><ele></ele><time>2014-6-25T0:30:36Z</time></trkpt>
<trkpt lat="48.10648070" lon="-72.25657730"><ele></ele><time>2014-6-25T0:30:39Z</time></trkpt>
<trkpt lat="48.10649870" lon="-72.25656510"><ele></ele><time>2014-6-25T0:30:42Z</time></trkpt>
<trkpt lat="48.10650660" lon="-72.25655850"><ele></ele><time>2014-6-25T0:30:45Z</time></trkpt>
<trkpt lat="48.10651440" lon="-72.25655210"><ele></ele><time>2014-6-25T0:30:48Z</time></trkpt>
<trkpt lat="48.10652220" lon="-72.25654540"><ele></ele><time>2014-6-25T0:30:51Z</time></trkpt>
<trkpt lat="48.10652880" lon="-72.25653990"><ele></ele><time>2014-6-25T0:30:54Z</time></trkpt>
<trkpt lat="48.10654200" lon="-72.25653420"><ele></ele><time>2014-6-25T0:30:57Z</time></trkpt>
<trkpt lat="48.10654390" lon="-72.25653440"><ele></ele><time>2014-6-25T0:31:0Z</time></trkpt>
<trkpt lat="48.10654580" lon="-72.25653470"><ele></ele><time>2014-6-25T0:31:3Z</time></trkpt>
<trkpt lat="48.10654740" lon="-72.25653510"><ele></ele><time>2014-6-25T0:31:6Z</time></trkpt>
<trkpt lat="48.10654940" lon="-72.25653600"><ele></ele><time>2014-6-25T0:31:9Z</time></trkpt>
<trkpt lat="48.10655130" lon="-72.25653670"><ele></ele><time>2014-6-25T0:31:12Z</time></trkpt>
<trkpt lat="48.10655510" lon="-72.25653540"><ele></ele><time>2014-6-25T0:31:15Z</time></trkpt>
<trkpt lat="48.10656340" lon="-72.25653020"><ele></ele><time>2014-6-25T0:31:18Z</time></trkpt>
<trkpt lat="48.10656960" lon="-72.25652690"><ele></ele><time>2014-6-25T0:31:21Z</time></trkpt>
<trkpt lat="48.10659380" lon="-72.25651280"><ele></ele><time>2014-6-25T0:31:24Z</time></trkpt>
<trkpt lat="48.10660200" lon="-72.25650780"><ele></ele><time>2014-6-25T0:31:27Z</time></trkpt>
<trkpt lat="48.10661030" lon="-72.25650350"><ele></ele><time>2014-6-25T0:31:30Z</time></trkpt>
<trkpt lat="48.10661960" lon="-72.25649850"><ele></ele><time>2014-6-25T0:31:33Z</time></trkpt>
<trkpt lat="48.10662880" lon="-72.25649400"><ele></ele><time>2014-6-25T0:31:36Z</time></trkpt>
<trkpt lat="48.10663850" lon="-72.25648890"><ele></ele><time>2014-6-25T0:31:39Z</time></trkpt>
<trkpt lat="48.10664870" lon="-72.25648270"><ele></ele><time>2014-6-25T0:31:42Z</time></trkpt>
<trkpt lat="48.10665900" lon="-72.25647690"><ele></ele><time>2014-6-25T0:31:45Z</time></trkpt>
<trkpt lat="48.10667900" lon="-72.25646390"><ele></ele><time>2014-6-25T0:31:48Z</time></trkpt>
<trkpt lat="48.10669890" lon="-72.25645200"><ele></ele><time>2014-6-25T0:31:51Z</time></trkpt>
<trkpt lat="48.10670910" lon="-72.25644590"><ele></ele><time>2014-6-25T0:31:54Z</time></trkpt>
<trkpt lat="48.10671890" lon="-72.25643990"><ele></ele><time>2014-6-25T0:31:57Z</time></trkpt>
<trkpt lat="48.10672880" lon="-72.25643420"><ele></ele><time>2014-6-25T0:32:0Z</time></trkpt>
<trkpt lat="48.10673910" lon="-72.25642830"><ele></ele><time>2014-6-25T0:32:3Z</time></trkpt>
<trkpt lat="48.10674920" lon="-72.25642250"><ele></ele><time>2014-6-25T0:32:6Z</time></trkpt>
<trkpt lat="48.10675910" lon="-72.25641720"><ele></ele><time>2014-6-25T0:32:9Z</time></trkpt>
<trkpt lat="48.10676890" lon="-72.25641110"><ele></ele><time>2014-6-25T0:32:12Z</time></trkpt>
<trkpt lat="48.10677810" lon="-72.25640510"><ele></ele><time>2014-6-25T0:32:15Z</time></trkpt>
<trkpt lat="48.10680520" lon="-72.25638630"><ele></ele><time>2014-6-25T0:32:18Z</time></trkpt>
<trkpt lat="48.10681410" lon="-72.25638030"><ele></ele><time>2014-6-25T0:32:21Z</time></trkpt>
<trkpt lat="48.10682310" lon="-72.25637390"><ele></ele><time>2014-6-25T0:32:24Z</time></trkpt>
<trkpt lat="48.10684070" lon="-72.25636190"><ele></ele><time>2014-6-25T0:32:27Z</time></trkpt>
<trkpt lat="48.10686700" lon="-72.25634260"><ele></ele><time>2014-6-25T0:32:30Z</time></trkpt>
<trkpt lat="48.10687610" lon="-72.25633600"><ele></ele><time>2014-6-25T0:32:33Z</time></trkpt>
<trkpt lat="48.10688500" lon="-72.25632940"><ele></ele><time>2014-6-25T0:32:36Z</time></trkpt>
<trkpt lat="48.10689400" lon="-72.25632270"><ele></ele><time>2014-6-25T0:32:39Z</time></trkpt>
<trkpt lat="48.10690340" lon="-72.25631640"><ele></ele><time>2014-6-25T0:32:42Z</time></trkpt>
<trkpt lat="48.10691230" lon="-72.25631030"><ele></ele><time>2014-6-25T0:32:45Z</time></trkpt>
<trkpt lat="48.10692150" lon="-72.25630380"><ele></ele><time>2014-6-25T0:32:48Z</time></trkpt>
<trkpt lat="48.10694970" lon="-72.25628470"><ele></ele><time>2014-6-25T0:32:51Z</time></trkpt>
<trkpt lat="48.10695890" lon="-72.25627810"><ele></ele><time>2014-6-25T0:32:54Z</time></trkpt>
<trkpt lat="48.10698560" lon="-72.25625860"><ele></ele><time>2014-6-25T0:32:57Z</time></trkpt>
<trkpt lat="48.10699440" lon="-72.25625280"><ele></ele><time>2014-6-25T0:33:0Z</time></trkpt>
<trkpt lat="48.10700400" lon="-72.25624700"><ele></ele><time>2014-6-25T0:33:3Z</time></trkpt>
<trkpt lat="48.10701340" lon="-72.25624100"><ele></ele><time>2014-6-25T0:33:6Z</time></trkpt>
<trkpt lat="48.10702290" lon="-72.25623510"><ele></ele><time>2014-6-25T0:33:9Z</time></trkpt>
<trkpt lat="48.10703180" lon="-72.25622910"><ele></ele><time>2014-6-25T0:33:12Z</time></trkpt>
<trkpt lat="48.10704080" lon="-72.25622300"><ele></ele><time>2014-6-25T0:33:15Z</time></trkpt>
<trkpt lat="48.10706730" lon="-72.25620620"><ele></ele><time>2014-6-25T0:33:18Z</time></trkpt>
<trkpt lat="48.10707630" lon="-72.25620060"><ele></ele><time>2014-6-25T0:33:21Z</time></trkpt>
<trkpt lat="48.10710450" lon="-72.25618550"><ele></ele><time>2014-6-25T0:33:24Z</time></trkpt>
<trkpt lat="48.10711400" lon="-72.25618110"><ele></ele><time>2014-6-25T0:33:27Z</time></trkpt>
<trkpt lat="48.10712410" lon="-72.25617610"><ele></ele><time>2014-6-25T0:33:30Z</time></trkpt>
<trkpt lat="48.10713390" lon="-72.25617090"><ele></ele><time>2014-6-25T0:33:33Z</time></trkpt>
<trkpt lat="48.10714420" lon="-72.25616610"><ele></ele><time>2014-6-25T0:33:36Z</time></trkpt>
<trkpt lat="48.10715400" lon="-72.25616090"><ele></ele><time>2014-6-25T0:33:39Z</time></trkpt>
<trkpt lat="48.10716330" lon="-72.25615560"><ele></ele><time>2014-6-25T0:33:42Z</time></trkpt>
<trkpt lat="48.10719170" lon="-72.25613880"><ele></ele><time>2014-6-25T0:33:45Z</time></trkpt>
<trkpt lat="48.10720100" lon="-72.25613260"><ele></ele><time>2014-6-25T0:33:48Z</time></trkpt>
<trkpt lat="48.10723730" lon="-72.25610650"><ele></ele><time>2014-6-25T0:33:51Z</time></trkpt>
<trkpt lat="48.10724660" lon="-72.25610000"><ele></ele><time>2014-6-25T0:33:54Z</time></trkpt>
<trkpt lat="48.10725570" lon="-72.25609310"><ele></ele><time>2014-6-25T0:33:57Z</time></trkpt>
<trkpt lat="48.10726470" lon="-72.25608630"><ele></ele><time>2014-6-25T0:34:0Z</time></trkpt>
<trkpt lat="48.10727350" lon="-72.25607950"><ele></ele><time>2014-6-25T0:34:3Z</time></trkpt>
<trkpt lat="48.10728260" lon="-72.25607300"><ele></ele><time>2014-6-25T0:34:6Z</time></trkpt>
<trkpt lat="48.10729230" lon="-72.25606620"><ele></ele><time>2014-6-25T0:34:9Z</time></trkpt>
<trkpt lat="48.10731990" lon="-72.25604720"><ele></ele><time>2014-6-25T0:34:12Z</time></trkpt>
<trkpt lat="48.10732900" lon="-72.25604150"><ele></ele><time>2014-6-25T0:34:15Z</time></trkpt>
<trkpt lat="48.10736630" lon="-72.25601770"><ele></ele><time>2014-6-25T0:34:18Z</time></trkpt>
<trkpt lat="48.10737580" lon="-72.25601190"><ele></ele><time>2014-6-25T0:34:21Z</time></trkpt>
<trkpt lat="48.10738530" lon="-72.25600650"><ele></ele><time>2014-6-25T0:34:24Z</time></trkpt>
<trkpt lat="48.10739480" lon="-72.25600070"><ele></ele><time>2014-6-25T0:34:27Z</time></trkpt>
<trkpt lat="48.10740450" lon="-72.25599480"><ele></ele><time>2014-6-25T0:34:30Z</time></trkpt>
<trkpt lat="48.10741420" lon="-72.25598950"><ele></ele><time>2014-6-25T0:34:33Z</time></trkpt>
<trkpt lat="48.10742420" lon="-72.25598400"><ele></ele><time>2014-6-25T0:34:36Z</time></trkpt>
<trkpt lat="48.10743370" lon="-72.25597840"><ele></ele><time>2014-6-25T0:34:39Z</time></trkpt>
<trkpt lat="48.10744270" lon="-72.25597280"><ele></ele><time>2014-6-25T0:34:42Z</time></trkpt>
<trkpt lat="48.10745180" lon="-72.25596750"><ele></ele><time>2014-6-25T0:34:45Z</time></trkpt>
<trkpt lat="48.10747110" lon="-72.25595510"><ele></ele><time>2014-6-25T0:34:48Z</time></trkpt>
<trkpt lat="48.10748020" lon="-72.25594960"><ele></ele><time>2014-6-25T0:34:51Z</time></trkpt>
<trkpt lat="48.10752010" lon="-72.25592650"><ele></ele><time>2014-6-25T0:34:54Z</time></trkpt>
<trkpt lat="48.10752990" lon="-72.25592050"><ele></ele><time>2014-6-25T0:34:57Z</time></trkpt>
<trkpt lat="48.10753920" lon="-72.25591380"><ele></ele><time>2014-6-25T0:35:0Z</time></trkpt>
<trkpt lat="48.10754860" lon="-72.25590690"><ele></ele><time>2014-6-25T0:35:3Z</time></trkpt>
<trkpt lat="48.10755760" lon="-72.25590010"><ele></ele><time>2014-6-25T0:35:6Z</time></trkpt>
<trkpt lat="48.10756640" lon="-72.25589310"><ele></ele><time>2014-6-25T0:35:9Z</time></trkpt>
<trkpt lat="48.10757570" lon="-72.25588660"><ele></ele><time>2014-6-25T0:35:12Z</time></trkpt>
<trkpt lat="48.10760320" lon="-72.25586810"><ele></ele><time>2014-6-25T0:35:15Z</time></trkpt>
<trkpt lat="48.10761230" lon="-72.25586210"><ele></ele><time>2014-6-25T0:35:18Z</time></trkpt>
<trkpt lat="48.10762150" lon="-72.25585640"><ele></ele><time>2014-6-25T0:35:21Z</time></trkpt>
<trkpt lat="48.10763040" lon="-72.25585010"><ele></ele><time>2014-6-25T0:35:24Z</time></trkpt>
<trkpt lat="48.10765780" lon="-72.25583170"><ele></ele><time>2014-6-25T0:35:27Z</time></trkpt>
<trkpt lat="48.10766690" lon="-72.25582580"><ele></ele><time>2014-6-25T0:35:30Z</time></trkpt>
<trkpt lat="48.10767630" lon="-72.25582050"><ele></ele><time>2014-6-25T0:35:33Z</time></trkpt>
<trkpt lat="48.10768590" lon="-72.25581500"><ele></ele><time>2014-6-25T0:35:36Z</time></trkpt>
<trkpt lat="48.10769520" lon="-72.25580950"><ele></ele><time>2014-6-25T0:35:39Z</time></trkpt>
<trkpt lat="48.10770480" lon="-72.25580370"><ele></ele><time>2014-6-25T0:35:42Z</time></trkpt>
<trkpt lat="48.10771470" lon="-72.25579760"><ele></ele><time>2014-6-25T0:35:45Z</time></trkpt>
<trkpt lat="48.10772480" lon="-72.25579150"><ele></ele><time>2014-6-25T0:35:48Z</time></trkpt>
<trkpt lat="48.10775310" lon="-72.25577320"><ele></ele><time>2014-6-25T0:35:51Z</time></trkpt>
<trkpt lat="48.10776180" lon="-72.25576660"><ele></ele><time>2014-6-25T0:35:54Z</time></trkpt>
<trkpt lat="48.10778710" lon="-72.25574770"><ele></ele><time>2014-6-25T0:35:57Z</time></trkpt>
<trkpt lat="48.10779600" lon="-72.25574220"><ele></ele><time>2014-6-25T0:36:0Z</time></trkpt>
<trkpt lat="48.10780470" lon="-72.25573710"><ele></ele><time>2014-6-25T0:36:3Z</time></trkpt>
<trkpt lat="48.10781370" lon="-72.25573220"><ele></ele><time>2014-6-25T0:36:6Z</time></trkpt>
<trkpt lat="48.10782280" lon="-72.25572730"><ele></ele><time>2014-6-25T0:36:9Z</time></trkpt>
<trkpt lat="48.10783200" lon="-72.25572210"><ele></ele><time>2014-6-25T0:36:12Z</time></trkpt>
<trkpt lat="48.10784130" lon="-72.25571710"><ele></ele><time>2014-6-25T0:36:15Z</time></trkpt>
<trkpt lat="48.10786850" lon="-72.25570480"><ele></ele><time>2014-6-25T0:36:18Z</time></trkpt>
<trkpt lat="48.10787740" lon="-72.25570090"><ele></ele><time>2014-6-25T0:36:21Z</time></trkpt>
<trkpt lat="48.10790280" lon="-72.25568930"><ele></ele><time>2014-6-25T0:36:24Z</time></trkpt>
<trkpt lat="48.10791120" lon="-72.25568500"><ele></ele><time>2014-6-25T0:36:27Z</time></trkpt>
<trkpt lat="48.10791990" lon="-72.25567990"><ele></ele><time>2014-6-25T0:36:30Z</time></trkpt>
<trkpt lat="48.10792860" lon="-72.25567430"><ele></ele><time>2014-6-25T0:36:33Z</time></trkpt>
<trkpt lat="48.10793690" lon="-72.25566860"><ele></ele><time>2014-6-25T0:36:36Z</time></trkpt>
<trkpt lat="48.10794560" lon="-72.25566310"><ele></ele><time>2014-6-25T0:36:39Z</time></trkpt>
<trkpt lat="48.10795470" lon="-72.25565790"><ele></ele><time>2014-6-25T0:36:42Z</time></trkpt>
<trkpt lat="48.10798080" lon="-72.25564190"><ele></ele><time>2014-6-25T0:36:45Z</time></trkpt>
<trkpt lat="48.10800650" lon="-72.25562450"><ele></ele><time>2014-6-25T0:36:48Z</time></trkpt>
<trkpt lat="48.10801590" lon="-72.25561910"><ele></ele><time>2014-6-25T0:36:51Z</time></trkpt>
<trkpt lat="48.10802500" lon="-72.25561310"><ele></ele><time>2014-6-25T0:36:54Z</time></trkpt>
<trkpt lat="48.10803430" lon="-72.25560760"><ele></ele><time>2014-6-25T0:36:57Z</time></trkpt>
<trkpt lat="48.10804350" lon="-72.25560230"><ele></ele><time>2014-6-25T0:37:0Z</time></trkpt>
<trkpt lat="48.10805320" lon="-72.25559740"><ele></ele><time>2014-6-25T0:37:3Z</time></trkpt>
<trkpt lat="48.10806310" lon="-72.25559260"><ele></ele><time>2014-6-25T0:37:6Z</time></trkpt>
<trkpt lat="48.10807310" lon="-72.25558810"><ele></ele><time>2014-6-25T0:37:9Z</time></trkpt>
<trkpt lat="48.10810200" lon="-72.25557300"><ele></ele><time>2014-6-25T0:37:12Z</time></trkpt>
<trkpt lat="48.10811180" lon="-72.25556780"><ele></ele><time>2014-6-25T0:37:15Z</time></trkpt>
<trkpt lat="48.10813270" lon="-72.25555940"><ele></ele><time>2014-6-25T0:37:18Z</time></trkpt>
<trkpt lat="48.10814300" lon="-72.25555460"><ele></ele><time>2014-6-25T0:37:21Z</time></trkpt>
<trkpt lat="48.10815330" lon="-72.25554920"><ele></ele><time>2014-6-25T0:37:24Z</time></trkpt>
<trkpt lat="48.10816350" lon="-72.25554340"><ele></ele><time>2014-6-25T0:37:27Z</time></trkpt>
<trkpt lat="48.10817380" lon="-72.25553720"><ele></ele><time>2014-6-25T0:37:30Z</time></trkpt>
<trkpt lat="48.10818400" lon="-72.25553120"><ele></ele><time>2014-6-25T0:37:33Z</time></trkpt>
<trkpt lat="48.10819400" lon="-72.25552530"><ele></ele><time>2014-6-25T0:37:36Z</time></trkpt>
<trkpt lat="48.10820400" lon="-72.25551980"><ele></ele><time>2014-6-25T0:37:39Z</time></trkpt>
<trkpt lat="48.10822410" lon="-72.25550950"><ele></ele><time>2014-6-25T0:37:42Z</time></trkpt>
<trkpt lat="48.10823410" lon="-72.25550500"><ele></ele><time>2014-6-25T0:37:45Z</time></trkpt>
<trkpt lat="48.10826380" lon="-72.25549110"><ele></ele><time>2014-6-25T0:37:48Z</time></trkpt>
<trkpt lat="48.10827370" lon="-72.25548670"><ele></ele><time>2014-6-25T0:37:51Z</time></trkpt>
<trkpt lat="48.10828370" lon="-72.25548270"><ele></ele><time>2014-6-25T0:37:54Z</time></trkpt>
<trkpt lat="48.10829350" lon="-72.25547870"><ele></ele><time>2014-6-25T0:37:57Z</time></trkpt>
<trkpt lat="48.10830340" lon="-72.25547380"><ele></ele><time>2014-6-25T0:38:0Z</time></trkpt>
<trkpt lat="48.10831310" lon="-72.25546800"><ele></ele><time>2014-6-25T0:38:3Z</time></trkpt>
<trkpt lat="48.10832200" lon="-72.25546200"><ele></ele><time>2014-6-25T0:38:6Z</time></trkpt>
<trkpt lat="48.10834880" lon="-72.25544210"><ele></ele><time>2014-6-25T0:38:9Z</time></trkpt>
<trkpt lat="48.10837280" lon="-72.25542090"><ele></ele><time>2014-6-25T0:38:12Z</time></trkpt>
<trkpt lat="48.10838090" lon="-72.25541370"><ele></ele><time>2014-6-25T0:38:15Z</time></trkpt>
<trkpt lat="48.10838920" lon="-72.25540640"><ele></ele><time>2014-6-25T0:38:18Z</time></trkpt>
<trkpt lat="48.10839810" lon="-72.25539920"><ele></ele><time>2014-6-25T0:38:21Z</time></trkpt>
<trkpt lat="48.10840680" lon="-72.25539160"><ele></ele><time>2014-6-25T0:38:24Z</time></trkpt>
<trkpt lat="48.10841540" lon="-72.25538400"><ele></ele><time>2014-6-25T0:38:27Z</time></trkpt>
<trkpt lat="48.10842390" lon="-72.25537680"><ele></ele><time>2014-6-25T0:38:30Z</time></trkpt>
<trkpt lat="48.10844870" lon="-72.25535710"><ele></ele><time>2014-6-25T0:38:33Z</time></trkpt>
<trkpt lat="48.10847330" lon="-72.25533890"><ele></ele><time>2014-6-25T0:38:36Z</time></trkpt>
<trkpt lat="48.10848470" lon="-72.25533130"><ele></ele><time>2014-6-25T0:38:39Z</time></trkpt>
<trkpt lat="48.10849420" lon="-72.25532600"><ele></ele><time>2014-6-25T0:38:42Z</time></trkpt>
<trkpt lat="48.10850380" lon="-72.25532070"><ele></ele><time>2014-6-25T0:38:45Z</time></trkpt>
<trkpt lat="48.10851380" lon="-72.25531500"><ele></ele><time>2014-6-25T0:38:48Z</time></trkpt>
<trkpt lat="48.10852290" lon="-72.25530940"><ele></ele><time>2014-6-25T0:38:51Z</time></trkpt>
<trkpt lat="48.10853170" lon="-72.25530490"><ele></ele><time>2014-6-25T0:38:54Z</time></trkpt>
<trkpt lat="48.10855150" lon="-72.25529630"><ele></ele><time>2014-6-25T0:38:57Z</time></trkpt>
<trkpt lat="48.10856100" lon="-72.25529170"><ele></ele><time>2014-6-25T0:39:0Z</time></trkpt>
<trkpt lat="48.10859080" lon="-72.25527930"><ele></ele><time>2014-6-25T0:39:3Z</time></trkpt>
<trkpt lat="48.10860040" lon="-72.25527470"><ele></ele><time>2014-6-25T0:39:6Z</time></trkpt>
<trkpt lat="48.10861020" lon="-72.25526960"><ele></ele><time>2014-6-25T0:39:9Z</time></trkpt>
<trkpt lat="48.10862020" lon="-72.25526390"><ele></ele><time>2014-6-25T0:39:12Z</time></trkpt>
<trkpt lat="48.10862950" lon="-72.25525820"><ele></ele><time>2014-6-25T0:39:15Z</time></trkpt>
<trkpt lat="48.10863870" lon="-72.25525150"><ele></ele><time>2014-6-25T0:39:18Z</time></trkpt>
<trkpt lat="48.10864780" lon="-72.25524430"><ele></ele><time>2014-6-25T0:39:21Z</time></trkpt>
<trkpt lat="48.10867440" lon="-72.25522320"><ele></ele><time>2014-6-25T0:39:24Z</time></trkpt>
<trkpt lat="48.10870240" lon="-72.25520530"><ele></ele><time>2014-6-25T0:39:27Z</time></trkpt>
<trkpt lat="48.10871190" lon="-72.25520010"><ele></ele><time>2014-6-25T0:39:30Z</time></trkpt>
<trkpt lat="48.10872120" lon="-72.25519370"><ele></ele><time>2014-6-25T0:39:33Z</time></trkpt>
<trkpt lat="48.10873010" lon="-72.25518660"><ele></ele><time>2014-6-25T0:39:36Z</time></trkpt>
<trkpt lat="48.10873860" lon="-72.25517930"><ele></ele><time>2014-6-25T0:39:39Z</time></trkpt>
<trkpt lat="48.10874740" lon="-72.25517180"><ele></ele><time>2014-6-25T0:39:42Z</time></trkpt>
<trkpt lat="48.10875720" lon="-72.25516400"><ele></ele><time>2014-6-25T0:39:45Z</time></trkpt>
<trkpt lat="48.10878760" lon="-72.25513910"><ele></ele><time>2014-6-25T0:39:48Z</time></trkpt>
<trkpt lat="48.10880720" lon="-72.25512200"><ele></ele><time>2014-6-25T0:39:51Z</time></trkpt>
<trkpt lat="48.10881680" lon="-72.25511370"><ele></ele><time>2014-6-25T0:39:54Z</time></trkpt>
<trkpt lat="48.10882650" lon="-72.25510520"><ele></ele><time>2014-6-25T0:39:57Z</time></trkpt>
<trkpt lat="48.10883640" lon="-72.25509640"><ele></ele><time>2014-6-25T0:40:0Z</time></trkpt>
<trkpt lat="48.10884640" lon="-72.25508730"><ele></ele><time>2014-6-25T0:40:3Z</time></trkpt>
<trkpt lat="48.10885600" lon="-72.25507830"><ele></ele><time>2014-6-25T0:40:6Z</time></trkpt>
<trkpt lat="48.10886580" lon="-72.25506900"><ele></ele><time>2014-6-25T0:40:9Z</time></trkpt>
<trkpt lat="48.10887500" lon="-72.25505940"><ele></ele><time>2014-6-25T0:40:12Z</time></trkpt>
<trkpt lat="48.10890240" lon="-72.25503150"><ele></ele><time>2014-6-25T0:40:15Z</time></trkpt>
<trkpt lat="48.10893050" lon="-72.25500690"><ele></ele><time>2014-6-25T0:40:18Z</time></trkpt>
<trkpt lat="48.10893950" lon="-72.25499920"><ele></ele><time>2014-6-25T0:40:21Z</time></trkpt>
<trkpt lat="48.10894860" lon="-72.25499160"><ele></ele><time>2014-6-25T0:40:24Z</time></trkpt>
<trkpt lat="48.10895750" lon="-72.25498400"><ele></ele><time>2014-6-25T0:40:27Z</time></trkpt>
<trkpt lat="48.10896650" lon="-72.25497640"><ele></ele><time>2014-6-25T0:40:30Z</time></trkpt>
<trkpt lat="48.10897610" lon="-72.25496930"><ele></ele><time>2014-6-25T0:40:33Z</time></trkpt>
<trkpt lat="48.10898610" lon="-72.25496250"><ele></ele><time>2014-6-25T0:40:36Z</time></trkpt>
<trkpt lat="48.10901450" lon="-72.25494220"><ele></ele><time>2014-6-25T0:40:39Z</time></trkpt>
<trkpt lat="48.10902370" lon="-72.25493550"><ele></ele><time>2014-6-25T0:40:42Z</time></trkpt>
<trkpt lat="48.10904200" lon="-72.25492140"><ele></ele><time>2014-6-25T0:40:45Z</time></trkpt>
<trkpt lat="48.10905090" lon="-72.25491390"><ele></ele><time>2014-6-25T0:40:48Z</time></trkpt>
<trkpt lat="48.10906000" lon="-72.25490560"><ele></ele><time>2014-6-25T0:40:51Z</time></trkpt>
<trkpt lat="48.10906930" lon="-72.25489830"><ele></ele><time>2014-6-25T0:40:54Z</time></trkpt>
<trkpt lat="48.10907840" lon="-72.25489080"><ele></ele><time>2014-6-25T0:40:57Z</time></trkpt>
<trkpt lat="48.10908720" lon="-72.25488270"><ele></ele><time>2014-6-25T0:41:0Z</time></trkpt>
<trkpt lat="48.10909550" lon="-72.25487450"><ele></ele><time>2014-6-25T0:41:3Z</time></trkpt>
<trkpt lat="48.10911990" lon="-72.25484930"><ele></ele><time>2014-6-25T0:41:6Z</time></trkpt>
<trkpt lat="48.10914400" lon="-72.25482300"><ele></ele><time>2014-6-25T0:41:9Z</time></trkpt>
<trkpt lat="48.10915190" lon="-72.25481370"><ele></ele><time>2014-6-25T0:41:12Z</time></trkpt>
<trkpt lat="48.10915990" lon="-72.25480430"><ele></ele><time>2014-6-25T0:41:15Z</time></trkpt>
<trkpt lat="48.10916790" lon="-72.25479530"><ele></ele><time>2014-6-25T0:41:18Z</time></trkpt>
<trkpt lat="48.10917570" lon="-72.25478710"><ele></ele><time>2014-6-25T0:41:21Z</time></trkpt>
<trkpt lat="48.10918350" lon="-72.25477900"><ele></ele><time>2014-6-25T0:41:24Z</time></trkpt>
<trkpt lat="48.10919120" lon="-72.25477160"><ele></ele><time>2014-6-25T0:41:27Z</time></trkpt>
<trkpt lat="48.10919880" lon="-72.25476410"><ele></ele><time>2014-6-25T0:41:30Z</time></trkpt>
<trkpt lat="48.10921380" lon="-72.25474910"><ele></ele><time>2014-6-25T0:41:33Z</time></trkpt>
<trkpt lat="48.10922120" lon="-72.25474090"><ele></ele><time>2014-6-25T0:41:36Z</time></trkpt>
<trkpt lat="48.10922860" lon="-72.25473260"><ele></ele><time>2014-6-25T0:41:39Z</time></trkpt>
<trkpt lat="48.10924310" lon="-72.25471610"><ele></ele><time>2014-6-25T0:41:42Z</time></trkpt>
<trkpt lat="48.10925040" lon="-72.25470770"><ele></ele><time>2014-6-25T0:41:45Z</time></trkpt>
<trkpt lat="48.10925810" lon="-72.25469970"><ele></ele><time>2014-6-25T0:41:48Z</time></trkpt>
<trkpt lat="48.10926540" lon="-72.25469190"><ele></ele><time>2014-6-25T0:41:51Z</time></trkpt>
<trkpt lat="48.10927300" lon="-72.25468390"><ele></ele><time>2014-6-25T0:41:54Z</time></trkpt>
<trkpt lat="48.10928070" lon="-72.25467550"><ele></ele><time>2014-6-25T0:41:57Z</time></trkpt>
<trkpt lat="48.10928780" lon="-72.25466730"><ele></ele><time>2014-6-25T0:42:0Z</time></trkpt>
<trkpt lat="48.10929540" lon="-72.25465810"><ele></ele><time>2014-6-25T0:42:3Z</time></trkpt>
<trkpt lat="48.10930300" lon="-72.25464880"><ele></ele><time>2014-6-25T0:42:6Z</time></trkpt>
<trkpt lat="48.10932650" lon="-72.25462060"><ele></ele><time>2014-6-25T0:42:9Z</time></trkpt>
<trkpt lat="48.10933440" lon="-72.25461070"><ele></ele><time>2014-6-25T0:42:12Z</time></trkpt>
<trkpt lat="48.10934960" lon="-72.25458940"><ele></ele><time>2014-6-25T0:42:15Z</time></trkpt>
<trkpt lat="48.10935680" lon="-72.25457880"><ele></ele><time>2014-6-25T0:42:18Z</time></trkpt>
<trkpt lat="48.10936400" lon="-72.25456790"><ele></ele><time>2014-6-25T0:42:21Z</time></trkpt>
<trkpt lat="48.10937150" lon="-72.25455670"><ele></ele><time>2014-6-25T0:42:24Z</time></trkpt>
<trkpt lat="48.10937850" lon="-72.25454500"><ele></ele><time>2014-6-25T0:42:27Z</time></trkpt>
<trkpt lat="48.10938610" lon="-72.25453390"><ele></ele><time>2014-6-25T0:42:30Z</time></trkpt>
<trkpt lat="48.10939410" lon="-72.25452270"><ele></ele><time>2014-6-25T0:42:33Z</time></trkpt>
<trkpt lat="48.10941630" lon="-72.25449010"><ele></ele><time>2014-6-25T0:42:36Z</time></trkpt>
<trkpt lat="48.10943890" lon="-72.25445930"><ele></ele><time>2014-6-25T0:42:39Z</time></trkpt>
<trkpt lat="48.10946030" lon="-72.25442940"><ele></ele><time>2014-6-25T0:42:42Z</time></trkpt>
<trkpt lat="48.10948350" lon="-72.25440220"><ele></ele><time>2014-6-25T0:42:45Z</time></trkpt>
<trkpt lat="48.10950540" lon="-72.25437220"><ele></ele><time>2014-6-25T0:42:48Z</time></trkpt>
<trkpt lat="48.10951140" lon="-72.25436390"><ele></ele><time>2014-6-25T0:42:51Z</time></trkpt>
<trkpt lat="48.10952400" lon="-72.25434760"><ele></ele><time>2014-6-25T0:42:54Z</time></trkpt>
<trkpt lat="48.10953040" lon="-72.25433940"><ele></ele><time>2014-6-25T0:42:57Z</time></trkpt>
<trkpt lat="48.10953700" lon="-72.25433050"><ele></ele><time>2014-6-25T0:43:0Z</time></trkpt>
<trkpt lat="48.10954350" lon="-72.25432130"><ele></ele><time>2014-6-25T0:43:3Z</time></trkpt>
<trkpt lat="48.10954990" lon="-72.25431180"><ele></ele><time>2014-6-25T0:43:6Z</time></trkpt>
<trkpt lat="48.10955600" lon="-72.25430230"><ele></ele><time>2014-6-25T0:43:9Z</time></trkpt>
<trkpt lat="48.10956240" lon="-72.25429280"><ele></ele><time>2014-6-25T0:43:12Z</time></trkpt>
<trkpt lat="48.10956900" lon="-72.25428350"><ele></ele><time>2014-6-25T0:43:15Z</time></trkpt>
<trkpt lat="48.10957560" lon="-72.25427370"><ele></ele><time>2014-6-25T0:43:18Z</time></trkpt>
<trkpt lat="48.10958940" lon="-72.25425380"><ele></ele><time>2014-6-25T0:43:21Z</time></trkpt>
<trkpt lat="48.10960400" lon="-72.25423280"><ele></ele><time>2014-6-25T0:43:24Z</time></trkpt>
<trkpt lat="48.10961210" lon="-72.25422260"><ele></ele><time>2014-6-25T0:43:27Z</time></trkpt>
<trkpt lat="48.10962860" lon="-72.25420170"><ele></ele><time>2014-6-25T0:43:30Z</time></trkpt>
<trkpt lat="48.10963670" lon="-72.25419100"><ele></ele><time>2014-6-25T0:43:33Z</time></trkpt>
<trkpt lat="48.10964470" lon="-72.25417890"><ele></ele><time>2014-6-25T0:43:36Z</time></trkpt>
<trkpt lat="48.10965270" lon="-72.25416730"><ele></ele><time>2014-6-25T0:43:39Z</time></trkpt>
<trkpt lat="48.10966050" lon="-72.25415620"><ele></ele><time>2014-6-25T0:43:42Z</time></trkpt>
<trkpt lat="48.10966810" lon="-72.25414520"><ele></ele><time>2014-6-25T0:43:45Z</time></trkpt>
<trkpt lat="48.10967600" lon="-72.25413430"><ele></ele><time>2014-6-25T0:43:48Z</time></trkpt>
<trkpt lat="48.10968400" lon="-72.25412340"><ele></ele><time>2014-6-25T0:43:51Z</time></trkpt>
<trkpt lat="48.10970060" lon="-72.25410050"><ele></ele><time>2014-6-25T0:43:54Z</time></trkpt>
<trkpt lat="48.10970910" lon="-72.25409040"><ele></ele><time>2014-6-25T0:43:57Z</time></trkpt>
<trkpt lat="48.10971750" lon="-72.25407980"><ele></ele><time>2014-6-25T0:44:0Z</time></trkpt>
<trkpt lat="48.10973370" lon="-72.25405760"><ele></ele><time>2014-6-25T0:44:3Z</time></trkpt>
<trkpt lat="48.10974220" lon="-72.25404580"><ele></ele><time>2014-6-25T0:44:6Z</time></trkpt>
<trkpt lat="48.10974970" lon="-72.25403430"><ele></ele><time>2014-6-25T0:44:9Z</time></trkpt>
<trkpt lat="48.10975730" lon="-72.25402270"><ele></ele><time>2014-6-25T0:44:12Z</time></trkpt>
<trkpt lat="48.10976480" lon="-72.25401110"><ele></ele><time>2014-6-25T0:44:15Z</time></trkpt>
<trkpt lat="48.10977230" lon="-72.25399980"><ele></ele><time>2014-6-25T0:44:18Z</time></trkpt>
<trkpt lat="48.10977940" lon="-72.25398930"><ele></ele><time>2014-6-25T0:44:21Z</time></trkpt>
<trkpt lat="48.10980180" lon="-72.25395620"><ele></ele><time>2014-6-25T0:44:24Z</time></trkpt>
<trkpt lat="48.10982800" lon="-72.25392230"><ele></ele><time>2014-6-25T0:44:27Z</time></trkpt>
<trkpt lat="48.10983800" lon="-72.25391100"><ele></ele><time>2014-6-25T0:44:30Z</time></trkpt>
<trkpt lat="48.10984760" lon="-72.25390030"><ele></ele><time>2014-6-25T0:44:33Z</time></trkpt>
<trkpt lat="48.10985690" lon="-72.25389040"><ele></ele><time>2014-6-25T0:44:36Z</time></trkpt>
<trkpt lat="48.10986640" lon="-72.25388010"><ele></ele><time>2014-6-25T0:44:39Z</time></trkpt>
<trkpt lat="48.10987510" lon="-72.25386970"><ele></ele><time>2014-6-25T0:44:42Z</time></trkpt>
<trkpt lat="48.10988390" lon="-72.25385970"><ele></ele><time>2014-6-25T0:44:45Z</time></trkpt>
<trkpt lat="48.10990890" lon="-72.25382780"><ele></ele><time>2014-6-25T0:44:48Z</time></trkpt>
<trkpt lat="48.10993310" lon="-72.25379610"><ele></ele><time>2014-6-25T0:44:51Z</time></trkpt>
<trkpt lat="48.10994050" lon="-72.25378530"><ele></ele><time>2014-6-25T0:44:54Z</time></trkpt>
<trkpt lat="48.10994750" lon="-72.25377460"><ele></ele><time>2014-6-25T0:44:57Z</time></trkpt>
<trkpt lat="48.10995480" lon="-72.25376290"><ele></ele><time>2014-6-25T0:45:0Z</time></trkpt>
<trkpt lat="48.10996220" lon="-72.25375140"><ele></ele><time>2014-6-25T0:45:3Z</time></trkpt>
<trkpt lat="48.10996920" lon="-72.25374030"><ele></ele><time>2014-6-25T0:45:6Z</time></trkpt>
<trkpt lat="48.10997680" lon="-72.25372870"><ele></ele><time>2014-6-25T0:45:9Z</time></trkpt>
<trkpt lat="48.10999220" lon="-72.25370700"><ele></ele><time>2014-6-25T0:45:12Z</time></trkpt>
<trkpt lat="48.11000020" lon="-72.25369530"><ele></ele><time>2014-6-25T0:45:15Z</time></trkpt>
<trkpt lat="48.11002380" lon="-72.25366000"><ele></ele><time>2014-6-25T0:45:18Z</time></trkpt>
<trkpt lat="48.11003120" lon="-72.25364730"><ele></ele><time>2014-6-25T0:45:21Z</time></trkpt>
<trkpt lat="48.11003840" lon="-72.25363500"><ele></ele><time>2014-6-25T0:45:24Z</time></trkpt>
<trkpt lat="48.11004630" lon="-72.25362230"><ele></ele><time>2014-6-25T0:45:27Z</time></trkpt>
<trkpt lat="48.11005450" lon="-72.25360990"><ele></ele><time>2014-6-25T0:45:30Z</time></trkpt>
<trkpt lat="48.11006280" lon="-72.25359820"><ele></ele><time>2014-6-25T0:45:33Z</time></trkpt>
<trkpt lat="48.11007180" lon="-72.25358720"><ele></ele><time>2014-6-25T0:45:36Z</time></trkpt>
<trkpt lat="48.11009570" lon="-72.25355560"><ele></ele><time>2014-6-25T0:45:39Z</time></trkpt>
<trkpt lat="48.11011740" lon="-72.25352180"><ele></ele><time>2014-6-25T0:45:42Z</time></trkpt>
<trkpt lat="48.11012460" lon="-72.25351070"><ele></ele><time>2014-6-25T0:45:45Z</time></trkpt>
<trkpt lat="48.11013050" lon="-72.25350120"><ele></ele><time>2014-6-25T0:45:48Z</time></trkpt>
<trkpt lat="48.11013690" lon="-72.25349070"><ele></ele><time>2014-6-25T0:45:51Z</time></trkpt>
<trkpt lat="48.11014300" lon="-72.25348060"><ele></ele><time>2014-6-25T0:45:54Z</time></trkpt>
<trkpt lat="48.11014900" lon="-72.25347040"><ele></ele><time>2014-6-25T0:45:57Z</time></trkpt>
<trkpt lat="48.11015580" lon="-72.25346000"><ele></ele><time>2014-6-25T0:46:0Z</time></trkpt>
<trkpt lat="48.11017960" lon="-72.25342080"><ele></ele><time>2014-6-25T0:46:3Z</time></trkpt>
<trkpt lat="48.11020360" lon="-72.25338660"><ele></ele><time>2014-6-25T0:46:6Z</time></trkpt>
<trkpt lat="48.11021160" lon="-72.25337540"><ele></ele><time>2014-6-25T0:46:9Z</time></trkpt>
<trkpt lat="48.11022010" lon="-72.25336410"><ele></ele><time>2014-6-25T0:46:12Z</time></trkpt>
<trkpt lat="48.11022840" lon="-72.25335380"><ele></ele><time>2014-6-25T0:46:15Z</time></trkpt>
<trkpt lat="48.11023680" lon="-72.25334300"><ele></ele><time>2014-6-25T0:46:18Z</time></trkpt>
<trkpt lat="48.11024530" lon="-72.25333230"><ele></ele><time>2014-6-25T0:46:21Z</time></trkpt>
<trkpt lat="48.11025350" lon="-72.25332140"><ele></ele><time>2014-6-25T0:46:24Z</time></trkpt>
<trkpt lat="48.11027610" lon="-72.25328940"><ele></ele><time>2014-6-25T0:46:27Z</time></trkpt>
<trkpt lat="48.11028400" lon="-72.25327960"><ele></ele><time>2014-6-25T0:46:30Z</time></trkpt>
<trkpt lat="48.11030020" lon="-72.25326050"><ele></ele><time>2014-6-25T0:46:33Z</time></trkpt>
<trkpt lat="48.11030800" lon="-72.25325110"><ele></ele><time>2014-6-25T0:46:36Z</time></trkpt>
<trkpt lat="48.11031600" lon="-72.25324160"><ele></ele><time>2014-6-25T0:46:39Z</time></trkpt>
<trkpt lat="48.11032350" lon="-72.25323290"><ele></ele><time>2014-6-25T0:46:42Z</time></trkpt>
<trkpt lat="48.11033090" lon="-72.25322440"><ele></ele><time>2014-6-25T0:46:45Z</time></trkpt>
<trkpt lat="48.11033870" lon="-72.25321520"><ele></ele><time>2014-6-25T0:46:48Z</time></trkpt>
<trkpt lat="48.11034670" lon="-72.25320680"><ele></ele><time>2014-6-25T0:46:51Z</time></trkpt>
<trkpt lat="48.11035460" lon="-72.25319870"><ele></ele><time>2014-6-25T0:46:54Z</time></trkpt>
<trkpt lat="48.11037150" lon="-72.25318120"><ele></ele><time>2014-6-25T0:46:57Z</time></trkpt>
<trkpt lat="48.11038000" lon="-72.25317200"><ele></ele><time>2014-6-25T0:47:0Z</time></trkpt>
<trkpt lat="48.11040570" lon="-72.25314340"><ele></ele><time>2014-6-25T0:47:3Z</time></trkpt>
<trkpt lat="48.11041460" lon="-72.25313390"><ele></ele><time>2014-6-25T0:47:6Z</time></trkpt>
<trkpt lat="48.11042310" lon="-72.25312370"><ele></ele><time>2014-6-25T0:47:9Z</time></trkpt>
<trkpt lat="48.11043150" lon="-72.25311420"><ele></ele><time>2014-6-25T0:47:12Z</time></trkpt>
<trkpt lat="48.11043970" lon="-72.25310370"><ele></ele><time>2014-6-25T0:47:15Z</time></trkpt>
<trkpt lat="48.11044780" lon="-72.25309290"><ele></ele><time>2014-6-25T0:47:18Z</time></trkpt>
<trkpt lat="48.11045590" lon="-72.25308220"><ele></ele><time>2014-6-25T0:47:21Z</time></trkpt>
<trkpt lat="48.11047900" lon="-72.25304620"><ele></ele><time>2014-6-25T0:47:24Z</time></trkpt>
<trkpt lat="48.11050210" lon="-72.25301310"><ele></ele><time>2014-6-25T0:47:27Z</time></trkpt>
<trkpt lat="48.11050950" lon="-72.25300340"><ele></ele><time>2014-6-25T0:47:30Z</time></trkpt>
<trkpt lat="48.11051680" lon="-72.25299310"><ele></ele><time>2014-6-25T0:47:33Z</time></trkpt>
<trkpt lat="48.11052400" lon="-72.25298270"><ele></ele><time>2014-6-25T0:47:36Z</time></trkpt>
<trkpt lat="48.11053130" lon="-72.25297220"><ele></ele><time>2014-6-25T0:47:39Z</time></trkpt>
<trkpt lat="48.11053850" lon="-72.25296190"><ele></ele><time>2014-6-25T0:47:42Z</time></trkpt>
<trkpt lat="48.11054510" lon="-72.25295140"><ele></ele><time>2014-6-25T0:47:45Z</time></trkpt>
<trkpt lat="48.11056430" lon="-72.25291790"><ele></ele><time>2014-6-25T0:47:48Z</time></trkpt>
<trkpt lat="48.11057750" lon="-72.25289470"><ele></ele><time>2014-6-25T0:47:51Z</time></trkpt>
<trkpt lat="48.11058350" lon="-72.25288380"><ele></ele><time>2014-6-25T0:47:54Z</time></trkpt>
<trkpt lat="48.11058960" lon="-72.25287290"><ele></ele><time>2014-6-25T0:47:57Z</time></trkpt>
<trkpt lat="48.11059600" lon="-72.25286260"><ele></ele><time>2014-6-25T0:48:0Z</time></trkpt>
<trkpt lat="48.11060250" lon="-72.25285180"><ele></ele><time>2014-6-25T0:48:3Z</time></trkpt>
<trkpt lat="48.11060860" lon="-72.25284090"><ele></ele><time>2014-6-25T0:48:6Z</time></trkpt>
<trkpt lat="48.11061530" lon="-72.25283030"><ele></ele><time>2014-6-25T0:48:9Z</time></trkpt>
<trkpt lat="48.11062220" lon="-72.25282000"><ele></ele><time>2014-6-25T0:48:12Z</time></trkpt>
<trkpt lat="48.11064150" lon="-72.25278620"><ele></ele><time>2014-6-25T0:48:15Z</time></trkpt>
<trkpt lat="48.11066160" lon="-72.25275450"><ele></ele><time>2014-6-25T0:48:18Z</time></trkpt>
<trkpt lat="48.11067550" lon="-72.25273440"><ele></ele><time>2014-6-25T0:48:21Z</time></trkpt>
<trkpt lat="48.11068210" lon="-72.25272420"><ele></ele><time>2014-6-25T0:48:24Z</time></trkpt>
<trkpt lat="48.11068900" lon="-72.25271420"><ele></ele><time>2014-6-25T0:48:27Z</time></trkpt>
<trkpt lat="48.11069570" lon="-72.25270450"><ele></ele><time>2014-6-25T0:48:30Z</time></trkpt>
<trkpt lat="48.11071650" lon="-72.25267430"><ele></ele><time>2014-6-25T0:48:33Z</time></trkpt>
<trkpt lat="48.11072340" lon="-72.25266390"><ele></ele><time>2014-6-25T0:48:36Z</time></trkpt>
<trkpt lat="48.11073050" lon="-72.25265290"><ele></ele><time>2014-6-25T0:48:39Z</time></trkpt>
<trkpt lat="48.11073770" lon="-72.25264220"><ele></ele><time>2014-6-25T0:48:42Z</time></trkpt>
<trkpt lat="48.11074510" lon="-72.25263200"><ele></ele><time>2014-6-25T0:48:45Z</time></trkpt>
<trkpt lat="48.11075270" lon="-72.25262030"><ele></ele><time>2014-6-25T0:48:48Z</time></trkpt>
<trkpt lat="48.11076010" lon="-72.25260910"><ele></ele><time>2014-6-25T0:48:51Z</time></trkpt>
<trkpt lat="48.11078270" lon="-72.25257680"><ele></ele><time>2014-6-25T0:48:54Z</time></trkpt>
<trkpt lat="48.11078980" lon="-72.25256610"><ele></ele><time>2014-6-25T0:48:57Z</time></trkpt>
<trkpt lat="48.11079720" lon="-72.25255550"><ele></ele><time>2014-6-25T0:49:0Z</time></trkpt>
<trkpt lat="48.11081890" lon="-72.25252460"><ele></ele><time>2014-6-25T0:49:3Z</time></trkpt>
<trkpt lat="48.11082580" lon="-72.25251440"><ele></ele><time>2014-6-25T0:49:6Z</time></trkpt>
<trkpt lat="48.11083270" lon="-72.25250460"><ele></ele><time>2014-6-25T0:49:9Z</time></trkpt>
<trkpt lat="48.11083930" lon="-72.25249390"><ele></ele><time>2014-6-25T0:49:12Z</time></trkpt>
<trkpt lat="48.11084610" lon="-72.25248300"><ele></ele><time>2014-6-25T0:49:15Z</time></trkpt>
<trkpt lat="48.11085270" lon="-72.25247280"><ele></ele><time>2014-6-25T0:49:18Z</time></trkpt>
<trkpt lat="48.11086120" lon="-72.25246240"><ele></ele><time>2014-6-25T0:49:21Z</time></trkpt>
<trkpt lat="48.11086960" lon="-72.25245170"><ele></ele><time>2014-6-25T0:49:24Z</time></trkpt>
<trkpt lat="48.11088580" lon="-72.25242980"><ele></ele><time>2014-6-25T0:49:27Z</time></trkpt>
<trkpt lat="48.11090050" lon="-72.25240720"><ele></ele><time>2014-6-25T0:49:30Z</time></trkpt>
<trkpt lat="48.11090780" lon="-72.25239610"><ele></ele><time>2014-6-25T0:49:33Z</time></trkpt>
<trkpt lat="48.11091520" lon="-72.25238550"><ele></ele><time>2014-6-25T0:49:36Z</time></trkpt>
<trkpt lat="48.11092240" lon="-72.25237450"><ele></ele><time>2014-6-25T0:49:39Z</time></trkpt>
<trkpt lat="48.11092960" lon="-72.25236370"><ele></ele><time>2014-6-25T0:49:42Z</time></trkpt>
<trkpt lat="48.11093690" lon="-72.25235230"><ele></ele><time>2014-6-25T0:49:45Z</time></trkpt>
<trkpt lat="48.11094420" lon="-72.25234050"><ele></ele><time>2014-6-25T0:49:48Z</time></trkpt>
<trkpt lat="48.11095180" lon="-72.25232930"><ele></ele><time>2014-6-25T0:49:51Z</time></trkpt>
<trkpt lat="48.11096640" lon="-72.25230660"><ele></ele><time>2014-6-25T0:49:54Z</time></trkpt>
<trkpt lat="48.11097320" lon="-72.25229540"><ele></ele><time>2014-6-25T0:49:57Z</time></trkpt>
<trkpt lat="48.11098020" lon="-72.25228430"><ele></ele><time>2014-6-25T0:50:0Z</time></trkpt>
<trkpt lat="48.11099410" lon="-72.25226200"><ele></ele><time>2014-6-25T0:50:3Z</time></trkpt>
<trkpt lat="48.11100130" lon="-72.25225120"><ele></ele><time>2014-6-25T0:50:6Z</time></trkpt>
<trkpt lat="48.11100820" lon="-72.25224010"><ele></ele><time>2014-6-25T0:50:9Z</time></trkpt>
<trkpt lat="48.11101440" lon="-72.25222890"><ele></ele><time>2014-6-25T0:50:12Z</time></trkpt>
<trkpt lat="48.11102060" lon="-72.25221760"><ele></ele><time>2014-6-25T0:50:15Z</time></trkpt>
<trkpt lat="48.11102650" lon="-72.25220610"><ele></ele><time>2014-6-25T0:50:18Z</time></trkpt>
<trkpt lat="48.11103230" lon="-72.25219370"><ele></ele><time>2014-6-25T0:50:21Z</time></trkpt>
<trkpt lat="48.11104910" lon="-72.25215610"><ele></ele><time>2014-6-25T0:50:24Z</time></trkpt>
<trkpt lat="48.11106560" lon="-72.25211880"><ele></ele><time>2014-6-25T0:50:27Z</time></trkpt>
<trkpt lat="48.11108120" lon="-72.25207920"><ele></ele><time>2014-6-25T0:50:30Z</time></trkpt>
<trkpt lat="48.11108620" lon="-72.25206590"><ele></ele><time>2014-6-25T0:50:33Z</time></trkpt>
<trkpt lat="48.11109140" lon="-72.25205290"><ele></ele><time>2014-6-25T0:50:36Z</time></trkpt>
<trkpt lat="48.11109680" lon="-72.25204010"><ele></ele><time>2014-6-25T0:50:39Z</time></trkpt>
<trkpt lat="48.11111390" lon="-72.25200060"><ele></ele><time>2014-6-25T0:50:42Z</time></trkpt>
<trkpt lat="48.11111990" lon="-72.25198790"><ele></ele><time>2014-6-25T0:50:45Z</time></trkpt>
<trkpt lat="48.11112580" lon="-72.25197570"><ele></ele><time>2014-6-25T0:50:48Z</time></trkpt>
<trkpt lat="48.11113190" lon="-72.25196360"><ele></ele><time>2014-6-25T0:50:51Z</time></trkpt>
<trkpt lat="48.11113780" lon="-72.25195220"><ele></ele><time>2014-6-25T0:50:54Z</time></trkpt>
<trkpt lat="48.11114330" lon="-72.25194130"><ele></ele><time>2014-6-25T0:50:57Z</time></trkpt>
<trkpt lat="48.11114880" lon="-72.25193010"><ele></ele><time>2014-6-25T0:51:0Z</time></trkpt>
<trkpt lat="48.11116310" lon="-72.25189630"><ele></ele><time>2014-6-25T0:51:3Z</time></trkpt>
<trkpt lat="48.11117990" lon="-72.25186010"><ele></ele><time>2014-6-25T0:51:6Z</time></trkpt>
<trkpt lat="48.11118610" lon="-72.25184790"><ele></ele><time>2014-6-25T0:51:9Z</time></trkpt>
<trkpt lat="48.11119200" lon="-72.25183590"><ele></ele><time>2014-6-25T0:51:12Z</time></trkpt>
<trkpt lat="48.11119810" lon="-72.25182380"><ele></ele><time>2014-6-25T0:51:15Z</time></trkpt>
<trkpt lat="48.11120430" lon="-72.25181220"><ele></ele><time>2014-6-25T0:51:18Z</time></trkpt>
<trkpt lat="48.11121010" lon="-72.25180130"><ele></ele><time>2014-6-25T0:51:21Z</time></trkpt>
<trkpt lat="48.11121570" lon="-72.25179070"><ele></ele><time>2014-6-25T0:51:24Z</time></trkpt>
<trkpt lat="48.11123150" lon="-72.25175880"><ele></ele><time>2014-6-25T0:51:27Z</time></trkpt>
<trkpt lat="48.11124850" lon="-72.25172550"><ele></ele><time>2014-6-25T0:51:30Z</time></trkpt>
<trkpt lat="48.11125400" lon="-72.25171480"><ele></ele><time>2014-6-25T0:51:33Z</time></trkpt>
<trkpt lat="48.11125790" lon="-72.25170660"><ele></ele><time>2014-6-25T0:51:36Z</time></trkpt>
<trkpt lat="48.11126150" lon="-72.25169930"><ele></ele><time>2014-6-25T0:51:39Z</time></trkpt>
<trkpt lat="48.11126630" lon="-72.25169010"><ele></ele><time>2014-6-25T0:51:42Z</time></trkpt>
<trkpt lat="48.11127090" lon="-72.25168120"><ele></ele><time>2014-6-25T0:51:45Z</time></trkpt>
<trkpt lat="48.11127570" lon="-72.25167160"><ele></ele><time>2014-6-25T0:51:48Z</time></trkpt>
<trkpt lat="48.11128950" lon="-72.25164060"><ele></ele><time>2014-6-25T0:51:51Z</time></trkpt>
<trkpt lat="48.11130470" lon="-72.25160520"><ele></ele><time>2014-6-25T0:51:54Z</time></trkpt>
<trkpt lat="48.11131030" lon="-72.25159190"><ele></ele><time>2014-6-25T0:51:57Z</time></trkpt>
<trkpt lat="48.11131620" lon="-72.25157870"><ele></ele><time>2014-6-25T0:52:0Z</time></trkpt>
<trkpt lat="48.11132260" lon="-72.25156520"><ele></ele><time>2014-6-25T0:52:3Z</time></trkpt>
<trkpt lat="48.11132880" lon="-72.25155250"><ele></ele><time>2014-6-25T0:52:6Z</time></trkpt>
<trkpt lat="48.11133510" lon="-72.25153980"><ele></ele><time>2014-6-25T0:52:9Z</time></trkpt>
<trkpt lat="48.11134120" lon="-72.25152680"><ele></ele><time>2014-6-25T0:52:12Z</time></trkpt>
<trkpt lat="48.11134730" lon="-72.25151310"><ele></ele><time>2014-6-25T0:52:15Z</time></trkpt>
<trkpt lat="48.11135340" lon="-72.25150060"><ele></ele><time>2014-6-25T0:52:18Z</time></trkpt>
<trkpt lat="48.11135980" lon="-72.25148720"><ele></ele><time>2014-6-25T0:52:21Z</time></trkpt>
<trkpt lat="48.11137280" lon="-72.25146150"><ele></ele><time>2014-6-25T0:52:24Z</time></trkpt>
<trkpt lat="48.11139060" lon="-72.25142450"><ele></ele><time>2014-6-25T0:52:27Z</time></trkpt>
<trkpt lat="48.11139610" lon="-72.25141290"><ele></ele><time>2014-6-25T0:52:30Z</time></trkpt>
<trkpt lat="48.11140200" lon="-72.25140120"><ele></ele><time>2014-6-25T0:52:33Z</time></trkpt>
<trkpt lat="48.11140810" lon="-72.25138990"><ele></ele><time>2014-6-25T0:52:36Z</time></trkpt>
<trkpt lat="48.11141410" lon="-72.25137930"><ele></ele><time>2014-6-25T0:52:39Z</time></trkpt>
<trkpt lat="48.11141940" lon="-72.25136850"><ele></ele><time>2014-6-25T0:52:42Z</time></trkpt>
<trkpt lat="48.11142440" lon="-72.25135820"><ele></ele><time>2014-6-25T0:52:45Z</time></trkpt>
<trkpt lat="48.11142950" lon="-72.25134780"><ele></ele><time>2014-6-25T0:52:48Z</time></trkpt>
<trkpt lat="48.11144630" lon="-72.25131330"><ele></ele><time>2014-6-25T0:52:51Z</time></trkpt>
<trkpt lat="48.11146290" lon="-72.25127940"><ele></ele><time>2014-6-25T0:52:54Z</time></trkpt>
<trkpt lat="48.11146860" lon="-72.25126810"><ele></ele><time>2014-6-25T0:52:57Z</time></trkpt>
<trkpt lat="48.11147470" lon="-72.25125740"><ele></ele><time>2014-6-25T0:53:0Z</time></trkpt>
<trkpt lat="48.11148140" lon="-72.25124680"><ele></ele><time>2014-6-25T0:53:3Z</time></trkpt>
<trkpt lat="48.11148840" lon="-72.25123540"><ele></ele><time>2014-6-25T0:53:6Z</time></trkpt>
<trkpt lat="48.11149550" lon="-72.25122450"><ele></ele><time>2014-6-25T0:53:9Z</time></trkpt>
<trkpt lat="48.11150220" lon="-72.25121260"><ele></ele><time>2014-6-25T0:53:12Z</time></trkpt>
<trkpt lat="48.11152250" lon="-72.25117690"><ele></ele><time>2014-6-25T0:53:15Z</time></trkpt>
<trkpt lat="48.11152960" lon="-72.25116470"><ele></ele><time>2014-6-25T0:53:18Z</time></trkpt>
<trkpt lat="48.11154280" lon="-72.25114160"><ele></ele><time>2014-6-25T0:53:21Z</time></trkpt>
<trkpt lat="48.11154970" lon="-72.25112950"><ele></ele><time>2014-6-25T0:53:24Z</time></trkpt>
<trkpt lat="48.11155640" lon="-72.25111800"><ele></ele><time>2014-6-25T0:53:27Z</time></trkpt>
<trkpt lat="48.11156260" lon="-72.25110710"><ele></ele><time>2014-6-25T0:53:30Z</time></trkpt>
<trkpt lat="48.11157140" lon="-72.25109130"><ele></ele><time>2014-6-25T0:53:33Z</time></trkpt>
<trkpt lat="48.11157760" lon="-72.25108030"><ele></ele><time>2014-6-25T0:53:36Z</time></trkpt>
<trkpt lat="48.11158410" lon="-72.25106800"><ele></ele><time>2014-6-25T0:53:39Z</time></trkpt>
<trkpt lat="48.11160520" lon="-72.25102850"><ele></ele><time>2014-6-25T0:53:42Z</time></trkpt>
<trkpt lat="48.11162500" lon="-72.25099270"><ele></ele><time>2014-6-25T0:53:45Z</time></trkpt>
<trkpt lat="48.11163060" lon="-72.25098130"><ele></ele><time>2014-6-25T0:53:48Z</time></trkpt>
<trkpt lat="48.11163640" lon="-72.25097020"><ele></ele><time>2014-6-25T0:53:51Z</time></trkpt>
<trkpt lat="48.11164240" lon="-72.25095950"><ele></ele><time>2014-6-25T0:53:54Z</time></trkpt>
<trkpt lat="48.11164820" lon="-72.25094930"><ele></ele><time>2014-6-25T0:53:57Z</time></trkpt>
<trkpt lat="48.11165430" lon="-72.25093810"><ele></ele><time>2014-6-25T0:54:0Z</time></trkpt>
<trkpt lat="48.11166030" lon="-72.25092690"><ele></ele><time>2014-6-25T0:54:3Z</time></trkpt>
<trkpt lat="48.11167740" lon="-72.25089260"><ele></ele><time>2014-6-25T0:54:6Z</time></trkpt>
<trkpt lat="48.11168280" lon="-72.25088050"><ele></ele><time>2014-6-25T0:54:9Z</time></trkpt>
<trkpt lat="48.11169250" lon="-72.25085490"><ele></ele><time>2014-6-25T0:54:12Z</time></trkpt>
<trkpt lat="48.11169740" lon="-72.25084260"><ele></ele><time>2014-6-25T0:54:15Z</time></trkpt>
<trkpt lat="48.11170170" lon="-72.25083100"><ele></ele><time>2014-6-25T0:54:18Z</time></trkpt>
<trkpt lat="48.11170570" lon="-72.25081980"><ele></ele><time>2014-6-25T0:54:21Z</time></trkpt>
<trkpt lat="48.11171030" lon="-72.25080880"><ele></ele><time>2014-6-25T0:54:24Z</time></trkpt>
<trkpt lat="48.11171500" lon="-72.25079760"><ele></ele><time>2014-6-25T0:54:27Z</time></trkpt>
<trkpt lat="48.11172070" lon="-72.25078660"><ele></ele><time>2014-6-25T0:54:30Z</time></trkpt>
<trkpt lat="48.11173730" lon="-72.25075170"><ele></ele><time>2014-6-25T0:54:33Z</time></trkpt>
<trkpt lat="48.11174800" lon="-72.25072670"><ele></ele><time>2014-6-25T0:54:36Z</time></trkpt>
<trkpt lat="48.11175300" lon="-72.25071380"><ele></ele><time>2014-6-25T0:54:39Z</time></trkpt>
<trkpt lat="48.11175830" lon="-72.25070090"><ele></ele><time>2014-6-25T0:54:42Z</time></trkpt>
<trkpt lat="48.11176410" lon="-72.25068720"><ele></ele><time>2014-6-25T0:54:45Z</time></trkpt>
<trkpt lat="48.11177000" lon="-72.25067420"><ele></ele><time>2014-6-25T0:54:48Z</time></trkpt>
<trkpt lat="48.11177610" lon="-72.25066190"><ele></ele><time>2014-6-25T0:54:51Z</time></trkpt>
<trkpt lat="48.11178220" lon="-72.25064960"><ele></ele><time>2014-6-25T0:54:54Z</time></trkpt>
<trkpt lat="48.11178830" lon="-72.25063750"><ele></ele><time>2014-6-25T0:54:57Z</time></trkpt>
<trkpt lat="48.11180760" lon="-72.25060110"><ele></ele><time>2014-6-25T0:55:0Z</time></trkpt>
<trkpt lat="48.11182720" lon="-72.25056460"><ele></ele><time>2014-6-25T0:55:3Z</time></trkpt>
<trkpt lat="48.11183410" lon="-72.25055240"><ele></ele><time>2014-6-25T0:55:6Z</time></trkpt>
<trkpt lat="48.11184100" lon="-72.25054050"><ele></ele><time>2014-6-25T0:55:9Z</time></trkpt>
<trkpt lat="48.11184800" lon="-72.25052880"><ele></ele><time>2014-6-25T0:55:12Z</time></trkpt>
<trkpt lat="48.11185510" lon="-72.25051700"><ele></ele><time>2014-6-25T0:55:15Z</time></trkpt>
<trkpt lat="48.11186190" lon="-72.25050490"><ele></ele><time>2014-6-25T0:55:18Z</time></trkpt>
<trkpt lat="48.11186860" lon="-72.25049240"><ele></ele><time>2014-6-25T0:55:21Z</time></trkpt>
<trkpt lat="48.11188820" lon="-72.25045490"><ele></ele><time>2014-6-25T0:55:24Z</time></trkpt>
<trkpt lat="48.11190740" lon="-72.25041510"><ele></ele><time>2014-6-25T0:55:27Z</time></trkpt>
<trkpt lat="48.11191430" lon="-72.25040170"><ele></ele><time>2014-6-25T0:55:30Z</time></trkpt>
<trkpt lat="48.11192140" lon="-72.25038810"><ele></ele><time>2014-6-25T0:55:33Z</time></trkpt>
<trkpt lat="48.11192850" lon="-72.25037480"><ele></ele><time>2014-6-25T0:55:36Z</time></trkpt>
<trkpt lat="48.11193630" lon="-72.25036090"><ele></ele><time>2014-6-25T0:55:39Z</time></trkpt>
<trkpt lat="48.11194380" lon="-72.25034730"><ele></ele><time>2014-6-25T0:55:42Z</time></trkpt>
<trkpt lat="48.11195150" lon="-72.25033330"><ele></ele><time>2014-6-25T0:55:45Z</time></trkpt>
<trkpt lat="48.11195910" lon="-72.25031990"><ele></ele><time>2014-6-25T0:55:48Z</time></trkpt>
<trkpt lat="48.11198210" lon="-72.25027910"><ele></ele><time>2014-6-25T0:55:51Z</time></trkpt>
<trkpt lat="48.11200370" lon="-72.25024270"><ele></ele><time>2014-6-25T0:55:54Z</time></trkpt>
<trkpt lat="48.11201090" lon="-72.25023120"><ele></ele><time>2014-6-25T0:55:57Z</time></trkpt>
<trkpt lat="48.11201820" lon="-72.25021930"><ele></ele><time>2014-6-25T0:56:0Z</time></trkpt>
<trkpt lat="48.11202530" lon="-72.25020710"><ele></ele><time>2014-6-25T0:56:3Z</time></trkpt>
<trkpt lat="48.11203250" lon="-72.25019520"><ele></ele><time>2014-6-25T0:56:6Z</time></trkpt>
<trkpt lat="48.11204000" lon="-72.25018340"><ele></ele><time>2014-6-25T0:56:9Z</time></trkpt>
<trkpt lat="48.11206030" lon="-72.25014700"><ele></ele><time>2014-6-25T0:56:12Z</time></trkpt>
<trkpt lat="48.11206660" lon="-72.25013460"><ele></ele><time>2014-6-25T0:56:15Z</time></trkpt>
<trkpt lat="48.11207920" lon="-72.25011030"><ele></ele><time>2014-6-25T0:56:18Z</time></trkpt>
<trkpt lat="48.11208570" lon="-72.25009870"><ele></ele><time>2014-6-25T0:56:21Z</time></trkpt>
<trkpt lat="48.11209120" lon="-72.25008660"><ele></ele><time>2014-6-25T0:56:24Z</time></trkpt>
<trkpt lat="48.11209710" lon="-72.25007430"><ele></ele><time>2014-6-25T0:56:27Z</time></trkpt>
<trkpt lat="48.11210290" lon="-72.25006240"><ele></ele><time>2014-6-25T0:56:30Z</time></trkpt>
<trkpt lat="48.11210920" lon="-72.25005030"><ele></ele><time>2014-6-25T0:56:33Z</time></trkpt>
<trkpt lat="48.11211530" lon="-72.25003810"><ele></ele><time>2014-6-25T0:56:36Z</time></trkpt>
<trkpt lat="48.11212160" lon="-72.25002610"><ele></ele><time>2014-6-25T0:56:39Z</time></trkpt>
<trkpt lat="48.11212780" lon="-72.25001440"><ele></ele><time>2014-6-25T0:56:42Z</time></trkpt>
<trkpt lat="48.11213420" lon="-72.25000250"><ele></ele><time>2014-6-25T0:56:45Z</time></trkpt>
<trkpt lat="48.11215040" lon="-72.24997820"><ele></ele><time>2014-6-25T0:56:48Z</time></trkpt>
<trkpt lat="48.11215830" lon="-72.24996570"><ele></ele><time>2014-6-25T0:56:51Z</time></trkpt>
<trkpt lat="48.11216640" lon="-72.24995290"><ele></ele><time>2014-6-25T0:56:54Z</time></trkpt>
<trkpt lat="48.11217470" lon="-72.24994070"><ele></ele><time>2014-6-25T0:56:57Z</time></trkpt>
<trkpt lat="48.11218270" lon="-72.24992840"><ele></ele><time>2014-6-25T0:57:0Z</time></trkpt>
<trkpt lat="48.11219030" lon="-72.24991630"><ele></ele><time>2014-6-25T0:57:3Z</time></trkpt>
<trkpt lat="48.11219760" lon="-72.24990420"><ele></ele><time>2014-6-25T0:57:6Z</time></trkpt>
<trkpt lat="48.11220440" lon="-72.24989190"><ele></ele><time>2014-6-25T0:57:9Z</time></trkpt>
<trkpt lat="48.11221060" lon="-72.24987960"><ele></ele><time>2014-6-25T0:57:12Z</time></trkpt>
<trkpt lat="48.11221740" lon="-72.24986690"><ele></ele><time>2014-6-25T0:57:15Z</time></trkpt>
<trkpt lat="48.11223840" lon="-72.24983020"><ele></ele><time>2014-6-25T0:57:18Z</time></trkpt>
<trkpt lat="48.11225890" lon="-72.24979080"><ele></ele><time>2014-6-25T0:57:21Z</time></trkpt>
<trkpt lat="48.11226580" lon="-72.24977670"><ele></ele><time>2014-6-25T0:57:24Z</time></trkpt>
<trkpt lat="48.11227270" lon="-72.24976310"><ele></ele><time>2014-6-25T0:57:27Z</time></trkpt>
<trkpt lat="48.11227950" lon="-72.24974980"><ele></ele><time>2014-6-25T0:57:30Z</time></trkpt>
<trkpt lat="48.11228670" lon="-72.24973620"><ele></ele><time>2014-6-25T0:57:33Z</time></trkpt>
<trkpt lat="48.11229410" lon="-72.24972300"><ele></ele><time>2014-6-25T0:57:36Z</time></trkpt>
<trkpt lat="48.11230170" lon="-72.24971010"><ele></ele><time>2014-6-25T0:57:39Z</time></trkpt>
<trkpt lat="48.11231550" lon="-72.24968410"><ele></ele><time>2014-6-25T0:57:42Z</time></trkpt>
<trkpt lat="48.11232250" lon="-72.24967110"><ele></ele><time>2014-6-25T0:57:45Z</time></trkpt>
<trkpt lat="48.11234270" lon="-72.24963360"><ele></ele><time>2014-6-25T0:57:48Z</time></trkpt>
<trkpt lat="48.11234970" lon="-72.24962110"><ele></ele><time>2014-6-25T0:57:51Z</time></trkpt>
<trkpt lat="48.11235620" lon="-72.24960900"><ele></ele><time>2014-6-25T0:57:54Z</time></trkpt>
<trkpt lat="48.11236250" lon="-72.24959690"><ele></ele><time>2014-6-25T0:57:57Z</time></trkpt>
<trkpt lat="48.11236930" lon="-72.24958510"><ele></ele><time>2014-6-25T0:58:0Z</time></trkpt>
<trkpt lat="48.11237620" lon="-72.24957270"><ele></ele><time>2014-6-25T0:58:3Z</time></trkpt>
<trkpt lat="48.11238320" lon="-72.24956030"><ele></ele><time>2014-6-25T0:58:6Z</time></trkpt>
<trkpt lat="48.11240300" lon="-72.24952600"><ele></ele><time>2014-6-25T0:58:9Z</time></trkpt>
<trkpt lat="48.11242340" lon="-72.24948890"><ele></ele><time>2014-6-25T0:58:12Z</time></trkpt>
<trkpt lat="48.11243040" lon="-72.24947610"><ele></ele><time>2014-6-25T0:58:15Z</time></trkpt>
<trkpt lat="48.11243660" lon="-72.24946420"><ele></ele><time>2014-6-25T0:58:18Z</time></trkpt>
<trkpt lat="48.11244240" lon="-72.24945200"><ele></ele><time>2014-6-25T0:58:21Z</time></trkpt>
<trkpt lat="48.11244880" lon="-72.24943920"><ele></ele><time>2014-6-25T0:58:24Z</time></trkpt>
<trkpt lat="48.11245530" lon="-72.24942650"><ele></ele><time>2014-6-25T0:58:27Z</time></trkpt>
<trkpt lat="48.11246130" lon="-72.24941380"><ele></ele><time>2014-6-25T0:58:30Z</time></trkpt>
<trkpt lat="48.11248030" lon="-72.24937720"><ele></ele><time>2014-6-25T0:58:33Z</time></trkpt>
<trkpt lat="48.11250010" lon="-72.24933910"><ele></ele><time>2014-6-25T0:58:36Z</time></trkpt>
<trkpt lat="48.11250680" lon="-72.24932620"><ele></ele><time>2014-6-25T0:58:39Z</time></trkpt>
<trkpt lat="48.11251350" lon="-72.24931300"><ele></ele><time>2014-6-25T0:58:42Z</time></trkpt>
<trkpt lat="48.11252030" lon="-72.24929980"><ele></ele><time>2014-6-25T0:58:45Z</time></trkpt>
<trkpt lat="48.11252730" lon="-72.24928680"><ele></ele><time>2014-6-25T0:58:48Z</time></trkpt>
<trkpt lat="48.11253400" lon="-72.24927390"><ele></ele><time>2014-6-25T0:58:51Z</time></trkpt>
<trkpt lat="48.11254060" lon="-72.24926050"><ele></ele><time>2014-6-25T0:58:54Z</time></trkpt>
<trkpt lat="48.11255540" lon="-72.24923470"><ele></ele><time>2014-6-25T0:58:57Z</time></trkpt>
<trkpt lat="48.11256280" lon="-72.24922190"><ele></ele><time>2014-6-25T0:59:0Z</time></trkpt>
<trkpt lat="48.11258540" lon="-72.24918400"><ele></ele><time>2014-6-25T0:59:3Z</time></trkpt>
<trkpt lat="48.11259250" lon="-72.24917080"><ele></ele><time>2014-6-25T0:59:6Z</time></trkpt>
<trkpt lat="48.11259940" lon="-72.24915810"><ele></ele><time>2014-6-25T0:59:9Z</time></trkpt>
<trkpt lat="48.11260610" lon="-72.24914590"><ele></ele><time>2014-6-25T0:59:12Z</time></trkpt>
<trkpt lat="48.11261240" lon="-72.24913350"><ele></ele><time>2014-6-25T0:59:15Z</time></trkpt>
<trkpt lat="48.11261880" lon="-72.24912140"><ele></ele><time>2014-6-25T0:59:18Z</time></trkpt>
<trkpt lat="48.11262520" lon="-72.24910910"><ele></ele><time>2014-6-25T0:59:21Z</time></trkpt>
<trkpt lat="48.11263710" lon="-72.24908460"><ele></ele><time>2014-6-25T0:59:24Z</time></trkpt>
<trkpt lat="48.11264370" lon="-72.24907210"><ele></ele><time>2014-6-25T0:59:27Z</time></trkpt>
<trkpt lat="48.11266250" lon="-72.24903690"><ele></ele><time>2014-6-25T0:59:30Z</time></trkpt>
<trkpt lat="48.11266980" lon="-72.24902380"><ele></ele><time>2014-6-25T0:59:33Z</time></trkpt>
<trkpt lat="48.11267720" lon="-72.24901070"><ele></ele><time>2014-6-25T0:59:36Z</time></trkpt>
<trkpt lat="48.11268440" lon="-72.24899810"><ele></ele><time>2014-6-25T0:59:39Z</time></trkpt>
<trkpt lat="48.11269210" lon="-72.24898570"><ele></ele><time>2014-6-25T0:59:42Z</time></trkpt>
<trkpt lat="48.11269970" lon="-72.24897270"><ele></ele><time>2014-6-25T0:59:45Z</time></trkpt>
<trkpt lat="48.11270720" lon="-72.24895930"><ele></ele><time>2014-6-25T0:59:48Z</time></trkpt>
<trkpt lat="48.11272160" lon="-72.24893290"><ele></ele><time>2014-6-25T0:59:51Z</time></trkpt>
<trkpt lat="48.11272870" lon="-72.24892030"><ele></ele><time>2014-6-25T0:59:54Z</time></trkpt>
<trkpt lat="48.11274990" lon="-72.24888220"><ele></ele><time>2014-6-25T0:59:57Z</time></trkpt>
<trkpt lat="48.11275700" lon="-72.24886960"><ele></ele><time>2014-6-25T1:0:0Z</time></trkpt>
<trkpt lat="48.11276410" lon="-72.24885740"><ele></ele><time>2014-6-25T1:0:3Z</time></trkpt>
<trkpt lat="48.11277100" lon="-72.24884530"><ele></ele><time>2014-6-25T1:0:6Z</time></trkpt>
<trkpt lat="48.11277810" lon="-72.24883370"><ele></ele><time>2014-6-25T1:0:9Z</time></trkpt>
<trkpt lat="48.11278500" lon="-72.24882160"><ele></ele><time>2014-6-25T1:0:12Z</time></trkpt>
<trkpt lat="48.11279180" lon="-72.24880960"><ele></ele><time>2014-6-25T1:0:15Z</time></trkpt>
<trkpt lat="48.11280530" lon="-72.24878520"><ele></ele><time>2014-6-25T1:0:18Z</time></trkpt>
<trkpt lat="48.11281160" lon="-72.24877320"><ele></ele><time>2014-6-25T1:0:21Z</time></trkpt>
<trkpt lat="48.11283170" lon="-72.24873740"><ele></ele><time>2014-6-25T1:0:24Z</time></trkpt>
<trkpt lat="48.11283870" lon="-72.24872440"><ele></ele><time>2014-6-25T1:0:27Z</time></trkpt>
<trkpt lat="48.11284500" lon="-72.24871190"><ele></ele><time>2014-6-25T1:0:30Z</time></trkpt>
<trkpt lat="48.11285130" lon="-72.24869870"><ele></ele><time>2014-6-25T1:0:33Z</time></trkpt>
<trkpt lat="48.11285730" lon="-72.24868650"><ele></ele><time>2014-6-25T1:0:36Z</time></trkpt>
<trkpt lat="48.11286340" lon="-72.24867470"><ele></ele><time>2014-6-25T1:0:39Z</time></trkpt>
<trkpt lat="48.11286930" lon="-72.24866270"><ele></ele><time>2014-6-25T1:0:42Z</time></trkpt>
<trkpt lat="48.11288940" lon="-72.24862720"><ele></ele><time>2014-6-25T1:0:45Z</time></trkpt>
<trkpt lat="48.11290360" lon="-72.24860420"><ele></ele><time>2014-6-25T1:0:48Z</time></trkpt>
<trkpt lat="48.11291030" lon="-72.24859310"><ele></ele><time>2014-6-25T1:0:51Z</time></trkpt>
<trkpt lat="48.11291720" lon="-72.24858180"><ele></ele><time>2014-6-25T1:0:54Z</time></trkpt>
<trkpt lat="48.11292420" lon="-72.24857100"><ele></ele><time>2014-6-25T1:0:57Z</time></trkpt>
<trkpt lat="48.11293390" lon="-72.24855590"><ele></ele><time>2014-6-25T1:1:0Z</time></trkpt>
<trkpt lat="48.11294120" lon="-72.24854580"><ele></ele><time>2014-6-25T1:1:3Z</time></trkpt>
<trkpt lat="48.11294810" lon="-72.24853490"><ele></ele><time>2014-6-25T1:1:6Z</time></trkpt>
<trkpt lat="48.11295460" lon="-72.24852490"><ele></ele><time>2014-6-25T1:1:9Z</time></trkpt>
<trkpt lat="48.11297630" lon="-72.24849200"><ele></ele><time>2014-6-25T1:1:12Z</time></trkpt>
<trkpt lat="48.11299940" lon="-72.24845720"><ele></ele><time>2014-6-25T1:1:15Z</time></trkpt>
<trkpt lat="48.11300700" lon="-72.24844480"><ele></ele><time>2014-6-25T1:1:18Z</time></trkpt>
<trkpt lat="48.11301460" lon="-72.24843270"><ele></ele><time>2014-6-25T1:1:21Z</time></trkpt>
<trkpt lat="48.11302170" lon="-72.24842040"><ele></ele><time>2014-6-25T1:1:24Z</time></trkpt>
<trkpt lat="48.11302850" lon="-72.24840850"><ele></ele><time>2014-6-25T1:1:27Z</time></trkpt>
<trkpt lat="48.11303550" lon="-72.24839650"><ele></ele><time>2014-6-25T1:1:30Z</time></trkpt>
<trkpt lat="48.11305630" lon="-72.24836180"><ele></ele><time>2014-6-25T1:1:33Z</time></trkpt>
<trkpt lat="48.11307920" lon="-72.24832700"><ele></ele><time>2014-6-25T1:1:36Z</time></trkpt>
<trkpt lat="48.11310040" lon="-72.24829210"><ele></ele><time>2014-6-25T1:1:39Z</time></trkpt>
<trkpt lat="48.11312200" lon="-72.24825760"><ele></ele><time>2014-6-25T1:1:42Z</time></trkpt>
<trkpt lat="48.11312950" lon="-72.24824680"><ele></ele><time>2014-6-25T1:1:45Z</time></trkpt>
<trkpt lat="48.11313730" lon="-72.24823580"><ele></ele><time>2014-6-25T1:1:48Z</time></trkpt>
<trkpt lat="48.11314490" lon="-72.24822480"><ele></ele><time>2014-6-25T1:1:51Z</time></trkpt>
<trkpt lat="48.11315220" lon="-72.24821390"><ele></ele><time>2014-6-25T1:1:54Z</time></trkpt>
<trkpt lat="48.11315860" lon="-72.24820320"><ele></ele><time>2014-6-25T1:1:57Z</time></trkpt>
<trkpt lat="48.11316500" lon="-72.24819230"><ele></ele><time>2014-6-25T1:2:0Z</time></trkpt>
<trkpt lat="48.11318470" lon="-72.24815700"><ele></ele><time>2014-6-25T1:2:3Z</time></trkpt>
<trkpt lat="48.11320330" lon="-72.24812030"><ele></ele><time>2014-6-25T1:2:6Z</time></trkpt>
<trkpt lat="48.11320930" lon="-72.24810840"><ele></ele><time>2014-6-25T1:2:9Z</time></trkpt>
<trkpt lat="48.11321540" lon="-72.24809630"><ele></ele><time>2014-6-25T1:2:12Z</time></trkpt>
<trkpt lat="48.11322140" lon="-72.24808490"><ele></ele><time>2014-6-25T1:2:15Z</time></trkpt>
<trkpt lat="48.11322730" lon="-72.24807360"><ele></ele><time>2014-6-25T1:2:18Z</time></trkpt>
<trkpt lat="48.11323300" lon="-72.24806160"><ele></ele><time>2014-6-25T1:2:21Z</time></trkpt>
<trkpt lat="48.11323860" lon="-72.24804950"><ele></ele><time>2014-6-25T1:2:24Z</time></trkpt>
<trkpt lat="48.11325040" lon="-72.24802540"><ele></ele><time>2014-6-25T1:2:27Z</time></trkpt>
<trkpt lat="48.11325600" lon="-72.24801340"><ele></ele><time>2014-6-25T1:2:30Z</time></trkpt>
<trkpt lat="48.11327380" lon="-72.24797590"><ele></ele><time>2014-6-25T1:2:33Z</time></trkpt>
<trkpt lat="48.11327990" lon="-72.24796320"><ele></ele><time>2014-6-25T1:2:36Z</time></trkpt>
<trkpt lat="48.11328560" lon="-72.24795160"><ele></ele><time>2014-6-25T1:2:39Z</time></trkpt>
<trkpt lat="48.11329160" lon="-72.24793980"><ele></ele><time>2014-6-25T1:2:42Z</time></trkpt>
<trkpt lat="48.11329770" lon="-72.24792790"><ele></ele><time>2014-6-25T1:2:45Z</time></trkpt>
<trkpt lat="48.11330410" lon="-72.24791650"><ele></ele><time>2014-6-25T1:2:48Z</time></trkpt>
<trkpt lat="48.11331040" lon="-72.24790490"><ele></ele><time>2014-6-25T1:2:51Z</time></trkpt>
<trkpt lat="48.11331650" lon="-72.24789310"><ele></ele><time>2014-6-25T1:2:54Z</time></trkpt>
<trkpt lat="48.11332230" lon="-72.24788080"><ele></ele><time>2014-6-25T1:2:57Z</time></trkpt>
<trkpt lat="48.11334130" lon="-72.24783970"><ele></ele><time>2014-6-25T1:3:0Z</time></trkpt>
<trkpt lat="48.11334790" lon="-72.24782670"><ele></ele><time>2014-6-25T1:3:3Z</time></trkpt>
<trkpt lat="48.11335470" lon="-72.24781350"><ele></ele><time>2014-6-25T1:3:6Z</time></trkpt>
<trkpt lat="48.11337600" lon="-72.24777370"><ele></ele><time>2014-6-25T1:3:9Z</time></trkpt>
<trkpt lat="48.11338280" lon="-72.24776030"><ele></ele><time>2014-6-25T1:3:12Z</time></trkpt>
<trkpt lat="48.11338950" lon="-72.24774660"><ele></ele><time>2014-6-25T1:3:15Z</time></trkpt>
<trkpt lat="48.11339620" lon="-72.24773340"><ele></ele><time>2014-6-25T1:3:18Z</time></trkpt>
<trkpt lat="48.11340270" lon="-72.24772000"><ele></ele><time>2014-6-25T1:3:21Z</time></trkpt>
<trkpt lat="48.11340910" lon="-72.24770660"><ele></ele><time>2014-6-25T1:3:24Z</time></trkpt>
<trkpt lat="48.11341570" lon="-72.24769270"><ele></ele><time>2014-6-25T1:3:27Z</time></trkpt>
<trkpt lat="48.11343470" lon="-72.24765060"><ele></ele><time>2014-6-25T1:3:30Z</time></trkpt>
<trkpt lat="48.11345380" lon="-72.24760880"><ele></ele><time>2014-6-25T1:3:33Z</time></trkpt>
<trkpt lat="48.11345980" lon="-72.24759490"><ele></ele><time>2014-6-25T1:3:36Z</time></trkpt>
<trkpt lat="48.11346600" lon="-72.24758190"><ele></ele><time>2014-6-25T1:3:39Z</time></trkpt>
<trkpt lat="48.11347260" lon="-72.24756860"><ele></ele><time>2014-6-25T1:3:42Z</time></trkpt>
<trkpt lat="48.11347860" lon="-72.24755580"><ele></ele><time>2014-6-25T1:3:45Z</time></trkpt>
<trkpt lat="48.11348470" lon="-72.24754340"><ele></ele><time>2014-6-25T1:3:48Z</time></trkpt>
<trkpt lat="48.11349120" lon="-72.24753090"><ele></ele><time>2014-6-25T1:3:51Z</time></trkpt>
<trkpt lat="48.11351040" lon="-72.24749590"><ele></ele><time>2014-6-25T1:3:54Z</time></trkpt>
<trkpt lat="48.11352770" lon="-72.24746120"><ele></ele><time>2014-6-25T1:3:57Z</time></trkpt>
<trkpt lat="48.11353330" lon="-72.24745020"><ele></ele><time>2014-6-25T1:4:0Z</time></trkpt>
<trkpt lat="48.11353830" lon="-72.24744040"><ele></ele><time>2014-6-25T1:4:3Z</time></trkpt>
<trkpt lat="48.11354310" lon="-72.24743030"><ele></ele><time>2014-6-25T1:4:6Z</time></trkpt>
<trkpt lat="48.11354800" lon="-72.24742020"><ele></ele><time>2014-6-25T1:4:9Z</time></trkpt>
<trkpt lat="48.11355310" lon="-72.24740970"><ele></ele><time>2014-6-25T1:4:12Z</time></trkpt>
<trkpt lat="48.11355810" lon="-72.24739940"><ele></ele><time>2014-6-25T1:4:15Z</time></trkpt>
<trkpt lat="48.11357340" lon="-72.24736410"><ele></ele><time>2014-6-25T1:4:18Z</time></trkpt>
<trkpt lat="48.11358810" lon="-72.24732680"><ele></ele><time>2014-6-25T1:4:21Z</time></trkpt>
<trkpt lat="48.11359310" lon="-72.24731320"><ele></ele><time>2014-6-25T1:4:24Z</time></trkpt>
<trkpt lat="48.11359780" lon="-72.24729950"><ele></ele><time>2014-6-25T1:4:27Z</time></trkpt>
<trkpt lat="48.11360180" lon="-72.24728560"><ele></ele><time>2014-6-25T1:4:30Z</time></trkpt>
<trkpt lat="48.11360570" lon="-72.24727120"><ele></ele><time>2014-6-25T1:4:33Z</time></trkpt>
<trkpt lat="48.11360960" lon="-72.24725760"><ele></ele><time>2014-6-25T1:4:36Z</time></trkpt>
<trkpt lat="48.11361370" lon="-72.24724420"><ele></ele><time>2014-6-25T1:4:39Z</time></trkpt>
<trkpt lat="48.11362690" lon="-72.24720540"><ele></ele><time>2014-6-25T1:4:42Z</time></trkpt>
<trkpt lat="48.11364130" lon="-72.24716750"><ele></ele><time>2014-6-25T1:4:45Z</time></trkpt>
<trkpt lat="48.11364630" lon="-72.24715500"><ele></ele><time>2014-6-25T1:4:48Z</time></trkpt>
<trkpt lat="48.11365090" lon="-72.24714230"><ele></ele><time>2014-6-25T1:4:51Z</time></trkpt>
<trkpt lat="48.11365560" lon="-72.24712930"><ele></ele><time>2014-6-25T1:4:54Z</time></trkpt>
<trkpt lat="48.11366050" lon="-72.24711630"><ele></ele><time>2014-6-25T1:4:57Z</time></trkpt>
<trkpt lat="48.11366460" lon="-72.24710440"><ele></ele><time>2014-6-25T1:5:0Z</time></trkpt>
<trkpt lat="48.11366890" lon="-72.24709160"><ele></ele><time>2014-6-25T1:5:3Z</time></trkpt>
<trkpt lat="48.11368110" lon="-72.24705440"><ele></ele><time>2014-6-25T1:5:6Z</time></trkpt>
<trkpt lat="48.11369630" lon="-72.24701510"><ele></ele><time>2014-6-25T1:5:9Z</time></trkpt>
<trkpt lat="48.11370200" lon="-72.24700150"><ele></ele><time>2014-6-25T1:5:12Z</time></trkpt>
<trkpt lat="48.11370820" lon="-72.24698820"><ele></ele><time>2014-6-25T1:5:15Z</time></trkpt>
<trkpt lat="48.11371440" lon="-72.24697480"><ele></ele><time>2014-6-25T1:5:18Z</time></trkpt>
<trkpt lat="48.11372000" lon="-72.24696120"><ele></ele><time>2014-6-25T1:5:21Z</time></trkpt>
<trkpt lat="48.11372540" lon="-72.24694830"><ele></ele><time>2014-6-25T1:5:24Z</time></trkpt>
<trkpt lat="48.11373050" lon="-72.24693540"><ele></ele><time>2014-6-25T1:5:27Z</time></trkpt>
<trkpt lat="48.11374110" lon="-72.24689770"><ele></ele><time>2014-6-25T1:5:30Z</time></trkpt>
<trkpt lat="48.11374440" lon="-72.24688480"><ele></ele><time>2014-6-25T1:5:33Z</time></trkpt>
<trkpt lat="48.11375260" lon="-72.24685930"><ele></ele><time>2014-6-25T1:5:36Z</time></trkpt>
<trkpt lat="48.11375710" lon="-72.24684620"><ele></ele><time>2014-6-25T1:5:39Z</time></trkpt>
<trkpt lat="48.11376140" lon="-72.24683300"><ele></ele><time>2014-6-25T1:5:42Z</time></trkpt>
<trkpt lat="48.11376600" lon="-72.24682020"><ele></ele><time>2014-6-25T1:5:45Z</time></trkpt>
<trkpt lat="48.11377060" lon="-72.24680690"><ele></ele><time>2014-6-25T1:5:48Z</time></trkpt>
<trkpt lat="48.11377530" lon="-72.24679330"><ele></ele><time>2014-6-25T1:5:51Z</time></trkpt>
<trkpt lat="48.11378020" lon="-72.24678030"><ele></ele><time>2014-6-25T1:5:54Z</time></trkpt>
<trkpt lat="48.11379550" lon="-72.24673980"><ele></ele><time>2014-6-25T1:5:57Z</time></trkpt>
<trkpt lat="48.11380900" lon="-72.24669930"><ele></ele><time>2014-6-25T1:6:0Z</time></trkpt>
<trkpt lat="48.11382120" lon="-72.24666090"><ele></ele><time>2014-6-25T1:6:3Z</time></trkpt>
<trkpt lat="48.11383260" lon="-72.24662560"><ele></ele><time>2014-6-25T1:6:6Z</time></trkpt>
<trkpt lat="48.11383650" lon="-72.24661330"><ele></ele><time>2014-6-25T1:6:9Z</time></trkpt>
<trkpt lat="48.11384090" lon="-72.24660190"><ele></ele><time>2014-6-25T1:6:12Z</time></trkpt>
<trkpt lat="48.11384530" lon="-72.24659110"><ele></ele><time>2014-6-25T1:6:15Z</time></trkpt>
<trkpt lat="48.11384960" lon="-72.24657970"><ele></ele><time>2014-6-25T1:6:18Z</time></trkpt>
<trkpt lat="48.11385410" lon="-72.24656840"><ele></ele><time>2014-6-25T1:6:21Z</time></trkpt>
<trkpt lat="48.11385870" lon="-72.24655670"><ele></ele><time>2014-6-25T1:6:24Z</time></trkpt>
<trkpt lat="48.11387360" lon="-72.24651790"><ele></ele><time>2014-6-25T1:6:27Z</time></trkpt>
<trkpt lat="48.11389010" lon="-72.24647810"><ele></ele><time>2014-6-25T1:6:30Z</time></trkpt>
<trkpt lat="48.11389510" lon="-72.24646510"><ele></ele><time>2014-6-25T1:6:33Z</time></trkpt>
<trkpt lat="48.11389960" lon="-72.24645230"><ele></ele><time>2014-6-25T1:6:36Z</time></trkpt>
<trkpt lat="48.11390360" lon="-72.24643850"><ele></ele><time>2014-6-25T1:6:39Z</time></trkpt>
<trkpt lat="48.11390670" lon="-72.24642430"><ele></ele><time>2014-6-25T1:6:42Z</time></trkpt>
<trkpt lat="48.11391000" lon="-72.24641060"><ele></ele><time>2014-6-25T1:6:45Z</time></trkpt>
<trkpt lat="48.11391350" lon="-72.24639770"><ele></ele><time>2014-6-25T1:6:48Z</time></trkpt>
<trkpt lat="48.11391700" lon="-72.24638370"><ele></ele><time>2014-6-25T1:6:51Z</time></trkpt>
<trkpt lat="48.11392370" lon="-72.24635760"><ele></ele><time>2014-6-25T1:6:54Z</time></trkpt>
<trkpt lat="48.11392730" lon="-72.24634390"><ele></ele><time>2014-6-25T1:6:57Z</time></trkpt>
<trkpt lat="48.11393780" lon="-72.24630510"><ele></ele><time>2014-6-25T1:7:0Z</time></trkpt>
<trkpt lat="48.11394140" lon="-72.24629220"><ele></ele><time>2014-6-25T1:7:3Z</time></trkpt>
<trkpt lat="48.11394510" lon="-72.24627940"><ele></ele><time>2014-6-25T1:7:6Z</time></trkpt>
<trkpt lat="48.11394920" lon="-72.24626590"><ele></ele><time>2014-6-25T1:7:9Z</time></trkpt>
<trkpt lat="48.11395330" lon="-72.24625360"><ele></ele><time>2014-6-25T1:7:12Z</time></trkpt>
<trkpt lat="48.11395720" lon="-72.24624180"><ele></ele><time>2014-6-25T1:7:15Z</time></trkpt>
<trkpt lat="48.11396090" lon="-72.24622900"><ele></ele><time>2014-6-25T1:7:18Z</time></trkpt>
<trkpt lat="48.11397120" lon="-72.24619180"><ele></ele><time>2014-6-25T1:7:21Z</time></trkpt>
<trkpt lat="48.11397410" lon="-72.24617920"><ele></ele><time>2014-6-25T1:7:24Z</time></trkpt>
<trkpt lat="48.11397770" lon="-72.24615230"><ele></ele><time>2014-6-25T1:7:27Z</time></trkpt>
<trkpt lat="48.11397850" lon="-72.24613860"><ele></ele><time>2014-6-25T1:7:30Z</time></trkpt>
<trkpt lat="48.11397850" lon="-72.24612450"><ele></ele><time>2014-6-25T1:7:33Z</time></trkpt>
<trkpt lat="48.11397850" lon="-72.24610970"><ele></ele><time>2014-6-25T1:7:36Z</time></trkpt>
<trkpt lat="48.11397730" lon="-72.24609530"><ele></ele><time>2014-6-25T1:7:39Z</time></trkpt>
<trkpt lat="48.11397580" lon="-72.24608010"><ele></ele><time>2014-6-25T1:7:42Z</time></trkpt>
<trkpt lat="48.11397410" lon="-72.24606370"><ele></ele><time>2014-6-25T1:7:45Z</time></trkpt>
<trkpt lat="48.11397260" lon="-72.24604840"><ele></ele><time>2014-6-25T1:7:48Z</time></trkpt>
<trkpt lat="48.11396700" lon="-72.24599980"><ele></ele><time>2014-6-25T1:7:51Z</time></trkpt>
<trkpt lat="48.11396470" lon="-72.24598290"><ele></ele><time>2014-6-25T1:7:54Z</time></trkpt>
<trkpt lat="48.11396190" lon="-72.24596470"><ele></ele><time>2014-6-25T1:7:57Z</time></trkpt>
<trkpt lat="48.11395640" lon="-72.24593080"><ele></ele><time>2014-6-25T1:8:0Z</time></trkpt>
<trkpt lat="48.11395270" lon="-72.24590660"><ele></ele><time>2014-6-25T1:8:3Z</time></trkpt>
<trkpt lat="48.11394960" lon="-72.24588960"><ele></ele><time>2014-6-25T1:8:6Z</time></trkpt>
<trkpt lat="48.11394620" lon="-72.24587210"><ele></ele><time>2014-6-25T1:8:9Z</time></trkpt>
<trkpt lat="48.11394290" lon="-72.24585410"><ele></ele><time>2014-6-25T1:8:12Z</time></trkpt>
<trkpt lat="48.11393920" lon="-72.24583600"><ele></ele><time>2014-6-25T1:8:15Z</time></trkpt>
<trkpt lat="48.11393550" lon="-72.24581830"><ele></ele><time>2014-6-25T1:8:18Z</time></trkpt>
<trkpt lat="48.11393170" lon="-72.24580160"><ele></ele><time>2014-6-25T1:8:21Z</time></trkpt>
<trkpt lat="48.11392440" lon="-72.24576940"><ele></ele><time>2014-6-25T1:8:24Z</time></trkpt>
<trkpt lat="48.11392120" lon="-72.24575290"><ele></ele><time>2014-6-25T1:8:27Z</time></trkpt>
<trkpt lat="48.11391150" lon="-72.24570270"><ele></ele><time>2014-6-25T1:8:30Z</time></trkpt>
<trkpt lat="48.11390840" lon="-72.24568610"><ele></ele><time>2014-6-25T1:8:33Z</time></trkpt>
<trkpt lat="48.11390580" lon="-72.24567070"><ele></ele><time>2014-6-25T1:8:36Z</time></trkpt>
<trkpt lat="48.11390290" lon="-72.24565640"><ele></ele><time>2014-6-25T1:8:39Z</time></trkpt>
<trkpt lat="48.11389970" lon="-72.24564170"><ele></ele><time>2014-6-25T1:8:42Z</time></trkpt>
<trkpt lat="48.11389630" lon="-72.24562670"><ele></ele><time>2014-6-25T1:8:45Z</time></trkpt>
<trkpt lat="48.11389330" lon="-72.24561140"><ele></ele><time>2014-6-25T1:8:48Z</time></trkpt>
<trkpt lat="48.11388470" lon="-72.24556240"><ele></ele><time>2014-6-25T1:8:51Z</time></trkpt>
<trkpt lat="48.11388200" lon="-72.24554540"><ele></ele><time>2014-6-25T1:8:54Z</time></trkpt>
<trkpt lat="48.11387760" lon="-72.24551160"><ele></ele><time>2014-6-25T1:8:57Z</time></trkpt>
<trkpt lat="48.11387560" lon="-72.24549360"><ele></ele><time>2014-6-25T1:9:0Z</time></trkpt>
<trkpt lat="48.11387320" lon="-72.24547610"><ele></ele><time>2014-6-25T1:9:3Z</time></trkpt>
<trkpt lat="48.11387130" lon="-72.24545870"><ele></ele><time>2014-6-25T1:9:6Z</time></trkpt>
<trkpt lat="48.11386940" lon="-72.24544100"><ele></ele><time>2014-6-25T1:9:9Z</time></trkpt>
<trkpt lat="48.11386780" lon="-72.24542390"><ele></ele><time>2014-6-25T1:9:12Z</time></trkpt>
<trkpt lat="48.11386620" lon="-72.24540670"><ele></ele><time>2014-6-25T1:9:15Z</time></trkpt>
<trkpt lat="48.11386470" lon="-72.24538870"><ele></ele><time>2014-6-25T1:9:18Z</time></trkpt>
<trkpt lat="48.11386320" lon="-72.24537170"><ele></ele><time>2014-6-25T1:9:21Z</time></trkpt>
<trkpt lat="48.11386090" lon="-72.24533620"><ele></ele><time>2014-6-25T1:9:24Z</time></trkpt>
<trkpt lat="48.11385920" lon="-72.24528460"><ele></ele><time>2014-6-25T1:9:27Z</time></trkpt>
<trkpt lat="48.11385940" lon="-72.24526790"><ele></ele><time>2014-6-25T1:9:30Z</time></trkpt>
<trkpt lat="48.11386000" lon="-72.24525120"><ele></ele><time>2014-6-25T1:9:33Z</time></trkpt>
<trkpt lat="48.11386080" lon="-72.24523410"><ele></ele><time>2014-6-25T1:9:36Z</time></trkpt>
<trkpt lat="48.11386180" lon="-72.24521760"><ele></ele><time>2014-6-25T1:9:39Z</time></trkpt>
<trkpt lat="48.11386360" lon="-72.24520020"><ele></ele><time>2014-6-25T1:9:42Z</time></trkpt>
<trkpt lat="48.11386600" lon="-72.24518200"><ele></ele><time>2014-6-25T1:9:45Z</time></trkpt>
<trkpt lat="48.11387440" lon="-72.24512750"><ele></ele><time>2014-6-25T1:9:48Z</time></trkpt>
<trkpt lat="48.11388530" lon="-72.24507310"><ele></ele><time>2014-6-25T1:9:51Z</time></trkpt>
<trkpt lat="48.11388880" lon="-72.24505540"><ele></ele><time>2014-6-25T1:9:54Z</time></trkpt>
<trkpt lat="48.11389220" lon="-72.24503760"><ele></ele><time>2014-6-25T1:9:57Z</time></trkpt>
<trkpt lat="48.11389590" lon="-72.24501920"><ele></ele><time>2014-6-25T1:10:0Z</time></trkpt>
<trkpt lat="48.11389990" lon="-72.24500160"><ele></ele><time>2014-6-25T1:10:3Z</time></trkpt>
<trkpt lat="48.11390400" lon="-72.24498370"><ele></ele><time>2014-6-25T1:10:6Z</time></trkpt>
<trkpt lat="48.11390790" lon="-72.24496570"><ele></ele><time>2014-6-25T1:10:9Z</time></trkpt>
<trkpt lat="48.11391180" lon="-72.24494800"><ele></ele><time>2014-6-25T1:10:12Z</time></trkpt>
<trkpt lat="48.11391990" lon="-72.24491150"><ele></ele><time>2014-6-25T1:10:15Z</time></trkpt>
<trkpt lat="48.11392460" lon="-72.24489210"><ele></ele><time>2014-6-25T1:10:18Z</time></trkpt>
<trkpt lat="48.11393890" lon="-72.24483370"><ele></ele><time>2014-6-25T1:10:21Z</time></trkpt>
<trkpt lat="48.11394340" lon="-72.24481460"><ele></ele><time>2014-6-25T1:10:24Z</time></trkpt>
<trkpt lat="48.11394740" lon="-72.24479570"><ele></ele><time>2014-6-25T1:10:27Z</time></trkpt>
<trkpt lat="48.11395130" lon="-72.24477650"><ele></ele><time>2014-6-25T1:10:30Z</time></trkpt>
<trkpt lat="48.11395510" lon="-72.24475780"><ele></ele><time>2014-6-25T1:10:33Z</time></trkpt>
<trkpt lat="48.11395910" lon="-72.24473890"><ele></ele><time>2014-6-25T1:10:36Z</time></trkpt>
<trkpt lat="48.11396330" lon="-72.24472060"><ele></ele><time>2014-6-25T1:10:39Z</time></trkpt>
<trkpt lat="48.11397590" lon="-72.24466640"><ele></ele><time>2014-6-25T1:10:42Z</time></trkpt>
<trkpt lat="48.11398060" lon="-72.24464820"><ele></ele><time>2014-6-25T1:10:45Z</time></trkpt>
<trkpt lat="48.11398960" lon="-72.24461270"><ele></ele><time>2014-6-25T1:10:48Z</time></trkpt>
<trkpt lat="48.11399370" lon="-72.24459490"><ele></ele><time>2014-6-25T1:10:51Z</time></trkpt>
<trkpt lat="48.11399750" lon="-72.24457670"><ele></ele><time>2014-6-25T1:10:54Z</time></trkpt>
<trkpt lat="48.11400140" lon="-72.24455900"><ele></ele><time>2014-6-25T1:10:57Z</time></trkpt>
<trkpt lat="48.11400550" lon="-72.24454130"><ele></ele><time>2014-6-25T1:11:0Z</time></trkpt>
<trkpt lat="48.11400990" lon="-72.24452310"><ele></ele><time>2014-6-25T1:11:3Z</time></trkpt>
<trkpt lat="48.11401430" lon="-72.24450580"><ele></ele><time>2014-6-25T1:11:6Z</time></trkpt>
<trkpt lat="48.11402340" lon="-72.24447070"><ele></ele><time>2014-6-25T1:11:9Z</time></trkpt>
<trkpt lat="48.11402750" lon="-72.24445340"><ele></ele><time>2014-6-25T1:11:12Z</time></trkpt>
<trkpt lat="48.11403160" lon="-72.24443560"><ele></ele><time>2014-6-25T1:11:15Z</time></trkpt>
<trkpt lat="48.11404040" lon="-72.24440130"><ele></ele><time>2014-6-25T1:11:18Z</time></trkpt>
<trkpt lat="48.11404530" lon="-72.24438480"><ele></ele><time>2014-6-25T1:11:21Z</time></trkpt>
<trkpt lat="48.11405050" lon="-72.24436840"><ele></ele><time>2014-6-25T1:11:24Z</time></trkpt>
<trkpt lat="48.11405610" lon="-72.24435260"><ele></ele><time>2014-6-25T1:11:27Z</time></trkpt>
<trkpt lat="48.11406230" lon="-72.24433840"><ele></ele><time>2014-6-25T1:11:30Z</time></trkpt>
<trkpt lat="48.11406940" lon="-72.24432410"><ele></ele><time>2014-6-25T1:11:33Z</time></trkpt>
<trkpt lat="48.11407660" lon="-72.24431000"><ele></ele><time>2014-6-25T1:11:36Z</time></trkpt>
<trkpt lat="48.11408400" lon="-72.24429670"><ele></ele><time>2014-6-25T1:11:39Z</time></trkpt>
<trkpt lat="48.11409960" lon="-72.24427110"><ele></ele><time>2014-6-25T1:11:42Z</time></trkpt>
<trkpt lat="48.11410800" lon="-72.24425900"><ele></ele><time>2014-6-25T1:11:45Z</time></trkpt>
<trkpt lat="48.11411700" lon="-72.24424650"><ele></ele><time>2014-6-25T1:11:48Z</time></trkpt>
<trkpt lat="48.11413470" lon="-72.24422260"><ele></ele><time>2014-6-25T1:11:51Z</time></trkpt>
<trkpt lat="48.11414370" lon="-72.24420990"><ele></ele><time>2014-6-25T1:11:54Z</time></trkpt>
<trkpt lat="48.11415200" lon="-72.24419790"><ele></ele><time>2014-6-25T1:11:57Z</time></trkpt>
<trkpt lat="48.11416020" lon="-72.24418600"><ele></ele><time>2014-6-25T1:12:0Z</time></trkpt>
<trkpt lat="48.11416860" lon="-72.24417280"><ele></ele><time>2014-6-25T1:12:3Z</time></trkpt>
<trkpt lat="48.11417640" lon="-72.24415970"><ele></ele><time>2014-6-25T1:12:6Z</time></trkpt>
<trkpt lat="48.11418440" lon="-72.24414640"><ele></ele><time>2014-6-25T1:12:9Z</time></trkpt>
<trkpt lat="48.11421180" lon="-72.24409810"><ele></ele><time>2014-6-25T1:12:12Z</time></trkpt>
<trkpt lat="48.11423700" lon="-72.24405780"><ele></ele><time>2014-6-25T1:12:15Z</time></trkpt>
<trkpt lat="48.11424540" lon="-72.24404690"><ele></ele><time>2014-6-25T1:12:18Z</time></trkpt>
<trkpt lat="48.11425450" lon="-72.24403720"><ele></ele><time>2014-6-25T1:12:21Z</time></trkpt>
<trkpt lat="48.11426320" lon="-72.24402680"><ele></ele><time>2014-6-25T1:12:24Z</time></trkpt>
<trkpt lat="48.11427120" lon="-72.24401670"><ele></ele><time>2014-6-25T1:12:27Z</time></trkpt>
<trkpt lat="48.11427910" lon="-72.24400740"><ele></ele><time>2014-6-25T1:12:30Z</time></trkpt>
<trkpt lat="48.11428680" lon="-72.24399780"><ele></ele><time>2014-6-25T1:12:33Z</time></trkpt>
<trkpt lat="48.11430100" lon="-72.24397920"><ele></ele><time>2014-6-25T1:12:36Z</time></trkpt>
<trkpt lat="48.11430760" lon="-72.24397040"><ele></ele><time>2014-6-25T1:12:39Z</time></trkpt>
<trkpt lat="48.11432700" lon="-72.24394500"><ele></ele><time>2014-6-25T1:12:42Z</time></trkpt>
<trkpt lat="48.11433260" lon="-72.24393680"><ele></ele><time>2014-6-25T1:12:45Z</time></trkpt>
<trkpt lat="48.11433820" lon="-72.24392800"><ele></ele><time>2014-6-25T1:12:48Z</time></trkpt>
<trkpt lat="48.11434280" lon="-72.24391880"><ele></ele><time>2014-6-25T1:12:51Z</time></trkpt>
<trkpt lat="48.11434720" lon="-72.24390980"><ele></ele><time>2014-6-25T1:12:54Z</time></trkpt>
<trkpt lat="48.11435130" lon="-72.24390060"><ele></ele><time>2014-6-25T1:12:57Z</time></trkpt>
<trkpt lat="48.11435500" lon="-72.24389160"><ele></ele><time>2014-6-25T1:13:0Z</time></trkpt>
<trkpt lat="48.11436140" lon="-72.24387470"><ele></ele><time>2014-6-25T1:13:3Z</time></trkpt>
<trkpt lat="48.11436460" lon="-72.24386640"><ele></ele><time>2014-6-25T1:13:6Z</time></trkpt>
<trkpt lat="48.11437360" lon="-72.24383870"><ele></ele><time>2014-6-25T1:13:9Z</time></trkpt>
<trkpt lat="48.11437590" lon="-72.24383010"><ele></ele><time>2014-6-25T1:13:12Z</time></trkpt>
<trkpt lat="48.11437860" lon="-72.24382100"><ele></ele><time>2014-6-25T1:13:15Z</time></trkpt>
<trkpt lat="48.11438130" lon="-72.24381150"><ele></ele><time>2014-6-25T1:13:18Z</time></trkpt>
<trkpt lat="48.11438380" lon="-72.24380280"><ele></ele><time>2014-6-25T1:13:21Z</time></trkpt>
<trkpt lat="48.11438570" lon="-72.24379330"><ele></ele><time>2014-6-25T1:13:24Z</time></trkpt>
<trkpt lat="48.11438760" lon="-72.24378450"><ele></ele><time>2014-6-25T1:13:27Z</time></trkpt>
<trkpt lat="48.11439000" lon="-72.24377150"><ele></ele><time>2014-6-25T1:13:30Z</time></trkpt>
<trkpt lat="48.11439050" lon="-72.24376520"><ele></ele><time>2014-6-25T1:13:33Z</time></trkpt>
<trkpt lat="48.11439180" lon="-72.24374830"><ele></ele><time>2014-6-25T1:13:36Z</time></trkpt>
<trkpt lat="48.11439230" lon="-72.24374250"><ele></ele><time>2014-6-25T1:13:39Z</time></trkpt>
<trkpt lat="48.11439340" lon="-72.24373540"><ele></ele><time>2014-6-25T1:13:42Z</time></trkpt>
<trkpt lat="48.11439450" lon="-72.24372770"><ele></ele><time>2014-6-25T1:13:45Z</time></trkpt>
<trkpt lat="48.11439560" lon="-72.24372000"><ele></ele><time>2014-6-25T1:13:48Z</time></trkpt>
<trkpt lat="48.11439610" lon="-72.24371100"><ele></ele><time>2014-6-25T1:13:51Z</time></trkpt>
<trkpt lat="48.11439640" lon="-72.24370200"><ele></ele><time>2014-6-25T1:13:54Z</time></trkpt>
<trkpt lat="48.11439590" lon="-72.24368540"><ele></ele><time>2014-6-25T1:13:57Z</time></trkpt>
<trkpt lat="48.11439520" lon="-72.24367770"><ele></ele><time>2014-6-25T1:14:0Z</time></trkpt>
<trkpt lat="48.11439430" lon="-72.24367040"><ele></ele><time>2014-6-25T1:14:3Z</time></trkpt>
<trkpt lat="48.11439050" lon="-72.24365630"><ele></ele><time>2014-6-25T1:14:6Z</time></trkpt>
<trkpt lat="48.11438880" lon="-72.24365160"><ele></ele><time>2014-6-25T1:14:9Z</time></trkpt>
<trkpt lat="48.11438740" lon="-72.24364620"><ele></ele><time>2014-6-25T1:14:12Z</time></trkpt>
<trkpt lat="48.11438670" lon="-72.24364150"><ele></ele><time>2014-6-25T1:14:15Z</time></trkpt>
<trkpt lat="48.11438620" lon="-72.24363710"><ele></ele><time>2014-6-25T1:14:18Z</time></trkpt>
<trkpt lat="48.11438620" lon="-72.24363280"><ele></ele><time>2014-6-25T1:14:21Z</time></trkpt>
<trkpt lat="48.11438640" lon="-72.24363080"><ele></ele><time>2014-6-25T1:14:24Z</time></trkpt>
<trkpt lat="48.11438650" lon="-72.24362840"><ele></ele><time>2014-6-25T1:14:27Z</time></trkpt>
<trkpt lat="48.11438690" lon="-72.24362160"><ele></ele><time>2014-6-25T1:14:30Z</time></trkpt>
<trkpt lat="48.11438680" lon="-72.24361750"><ele></ele><time>2014-6-25T1:14:33Z</time></trkpt>
<trkpt lat="48.11438530" lon="-72.24360450"><ele></ele><time>2014-6-25T1:14:36Z</time></trkpt>
<trkpt lat="48.11438420" lon="-72.24359970"><ele></ele><time>2014-6-25T1:14:39Z</time></trkpt>
<trkpt lat="48.11438350" lon="-72.24359420"><ele></ele><time>2014-6-25T1:14:42Z</time></trkpt>
<trkpt lat="48.11438290" lon="-72.24359010"><ele></ele><time>2014-6-25T1:14:45Z</time></trkpt>
<trkpt lat="48.11438200" lon="-72.24358490"><ele></ele><time>2014-6-25T1:14:48Z</time></trkpt>
<trkpt lat="48.11438180" lon="-72.24357960"><ele></ele><time>2014-6-25T1:14:51Z</time></trkpt>
<trkpt lat="48.11438120" lon="-72.24357480"><ele></ele><time>2014-6-25T1:14:54Z</time></trkpt>
<trkpt lat="48.11437940" lon="-72.24355970"><ele></ele><time>2014-6-25T1:14:57Z</time></trkpt>
<trkpt lat="48.11437770" lon="-72.24354200"><ele></ele><time>2014-6-25T1:15:0Z</time></trkpt>
<trkpt lat="48.11437690" lon="-72.24353550"><ele></ele><time>2014-6-25T1:15:3Z</time></trkpt>
<trkpt lat="48.11437620" lon="-72.24352960"><ele></ele><time>2014-6-25T1:15:6Z</time></trkpt>
<trkpt lat="48.11437540" lon="-72.24352430"><ele></ele><time>2014-6-25T1:15:9Z</time></trkpt>
<trkpt lat="48.11437480" lon="-72.24351880"><ele></ele><time>2014-6-25T1:15:12Z</time></trkpt>
<trkpt lat="48.11437430" lon="-72.24351400"><ele></ele><time>2014-6-25T1:15:15Z</time></trkpt>
<trkpt lat="48.11437360" lon="-72.24350940"><ele></ele><time>2014-6-25T1:15:18Z</time></trkpt>
<trkpt lat="48.11437320" lon="-72.24350440"><ele></ele><time>2014-6-25T1:15:21Z</time></trkpt>
<trkpt lat="48.11437290" lon="-72.24349570"><ele></ele><time>2014-6-25T1:15:24Z</time></trkpt>
<trkpt lat="48.11437470" lon="-72.24348470"><ele></ele><time>2014-6-25T1:15:27Z</time></trkpt>
<trkpt lat="48.11437570" lon="-72.24348020"><ele></ele><time>2014-6-25T1:15:30Z</time></trkpt>
<trkpt lat="48.11437680" lon="-72.24347580"><ele></ele><time>2014-6-25T1:15:33Z</time></trkpt>
<trkpt lat="48.11437790" lon="-72.24347090"><ele></ele><time>2014-6-25T1:15:36Z</time></trkpt>
<trkpt lat="48.11437900" lon="-72.24346580"><ele></ele><time>2014-6-25T1:15:39Z</time></trkpt>
<trkpt lat="48.11438040" lon="-72.24346030"><ele></ele><time>2014-6-25T1:15:42Z</time></trkpt>
<trkpt lat="48.11438170" lon="-72.24345560"><ele></ele><time>2014-6-25T1:15:45Z</time></trkpt>
<trkpt lat="48.11439040" lon="-72.24343640"><ele></ele><time>2014-6-25T1:15:48Z</time></trkpt>
<trkpt lat="48.11440100" lon="-72.24341550"><ele></ele><time>2014-6-25T1:15:51Z</time></trkpt>
<trkpt lat="48.11440500" lon="-72.24340570"><ele></ele><time>2014-6-25T1:15:54Z</time></trkpt>
<trkpt lat="48.11440760" lon="-72.24339960"><ele></ele><time>2014-6-25T1:15:57Z</time></trkpt>
<trkpt lat="48.11440960" lon="-72.24339300"><ele></ele><time>2014-6-25T1:16:0Z</time></trkpt>
<trkpt lat="48.11441180" lon="-72.24338620"><ele></ele><time>2014-6-25T1:16:3Z</time></trkpt>
<trkpt lat="48.11441360" lon="-72.24337980"><ele></ele><time>2014-6-25T1:16:6Z</time></trkpt>
<trkpt lat="48.11441780" lon="-72.24336020"><ele></ele><time>2014-6-25T1:16:9Z</time></trkpt>
<trkpt lat="48.11441780" lon="-72.24334580"><ele></ele><time>2014-6-25T1:16:12Z</time></trkpt>
<trkpt lat="48.11441730" lon="-72.24333940"><ele></ele><time>2014-6-25T1:16:15Z</time></trkpt>
<trkpt lat="48.11441620" lon="-72.24333310"><ele></ele><time>2014-6-25T1:16:18Z</time></trkpt>
<trkpt lat="48.11441400" lon="-72.24332700"><ele></ele><time>2014-6-25T1:16:21Z</time></trkpt>
<trkpt lat="48.11441130" lon="-72.24332190"><ele></ele><time>2014-6-25T1:16:24Z</time></trkpt>
<trkpt lat="48.11440800" lon="-72.24331620"><ele></ele><time>2014-6-25T1:16:27Z</time></trkpt>
<trkpt lat="48.11440400" lon="-72.24331080"><ele></ele><time>2014-6-25T1:16:30Z</time></trkpt>
<trkpt lat="48.11439990" lon="-72.24330610"><ele></ele><time>2014-6-25T1:16:33Z</time></trkpt>
<trkpt lat="48.11439550" lon="-72.24330050"><ele></ele><time>2014-6-25T1:16:36Z</time></trkpt>
<trkpt lat="48.11438510" lon="-72.24327960"><ele></ele><time>2014-6-25T1:16:39Z</time></trkpt>
<trkpt lat="48.11438330" lon="-72.24327130"><ele></ele><time>2014-6-25T1:16:42Z</time></trkpt>
<trkpt lat="48.11437950" lon="-72.24324280"><ele></ele><time>2014-6-25T1:16:45Z</time></trkpt>
<trkpt lat="48.11437960" lon="-72.24323200"><ele></ele><time>2014-6-25T1:16:48Z</time></trkpt>
<trkpt lat="48.11438030" lon="-72.24322010"><ele></ele><time>2014-6-25T1:16:51Z</time></trkpt>
<trkpt lat="48.11438270" lon="-72.24320820"><ele></ele><time>2014-6-25T1:16:54Z</time></trkpt>
<trkpt lat="48.11438760" lon="-72.24319840"><ele></ele><time>2014-6-25T1:16:57Z</time></trkpt>
<trkpt lat="48.11439290" lon="-72.24318860"><ele></ele><time>2014-6-25T1:17:0Z</time></trkpt>
<trkpt lat="48.11439950" lon="-72.24318030"><ele></ele><time>2014-6-25T1:17:3Z</time></trkpt>
<trkpt lat="48.11440440" lon="-72.24317040"><ele></ele><time>2014-6-25T1:17:6Z</time></trkpt>
<trkpt lat="48.11441430" lon="-72.24315070"><ele></ele><time>2014-6-25T1:17:9Z</time></trkpt>
<trkpt lat="48.11441870" lon="-72.24314160"><ele></ele><time>2014-6-25T1:17:12Z</time></trkpt>
<trkpt lat="48.11442310" lon="-72.24313350"><ele></ele><time>2014-6-25T1:17:15Z</time></trkpt>
<trkpt lat="48.11443110" lon="-72.24312020"><ele></ele><time>2014-6-25T1:17:18Z</time></trkpt>
<trkpt lat="48.11443520" lon="-72.24311430"><ele></ele><time>2014-6-25T1:17:21Z</time></trkpt>
<trkpt lat="48.11443910" lon="-72.24311000"><ele></ele><time>2014-6-25T1:17:24Z</time></trkpt>
<trkpt lat="48.11444440" lon="-72.24310790"><ele></ele><time>2014-6-25T1:17:27Z</time></trkpt>
<trkpt lat="48.11444970" lon="-72.24310620"><ele></ele><time>2014-6-25T1:17:30Z</time></trkpt>
<trkpt lat="48.11445470" lon="-72.24310570"><ele></ele><time>2014-6-25T1:17:33Z</time></trkpt>
<trkpt lat="48.11445950" lon="-72.24310690"><ele></ele><time>2014-6-25T1:17:36Z</time></trkpt>
<trkpt lat="48.11447170" lon="-72.24311630"><ele></ele><time>2014-6-25T1:17:39Z</time></trkpt>
<trkpt lat="48.11448440" lon="-72.24312650"><ele></ele><time>2014-6-25T1:17:42Z</time></trkpt>
<trkpt lat="48.11449200" lon="-72.24313370"><ele></ele><time>2014-6-25T1:17:45Z</time></trkpt>
<trkpt lat="48.11449530" lon="-72.24313730"><ele></ele><time>2014-6-25T1:17:48Z</time></trkpt>
<trkpt lat="48.11449620" lon="-72.24313610"><ele></ele><time>2014-6-25T1:17:51Z</time></trkpt>
<trkpt lat="48.11449710" lon="-72.24313240"><ele></ele><time>2014-6-25T1:17:54Z</time></trkpt>
<trkpt lat="48.11449720" lon="-72.24313030"><ele></ele><time>2014-6-25T1:17:57Z</time></trkpt>
<trkpt lat="48.11449720" lon="-72.24313030"><ele></ele><time>2014-6-25T1:18:0Z</time></trkpt>
<trkpt lat="48.11449590" lon="-72.24312140"><ele></ele><time>2014-6-25T1:18:3Z</time></trkpt>
<trkpt lat="48.11449590" lon="-72.24312140"><ele></ele><time>2014-6-25T1:18:6Z</time></trkpt>
<trkpt lat="48.11449450" lon="-72.24311640"><ele></ele><time>2014-6-25T1:18:9Z</time></trkpt>
<trkpt lat="48.11449380" lon="-72.24311420"><ele></ele><time>2014-6-25T1:18:12Z</time></trkpt>
<trkpt lat="48.11449380" lon="-72.24311420"><ele></ele><time>2014-6-25T1:18:15Z</time></trkpt>
<trkpt lat="48.11449280" lon="-72.24311050"><ele></ele><time>2014-6-25T1:18:18Z</time></trkpt>
<trkpt lat="48.11449250" lon="-72.24310860"><ele></ele><time>2014-6-25T1:18:21Z</time></trkpt>
<trkpt lat="48.11449250" lon="-72.24310860"><ele></ele><time>2014-6-25T1:18:24Z</time></trkpt>
<trkpt lat="48.11449330" lon="-72.24310980"><ele></ele><time>2014-6-25T1:18:27Z</time></trkpt>
<trkpt lat="48.11449330" lon="-72.24310980"><ele></ele><time>2014-6-25T1:18:30Z</time></trkpt>
<trkpt lat="48.11449360" lon="-72.24311440"><ele></ele><time>2014-6-25T1:18:33Z</time></trkpt>
<trkpt lat="48.11449370" lon="-72.24311700"><ele></ele><time>2014-6-25T1:18:36Z</time></trkpt>
<trkpt lat="48.11449370" lon="-72.24312460"><ele></ele><time>2014-6-25T1:18:39Z</time></trkpt>
<trkpt lat="48.11449370" lon="-72.24312670"><ele></ele><time>2014-6-25T1:18:42Z</time></trkpt>
<trkpt lat="48.11449410" lon="-72.24313340"><ele></ele><time>2014-6-25T1:18:45Z</time></trkpt>
<trkpt lat="48.11449450" lon="-72.24313940"><ele></ele><time>2014-6-25T1:18:48Z</time></trkpt>
<trkpt lat="48.11449450" lon="-72.24313940"><ele></ele><time>2014-6-25T1:18:51Z</time></trkpt>
<trkpt lat="48.11449520" lon="-72.24314850"><ele></ele><time>2014-6-25T1:18:54Z</time></trkpt>
<trkpt lat="48.11449570" lon="-72.24315130"><ele></ele><time>2014-6-25T1:18:57Z</time></trkpt>
<trkpt lat="48.11449620" lon="-72.24315710"><ele></ele><time>2014-6-25T1:19:0Z</time></trkpt>
<trkpt lat="48.11449620" lon="-72.24315710"><ele></ele><time>2014-6-25T1:19:3Z</time></trkpt>
<trkpt lat="48.11449560" lon="-72.24316030"><ele></ele><time>2014-6-25T1:19:6Z</time></trkpt>
<trkpt lat="48.11449520" lon="-72.24316210"><ele></ele><time>2014-6-25T1:19:9Z</time></trkpt>
<trkpt lat="48.11449460" lon="-72.24316310"><ele></ele><time>2014-6-25T1:19:12Z</time></trkpt>
<trkpt lat="48.11449460" lon="-72.24316310"><ele></ele><time>2014-6-25T1:19:15Z</time></trkpt>
<trkpt lat="48.11449340" lon="-72.24316340"><ele></ele><time>2014-6-25T1:19:18Z</time></trkpt>
<trkpt lat="48.11449260" lon="-72.24316370"><ele></ele><time>2014-6-25T1:19:21Z</time></trkpt>
<trkpt lat="48.11449200" lon="-72.24316160"><ele></ele><time>2014-6-25T1:19:24Z</time></trkpt>
<trkpt lat="48.11449150" lon="-72.24315880"><ele></ele><time>2014-6-25T1:19:27Z</time></trkpt>
<trkpt lat="48.11448950" lon="-72.24315660"><ele></ele><time>2014-6-25T1:19:30Z</time></trkpt>
<trkpt lat="48.11448440" lon="-72.24315320"><ele></ele><time>2014-6-25T1:19:33Z</time></trkpt>
<trkpt lat="48.11448440" lon="-72.24315320"><ele></ele><time>2014-6-25T1:19:36Z</time></trkpt>
<trkpt lat="48.11447410" lon="-72.24314630"><ele></ele><time>2014-6-25T1:19:39Z</time></trkpt>
<trkpt lat="48.11446940" lon="-72.24314080"><ele></ele><time>2014-6-25T1:19:42Z</time></trkpt>
<trkpt lat="48.11446450" lon="-72.24313720"><ele></ele><time>2014-6-25T1:19:45Z</time></trkpt>
<trkpt lat="48.11446030" lon="-72.24313430"><ele></ele><time>2014-6-25T1:19:48Z</time></trkpt>
<trkpt lat="48.11446030" lon="-72.24313430"><ele></ele><time>2014-6-25T1:19:51Z</time></trkpt>
<trkpt lat="48.11445270" lon="-72.24313010"><ele></ele><time>2014-6-25T1:19:54Z</time></trkpt>
<trkpt lat="48.11444920" lon="-72.24312820"><ele></ele><time>2014-6-25T1:19:57Z</time></trkpt>
</trkseg></trk></gpx>